<?xml version='1.0' encoding='UTF-8'?><gpx version="1.1" creator="JPX - https://github.com/jenetics/jpx" xmlns="http://www.topografix.com/GPX/1/1"><trk><trkseg><trkpt lat="43.2135033" lon="2.341275"><ele>111.0</ele><time>2026-04-06T15:13:11.696Z</time></trkpt><trkpt lat="43.2134033" lon="2.34122"><ele>111.0</ele><time>2026-04-06T15:13:14.696Z</time></trkpt><trkpt lat="43.213315" lon="2.3411983"><ele>111.0</ele><time>2026-04-06T15:13:16.699Z</time></trkpt><trkpt lat="43.2132267" lon="2.3411967"><ele>111.0</ele><time>2026-04-06T15:13:18.697Z</time></trkpt><trkpt lat="43.213205" lon="2.341115"><ele>111.0</ele><time>2026-04-06T15:13:21.697Z</time></trkpt><trkpt lat="43.2132217" lon="2.341025"><ele>111.0</ele><time>2026-04-06T15:13:23.696Z</time></trkpt><trkpt lat="43.2132533" lon="2.3409233"><ele>111.0</ele><time>2026-04-06T15:13:25.699Z</time></trkpt><trkpt lat="43.213325" lon="2.3407933"><ele>111.0</ele><time>2026-04-06T15:13:27.702Z</time></trkpt><trkpt lat="43.213365" lon="2.3406367"><ele>111.0</ele><time>2026-04-06T15:13:29.697Z</time></trkpt><trkpt lat="43.213395" lon="2.3405433"><ele>111.0</ele><time>2026-04-06T15:13:30.698Z</time></trkpt><trkpt lat="43.2134383" lon="2.3404317"><ele>111.0</ele><time>2026-04-06T15:13:31.699Z</time></trkpt><trkpt lat="43.2134683" lon="2.3403317"><ele>111.0</ele><time>2026-04-06T15:13:32.697Z</time></trkpt><trkpt lat="43.2135083" lon="2.3402217"><ele>111.0</ele><time>2026-04-06T15:13:33.7Z</time></trkpt><trkpt lat="43.2135333" lon="2.3401283"><ele>111.0</ele><time>2026-04-06T15:13:34.7Z</time></trkpt><trkpt lat="43.2135483" lon="2.340025"><ele>111.0</ele><time>2026-04-06T15:13:35.701Z</time></trkpt><trkpt lat="43.21356" lon="2.3399167"><ele>111.0</ele><time>2026-04-06T15:13:36.699Z</time></trkpt><trkpt lat="43.2135717" lon="2.339815"><ele>111.0</ele><time>2026-04-06T15:13:37.695Z</time></trkpt><trkpt lat="43.21358" lon="2.3397183"><ele>110.83333333333333</ele><time>2026-04-06T15:13:38.698Z</time></trkpt><trkpt lat="43.21358" lon="2.3396267"><ele>110.66666666666666</ele><time>2026-04-06T15:13:39.696Z</time></trkpt><trkpt lat="43.21359" lon="2.3394617"><ele>110.5</ele><time>2026-04-06T15:13:41.697Z</time></trkpt><trkpt lat="43.2136117" lon="2.3393"><ele>110.33333333333333</ele><time>2026-04-06T15:13:43.698Z</time></trkpt><trkpt lat="43.21362" lon="2.3392133"><ele>110.16666666666666</ele><time>2026-04-06T15:13:44.697Z</time></trkpt><trkpt lat="43.2136117" lon="2.3391117"><ele>110.0</ele><time>2026-04-06T15:13:45.695Z</time></trkpt><trkpt lat="43.2136133" lon="2.3390167"><ele>109.99999999999999</ele><time>2026-04-06T15:13:46.697Z</time></trkpt><trkpt lat="43.21361" lon="2.33892"><ele>110.0</ele><time>2026-04-06T15:13:47.697Z</time></trkpt><trkpt lat="43.2136017" lon="2.33883"><ele>110.0</ele><time>2026-04-06T15:13:48.695Z</time></trkpt><trkpt lat="43.2135867" lon="2.33874"><ele>110.0</ele><time>2026-04-06T15:13:49.696Z</time></trkpt><trkpt lat="43.21357" lon="2.3386533"><ele>109.99999999999999</ele><time>2026-04-06T15:13:50.697Z</time></trkpt><trkpt lat="43.2135133" lon="2.3384917"><ele>110.0</ele><time>2026-04-06T15:13:52.703Z</time></trkpt><trkpt lat="43.2135" lon="2.3383983"><ele>110.16666666666666</ele><time>2026-04-06T15:13:54.695Z</time></trkpt><trkpt lat="43.21347" lon="2.338285"><ele>110.33333333333333</ele><time>2026-04-06T15:13:56.696Z</time></trkpt><trkpt lat="43.2134683" lon="2.338145"><ele>110.5</ele><time>2026-04-06T15:13:58.699Z</time></trkpt><trkpt lat="43.2134683" lon="2.3380517"><ele>110.66666666666666</ele><time>2026-04-06T15:13:59.695Z</time></trkpt><trkpt lat="43.2134917" lon="2.3379317"><ele>110.83333333333333</ele><time>2026-04-06T15:14:00.697Z</time></trkpt><trkpt lat="43.21349" lon="2.3378067"><ele>111.0</ele><time>2026-04-06T15:14:01.696Z</time></trkpt><trkpt lat="43.2134733" lon="2.337675"><ele>111.16666666666667</ele><time>2026-04-06T15:14:02.697Z</time></trkpt><trkpt lat="43.2134517" lon="2.33755"><ele>111.33333333333334</ele><time>2026-04-06T15:14:03.697Z</time></trkpt><trkpt lat="43.2134183" lon="2.3374267"><ele>111.5</ele><time>2026-04-06T15:14:04.695Z</time></trkpt><trkpt lat="43.2133883" lon="2.3373133"><ele>111.66666666666667</ele><time>2026-04-06T15:14:05.698Z</time></trkpt><trkpt lat="43.2133633" lon="2.3372067"><ele>111.83333333333334</ele><time>2026-04-06T15:14:06.697Z</time></trkpt><trkpt lat="43.2133583" lon="2.337105"><ele>112.0</ele><time>2026-04-06T15:14:07.695Z</time></trkpt><trkpt lat="43.21336" lon="2.3370117"><ele>112.00000000000001</ele><time>2026-04-06T15:14:08.696Z</time></trkpt><trkpt lat="43.2133717" lon="2.3369217"><ele>112.0</ele><time>2026-04-06T15:14:09.698Z</time></trkpt><trkpt lat="43.2133883" lon="2.336765"><ele>112.0</ele><time>2026-04-06T15:14:11.695Z</time></trkpt><trkpt lat="43.21338" lon="2.3366417"><ele>112.0</ele><time>2026-04-06T15:14:13.695Z</time></trkpt><trkpt lat="43.2133033" lon="2.3365367"><ele>112.00000000000001</ele><time>2026-04-06T15:14:15.696Z</time></trkpt><trkpt lat="43.21324" lon="2.33651"><ele>112.0</ele><time>2026-04-06T15:14:16.696Z</time></trkpt><trkpt lat="43.21315" lon="2.3365017"><ele>112.16666666666667</ele><time>2026-04-06T15:14:17.704Z</time></trkpt><trkpt lat="43.2130833" lon="2.33649"><ele>112.33333333333334</ele><time>2026-04-06T15:14:18.696Z</time></trkpt><trkpt lat="43.21301" lon="2.3364467"><ele>112.5</ele><time>2026-04-06T15:14:19.696Z</time></trkpt><trkpt lat="43.2129333" lon="2.3364017"><ele>112.66666666666666</ele><time>2026-04-06T15:14:20.697Z</time></trkpt><trkpt lat="43.2128483" lon="2.3363583"><ele>112.83333333333333</ele><time>2026-04-06T15:14:21.697Z</time></trkpt><trkpt lat="43.2127617" lon="2.3363133"><ele>113.0</ele><time>2026-04-06T15:14:22.696Z</time></trkpt><trkpt lat="43.2126783" lon="2.3362767"><ele>113.16666666666666</ele><time>2026-04-06T15:14:23.697Z</time></trkpt><trkpt lat="43.2126067" lon="2.3362383"><ele>113.33333333333333</ele><time>2026-04-06T15:14:24.696Z</time></trkpt><trkpt lat="43.2125433" lon="2.3362017"><ele>113.5</ele><time>2026-04-06T15:14:25.697Z</time></trkpt><trkpt lat="43.2124767" lon="2.3361767"><ele>113.66666666666666</ele><time>2026-04-06T15:14:26.697Z</time></trkpt><trkpt lat="43.2123717" lon="2.3361317"><ele>113.83333333333333</ele><time>2026-04-06T15:14:28.697Z</time></trkpt><trkpt lat="43.2123217" lon="2.3360533"><ele>114.0</ele><time>2026-04-06T15:14:30.701Z</time></trkpt><trkpt lat="43.2123433" lon="2.3359433"><ele>114.0</ele><time>2026-04-06T15:14:32.697Z</time></trkpt><trkpt lat="43.2124083" lon="2.3358183"><ele>114.0</ele><time>2026-04-06T15:14:34.696Z</time></trkpt><trkpt lat="43.2124733" lon="2.3356917"><ele>114.0</ele><time>2026-04-06T15:14:36.696Z</time></trkpt><trkpt lat="43.2124517" lon="2.3355967"><ele>114.0</ele><time>2026-04-06T15:14:39.697Z</time></trkpt><trkpt lat="43.2123767" lon="2.335575"><ele>114.0</ele><time>2026-04-06T15:14:41.7Z</time></trkpt><trkpt lat="43.2122833" lon="2.3355617"><ele>115.2</ele><time>2026-04-06T15:14:43.696Z</time></trkpt><trkpt lat="43.2121483" lon="2.3355317"><ele>116.4</ele><time>2026-04-06T15:14:45.697Z</time></trkpt><trkpt lat="43.2120617" lon="2.33551"><ele>117.6</ele><time>2026-04-06T15:14:46.696Z</time></trkpt><trkpt lat="43.2119583" lon="2.3354917"><ele>118.8</ele><time>2026-04-06T15:14:47.696Z</time></trkpt><trkpt lat="43.2118567" lon="2.335465"><ele>120.0</ele><time>2026-04-06T15:14:48.696Z</time></trkpt><trkpt lat="43.2117617" lon="2.3354433"><ele>120.0</ele><time>2026-04-06T15:14:49.695Z</time></trkpt><trkpt lat="43.21167" lon="2.335425"><ele>120.0</ele><time>2026-04-06T15:14:50.696Z</time></trkpt><trkpt lat="43.2115883" lon="2.3354033"><ele>120.0</ele><time>2026-04-06T15:14:51.698Z</time></trkpt><trkpt lat="43.211515" lon="2.3353883"><ele>120.0</ele><time>2026-04-06T15:14:52.696Z</time></trkpt><trkpt lat="43.2114517" lon="2.3353767"><ele>120.0</ele><time>2026-04-06T15:14:53.695Z</time></trkpt><trkpt lat="43.2113433" lon="2.3353667"><ele>120.0</ele><time>2026-04-06T15:14:55.696Z</time></trkpt><trkpt lat="43.2112467" lon="2.3353533"><ele>120.16666666666667</ele><time>2026-04-06T15:14:57.697Z</time></trkpt><trkpt lat="43.211185" lon="2.3353233"><ele>120.33333333333334</ele><time>2026-04-06T15:15:00.702Z</time></trkpt><trkpt lat="43.21112" lon="2.3353317"><ele>120.5</ele><time>2026-04-06T15:15:43.701Z</time></trkpt><trkpt lat="43.21105" lon="2.33526"><ele>120.66666666666667</ele><time>2026-04-06T15:15:46.703Z</time></trkpt><trkpt lat="43.211055" lon="2.3351567"><ele>120.83333333333334</ele><time>2026-04-06T15:15:47.704Z</time></trkpt><trkpt lat="43.211055" lon="2.3350467"><ele>121.0</ele><time>2026-04-06T15:15:48.705Z</time></trkpt><trkpt lat="43.21106" lon="2.3349117"><ele>121.0</ele><time>2026-04-06T15:15:49.702Z</time></trkpt><trkpt lat="43.2110683" lon="2.33477"><ele>121.0</ele><time>2026-04-06T15:15:50.699Z</time></trkpt><trkpt lat="43.2110683" lon="2.3346267"><ele>121.0</ele><time>2026-04-06T15:15:51.702Z</time></trkpt><trkpt lat="43.21107" lon="2.3344733"><ele>121.0</ele><time>2026-04-06T15:15:52.705Z</time></trkpt><trkpt lat="43.21107" lon="2.334305"><ele>121.0</ele><time>2026-04-06T15:15:53.701Z</time></trkpt><trkpt lat="43.211075" lon="2.3341383"><ele>121.25</ele><time>2026-04-06T15:15:54.704Z</time></trkpt><trkpt lat="43.2110867" lon="2.3339817"><ele>121.5</ele><time>2026-04-06T15:15:55.702Z</time></trkpt><trkpt lat="43.2111" lon="2.3338233"><ele>121.75</ele><time>2026-04-06T15:15:56.699Z</time></trkpt><trkpt lat="43.2111117" lon="2.333665"><ele>122.0</ele><time>2026-04-06T15:15:57.701Z</time></trkpt><trkpt lat="43.2111283" lon="2.3334967"><ele>122.0</ele><time>2026-04-06T15:15:58.701Z</time></trkpt><trkpt lat="43.2111417" lon="2.3333733"><ele>121.99999999999999</ele><time>2026-04-06T15:15:59.705Z</time></trkpt><trkpt lat="43.2111567" lon="2.3332517"><ele>121.99999999999999</ele><time>2026-04-06T15:16:00.707Z</time></trkpt><trkpt lat="43.2111767" lon="2.333125"><ele>122.0</ele><time>2026-04-06T15:16:01.695Z</time></trkpt><trkpt lat="43.211195" lon="2.3329983"><ele>122.0</ele><time>2026-04-06T15:16:02.696Z</time></trkpt><trkpt lat="43.211215" lon="2.33286"><ele>121.25</ele><time>2026-04-06T15:16:03.696Z</time></trkpt><trkpt lat="43.2112433" lon="2.3327167"><ele>120.5</ele><time>2026-04-06T15:16:04.701Z</time></trkpt><trkpt lat="43.2112783" lon="2.3325717"><ele>119.75</ele><time>2026-04-06T15:16:05.704Z</time></trkpt><trkpt lat="43.2113167" lon="2.332415"><ele>119.0</ele><time>2026-04-06T15:16:06.7Z</time></trkpt><trkpt lat="43.2113567" lon="2.33225"><ele>118.75</ele><time>2026-04-06T15:16:07.701Z</time></trkpt><trkpt lat="43.2114033" lon="2.3320767"><ele>118.5</ele><time>2026-04-06T15:16:08.701Z</time></trkpt><trkpt lat="43.2114617" lon="2.3319083"><ele>118.25</ele><time>2026-04-06T15:16:09.703Z</time></trkpt><trkpt lat="43.21152" lon="2.3317317"><ele>118.0</ele><time>2026-04-06T15:16:10.702Z</time></trkpt><trkpt lat="43.211575" lon="2.331545"><ele>117.75</ele><time>2026-04-06T15:16:11.706Z</time></trkpt><trkpt lat="43.21163" lon="2.331355"><ele>117.5</ele><time>2026-04-06T15:16:12.702Z</time></trkpt><trkpt lat="43.2116883" lon="2.3311717"><ele>117.25</ele><time>2026-04-06T15:16:13.701Z</time></trkpt><trkpt lat="43.211755" lon="2.3310183"><ele>117.0</ele><time>2026-04-06T15:16:14.701Z</time></trkpt><trkpt lat="43.2118083" lon="2.3308717"><ele>117.0</ele><time>2026-04-06T15:16:15.703Z</time></trkpt><trkpt lat="43.2118533" lon="2.3307233"><ele>116.99999999999999</ele><time>2026-04-06T15:16:16.702Z</time></trkpt><trkpt lat="43.2118933" lon="2.3305917"><ele>116.99999999999999</ele><time>2026-04-06T15:16:17.703Z</time></trkpt><trkpt lat="43.2119283" lon="2.33045"><ele>117.0</ele><time>2026-04-06T15:16:18.706Z</time></trkpt><trkpt lat="43.2119783" lon="2.330335"><ele>117.0</ele><time>2026-04-06T15:16:19.704Z</time></trkpt><trkpt lat="43.2120367" lon="2.3302483"><ele>116.8</ele><time>2026-04-06T15:16:20.701Z</time></trkpt><trkpt lat="43.2120817" lon="2.3301517"><ele>116.6</ele><time>2026-04-06T15:16:21.706Z</time></trkpt><trkpt lat="43.2121233" lon="2.3300583"><ele>116.39999999999999</ele><time>2026-04-06T15:16:22.698Z</time></trkpt><trkpt lat="43.2121533" lon="2.3299467"><ele>116.19999999999999</ele><time>2026-04-06T15:16:23.704Z</time></trkpt><trkpt lat="43.2121767" lon="2.3298183"><ele>116.0</ele><time>2026-04-06T15:16:24.701Z</time></trkpt><trkpt lat="43.212185" lon="2.3296633"><ele>116.0</ele><time>2026-04-06T15:16:25.701Z</time></trkpt><trkpt lat="43.2122167" lon="2.329495"><ele>116.0</ele><time>2026-04-06T15:16:26.705Z</time></trkpt><trkpt lat="43.2122533" lon="2.3293017"><ele>116.0</ele><time>2026-04-06T15:16:27.699Z</time></trkpt><trkpt lat="43.2122967" lon="2.3291083"><ele>116.0</ele><time>2026-04-06T15:16:28.705Z</time></trkpt><trkpt lat="43.2123417" lon="2.3289133"><ele>116.66666666666666</ele><time>2026-04-06T15:16:29.7Z</time></trkpt><trkpt lat="43.2123883" lon="2.3287133"><ele>117.33333333333334</ele><time>2026-04-06T15:16:30.699Z</time></trkpt><trkpt lat="43.2124317" lon="2.3285033"><ele>118.0</ele><time>2026-04-06T15:16:31.698Z</time></trkpt><trkpt lat="43.2124783" lon="2.3282967"><ele>118.0</ele><time>2026-04-06T15:16:32.705Z</time></trkpt><trkpt lat="43.212515" lon="2.3280833"><ele>118.0</ele><time>2026-04-06T15:16:33.701Z</time></trkpt><trkpt lat="43.2125483" lon="2.327865"><ele>118.0</ele><time>2026-04-06T15:16:34.696Z</time></trkpt><trkpt lat="43.2125833" lon="2.327645"><ele>117.33333333333334</ele><time>2026-04-06T15:16:35.699Z</time></trkpt><trkpt lat="43.2126217" lon="2.32743"><ele>116.66666666666666</ele><time>2026-04-06T15:16:36.705Z</time></trkpt><trkpt lat="43.2126733" lon="2.32721"><ele>116.0</ele><time>2026-04-06T15:16:37.704Z</time></trkpt><trkpt lat="43.2127267" lon="2.3269917"><ele>115.0</ele><time>2026-04-06T15:16:38.701Z</time></trkpt><trkpt lat="43.2127817" lon="2.326775"><ele>114.0</ele><time>2026-04-06T15:16:39.701Z</time></trkpt><trkpt lat="43.2128383" lon="2.3265633"><ele>113.0</ele><time>2026-04-06T15:16:40.701Z</time></trkpt><trkpt lat="43.2128917" lon="2.3263467"><ele>112.0</ele><time>2026-04-06T15:16:41.707Z</time></trkpt><trkpt lat="43.2129483" lon="2.3261317"><ele>111.0</ele><time>2026-04-06T15:16:42.705Z</time></trkpt><trkpt lat="43.213" lon="2.3259183"><ele>110.0</ele><time>2026-04-06T15:16:43.698Z</time></trkpt><trkpt lat="43.2130533" lon="2.3257117"><ele>110.33333333333333</ele><time>2026-04-06T15:16:44.706Z</time></trkpt><trkpt lat="43.213115" lon="2.32551"><ele>110.66666666666666</ele><time>2026-04-06T15:16:45.702Z</time></trkpt><trkpt lat="43.2131883" lon="2.3253117"><ele>111.0</ele><time>2026-04-06T15:16:46.702Z</time></trkpt><trkpt lat="43.213265" lon="2.3251167"><ele>111.0</ele><time>2026-04-06T15:16:47.7Z</time></trkpt><trkpt lat="43.2133383" lon="2.324925"><ele>111.0</ele><time>2026-04-06T15:16:48.702Z</time></trkpt><trkpt lat="43.21341" lon="2.3247417"><ele>111.0</ele><time>2026-04-06T15:16:49.702Z</time></trkpt><trkpt lat="43.213475" lon="2.3245733"><ele>111.0</ele><time>2026-04-06T15:16:50.706Z</time></trkpt><trkpt lat="43.21354" lon="2.3244133"><ele>110.75</ele><time>2026-04-06T15:16:51.7Z</time></trkpt><trkpt lat="43.2136017" lon="2.324265"><ele>110.5</ele><time>2026-04-06T15:16:52.702Z</time></trkpt><trkpt lat="43.21366" lon="2.3241267"><ele>110.25</ele><time>2026-04-06T15:16:53.704Z</time></trkpt><trkpt lat="43.21372" lon="2.3239933"><ele>110.0</ele><time>2026-04-06T15:16:54.703Z</time></trkpt><trkpt lat="43.2137883" lon="2.323865"><ele>110.5</ele><time>2026-04-06T15:16:55.706Z</time></trkpt><trkpt lat="43.2138733" lon="2.3237383"><ele>111.0</ele><time>2026-04-06T15:16:56.704Z</time></trkpt><trkpt lat="43.2139633" lon="2.3235933"><ele>111.5</ele><time>2026-04-06T15:16:57.701Z</time></trkpt><trkpt lat="43.214055" lon="2.323415"><ele>112.0</ele><time>2026-04-06T15:16:58.704Z</time></trkpt><trkpt lat="43.2141583" lon="2.3232083"><ele>113.0</ele><time>2026-04-06T15:16:59.702Z</time></trkpt><trkpt lat="43.214275" lon="2.3229833"><ele>114.0</ele><time>2026-04-06T15:17:00.704Z</time></trkpt><trkpt lat="43.2144083" lon="2.3227483"><ele>115.0</ele><time>2026-04-06T15:17:01.706Z</time></trkpt><trkpt lat="43.2145533" lon="2.3225067"><ele>115.0</ele><time>2026-04-06T15:17:02.706Z</time></trkpt><trkpt lat="43.2147017" lon="2.3222583"><ele>115.0</ele><time>2026-04-06T15:17:03.703Z</time></trkpt><trkpt lat="43.2148483" lon="2.3219883"><ele>115.0</ele><time>2026-04-06T15:17:04.706Z</time></trkpt><trkpt lat="43.2149933" lon="2.3217017"><ele>115.0</ele><time>2026-04-06T15:17:05.704Z</time></trkpt><trkpt lat="43.215135" lon="2.3213983"><ele>115.0</ele><time>2026-04-06T15:17:06.701Z</time></trkpt><trkpt lat="43.2152833" lon="2.3210783"><ele>115.0</ele><time>2026-04-06T15:17:07.7Z</time></trkpt><trkpt lat="43.21543" lon="2.32075"><ele>116.0</ele><time>2026-04-06T15:17:08.706Z</time></trkpt><trkpt lat="43.21558" lon="2.3204183"><ele>117.0</ele><time>2026-04-06T15:17:09.702Z</time></trkpt><trkpt lat="43.2157317" lon="2.3200883"><ele>117.0</ele><time>2026-04-06T15:17:10.703Z</time></trkpt><trkpt lat="43.2158783" lon="2.31976"><ele>117.0</ele><time>2026-04-06T15:17:11.705Z</time></trkpt><trkpt lat="43.21602" lon="2.3194267"><ele>118.0</ele><time>2026-04-06T15:17:12.706Z</time></trkpt><trkpt lat="43.2161533" lon="2.3190833"><ele>119.0</ele><time>2026-04-06T15:17:13.705Z</time></trkpt><trkpt lat="43.2162733" lon="2.3187317"><ele>120.0</ele><time>2026-04-06T15:17:14.704Z</time></trkpt><trkpt lat="43.2163783" lon="2.3183767"><ele>121.0</ele><time>2026-04-06T15:17:15.701Z</time></trkpt><trkpt lat="43.216475" lon="2.3180233"><ele>121.5</ele><time>2026-04-06T15:17:16.704Z</time></trkpt><trkpt lat="43.21656" lon="2.31767"><ele>122.0</ele><time>2026-04-06T15:17:17.701Z</time></trkpt><trkpt lat="43.216635" lon="2.3173067"><ele>122.0</ele><time>2026-04-06T15:17:18.701Z</time></trkpt><trkpt lat="43.2166983" lon="2.3169467"><ele>122.0</ele><time>2026-04-06T15:17:19.704Z</time></trkpt><trkpt lat="43.2167517" lon="2.31658"><ele>122.5</ele><time>2026-04-06T15:17:20.703Z</time></trkpt><trkpt lat="43.2167967" lon="2.3162083"><ele>123.0</ele><time>2026-04-06T15:17:21.702Z</time></trkpt><trkpt lat="43.2168367" lon="2.315835"><ele>123.5</ele><time>2026-04-06T15:17:22.704Z</time></trkpt><trkpt lat="43.21688" lon="2.3154633"><ele>124.0</ele><time>2026-04-06T15:17:23.705Z</time></trkpt><trkpt lat="43.2169233" lon="2.3150967"><ele>125.5</ele><time>2026-04-06T15:17:24.702Z</time></trkpt><trkpt lat="43.21697" lon="2.3147283"><ele>127.0</ele><time>2026-04-06T15:17:25.703Z</time></trkpt><trkpt lat="43.2170167" lon="2.3143567"><ele>127.0</ele><time>2026-04-06T15:17:26.705Z</time></trkpt><trkpt lat="43.2170617" lon="2.313985"><ele>127.0</ele><time>2026-04-06T15:17:27.702Z</time></trkpt><trkpt lat="43.217105" lon="2.3136167"><ele>127.0</ele><time>2026-04-06T15:17:28.703Z</time></trkpt><trkpt lat="43.2171483" lon="2.3132583"><ele>127.0</ele><time>2026-04-06T15:17:29.703Z</time></trkpt><trkpt lat="43.2171867" lon="2.3129083"><ele>125.5</ele><time>2026-04-06T15:17:30.704Z</time></trkpt><trkpt lat="43.2172283" lon="2.3125617"><ele>124.0</ele><time>2026-04-06T15:17:31.703Z</time></trkpt><trkpt lat="43.2172767" lon="2.3122233"><ele>123.0</ele><time>2026-04-06T15:17:32.702Z</time></trkpt><trkpt lat="43.2173233" lon="2.3118867"><ele>122.0</ele><time>2026-04-06T15:17:33.701Z</time></trkpt><trkpt lat="43.2173683" lon="2.3115433"><ele>123.0</ele><time>2026-04-06T15:17:34.705Z</time></trkpt><trkpt lat="43.2174183" lon="2.3112"><ele>124.0</ele><time>2026-04-06T15:17:35.702Z</time></trkpt><trkpt lat="43.21747" lon="2.3108583"><ele>124.5</ele><time>2026-04-06T15:17:36.706Z</time></trkpt><trkpt lat="43.2175217" lon="2.31052"><ele>125.0</ele><time>2026-04-06T15:17:37.707Z</time></trkpt><trkpt lat="43.21758" lon="2.3101867"><ele>125.0</ele><time>2026-04-06T15:17:38.704Z</time></trkpt><trkpt lat="43.2176383" lon="2.3098533"><ele>125.0</ele><time>2026-04-06T15:17:39.705Z</time></trkpt><trkpt lat="43.217705" lon="2.3095217"><ele>126.5</ele><time>2026-04-06T15:17:40.704Z</time></trkpt><trkpt lat="43.2177783" lon="2.30919"><ele>128.0</ele><time>2026-04-06T15:17:41.707Z</time></trkpt><trkpt lat="43.2178633" lon="2.3088617"><ele>128.0</ele><time>2026-04-06T15:17:42.705Z</time></trkpt><trkpt lat="43.21796" lon="2.3085383"><ele>128.0</ele><time>2026-04-06T15:17:43.705Z</time></trkpt><trkpt lat="43.21806" lon="2.3082217"><ele>127.0</ele><time>2026-04-06T15:17:44.701Z</time></trkpt><trkpt lat="43.2181633" lon="2.3079067"><ele>126.0</ele><time>2026-04-06T15:17:45.704Z</time></trkpt><trkpt lat="43.218265" lon="2.3075883"><ele>126.0</ele><time>2026-04-06T15:17:46.703Z</time></trkpt><trkpt lat="43.2183633" lon="2.3072633"><ele>126.0</ele><time>2026-04-06T15:17:47.703Z</time></trkpt><trkpt lat="43.2184617" lon="2.3069283"><ele>125.5</ele><time>2026-04-06T15:17:48.704Z</time></trkpt><trkpt lat="43.2185633" lon="2.30658"><ele>125.0</ele><time>2026-04-06T15:17:49.703Z</time></trkpt><trkpt lat="43.2186667" lon="2.3062217"><ele>124.5</ele><time>2026-04-06T15:17:50.704Z</time></trkpt><trkpt lat="43.21878" lon="2.305865"><ele>124.0</ele><time>2026-04-06T15:17:51.705Z</time></trkpt><trkpt lat="43.218895" lon="2.305495"><ele>124.5</ele><time>2026-04-06T15:17:52.703Z</time></trkpt><trkpt lat="43.2190167" lon="2.3051283"><ele>125.0</ele><time>2026-04-06T15:17:53.703Z</time></trkpt><trkpt lat="43.2191317" lon="2.3047583"><ele>125.0</ele><time>2026-04-06T15:17:54.706Z</time></trkpt><trkpt lat="43.2192533" lon="2.304395"><ele>125.0</ele><time>2026-04-06T15:17:55.702Z</time></trkpt><trkpt lat="43.2193733" lon="2.3040367"><ele>124.5</ele><time>2026-04-06T15:17:56.707Z</time></trkpt><trkpt lat="43.2194883" lon="2.3036817"><ele>124.0</ele><time>2026-04-06T15:17:57.706Z</time></trkpt><trkpt lat="43.2195983" lon="2.3033317"><ele>124.5</ele><time>2026-04-06T15:17:58.705Z</time></trkpt><trkpt lat="43.21971" lon="2.302985"><ele>125.0</ele><time>2026-04-06T15:17:59.704Z</time></trkpt><trkpt lat="43.2198217" lon="2.3026383"><ele>125.5</ele><time>2026-04-06T15:18:00.705Z</time></trkpt><trkpt lat="43.2199333" lon="2.302295"><ele>126.0</ele><time>2026-04-06T15:18:01.702Z</time></trkpt><trkpt lat="43.2200467" lon="2.301955"><ele>126.0</ele><time>2026-04-06T15:18:02.707Z</time></trkpt><trkpt lat="43.2201767" lon="2.3016167"><ele>126.0</ele><time>2026-04-06T15:18:03.703Z</time></trkpt><trkpt lat="43.2203183" lon="2.3012933"><ele>125.5</ele><time>2026-04-06T15:18:04.697Z</time></trkpt><trkpt lat="43.2204667" lon="2.3009817"><ele>125.0</ele><time>2026-04-06T15:18:05.705Z</time></trkpt><trkpt lat="43.2206183" lon="2.3006783"><ele>122.0</ele><time>2026-04-06T15:18:06.704Z</time></trkpt><trkpt lat="43.2207667" lon="2.30038"><ele>119.0</ele><time>2026-04-06T15:18:07.705Z</time></trkpt><trkpt lat="43.2209133" lon="2.3000967"><ele>119.0</ele><time>2026-04-06T15:18:08.708Z</time></trkpt><trkpt lat="43.221055" lon="2.299825"><ele>119.0</ele><time>2026-04-06T15:18:09.706Z</time></trkpt><trkpt lat="43.2211917" lon="2.2995617"><ele>117.5</ele><time>2026-04-06T15:18:10.7Z</time></trkpt><trkpt lat="43.2213233" lon="2.2993033"><ele>116.0</ele><time>2026-04-06T15:18:11.704Z</time></trkpt><trkpt lat="43.22145" lon="2.29905"><ele>114.66666666666666</ele><time>2026-04-06T15:18:12.703Z</time></trkpt><trkpt lat="43.22158" lon="2.2988017"><ele>113.33333333333334</ele><time>2026-04-06T15:18:13.702Z</time></trkpt><trkpt lat="43.22171" lon="2.2985517"><ele>112.0</ele><time>2026-04-06T15:18:14.702Z</time></trkpt><trkpt lat="43.2218383" lon="2.2983"><ele>112.5</ele><time>2026-04-06T15:18:15.703Z</time></trkpt><trkpt lat="43.2219717" lon="2.298045"><ele>113.0</ele><time>2026-04-06T15:18:16.703Z</time></trkpt><trkpt lat="43.2221133" lon="2.29779"><ele>113.0</ele><time>2026-04-06T15:18:17.704Z</time></trkpt><trkpt lat="43.2222533" lon="2.297525"><ele>113.0</ele><time>2026-04-06T15:18:18.705Z</time></trkpt><trkpt lat="43.2223967" lon="2.29725"><ele>114.5</ele><time>2026-04-06T15:18:19.703Z</time></trkpt><trkpt lat="43.22254" lon="2.2969683"><ele>116.0</ele><time>2026-04-06T15:18:20.701Z</time></trkpt><trkpt lat="43.2226817" lon="2.29669"><ele>116.5</ele><time>2026-04-06T15:18:21.7Z</time></trkpt><trkpt lat="43.2228283" lon="2.2964183"><ele>117.0</ele><time>2026-04-06T15:18:22.706Z</time></trkpt><trkpt lat="43.2229683" lon="2.29613"><ele>117.0</ele><time>2026-04-06T15:18:23.704Z</time></trkpt><trkpt lat="43.2231233" lon="2.2958517"><ele>117.0</ele><time>2026-04-06T15:18:24.704Z</time></trkpt><trkpt lat="43.2232917" lon="2.2955817"><ele>119.5</ele><time>2026-04-06T15:18:25.703Z</time></trkpt><trkpt lat="43.2234783" lon="2.295325"><ele>122.0</ele><time>2026-04-06T15:18:26.704Z</time></trkpt><trkpt lat="43.2236733" lon="2.2950733"><ele>122.0</ele><time>2026-04-06T15:18:27.705Z</time></trkpt><trkpt lat="43.22387" lon="2.29482"><ele>122.0</ele><time>2026-04-06T15:18:28.703Z</time></trkpt><trkpt lat="43.224065" lon="2.2945717"><ele>124.5</ele><time>2026-04-06T15:18:29.702Z</time></trkpt><trkpt lat="43.2242583" lon="2.2943283"><ele>127.0</ele><time>2026-04-06T15:18:30.704Z</time></trkpt><trkpt lat="43.2244467" lon="2.2940817"><ele>127.5</ele><time>2026-04-06T15:18:31.702Z</time></trkpt><trkpt lat="43.2246283" lon="2.2938217"><ele>128.0</ele><time>2026-04-06T15:18:32.707Z</time></trkpt><trkpt lat="43.2248" lon="2.293545"><ele>128.0</ele><time>2026-04-06T15:18:33.702Z</time></trkpt><trkpt lat="43.2249683" lon="2.2932583"><ele>128.0</ele><time>2026-04-06T15:18:34.705Z</time></trkpt><trkpt lat="43.2251333" lon="2.292965"><ele>128.5</ele><time>2026-04-06T15:18:35.705Z</time></trkpt><trkpt lat="43.2252917" lon="2.2926617"><ele>129.0</ele><time>2026-04-06T15:18:36.702Z</time></trkpt><trkpt lat="43.2254417" lon="2.29235"><ele>129.0</ele><time>2026-04-06T15:18:37.7Z</time></trkpt><trkpt lat="43.225585" lon="2.2920217"><ele>129.0</ele><time>2026-04-06T15:18:38.706Z</time></trkpt><trkpt lat="43.2257167" lon="2.2916917"><ele>130.0</ele><time>2026-04-06T15:18:39.704Z</time></trkpt><trkpt lat="43.2258367" lon="2.2913367"><ele>131.0</ele><time>2026-04-06T15:18:40.701Z</time></trkpt><trkpt lat="43.2259467" lon="2.2909783"><ele>131.0</ele><time>2026-04-06T15:18:41.697Z</time></trkpt><trkpt lat="43.2260533" lon="2.29063"><ele>131.0</ele><time>2026-04-06T15:18:42.706Z</time></trkpt><trkpt lat="43.226155" lon="2.2902883"><ele>130.5</ele><time>2026-04-06T15:18:43.702Z</time></trkpt><trkpt lat="43.2262567" lon="2.289965"><ele>130.0</ele><time>2026-04-06T15:18:44.705Z</time></trkpt><trkpt lat="43.226355" lon="2.2896533"><ele>130.0</ele><time>2026-04-06T15:18:45.704Z</time></trkpt><trkpt lat="43.2264533" lon="2.289355"><ele>130.0</ele><time>2026-04-06T15:18:46.705Z</time></trkpt><trkpt lat="43.2265433" lon="2.2890733"><ele>130.66666666666669</ele><time>2026-04-06T15:18:47.707Z</time></trkpt><trkpt lat="43.2266283" lon="2.2888"><ele>131.33333333333334</ele><time>2026-04-06T15:18:48.705Z</time></trkpt><trkpt lat="43.22671" lon="2.288535"><ele>132.0</ele><time>2026-04-06T15:18:49.704Z</time></trkpt><trkpt lat="43.226785" lon="2.2882817"><ele>132.33333333333334</ele><time>2026-04-06T15:18:50.699Z</time></trkpt><trkpt lat="43.2268583" lon="2.2880467"><ele>132.66666666666669</ele><time>2026-04-06T15:18:51.699Z</time></trkpt><trkpt lat="43.2269283" lon="2.2878267"><ele>133.0</ele><time>2026-04-06T15:18:52.702Z</time></trkpt><trkpt lat="43.2269917" lon="2.287615"><ele>133.0</ele><time>2026-04-06T15:18:53.701Z</time></trkpt><trkpt lat="43.2270483" lon="2.2874067"><ele>133.0</ele><time>2026-04-06T15:18:54.7Z</time></trkpt><trkpt lat="43.2271017" lon="2.2872"><ele>133.0</ele><time>2026-04-06T15:18:55.696Z</time></trkpt><trkpt lat="43.22715" lon="2.2870167"><ele>132.75</ele><time>2026-04-06T15:18:56.696Z</time></trkpt><trkpt lat="43.2272033" lon="2.2868267"><ele>132.5</ele><time>2026-04-06T15:18:57.696Z</time></trkpt><trkpt lat="43.227275" lon="2.2866683"><ele>132.25</ele><time>2026-04-06T15:18:58.704Z</time></trkpt><trkpt lat="43.2273267" lon="2.2864933"><ele>132.0</ele><time>2026-04-06T15:18:59.701Z</time></trkpt><trkpt lat="43.2273783" lon="2.2863267"><ele>132.5</ele><time>2026-04-06T15:19:00.702Z</time></trkpt><trkpt lat="43.2274383" lon="2.286155"><ele>133.0</ele><time>2026-04-06T15:19:01.703Z</time></trkpt><trkpt lat="43.227505" lon="2.28599"><ele>133.5</ele><time>2026-04-06T15:19:02.702Z</time></trkpt><trkpt lat="43.2275683" lon="2.2858283"><ele>134.0</ele><time>2026-04-06T15:19:03.704Z</time></trkpt><trkpt lat="43.2276333" lon="2.2856583"><ele>134.0</ele><time>2026-04-06T15:19:04.705Z</time></trkpt><trkpt lat="43.2276983" lon="2.2854867"><ele>134.0</ele><time>2026-04-06T15:19:05.702Z</time></trkpt><trkpt lat="43.227765" lon="2.28531"><ele>134.0</ele><time>2026-04-06T15:19:06.704Z</time></trkpt><trkpt lat="43.22783" lon="2.2851317"><ele>134.0</ele><time>2026-04-06T15:19:07.704Z</time></trkpt><trkpt lat="43.2278867" lon="2.284945"><ele>134.0</ele><time>2026-04-06T15:19:08.705Z</time></trkpt><trkpt lat="43.227955" lon="2.28477"><ele>134.0</ele><time>2026-04-06T15:19:09.7Z</time></trkpt><trkpt lat="43.2280183" lon="2.28458"><ele>134.0</ele><time>2026-04-06T15:19:10.703Z</time></trkpt><trkpt lat="43.228085" lon="2.2843867"><ele>134.66666666666666</ele><time>2026-04-06T15:19:11.706Z</time></trkpt><trkpt lat="43.22815" lon="2.28417"><ele>135.33333333333334</ele><time>2026-04-06T15:19:12.705Z</time></trkpt><trkpt lat="43.2282183" lon="2.2839517"><ele>136.0</ele><time>2026-04-06T15:19:13.699Z</time></trkpt><trkpt lat="43.2282917" lon="2.2837217"><ele>136.0</ele><time>2026-04-06T15:19:14.703Z</time></trkpt><trkpt lat="43.2283683" lon="2.28348"><ele>136.0</ele><time>2026-04-06T15:19:15.704Z</time></trkpt><trkpt lat="43.2284483" lon="2.2832267"><ele>136.0</ele><time>2026-04-06T15:19:16.703Z</time></trkpt><trkpt lat="43.2285317" lon="2.2829767"><ele>135.66666666666669</ele><time>2026-04-06T15:19:17.703Z</time></trkpt><trkpt lat="43.228615" lon="2.282725"><ele>135.33333333333334</ele><time>2026-04-06T15:19:18.704Z</time></trkpt><trkpt lat="43.2286983" lon="2.282455"><ele>135.0</ele><time>2026-04-06T15:19:19.699Z</time></trkpt><trkpt lat="43.2287833" lon="2.282165"><ele>134.0</ele><time>2026-04-06T15:19:20.703Z</time></trkpt><trkpt lat="43.2288733" lon="2.2818533"><ele>133.0</ele><time>2026-04-06T15:19:21.703Z</time></trkpt><trkpt lat="43.22897" lon="2.28153"><ele>134.5</ele><time>2026-04-06T15:19:22.707Z</time></trkpt><trkpt lat="43.2290683" lon="2.2811883"><ele>136.0</ele><time>2026-04-06T15:19:23.706Z</time></trkpt><trkpt lat="43.2291683" lon="2.2808267"><ele>135.5</ele><time>2026-04-06T15:19:24.701Z</time></trkpt><trkpt lat="43.2292717" lon="2.2804567"><ele>135.0</ele><time>2026-04-06T15:19:25.706Z</time></trkpt><trkpt lat="43.2293767" lon="2.280095"><ele>135.0</ele><time>2026-04-06T15:19:26.705Z</time></trkpt><trkpt lat="43.2294833" lon="2.2797333"><ele>135.0</ele><time>2026-04-06T15:19:27.703Z</time></trkpt><trkpt lat="43.229595" lon="2.2793733"><ele>135.0</ele><time>2026-04-06T15:19:28.703Z</time></trkpt><trkpt lat="43.2297083" lon="2.2790133"><ele>135.0</ele><time>2026-04-06T15:19:29.701Z</time></trkpt><trkpt lat="43.229825" lon="2.278655"><ele>136.0</ele><time>2026-04-06T15:19:30.704Z</time></trkpt><trkpt lat="43.229945" lon="2.2783017"><ele>137.0</ele><time>2026-04-06T15:19:31.705Z</time></trkpt><trkpt lat="43.2300617" lon="2.277955"><ele>137.0</ele><time>2026-04-06T15:19:32.703Z</time></trkpt><trkpt lat="43.230175" lon="2.277615"><ele>137.0</ele><time>2026-04-06T15:19:33.703Z</time></trkpt><trkpt lat="43.230285" lon="2.2772817"><ele>137.0</ele><time>2026-04-06T15:19:34.701Z</time></trkpt><trkpt lat="43.2303917" lon="2.2769567"><ele>137.0</ele><time>2026-04-06T15:19:35.698Z</time></trkpt><trkpt lat="43.2305017" lon="2.2766333"><ele>137.5</ele><time>2026-04-06T15:19:36.706Z</time></trkpt><trkpt lat="43.2306117" lon="2.2763183"><ele>138.0</ele><time>2026-04-06T15:19:37.703Z</time></trkpt><trkpt lat="43.2307183" lon="2.275995"><ele>138.0</ele><time>2026-04-06T15:19:38.704Z</time></trkpt><trkpt lat="43.2308217" lon="2.2756767"><ele>138.0</ele><time>2026-04-06T15:19:39.702Z</time></trkpt><trkpt lat="43.2309217" lon="2.2753617"><ele>138.0</ele><time>2026-04-06T15:19:40.704Z</time></trkpt><trkpt lat="43.231015" lon="2.275045"><ele>138.0</ele><time>2026-04-06T15:19:41.704Z</time></trkpt><trkpt lat="43.2311133" lon="2.27473"><ele>138.5</ele><time>2026-04-06T15:19:42.704Z</time></trkpt><trkpt lat="43.2312083" lon="2.2744183"><ele>139.0</ele><time>2026-04-06T15:19:43.702Z</time></trkpt><trkpt lat="43.2313" lon="2.2741133"><ele>139.0</ele><time>2026-04-06T15:19:44.702Z</time></trkpt><trkpt lat="43.2313933" lon="2.2738"><ele>139.0</ele><time>2026-04-06T15:19:45.703Z</time></trkpt><trkpt lat="43.2314883" lon="2.2734767"><ele>139.0</ele><time>2026-04-06T15:19:46.705Z</time></trkpt><trkpt lat="43.23159" lon="2.273135"><ele>139.0</ele><time>2026-04-06T15:19:47.705Z</time></trkpt><trkpt lat="43.2316833" lon="2.272775"><ele>139.0</ele><time>2026-04-06T15:19:48.704Z</time></trkpt><trkpt lat="43.231775" lon="2.272405"><ele>139.0</ele><time>2026-04-06T15:19:49.704Z</time></trkpt><trkpt lat="43.2318717" lon="2.27202"><ele>139.0</ele><time>2026-04-06T15:19:50.705Z</time></trkpt><trkpt lat="43.2319867" lon="2.2716283"><ele>139.0</ele><time>2026-04-06T15:19:51.701Z</time></trkpt><trkpt lat="43.2321117" lon="2.2712233"><ele>139.5</ele><time>2026-04-06T15:19:52.698Z</time></trkpt><trkpt lat="43.2322367" lon="2.2708033"><ele>140.0</ele><time>2026-04-06T15:19:53.702Z</time></trkpt><trkpt lat="43.23236" lon="2.2703767"><ele>140.0</ele><time>2026-04-06T15:19:54.704Z</time></trkpt><trkpt lat="43.2324817" lon="2.2699417"><ele>140.0</ele><time>2026-04-06T15:19:55.701Z</time></trkpt><trkpt lat="43.232605" lon="2.2695183"><ele>140.5</ele><time>2026-04-06T15:19:56.705Z</time></trkpt><trkpt lat="43.2327217" lon="2.2691083"><ele>141.0</ele><time>2026-04-06T15:19:57.703Z</time></trkpt><trkpt lat="43.232835" lon="2.26872"><ele>142.0</ele><time>2026-04-06T15:19:58.701Z</time></trkpt><trkpt lat="43.2329433" lon="2.268345"><ele>143.0</ele><time>2026-04-06T15:19:59.705Z</time></trkpt><trkpt lat="43.23305" lon="2.267985"><ele>142.0</ele><time>2026-04-06T15:20:00.703Z</time></trkpt><trkpt lat="43.2331533" lon="2.26764"><ele>141.0</ele><time>2026-04-06T15:20:01.703Z</time></trkpt><trkpt lat="43.23325" lon="2.267305"><ele>140.5</ele><time>2026-04-06T15:20:02.704Z</time></trkpt><trkpt lat="43.233345" lon="2.26698"><ele>140.0</ele><time>2026-04-06T15:20:03.7Z</time></trkpt><trkpt lat="43.2334333" lon="2.266665"><ele>141.0</ele><time>2026-04-06T15:20:04.702Z</time></trkpt><trkpt lat="43.233525" lon="2.2663583"><ele>142.0</ele><time>2026-04-06T15:20:05.703Z</time></trkpt><trkpt lat="43.2336117" lon="2.266055"><ele>142.0</ele><time>2026-04-06T15:20:06.705Z</time></trkpt><trkpt lat="43.2336983" lon="2.2657633"><ele>142.0</ele><time>2026-04-06T15:20:07.704Z</time></trkpt><trkpt lat="43.2337817" lon="2.2654733"><ele>142.0</ele><time>2026-04-06T15:20:08.703Z</time></trkpt><trkpt lat="43.233865" lon="2.26519"><ele>142.0</ele><time>2026-04-06T15:20:09.703Z</time></trkpt><trkpt lat="43.2339467" lon="2.2649183"><ele>142.0</ele><time>2026-04-06T15:20:10.702Z</time></trkpt><trkpt lat="43.2340283" lon="2.264655"><ele>142.33333333333334</ele><time>2026-04-06T15:20:11.705Z</time></trkpt><trkpt lat="43.2341017" lon="2.2644067"><ele>142.66666666666666</ele><time>2026-04-06T15:20:12.703Z</time></trkpt><trkpt lat="43.23417" lon="2.2641667"><ele>143.0</ele><time>2026-04-06T15:20:13.7Z</time></trkpt><trkpt lat="43.2342433" lon="2.26394"><ele>143.0</ele><time>2026-04-06T15:20:14.704Z</time></trkpt><trkpt lat="43.23432" lon="2.2637283"><ele>143.0</ele><time>2026-04-06T15:20:15.705Z</time></trkpt><trkpt lat="43.2344" lon="2.2635333"><ele>143.0</ele><time>2026-04-06T15:20:16.702Z</time></trkpt><trkpt lat="43.2344867" lon="2.263345"><ele>143.0</ele><time>2026-04-06T15:20:17.699Z</time></trkpt><trkpt lat="43.23458" lon="2.2631633"><ele>143.0</ele><time>2026-04-06T15:20:18.705Z</time></trkpt><trkpt lat="43.23468" lon="2.26299"><ele>143.0</ele><time>2026-04-06T15:20:19.701Z</time></trkpt><trkpt lat="43.234795" lon="2.262835"><ele>143.33333333333331</ele><time>2026-04-06T15:20:20.704Z</time></trkpt><trkpt lat="43.2349183" lon="2.262695"><ele>143.66666666666666</ele><time>2026-04-06T15:20:21.703Z</time></trkpt><trkpt lat="43.2350583" lon="2.2625783"><ele>144.0</ele><time>2026-04-06T15:20:22.707Z</time></trkpt><trkpt lat="43.235215" lon="2.262485"><ele>144.0</ele><time>2026-04-06T15:20:23.704Z</time></trkpt><trkpt lat="43.23538" lon="2.262405"><ele>144.0</ele><time>2026-04-06T15:20:24.706Z</time></trkpt><trkpt lat="43.2355533" lon="2.2623417"><ele>144.0</ele><time>2026-04-06T15:20:25.702Z</time></trkpt><trkpt lat="43.23573" lon="2.2623033"><ele>142.0</ele><time>2026-04-06T15:20:26.704Z</time></trkpt><trkpt lat="43.23591" lon="2.2623"><ele>140.0</ele><time>2026-04-06T15:20:27.703Z</time></trkpt><trkpt lat="43.2360967" lon="2.2623267"><ele>138.0</ele><time>2026-04-06T15:20:28.699Z</time></trkpt><trkpt lat="43.2362833" lon="2.2623717"><ele>138.0</ele><time>2026-04-06T15:20:29.699Z</time></trkpt><trkpt lat="43.2364667" lon="2.2624317"><ele>138.0</ele><time>2026-04-06T15:20:30.696Z</time></trkpt><trkpt lat="43.2366517" lon="2.2624967"><ele>138.0</ele><time>2026-04-06T15:20:31.703Z</time></trkpt><trkpt lat="43.2368317" lon="2.2625633"><ele>137.33333333333334</ele><time>2026-04-06T15:20:32.701Z</time></trkpt><trkpt lat="43.237005" lon="2.2626333"><ele>136.66666666666669</ele><time>2026-04-06T15:20:33.703Z</time></trkpt><trkpt lat="43.2371767" lon="2.262705"><ele>136.0</ele><time>2026-04-06T15:20:34.701Z</time></trkpt><trkpt lat="43.237345" lon="2.2627783"><ele>136.0</ele><time>2026-04-06T15:20:35.704Z</time></trkpt><trkpt lat="43.2375167" lon="2.26285"><ele>136.0</ele><time>2026-04-06T15:20:36.704Z</time></trkpt><trkpt lat="43.237685" lon="2.2629233"><ele>136.0</ele><time>2026-04-06T15:20:37.704Z</time></trkpt><trkpt lat="43.2378533" lon="2.2630033"><ele>136.0</ele><time>2026-04-06T15:20:38.705Z</time></trkpt><trkpt lat="43.2380167" lon="2.2630883"><ele>136.0</ele><time>2026-04-06T15:20:39.703Z</time></trkpt><trkpt lat="43.2381767" lon="2.2631783"><ele>136.0</ele><time>2026-04-06T15:20:40.7Z</time></trkpt><trkpt lat="43.2383367" lon="2.2632683"><ele>136.66666666666669</ele><time>2026-04-06T15:20:41.703Z</time></trkpt><trkpt lat="43.2385" lon="2.26336"><ele>137.33333333333334</ele><time>2026-04-06T15:20:42.702Z</time></trkpt><trkpt lat="43.2386633" lon="2.26345"><ele>138.0</ele><time>2026-04-06T15:20:43.7Z</time></trkpt><trkpt lat="43.23883" lon="2.2635433"><ele>137.33333333333334</ele><time>2026-04-06T15:20:44.701Z</time></trkpt><trkpt lat="43.2390033" lon="2.2636333"><ele>136.66666666666669</ele><time>2026-04-06T15:20:45.701Z</time></trkpt><trkpt lat="43.2391767" lon="2.2637267"><ele>136.0</ele><time>2026-04-06T15:20:46.701Z</time></trkpt><trkpt lat="43.23936" lon="2.2638267"><ele>136.0</ele><time>2026-04-06T15:20:47.701Z</time></trkpt><trkpt lat="43.2395433" lon="2.2639217"><ele>136.0</ele><time>2026-04-06T15:20:48.702Z</time></trkpt><trkpt lat="43.2397317" lon="2.2640133"><ele>136.0</ele><time>2026-04-06T15:20:49.705Z</time></trkpt><trkpt lat="43.2399233" lon="2.2640917"><ele>133.66666666666669</ele><time>2026-04-06T15:20:50.699Z</time></trkpt><trkpt lat="43.240115" lon="2.2641517"><ele>131.33333333333334</ele><time>2026-04-06T15:20:51.701Z</time></trkpt><trkpt lat="43.2403067" lon="2.2641917"><ele>129.0</ele><time>2026-04-06T15:20:52.704Z</time></trkpt><trkpt lat="43.240495" lon="2.2642217"><ele>127.33333333333334</ele><time>2026-04-06T15:20:53.703Z</time></trkpt><trkpt lat="43.240675" lon="2.2642417"><ele>125.66666666666667</ele><time>2026-04-06T15:20:54.702Z</time></trkpt><trkpt lat="43.2408517" lon="2.264255"><ele>124.0</ele><time>2026-04-06T15:20:55.703Z</time></trkpt><trkpt lat="43.2410217" lon="2.2642783"><ele>124.0</ele><time>2026-04-06T15:20:56.703Z</time></trkpt><trkpt lat="43.2411867" lon="2.2643033"><ele>124.0</ele><time>2026-04-06T15:20:57.705Z</time></trkpt><trkpt lat="43.241345" lon="2.26433"><ele>124.0</ele><time>2026-04-06T15:20:58.705Z</time></trkpt><trkpt lat="43.2414933" lon="2.2643517"><ele>123.75</ele><time>2026-04-06T15:20:59.702Z</time></trkpt><trkpt lat="43.241635" lon="2.2643483"><ele>123.5</ele><time>2026-04-06T15:21:00.704Z</time></trkpt><trkpt lat="43.24177" lon="2.2643017"><ele>123.25</ele><time>2026-04-06T15:21:01.704Z</time></trkpt><trkpt lat="43.2418967" lon="2.264225"><ele>123.0</ele><time>2026-04-06T15:21:02.705Z</time></trkpt><trkpt lat="43.242015" lon="2.2641517"><ele>123.0</ele><time>2026-04-06T15:21:03.701Z</time></trkpt><trkpt lat="43.2421233" lon="2.2640933"><ele>123.00000000000001</ele><time>2026-04-06T15:21:04.701Z</time></trkpt><trkpt lat="43.2422167" lon="2.264025"><ele>123.00000000000001</ele><time>2026-04-06T15:21:05.704Z</time></trkpt><trkpt lat="43.2423067" lon="2.26397"><ele>123.0</ele><time>2026-04-06T15:21:06.703Z</time></trkpt><trkpt lat="43.2423983" lon="2.263915"><ele>123.0</ele><time>2026-04-06T15:21:07.703Z</time></trkpt><trkpt lat="43.24249" lon="2.2638417"><ele>122.25</ele><time>2026-04-06T15:21:08.703Z</time></trkpt><trkpt lat="43.2425883" lon="2.2637617"><ele>121.5</ele><time>2026-04-06T15:21:09.701Z</time></trkpt><trkpt lat="43.24269" lon="2.2636683"><ele>120.75</ele><time>2026-04-06T15:21:10.705Z</time></trkpt><trkpt lat="43.2428" lon="2.2635633"><ele>120.0</ele><time>2026-04-06T15:21:11.702Z</time></trkpt><trkpt lat="43.24291" lon="2.26346"><ele>120.0</ele><time>2026-04-06T15:21:12.703Z</time></trkpt><trkpt lat="43.243025" lon="2.2633583"><ele>120.0</ele><time>2026-04-06T15:21:13.703Z</time></trkpt><trkpt lat="43.2431383" lon="2.2632383"><ele>120.0</ele><time>2026-04-06T15:21:14.706Z</time></trkpt><trkpt lat="43.243245" lon="2.2631083"><ele>120.0</ele><time>2026-04-06T15:21:15.704Z</time></trkpt><trkpt lat="43.2433467" lon="2.26298"><ele>119.5</ele><time>2026-04-06T15:21:16.701Z</time></trkpt><trkpt lat="43.24345" lon="2.262865"><ele>119.0</ele><time>2026-04-06T15:21:17.703Z</time></trkpt><trkpt lat="43.2435567" lon="2.2627667"><ele>118.5</ele><time>2026-04-06T15:21:18.702Z</time></trkpt><trkpt lat="43.243665" lon="2.2626917"><ele>118.0</ele><time>2026-04-06T15:21:19.703Z</time></trkpt><trkpt lat="43.24378" lon="2.2626717"><ele>118.0</ele><time>2026-04-06T15:21:20.701Z</time></trkpt><trkpt lat="43.2439067" lon="2.2627117"><ele>118.0</ele><time>2026-04-06T15:21:21.704Z</time></trkpt><trkpt lat="43.2440283" lon="2.2627633"><ele>118.0</ele><time>2026-04-06T15:21:22.7Z</time></trkpt><trkpt lat="43.2441517" lon="2.2628167"><ele>118.0</ele><time>2026-04-06T15:21:23.705Z</time></trkpt><trkpt lat="43.2442917" lon="2.2628633"><ele>117.5</ele><time>2026-04-06T15:21:24.703Z</time></trkpt><trkpt lat="43.24442" lon="2.262905"><ele>117.0</ele><time>2026-04-06T15:21:25.705Z</time></trkpt><trkpt lat="43.2445417" lon="2.262925"><ele>116.5</ele><time>2026-04-06T15:21:26.704Z</time></trkpt><trkpt lat="43.2446633" lon="2.262925"><ele>116.0</ele><time>2026-04-06T15:21:27.701Z</time></trkpt><trkpt lat="43.2447767" lon="2.2629067"><ele>115.8</ele><time>2026-04-06T15:21:28.7Z</time></trkpt><trkpt lat="43.244885" lon="2.2628833"><ele>115.6</ele><time>2026-04-06T15:21:29.704Z</time></trkpt><trkpt lat="43.2449867" lon="2.2628583"><ele>115.4</ele><time>2026-04-06T15:21:30.703Z</time></trkpt><trkpt lat="43.2450917" lon="2.2628317"><ele>115.2</ele><time>2026-04-06T15:21:31.705Z</time></trkpt><trkpt lat="43.2451967" lon="2.2628033"><ele>115.0</ele><time>2026-04-06T15:21:32.704Z</time></trkpt><trkpt lat="43.2453117" lon="2.2627717"><ele>115.0</ele><time>2026-04-06T15:21:33.703Z</time></trkpt><trkpt lat="43.2454133" lon="2.2627333"><ele>115.0</ele><time>2026-04-06T15:21:34.702Z</time></trkpt><trkpt lat="43.2455233" lon="2.262705"><ele>115.0</ele><time>2026-04-06T15:21:35.7Z</time></trkpt><trkpt lat="43.2456383" lon="2.2626683"><ele>115.0</ele><time>2026-04-06T15:21:36.705Z</time></trkpt><trkpt lat="43.245765" lon="2.2626317"><ele>114.75</ele><time>2026-04-06T15:21:37.701Z</time></trkpt><trkpt lat="43.2459033" lon="2.262605"><ele>114.5</ele><time>2026-04-06T15:21:38.705Z</time></trkpt><trkpt lat="43.2460467" lon="2.26258"><ele>114.25</ele><time>2026-04-06T15:21:39.705Z</time></trkpt><trkpt lat="43.2461917" lon="2.262555"><ele>114.0</ele><time>2026-04-06T15:21:40.704Z</time></trkpt><trkpt lat="43.2463383" lon="2.2625283"><ele>112.66666666666666</ele><time>2026-04-06T15:21:41.704Z</time></trkpt><trkpt lat="43.2464867" lon="2.2625"><ele>111.33333333333333</ele><time>2026-04-06T15:21:42.705Z</time></trkpt><trkpt lat="43.2466417" lon="2.2624717"><ele>110.0</ele><time>2026-04-06T15:21:43.704Z</time></trkpt><trkpt lat="43.2468033" lon="2.262445"><ele>110.0</ele><time>2026-04-06T15:21:44.706Z</time></trkpt><trkpt lat="43.2469667" lon="2.262415"><ele>110.0</ele><time>2026-04-06T15:21:45.702Z</time></trkpt><trkpt lat="43.247135" lon="2.262385"><ele>110.0</ele><time>2026-04-06T15:21:46.705Z</time></trkpt><trkpt lat="43.247305" lon="2.2623583"><ele>110.0</ele><time>2026-04-06T15:21:47.706Z</time></trkpt><trkpt lat="43.2474717" lon="2.26233"><ele>110.0</ele><time>2026-04-06T15:21:48.706Z</time></trkpt><trkpt lat="43.247635" lon="2.2623017"><ele>110.0</ele><time>2026-04-06T15:21:49.704Z</time></trkpt><trkpt lat="43.2478033" lon="2.262275"><ele>110.33333333333333</ele><time>2026-04-06T15:21:50.704Z</time></trkpt><trkpt lat="43.2479717" lon="2.2622517"><ele>110.66666666666666</ele><time>2026-04-06T15:21:51.702Z</time></trkpt><trkpt lat="43.2481417" lon="2.2622483"><ele>111.0</ele><time>2026-04-06T15:21:52.701Z</time></trkpt><trkpt lat="43.2483117" lon="2.262255"><ele>111.0</ele><time>2026-04-06T15:21:53.697Z</time></trkpt><trkpt lat="43.24848" lon="2.2622767"><ele>111.0</ele><time>2026-04-06T15:21:54.706Z</time></trkpt><trkpt lat="43.24864" lon="2.2623"><ele>111.0</ele><time>2026-04-06T15:21:55.702Z</time></trkpt><trkpt lat="43.248795" lon="2.2623317"><ele>110.33333333333334</ele><time>2026-04-06T15:21:56.702Z</time></trkpt><trkpt lat="43.2489567" lon="2.2623567"><ele>109.66666666666667</ele><time>2026-04-06T15:21:57.705Z</time></trkpt><trkpt lat="43.249115" lon="2.2623633"><ele>109.0</ele><time>2026-04-06T15:21:58.701Z</time></trkpt><trkpt lat="43.249275" lon="2.2623617"><ele>109.0</ele><time>2026-04-06T15:21:59.704Z</time></trkpt><trkpt lat="43.249435" lon="2.2623617"><ele>109.0</ele><time>2026-04-06T15:22:00.706Z</time></trkpt><trkpt lat="43.24959" lon="2.2623617"><ele>109.0</ele><time>2026-04-06T15:22:01.701Z</time></trkpt><trkpt lat="43.24975" lon="2.2623567"><ele>109.0</ele><time>2026-04-06T15:22:02.706Z</time></trkpt><trkpt lat="43.2499017" lon="2.262345"><ele>109.0</ele><time>2026-04-06T15:22:03.696Z</time></trkpt><trkpt lat="43.250045" lon="2.26233"><ele>109.0</ele><time>2026-04-06T15:22:04.704Z</time></trkpt><trkpt lat="43.250185" lon="2.2623117"><ele>109.0</ele><time>2026-04-06T15:22:05.702Z</time></trkpt><trkpt lat="43.2503233" lon="2.262295"><ele>109.0</ele><time>2026-04-06T15:22:06.705Z</time></trkpt><trkpt lat="43.25046" lon="2.2622817"><ele>109.0</ele><time>2026-04-06T15:22:07.704Z</time></trkpt><trkpt lat="43.250595" lon="2.262265"><ele>109.0</ele><time>2026-04-06T15:22:08.704Z</time></trkpt><trkpt lat="43.25073" lon="2.2622483"><ele>109.0</ele><time>2026-04-06T15:22:09.702Z</time></trkpt><trkpt lat="43.2508633" lon="2.262235"><ele>109.0</ele><time>2026-04-06T15:22:10.705Z</time></trkpt><trkpt lat="43.2509967" lon="2.26222"><ele>109.0</ele><time>2026-04-06T15:22:11.697Z</time></trkpt><trkpt lat="43.2511283" lon="2.262205"><ele>109.0</ele><time>2026-04-06T15:22:12.706Z</time></trkpt><trkpt lat="43.2512617" lon="2.2621967"><ele>109.0</ele><time>2026-04-06T15:22:13.705Z</time></trkpt><trkpt lat="43.2513917" lon="2.2622"><ele>109.0</ele><time>2026-04-06T15:22:14.704Z</time></trkpt><trkpt lat="43.25152" lon="2.26223"><ele>109.0</ele><time>2026-04-06T15:22:15.702Z</time></trkpt><trkpt lat="43.2516483" lon="2.2622733"><ele>109.0</ele><time>2026-04-06T15:22:16.704Z</time></trkpt><trkpt lat="43.2517817" lon="2.2623283"><ele>109.0</ele><time>2026-04-06T15:22:17.704Z</time></trkpt><trkpt lat="43.25192" lon="2.2623933"><ele>109.25</ele><time>2026-04-06T15:22:18.705Z</time></trkpt><trkpt lat="43.2520583" lon="2.2624683"><ele>109.5</ele><time>2026-04-06T15:22:19.704Z</time></trkpt><trkpt lat="43.2521917" lon="2.2625583"><ele>109.75</ele><time>2026-04-06T15:22:20.704Z</time></trkpt><trkpt lat="43.2523167" lon="2.2626483"><ele>110.0</ele><time>2026-04-06T15:22:21.704Z</time></trkpt><trkpt lat="43.2524333" lon="2.2627417"><ele>110.0</ele><time>2026-04-06T15:22:22.7Z</time></trkpt><trkpt lat="43.2525433" lon="2.26284"><ele>110.0</ele><time>2026-04-06T15:22:23.703Z</time></trkpt><trkpt lat="43.25264" lon="2.2629383"><ele>110.0</ele><time>2026-04-06T15:22:24.706Z</time></trkpt><trkpt lat="43.25273" lon="2.2630367"><ele>110.0</ele><time>2026-04-06T15:22:25.702Z</time></trkpt><trkpt lat="43.2528117" lon="2.2631317"><ele>109.99999999999999</ele><time>2026-04-06T15:22:26.703Z</time></trkpt><trkpt lat="43.2528867" lon="2.2632183"><ele>110.0</ele><time>2026-04-06T15:22:27.706Z</time></trkpt><trkpt lat="43.252955" lon="2.2632967"><ele>110.0</ele><time>2026-04-06T15:22:28.699Z</time></trkpt><trkpt lat="43.253015" lon="2.2633667"><ele>110.0</ele><time>2026-04-06T15:22:29.699Z</time></trkpt><trkpt lat="43.25307" lon="2.263425"><ele>109.99999999999999</ele><time>2026-04-06T15:22:30.703Z</time></trkpt><trkpt lat="43.25312" lon="2.2634783"><ele>110.0</ele><time>2026-04-06T15:22:31.705Z</time></trkpt><trkpt lat="43.2532033" lon="2.2635467"><ele>110.0</ele><time>2026-04-06T15:22:33.7Z</time></trkpt><trkpt lat="43.2532867" lon="2.2635367"><ele>110.0</ele><time>2026-04-06T15:22:35.703Z</time></trkpt><trkpt lat="43.2533033" lon="2.2634333"><ele>110.0</ele><time>2026-04-06T15:22:37.703Z</time></trkpt><trkpt lat="43.2533067" lon="2.2632617"><ele>110.0</ele><time>2026-04-06T15:22:39.702Z</time></trkpt><trkpt lat="43.2532917" lon="2.2631083"><ele>110.0</ele><time>2026-04-06T15:22:40.703Z</time></trkpt><trkpt lat="43.2532767" lon="2.2629333"><ele>110.0</ele><time>2026-04-06T15:22:41.7Z</time></trkpt><trkpt lat="43.2532617" lon="2.262755"><ele>110.0</ele><time>2026-04-06T15:22:42.7Z</time></trkpt><trkpt lat="43.253245" lon="2.2625967"><ele>110.0</ele><time>2026-04-06T15:22:43.706Z</time></trkpt><trkpt lat="43.253215" lon="2.2624433"><ele>110.0</ele><time>2026-04-06T15:22:44.701Z</time></trkpt><trkpt lat="43.253145" lon="2.26227"><ele>109.66666666666666</ele><time>2026-04-06T15:22:45.703Z</time></trkpt><trkpt lat="43.2530533" lon="2.262105"><ele>109.33333333333334</ele><time>2026-04-06T15:22:46.703Z</time></trkpt><trkpt lat="43.252955" lon="2.2619283"><ele>109.0</ele><time>2026-04-06T15:22:47.702Z</time></trkpt><trkpt lat="43.25285" lon="2.2617317"><ele>109.0</ele><time>2026-04-06T15:22:48.702Z</time></trkpt><trkpt lat="43.25276" lon="2.2615367"><ele>109.0</ele><time>2026-04-06T15:22:49.705Z</time></trkpt><trkpt lat="43.2526767" lon="2.2613333"><ele>109.0</ele><time>2026-04-06T15:22:50.705Z</time></trkpt><trkpt lat="43.2526" lon="2.2611283"><ele>109.0</ele><time>2026-04-06T15:22:51.704Z</time></trkpt><trkpt lat="43.2525217" lon="2.260925"><ele>109.0</ele><time>2026-04-06T15:22:52.703Z</time></trkpt><trkpt lat="43.25243" lon="2.26072"><ele>109.0</ele><time>2026-04-06T15:22:53.704Z</time></trkpt><trkpt lat="43.2523317" lon="2.2605133"><ele>109.33333333333334</ele><time>2026-04-06T15:22:54.703Z</time></trkpt><trkpt lat="43.2522317" lon="2.2603033"><ele>109.66666666666666</ele><time>2026-04-06T15:22:55.699Z</time></trkpt><trkpt lat="43.2521283" lon="2.2600833"><ele>110.0</ele><time>2026-04-06T15:22:56.704Z</time></trkpt><trkpt lat="43.2520217" lon="2.2598517"><ele>110.0</ele><time>2026-04-06T15:22:57.701Z</time></trkpt><trkpt lat="43.2519267" lon="2.2596283"><ele>110.0</ele><time>2026-04-06T15:22:58.702Z</time></trkpt><trkpt lat="43.251825" lon="2.259405"><ele>110.0</ele><time>2026-04-06T15:22:59.699Z</time></trkpt><trkpt lat="43.251725" lon="2.2591833"><ele>110.0</ele><time>2026-04-06T15:23:00.703Z</time></trkpt><trkpt lat="43.251615" lon="2.258955"><ele>110.0</ele><time>2026-04-06T15:23:01.7Z</time></trkpt><trkpt lat="43.25151" lon="2.2587333"><ele>110.0</ele><time>2026-04-06T15:23:02.702Z</time></trkpt><trkpt lat="43.2514" lon="2.2585083"><ele>109.33333333333333</ele><time>2026-04-06T15:23:03.7Z</time></trkpt><trkpt lat="43.2512867" lon="2.2582833"><ele>108.66666666666666</ele><time>2026-04-06T15:23:04.701Z</time></trkpt><trkpt lat="43.25117" lon="2.2580533"><ele>108.0</ele><time>2026-04-06T15:23:05.701Z</time></trkpt><trkpt lat="43.2510533" lon="2.2578183"><ele>108.0</ele><time>2026-04-06T15:23:06.704Z</time></trkpt><trkpt lat="43.2509383" lon="2.2575733"><ele>108.0</ele><time>2026-04-06T15:23:07.699Z</time></trkpt><trkpt lat="43.2508317" lon="2.257315"><ele>108.0</ele><time>2026-04-06T15:23:08.697Z</time></trkpt><trkpt lat="43.25072" lon="2.2570467"><ele>108.0</ele><time>2026-04-06T15:23:09.702Z</time></trkpt><trkpt lat="43.250625" lon="2.2567783"><ele>108.0</ele><time>2026-04-06T15:23:10.703Z</time></trkpt><trkpt lat="43.2505283" lon="2.2565033"><ele>108.0</ele><time>2026-04-06T15:23:11.701Z</time></trkpt><trkpt lat="43.2504367" lon="2.25623"><ele>108.0</ele><time>2026-04-06T15:23:12.705Z</time></trkpt><trkpt lat="43.2503433" lon="2.2559533"><ele>108.0</ele><time>2026-04-06T15:23:13.703Z</time></trkpt><trkpt lat="43.2502517" lon="2.255675"><ele>108.0</ele><time>2026-04-06T15:23:14.706Z</time></trkpt><trkpt lat="43.2501667" lon="2.255395"><ele>108.0</ele><time>2026-04-06T15:23:15.704Z</time></trkpt><trkpt lat="43.250085" lon="2.2551083"><ele>108.0</ele><time>2026-04-06T15:23:16.705Z</time></trkpt><trkpt lat="43.2500083" lon="2.2548233"><ele>108.0</ele><time>2026-04-06T15:23:17.704Z</time></trkpt><trkpt lat="43.249935" lon="2.2545317"><ele>108.33333333333334</ele><time>2026-04-06T15:23:18.699Z</time></trkpt><trkpt lat="43.2498667" lon="2.2542383"><ele>108.66666666666667</ele><time>2026-04-06T15:23:19.702Z</time></trkpt><trkpt lat="43.249805" lon="2.25395"><ele>109.0</ele><time>2026-04-06T15:23:20.702Z</time></trkpt><trkpt lat="43.2497433" lon="2.253665"><ele>109.0</ele><time>2026-04-06T15:23:21.701Z</time></trkpt><trkpt lat="43.24968" lon="2.2533917"><ele>109.0</ele><time>2026-04-06T15:23:22.705Z</time></trkpt><trkpt lat="43.2496183" lon="2.2531333"><ele>109.0</ele><time>2026-04-06T15:23:23.701Z</time></trkpt><trkpt lat="43.2495533" lon="2.25289"><ele>109.0</ele><time>2026-04-06T15:23:24.706Z</time></trkpt><trkpt lat="43.2494883" lon="2.252655"><ele>109.0</ele><time>2026-04-06T15:23:25.703Z</time></trkpt><trkpt lat="43.2494283" lon="2.25243"><ele>109.0</ele><time>2026-04-06T15:23:26.704Z</time></trkpt><trkpt lat="43.2493717" lon="2.2522233"><ele>109.5</ele><time>2026-04-06T15:23:27.704Z</time></trkpt><trkpt lat="43.2493167" lon="2.2520317"><ele>110.0</ele><time>2026-04-06T15:23:28.703Z</time></trkpt><trkpt lat="43.2492667" lon="2.251855"><ele>110.5</ele><time>2026-04-06T15:23:29.703Z</time></trkpt><trkpt lat="43.24922" lon="2.2516983"><ele>111.0</ele><time>2026-04-06T15:23:30.705Z</time></trkpt><trkpt lat="43.24916" lon="2.2515733"><ele>111.0</ele><time>2026-04-06T15:23:31.702Z</time></trkpt><trkpt lat="43.2490783" lon="2.2514883"><ele>111.0</ele><time>2026-04-06T15:23:32.705Z</time></trkpt><trkpt lat="43.2489817" lon="2.2514267"><ele>111.0</ele><time>2026-04-06T15:23:33.703Z</time></trkpt><trkpt lat="43.248885" lon="2.2513667"><ele>111.0</ele><time>2026-04-06T15:23:34.701Z</time></trkpt><trkpt lat="43.2487917" lon="2.25132"><ele>111.0</ele><time>2026-04-06T15:23:35.706Z</time></trkpt><trkpt lat="43.2487" lon="2.251275"><ele>111.33333333333333</ele><time>2026-04-06T15:23:36.706Z</time></trkpt><trkpt lat="43.24863" lon="2.25122"><ele>111.66666666666666</ele><time>2026-04-06T15:23:37.701Z</time></trkpt><trkpt lat="43.24857" lon="2.2511533"><ele>112.0</ele><time>2026-04-06T15:23:38.705Z</time></trkpt><trkpt lat="43.2485267" lon="2.2510683"><ele>112.33333333333333</ele><time>2026-04-06T15:23:39.705Z</time></trkpt><trkpt lat="43.2484967" lon="2.2509667"><ele>112.66666666666666</ele><time>2026-04-06T15:23:40.704Z</time></trkpt><trkpt lat="43.2484767" lon="2.2508583"><ele>113.0</ele><time>2026-04-06T15:23:41.703Z</time></trkpt><trkpt lat="43.2484733" lon="2.2507267"><ele>112.5</ele><time>2026-04-06T15:23:42.701Z</time></trkpt><trkpt lat="43.2484633" lon="2.2505817"><ele>112.0</ele><time>2026-04-06T15:23:43.703Z</time></trkpt><trkpt lat="43.2484717" lon="2.2504217"><ele>111.5</ele><time>2026-04-06T15:23:44.704Z</time></trkpt><trkpt lat="43.2484833" lon="2.2502583"><ele>111.0</ele><time>2026-04-06T15:23:45.697Z</time></trkpt><trkpt lat="43.2484983" lon="2.25009"><ele>111.0</ele><time>2026-04-06T15:23:46.705Z</time></trkpt><trkpt lat="43.24852" lon="2.2499117"><ele>111.0</ele><time>2026-04-06T15:23:47.704Z</time></trkpt><trkpt lat="43.2485383" lon="2.2497217"><ele>111.0</ele><time>2026-04-06T15:23:48.703Z</time></trkpt><trkpt lat="43.2485467" lon="2.2495183"><ele>111.0</ele><time>2026-04-06T15:23:49.702Z</time></trkpt><trkpt lat="43.24855" lon="2.2493017"><ele>110.66666666666666</ele><time>2026-04-06T15:23:50.707Z</time></trkpt><trkpt lat="43.248555" lon="2.249085"><ele>110.33333333333333</ele><time>2026-04-06T15:23:51.704Z</time></trkpt><trkpt lat="43.2485567" lon="2.2488667"><ele>110.0</ele><time>2026-04-06T15:23:52.704Z</time></trkpt><trkpt lat="43.2485617" lon="2.2486517"><ele>110.0</ele><time>2026-04-06T15:23:53.701Z</time></trkpt><trkpt lat="43.2485683" lon="2.2484367"><ele>110.0</ele><time>2026-04-06T15:23:54.703Z</time></trkpt><trkpt lat="43.24858" lon="2.24823"><ele>110.0</ele><time>2026-04-06T15:23:55.702Z</time></trkpt><trkpt lat="43.2486033" lon="2.2480283"><ele>109.75</ele><time>2026-04-06T15:23:56.701Z</time></trkpt><trkpt lat="43.2486267" lon="2.2478367"><ele>109.5</ele><time>2026-04-06T15:23:57.701Z</time></trkpt><trkpt lat="43.248635" lon="2.247645"><ele>109.25</ele><time>2026-04-06T15:23:58.703Z</time></trkpt><trkpt lat="43.2486333" lon="2.2474467"><ele>109.0</ele><time>2026-04-06T15:23:59.705Z</time></trkpt><trkpt lat="43.248625" lon="2.247235"><ele>109.0</ele><time>2026-04-06T15:24:00.701Z</time></trkpt><trkpt lat="43.2486133" lon="2.2470117"><ele>109.0</ele><time>2026-04-06T15:24:01.704Z</time></trkpt><trkpt lat="43.248605" lon="2.246775"><ele>109.0</ele><time>2026-04-06T15:24:02.705Z</time></trkpt><trkpt lat="43.2485983" lon="2.2465217"><ele>109.33333333333334</ele><time>2026-04-06T15:24:03.705Z</time></trkpt><trkpt lat="43.24859" lon="2.24625"><ele>109.66666666666666</ele><time>2026-04-06T15:24:04.705Z</time></trkpt><trkpt lat="43.2485833" lon="2.2459817"><ele>110.0</ele><time>2026-04-06T15:24:05.702Z</time></trkpt><trkpt lat="43.2485767" lon="2.2457167"><ele>110.33333333333333</ele><time>2026-04-06T15:24:06.703Z</time></trkpt><trkpt lat="43.2485717" lon="2.2454567"><ele>110.66666666666666</ele><time>2026-04-06T15:24:07.7Z</time></trkpt><trkpt lat="43.2485683" lon="2.2451933"><ele>111.0</ele><time>2026-04-06T15:24:08.707Z</time></trkpt><trkpt lat="43.2485683" lon="2.244925"><ele>111.66666666666666</ele><time>2026-04-06T15:24:09.702Z</time></trkpt><trkpt lat="43.24857" lon="2.2446583"><ele>112.33333333333333</ele><time>2026-04-06T15:24:10.704Z</time></trkpt><trkpt lat="43.2485733" lon="2.244395"><ele>113.0</ele><time>2026-04-06T15:24:11.701Z</time></trkpt><trkpt lat="43.2485767" lon="2.244135"><ele>113.33333333333333</ele><time>2026-04-06T15:24:12.704Z</time></trkpt><trkpt lat="43.2485767" lon="2.2438783"><ele>113.66666666666666</ele><time>2026-04-06T15:24:13.701Z</time></trkpt><trkpt lat="43.24858" lon="2.24363"><ele>114.0</ele><time>2026-04-06T15:24:14.703Z</time></trkpt><trkpt lat="43.2485867" lon="2.2433833"><ele>114.0</ele><time>2026-04-06T15:24:15.705Z</time></trkpt><trkpt lat="43.2486" lon="2.2431417"><ele>114.0</ele><time>2026-04-06T15:24:16.701Z</time></trkpt><trkpt lat="43.2486133" lon="2.2429033"><ele>114.0</ele><time>2026-04-06T15:24:17.703Z</time></trkpt><trkpt lat="43.24863" lon="2.2426733"><ele>115.33333333333334</ele><time>2026-04-06T15:24:18.704Z</time></trkpt><trkpt lat="43.2486467" lon="2.2424417"><ele>116.66666666666667</ele><time>2026-04-06T15:24:19.705Z</time></trkpt><trkpt lat="43.2486633" lon="2.24222"><ele>118.0</ele><time>2026-04-06T15:24:20.707Z</time></trkpt><trkpt lat="43.2486833" lon="2.2420117"><ele>118.5</ele><time>2026-04-06T15:24:21.701Z</time></trkpt><trkpt lat="43.2486967" lon="2.2418117"><ele>119.0</ele><time>2026-04-06T15:24:22.703Z</time></trkpt><trkpt lat="43.2487" lon="2.24162"><ele>119.5</ele><time>2026-04-06T15:24:23.706Z</time></trkpt><trkpt lat="43.2486883" lon="2.2414383"><ele>120.0</ele><time>2026-04-06T15:24:24.706Z</time></trkpt><trkpt lat="43.2486483" lon="2.2412583"><ele>120.0</ele><time>2026-04-06T15:24:25.702Z</time></trkpt><trkpt lat="43.2485917" lon="2.2410833"><ele>120.0</ele><time>2026-04-06T15:24:26.704Z</time></trkpt><trkpt lat="43.2485183" lon="2.2409283"><ele>120.0</ele><time>2026-04-06T15:24:27.705Z</time></trkpt><trkpt lat="43.2484367" lon="2.240785"><ele>120.0</ele><time>2026-04-06T15:24:28.701Z</time></trkpt><trkpt lat="43.2483433" lon="2.2406583"><ele>120.0</ele><time>2026-04-06T15:24:29.702Z</time></trkpt><trkpt lat="43.2482333" lon="2.2405483"><ele>120.0</ele><time>2026-04-06T15:24:30.704Z</time></trkpt><trkpt lat="43.2480867" lon="2.2404833"><ele>120.0</ele><time>2026-04-06T15:24:31.702Z</time></trkpt><trkpt lat="43.2479433" lon="2.2404383"><ele>120.0</ele><time>2026-04-06T15:24:32.707Z</time></trkpt><trkpt lat="43.2478" lon="2.2404183"><ele>120.0</ele><time>2026-04-06T15:24:33.699Z</time></trkpt><trkpt lat="43.2476683" lon="2.24039"><ele>120.0</ele><time>2026-04-06T15:24:34.701Z</time></trkpt><trkpt lat="43.2475283" lon="2.2403433"><ele>120.0</ele><time>2026-04-06T15:24:35.703Z</time></trkpt><trkpt lat="43.2473917" lon="2.2402717"><ele>120.0</ele><time>2026-04-06T15:24:36.704Z</time></trkpt><trkpt lat="43.247265" lon="2.2401833"><ele>120.0</ele><time>2026-04-06T15:24:37.703Z</time></trkpt><trkpt lat="43.2471333" lon="2.2400667"><ele>120.0</ele><time>2026-04-06T15:24:38.703Z</time></trkpt><trkpt lat="43.24701" lon="2.2399433"><ele>120.0</ele><time>2026-04-06T15:24:39.704Z</time></trkpt><trkpt lat="43.2469" lon="2.239795"><ele>120.0</ele><time>2026-04-06T15:24:40.702Z</time></trkpt><trkpt lat="43.246795" lon="2.2396367"><ele>120.0</ele><time>2026-04-06T15:24:41.706Z</time></trkpt><trkpt lat="43.2466933" lon="2.23947"><ele>120.0</ele><time>2026-04-06T15:24:42.703Z</time></trkpt><trkpt lat="43.2466083" lon="2.2392983"><ele>120.0</ele><time>2026-04-06T15:24:43.705Z</time></trkpt><trkpt lat="43.246535" lon="2.239125"><ele>120.0</ele><time>2026-04-06T15:24:44.702Z</time></trkpt><trkpt lat="43.2464717" lon="2.2389567"><ele>120.0</ele><time>2026-04-06T15:24:45.707Z</time></trkpt><trkpt lat="43.2464167" lon="2.2387967"><ele>120.0</ele><time>2026-04-06T15:24:46.704Z</time></trkpt><trkpt lat="43.2463683" lon="2.2386433"><ele>120.25</ele><time>2026-04-06T15:24:47.704Z</time></trkpt><trkpt lat="43.2463167" lon="2.2384867"><ele>120.5</ele><time>2026-04-06T15:24:48.706Z</time></trkpt><trkpt lat="43.2462583" lon="2.2383417"><ele>120.75</ele><time>2026-04-06T15:24:49.702Z</time></trkpt><trkpt lat="43.2461867" lon="2.2382183"><ele>121.0</ele><time>2026-04-06T15:24:50.703Z</time></trkpt><trkpt lat="43.2460833" lon="2.2381467"><ele>119.75</ele><time>2026-04-06T15:24:51.704Z</time></trkpt><trkpt lat="43.24598" lon="2.2380917"><ele>118.5</ele><time>2026-04-06T15:24:52.701Z</time></trkpt><trkpt lat="43.2458667" lon="2.2380533"><ele>117.25</ele><time>2026-04-06T15:24:53.703Z</time></trkpt><trkpt lat="43.2457467" lon="2.2380283"><ele>116.0</ele><time>2026-04-06T15:24:54.704Z</time></trkpt><trkpt lat="43.2456167" lon="2.23799"><ele>115.0</ele><time>2026-04-06T15:24:55.703Z</time></trkpt><trkpt lat="43.2454883" lon="2.2379517"><ele>114.0</ele><time>2026-04-06T15:24:56.706Z</time></trkpt><trkpt lat="43.2453667" lon="2.2379167"><ele>113.0</ele><time>2026-04-06T15:24:57.702Z</time></trkpt><trkpt lat="43.2452467" lon="2.2378833"><ele>112.0</ele><time>2026-04-06T15:24:58.704Z</time></trkpt><trkpt lat="43.2451333" lon="2.2378383"><ele>112.0</ele><time>2026-04-06T15:24:59.701Z</time></trkpt><trkpt lat="43.2450267" lon="2.2377733"><ele>112.0</ele><time>2026-04-06T15:25:00.698Z</time></trkpt><trkpt lat="43.244915" lon="2.2376917"><ele>112.0</ele><time>2026-04-06T15:25:01.702Z</time></trkpt><trkpt lat="43.2447967" lon="2.2376067"><ele>112.0</ele><time>2026-04-06T15:25:02.705Z</time></trkpt><trkpt lat="43.2446717" lon="2.2375183"><ele>112.0</ele><time>2026-04-06T15:25:03.701Z</time></trkpt><trkpt lat="43.2445433" lon="2.2374217"><ele>112.0</ele><time>2026-04-06T15:25:04.701Z</time></trkpt><trkpt lat="43.24441" lon="2.2373183"><ele>112.0</ele><time>2026-04-06T15:25:05.698Z</time></trkpt><trkpt lat="43.244275" lon="2.2372183"><ele>112.0</ele><time>2026-04-06T15:25:06.704Z</time></trkpt><trkpt lat="43.2441367" lon="2.2371167"><ele>112.0</ele><time>2026-04-06T15:25:07.701Z</time></trkpt><trkpt lat="43.2440067" lon="2.2370033"><ele>112.0</ele><time>2026-04-06T15:25:08.703Z</time></trkpt><trkpt lat="43.2438783" lon="2.2368867"><ele>112.0</ele><time>2026-04-06T15:25:09.698Z</time></trkpt><trkpt lat="43.2437533" lon="2.2367617"><ele>112.0</ele><time>2026-04-06T15:25:10.701Z</time></trkpt><trkpt lat="43.24363" lon="2.2366383"><ele>112.0</ele><time>2026-04-06T15:25:11.703Z</time></trkpt><trkpt lat="43.2435167" lon="2.2365217"><ele>112.0</ele><time>2026-04-06T15:25:12.704Z</time></trkpt><trkpt lat="43.2434017" lon="2.2364183"><ele>111.75</ele><time>2026-04-06T15:25:13.705Z</time></trkpt><trkpt lat="43.2432867" lon="2.236325"><ele>111.5</ele><time>2026-04-06T15:25:14.705Z</time></trkpt><trkpt lat="43.24319" lon="2.23623"><ele>111.25</ele><time>2026-04-06T15:25:15.702Z</time></trkpt><trkpt lat="43.2431067" lon="2.2361267"><ele>111.0</ele><time>2026-04-06T15:25:16.703Z</time></trkpt><trkpt lat="43.24304" lon="2.2360117"><ele>111.0</ele><time>2026-04-06T15:25:17.702Z</time></trkpt><trkpt lat="43.2430133" lon="2.2358833"><ele>111.0</ele><time>2026-04-06T15:25:18.704Z</time></trkpt><trkpt lat="43.243005" lon="2.23575"><ele>111.0</ele><time>2026-04-06T15:25:19.705Z</time></trkpt><trkpt lat="43.2429683" lon="2.2356217"><ele>111.0</ele><time>2026-04-06T15:25:20.702Z</time></trkpt><trkpt lat="43.242925" lon="2.2354917"><ele>111.0</ele><time>2026-04-06T15:25:21.705Z</time></trkpt><trkpt lat="43.2428483" lon="2.23537"><ele>111.33333333333334</ele><time>2026-04-06T15:25:22.701Z</time></trkpt><trkpt lat="43.2427217" lon="2.2352833"><ele>111.66666666666667</ele><time>2026-04-06T15:25:23.699Z</time></trkpt><trkpt lat="43.2425717" lon="2.235225"><ele>112.0</ele><time>2026-04-06T15:25:24.704Z</time></trkpt><trkpt lat="43.2424233" lon="2.2351667"><ele>112.0</ele><time>2026-04-06T15:25:25.703Z</time></trkpt><trkpt lat="43.2422783" lon="2.2351033"><ele>112.0</ele><time>2026-04-06T15:25:26.701Z</time></trkpt><trkpt lat="43.2421333" lon="2.2350367"><ele>112.0</ele><time>2026-04-06T15:25:27.705Z</time></trkpt><trkpt lat="43.24199" lon="2.23497"><ele>112.0</ele><time>2026-04-06T15:25:28.705Z</time></trkpt><trkpt lat="43.2418467" lon="2.2349"><ele>112.0</ele><time>2026-04-06T15:25:29.706Z</time></trkpt><trkpt lat="43.2417067" lon="2.2348267"><ele>112.0</ele><time>2026-04-06T15:25:30.703Z</time></trkpt><trkpt lat="43.2415733" lon="2.2347517"><ele>112.0</ele><time>2026-04-06T15:25:31.701Z</time></trkpt><trkpt lat="43.24145" lon="2.2346733"><ele>112.25</ele><time>2026-04-06T15:25:32.701Z</time></trkpt><trkpt lat="43.2413367" lon="2.234595"><ele>112.5</ele><time>2026-04-06T15:25:33.705Z</time></trkpt><trkpt lat="43.24124" lon="2.2344983"><ele>112.75</ele><time>2026-04-06T15:25:34.702Z</time></trkpt><trkpt lat="43.2411683" lon="2.2343733"><ele>113.0</ele><time>2026-04-06T15:25:35.705Z</time></trkpt><trkpt lat="43.24113" lon="2.2342317"><ele>112.99999999999999</ele><time>2026-04-06T15:25:36.708Z</time></trkpt><trkpt lat="43.2411" lon="2.2340933"><ele>113.0</ele><time>2026-04-06T15:25:37.699Z</time></trkpt><trkpt lat="43.24107" lon="2.23397"><ele>113.0</ele><time>2026-04-06T15:25:38.704Z</time></trkpt><trkpt lat="43.24104" lon="2.2338567"><ele>113.0</ele><time>2026-04-06T15:25:39.705Z</time></trkpt><trkpt lat="43.2410017" lon="2.2337583"><ele>112.99999999999999</ele><time>2026-04-06T15:25:40.706Z</time></trkpt><trkpt lat="43.2409783" lon="2.2336583"><ele>113.0</ele><time>2026-04-06T15:25:41.702Z</time></trkpt><trkpt lat="43.2409633" lon="2.2335567"><ele>113.16666666666666</ele><time>2026-04-06T15:25:42.703Z</time></trkpt><trkpt lat="43.24095" lon="2.23345"><ele>113.33333333333333</ele><time>2026-04-06T15:25:43.704Z</time></trkpt><trkpt lat="43.2409417" lon="2.2333333"><ele>113.5</ele><time>2026-04-06T15:25:44.704Z</time></trkpt><trkpt lat="43.2409367" lon="2.23321"><ele>113.66666666666666</ele><time>2026-04-06T15:25:45.705Z</time></trkpt><trkpt lat="43.240925" lon="2.23308"><ele>113.83333333333333</ele><time>2026-04-06T15:25:46.704Z</time></trkpt><trkpt lat="43.2409267" lon="2.2329517"><ele>114.0</ele><time>2026-04-06T15:25:47.699Z</time></trkpt><trkpt lat="43.24092" lon="2.2328333"><ele>114.16666666666667</ele><time>2026-04-06T15:25:48.701Z</time></trkpt><trkpt lat="43.240915" lon="2.2327217"><ele>114.33333333333334</ele><time>2026-04-06T15:25:49.701Z</time></trkpt><trkpt lat="43.2409083" lon="2.232615"><ele>114.5</ele><time>2026-04-06T15:25:50.706Z</time></trkpt><trkpt lat="43.2409017" lon="2.2325117"><ele>114.66666666666667</ele><time>2026-04-06T15:25:51.703Z</time></trkpt><trkpt lat="43.2408933" lon="2.2324017"><ele>114.83333333333334</ele><time>2026-04-06T15:25:52.7Z</time></trkpt><trkpt lat="43.24089" lon="2.2322967"><ele>115.0</ele><time>2026-04-06T15:25:53.702Z</time></trkpt><trkpt lat="43.2408967" lon="2.232195"><ele>115.33333333333334</ele><time>2026-04-06T15:25:54.706Z</time></trkpt><trkpt lat="43.2409267" lon="2.232095"><ele>115.66666666666667</ele><time>2026-04-06T15:25:55.701Z</time></trkpt><trkpt lat="43.2409667" lon="2.2319983"><ele>116.0</ele><time>2026-04-06T15:25:56.705Z</time></trkpt><trkpt lat="43.2410183" lon="2.2319133"><ele>116.33333333333334</ele><time>2026-04-06T15:25:57.701Z</time></trkpt><trkpt lat="43.241085" lon="2.2318483"><ele>116.66666666666667</ele><time>2026-04-06T15:25:58.705Z</time></trkpt><trkpt lat="43.241145" lon="2.2317733"><ele>117.0</ele><time>2026-04-06T15:25:59.706Z</time></trkpt><trkpt lat="43.2412067" lon="2.23169"><ele>117.0</ele><time>2026-04-06T15:26:00.704Z</time></trkpt><trkpt lat="43.24126" lon="2.231595"><ele>116.99999999999999</ele><time>2026-04-06T15:26:01.705Z</time></trkpt><trkpt lat="43.241305" lon="2.2314817"><ele>116.99999999999999</ele><time>2026-04-06T15:26:02.702Z</time></trkpt><trkpt lat="43.241345" lon="2.231345"><ele>117.0</ele><time>2026-04-06T15:26:03.701Z</time></trkpt><trkpt lat="43.2413817" lon="2.2311917"><ele>117.0</ele><time>2026-04-06T15:26:04.705Z</time></trkpt><trkpt lat="43.2414217" lon="2.23103"><ele>117.25</ele><time>2026-04-06T15:26:05.701Z</time></trkpt><trkpt lat="43.2414617" lon="2.2308667"><ele>117.5</ele><time>2026-04-06T15:26:06.707Z</time></trkpt><trkpt lat="43.2415017" lon="2.2307017"><ele>117.75</ele><time>2026-04-06T15:26:07.704Z</time></trkpt><trkpt lat="43.24154" lon="2.230525"><ele>118.0</ele><time>2026-04-06T15:26:08.706Z</time></trkpt><trkpt lat="43.2415767" lon="2.23034"><ele>117.0</ele><time>2026-04-06T15:26:09.701Z</time></trkpt><trkpt lat="43.241615" lon="2.2301533"><ele>116.0</ele><time>2026-04-06T15:26:10.704Z</time></trkpt><trkpt lat="43.2416617" lon="2.2299733"><ele>115.0</ele><time>2026-04-06T15:26:11.702Z</time></trkpt><trkpt lat="43.2417033" lon="2.2297883"><ele>114.0</ele><time>2026-04-06T15:26:12.706Z</time></trkpt><trkpt lat="43.241745" lon="2.2295983"><ele>114.0</ele><time>2026-04-06T15:26:13.703Z</time></trkpt><trkpt lat="43.2417933" lon="2.2294117"><ele>114.0</ele><time>2026-04-06T15:26:14.705Z</time></trkpt><trkpt lat="43.2418483" lon="2.2292317"><ele>114.0</ele><time>2026-04-06T15:26:15.702Z</time></trkpt><trkpt lat="43.2419033" lon="2.2290567"><ele>114.0</ele><time>2026-04-06T15:26:16.703Z</time></trkpt><trkpt lat="43.2419633" lon="2.228895"><ele>114.25</ele><time>2026-04-06T15:26:17.704Z</time></trkpt><trkpt lat="43.2420217" lon="2.2287383"><ele>114.5</ele><time>2026-04-06T15:26:18.707Z</time></trkpt><trkpt lat="43.2420833" lon="2.2285917"><ele>114.75</ele><time>2026-04-06T15:26:19.704Z</time></trkpt><trkpt lat="43.2421417" lon="2.228455"><ele>115.0</ele><time>2026-04-06T15:26:20.705Z</time></trkpt><trkpt lat="43.2422" lon="2.2283267"><ele>115.0</ele><time>2026-04-06T15:26:21.704Z</time></trkpt><trkpt lat="43.2422483" lon="2.2282"><ele>115.0</ele><time>2026-04-06T15:26:22.706Z</time></trkpt><trkpt lat="43.2422883" lon="2.2280717"><ele>115.0</ele><time>2026-04-06T15:26:23.705Z</time></trkpt><trkpt lat="43.2423283" lon="2.2279383"><ele>115.0</ele><time>2026-04-06T15:26:24.704Z</time></trkpt><trkpt lat="43.24236" lon="2.2278"><ele>115.0</ele><time>2026-04-06T15:26:25.701Z</time></trkpt><trkpt lat="43.2423933" lon="2.2276633"><ele>114.5</ele><time>2026-04-06T15:26:26.699Z</time></trkpt><trkpt lat="43.2424183" lon="2.2275183"><ele>114.0</ele><time>2026-04-06T15:26:27.706Z</time></trkpt><trkpt lat="43.242435" lon="2.2273633"><ele>113.5</ele><time>2026-04-06T15:26:28.707Z</time></trkpt><trkpt lat="43.2424533" lon="2.2272017"><ele>113.0</ele><time>2026-04-06T15:26:29.706Z</time></trkpt><trkpt lat="43.2424667" lon="2.2270267"><ele>113.0</ele><time>2026-04-06T15:26:30.704Z</time></trkpt><trkpt lat="43.2424783" lon="2.2268483"><ele>113.0</ele><time>2026-04-06T15:26:31.705Z</time></trkpt><trkpt lat="43.2424883" lon="2.2266767"><ele>113.0</ele><time>2026-04-06T15:26:32.704Z</time></trkpt><trkpt lat="43.2425" lon="2.22651"><ele>113.0</ele><time>2026-04-06T15:26:33.705Z</time></trkpt><trkpt lat="43.24252" lon="2.2263533"><ele>112.5</ele><time>2026-04-06T15:26:34.706Z</time></trkpt><trkpt lat="43.2425467" lon="2.2262"><ele>112.0</ele><time>2026-04-06T15:26:35.701Z</time></trkpt><trkpt lat="43.2425767" lon="2.2260483"><ele>111.5</ele><time>2026-04-06T15:26:36.709Z</time></trkpt><trkpt lat="43.2426017" lon="2.2258867"><ele>111.0</ele><time>2026-04-06T15:26:37.705Z</time></trkpt><trkpt lat="43.24263" lon="2.2257217"><ele>111.5</ele><time>2026-04-06T15:26:38.705Z</time></trkpt><trkpt lat="43.2426617" lon="2.2255583"><ele>112.0</ele><time>2026-04-06T15:26:39.702Z</time></trkpt><trkpt lat="43.242695" lon="2.2253917"><ele>112.5</ele><time>2026-04-06T15:26:40.701Z</time></trkpt><trkpt lat="43.2427217" lon="2.2252233"><ele>113.0</ele><time>2026-04-06T15:26:41.704Z</time></trkpt><trkpt lat="43.2427433" lon="2.225055"><ele>113.0</ele><time>2026-04-06T15:26:42.705Z</time></trkpt><trkpt lat="43.2427633" lon="2.2248867"><ele>113.0</ele><time>2026-04-06T15:26:43.699Z</time></trkpt><trkpt lat="43.242775" lon="2.22472"><ele>113.0</ele><time>2026-04-06T15:26:44.708Z</time></trkpt><trkpt lat="43.242775" lon="2.224555"><ele>113.0</ele><time>2026-04-06T15:26:45.704Z</time></trkpt><trkpt lat="43.242765" lon="2.22439"><ele>113.25</ele><time>2026-04-06T15:26:46.701Z</time></trkpt><trkpt lat="43.24275" lon="2.22423"><ele>113.5</ele><time>2026-04-06T15:26:47.704Z</time></trkpt><trkpt lat="43.242735" lon="2.2240733"><ele>113.75</ele><time>2026-04-06T15:26:48.706Z</time></trkpt><trkpt lat="43.2427267" lon="2.2239183"><ele>114.0</ele><time>2026-04-06T15:26:49.705Z</time></trkpt><trkpt lat="43.2427317" lon="2.223765"><ele>114.0</ele><time>2026-04-06T15:26:50.705Z</time></trkpt><trkpt lat="43.2427517" lon="2.2236117"><ele>114.0</ele><time>2026-04-06T15:26:51.705Z</time></trkpt><trkpt lat="43.2427783" lon="2.2234483"><ele>114.0</ele><time>2026-04-06T15:26:52.705Z</time></trkpt><trkpt lat="43.2428117" lon="2.223275"><ele>114.0</ele><time>2026-04-06T15:26:53.704Z</time></trkpt><trkpt lat="43.24285" lon="2.2230883"><ele>113.66666666666666</ele><time>2026-04-06T15:26:54.703Z</time></trkpt><trkpt lat="43.2428883" lon="2.2228967"><ele>113.33333333333333</ele><time>2026-04-06T15:26:55.702Z</time></trkpt><trkpt lat="43.24293" lon="2.2226983"><ele>113.0</ele><time>2026-04-06T15:26:56.705Z</time></trkpt><trkpt lat="43.242975" lon="2.222485"><ele>113.0</ele><time>2026-04-06T15:26:57.702Z</time></trkpt><trkpt lat="43.2430233" lon="2.2222583"><ele>113.0</ele><time>2026-04-06T15:26:58.704Z</time></trkpt><trkpt lat="43.2430767" lon="2.2220217"><ele>113.0</ele><time>2026-04-06T15:26:59.705Z</time></trkpt><trkpt lat="43.2431317" lon="2.2217833"><ele>113.0</ele><time>2026-04-06T15:27:00.699Z</time></trkpt><trkpt lat="43.2431833" lon="2.2215533"><ele>113.0</ele><time>2026-04-06T15:27:01.703Z</time></trkpt><trkpt lat="43.243235" lon="2.2213283"><ele>113.0</ele><time>2026-04-06T15:27:02.707Z</time></trkpt><trkpt lat="43.243285" lon="2.2211033"><ele>113.0</ele><time>2026-04-06T15:27:03.7Z</time></trkpt><trkpt lat="43.2433367" lon="2.2208783"><ele>113.0</ele><time>2026-04-06T15:27:04.703Z</time></trkpt><trkpt lat="43.243395" lon="2.2206583"><ele>113.0</ele><time>2026-04-06T15:27:05.701Z</time></trkpt><trkpt lat="43.2434583" lon="2.2204467"><ele>113.33333333333333</ele><time>2026-04-06T15:27:06.702Z</time></trkpt><trkpt lat="43.2435267" lon="2.2202483"><ele>113.66666666666666</ele><time>2026-04-06T15:27:07.705Z</time></trkpt><trkpt lat="43.2435933" lon="2.220065"><ele>114.0</ele><time>2026-04-06T15:27:08.698Z</time></trkpt><trkpt lat="43.2436583" lon="2.2198867"><ele>114.25</ele><time>2026-04-06T15:27:09.701Z</time></trkpt><trkpt lat="43.2437133" lon="2.2197217"><ele>114.5</ele><time>2026-04-06T15:27:10.704Z</time></trkpt><trkpt lat="43.2437683" lon="2.2195717"><ele>114.75</ele><time>2026-04-06T15:27:11.703Z</time></trkpt><trkpt lat="43.2438217" lon="2.2194333"><ele>115.0</ele><time>2026-04-06T15:27:12.705Z</time></trkpt><trkpt lat="43.24387" lon="2.219305"><ele>115.0</ele><time>2026-04-06T15:27:13.703Z</time></trkpt><trkpt lat="43.243915" lon="2.2191867"><ele>115.0</ele><time>2026-04-06T15:27:14.705Z</time></trkpt><trkpt lat="43.2439583" lon="2.2190733"><ele>115.0</ele><time>2026-04-06T15:27:15.701Z</time></trkpt><trkpt lat="43.244" lon="2.21896"><ele>115.0</ele><time>2026-04-06T15:27:16.7Z</time></trkpt><trkpt lat="43.244045" lon="2.21884"><ele>115.0</ele><time>2026-04-06T15:27:17.699Z</time></trkpt><trkpt lat="43.2440917" lon="2.2187117"><ele>115.0</ele><time>2026-04-06T15:27:18.705Z</time></trkpt><trkpt lat="43.2441367" lon="2.21857"><ele>115.0</ele><time>2026-04-06T15:27:19.704Z</time></trkpt><trkpt lat="43.24419" lon="2.2184267"><ele>115.0</ele><time>2026-04-06T15:27:20.705Z</time></trkpt><trkpt lat="43.2442433" lon="2.2182767"><ele>115.0</ele><time>2026-04-06T15:27:21.706Z</time></trkpt><trkpt lat="43.2442933" lon="2.2181383"><ele>115.2</ele><time>2026-04-06T15:27:22.699Z</time></trkpt><trkpt lat="43.2443383" lon="2.2180067"><ele>115.4</ele><time>2026-04-06T15:27:23.699Z</time></trkpt><trkpt lat="43.24438" lon="2.2178783"><ele>115.6</ele><time>2026-04-06T15:27:24.704Z</time></trkpt><trkpt lat="43.2444217" lon="2.2177483"><ele>115.8</ele><time>2026-04-06T15:27:25.703Z</time></trkpt><trkpt lat="43.2444667" lon="2.2176267"><ele>116.0</ele><time>2026-04-06T15:27:26.701Z</time></trkpt><trkpt lat="43.244515" lon="2.2175033"><ele>116.0</ele><time>2026-04-06T15:27:27.703Z</time></trkpt><trkpt lat="43.2445633" lon="2.217375"><ele>116.0</ele><time>2026-04-06T15:27:28.704Z</time></trkpt><trkpt lat="43.2446167" lon="2.21724"><ele>116.0</ele><time>2026-04-06T15:27:29.701Z</time></trkpt><trkpt lat="43.24468" lon="2.2171017"><ele>116.0</ele><time>2026-04-06T15:27:30.701Z</time></trkpt><trkpt lat="43.2447533" lon="2.216965"><ele>116.0</ele><time>2026-04-06T15:27:31.706Z</time></trkpt><trkpt lat="43.24483" lon="2.2168367"><ele>116.0</ele><time>2026-04-06T15:27:32.702Z</time></trkpt><trkpt lat="43.24491" lon="2.216715"><ele>116.0</ele><time>2026-04-06T15:27:33.702Z</time></trkpt><trkpt lat="43.24499" lon="2.2165967"><ele>116.0</ele><time>2026-04-06T15:27:34.702Z</time></trkpt><trkpt lat="43.245065" lon="2.2164783"><ele>116.0</ele><time>2026-04-06T15:27:35.7Z</time></trkpt><trkpt lat="43.2451333" lon="2.21636"><ele>116.0</ele><time>2026-04-06T15:27:36.705Z</time></trkpt><trkpt lat="43.245195" lon="2.2162467"><ele>116.0</ele><time>2026-04-06T15:27:37.701Z</time></trkpt><trkpt lat="43.24525" lon="2.2161317"><ele>116.0</ele><time>2026-04-06T15:27:38.703Z</time></trkpt><trkpt lat="43.2453" lon="2.2160183"><ele>116.0</ele><time>2026-04-06T15:27:39.702Z</time></trkpt><trkpt lat="43.24535" lon="2.2159067"><ele>116.0</ele><time>2026-04-06T15:27:40.7Z</time></trkpt><trkpt lat="43.2454" lon="2.2157933"><ele>116.0</ele><time>2026-04-06T15:27:41.702Z</time></trkpt><trkpt lat="43.24545" lon="2.215675"><ele>116.0</ele><time>2026-04-06T15:27:42.699Z</time></trkpt><trkpt lat="43.2455" lon="2.2155533"><ele>116.0</ele><time>2026-04-06T15:27:43.699Z</time></trkpt><trkpt lat="43.2455533" lon="2.2154317"><ele>116.0</ele><time>2026-04-06T15:27:44.704Z</time></trkpt><trkpt lat="43.2456083" lon="2.2153083"><ele>115.8</ele><time>2026-04-06T15:27:45.706Z</time></trkpt><trkpt lat="43.2456633" lon="2.2151817"><ele>115.6</ele><time>2026-04-06T15:27:46.701Z</time></trkpt><trkpt lat="43.2457117" lon="2.2150467"><ele>115.4</ele><time>2026-04-06T15:27:47.702Z</time></trkpt><trkpt lat="43.245765" lon="2.2149083"><ele>115.2</ele><time>2026-04-06T15:27:48.704Z</time></trkpt><trkpt lat="43.24582" lon="2.2147717"><ele>115.0</ele><time>2026-04-06T15:27:49.705Z</time></trkpt><trkpt lat="43.2458733" lon="2.2146383"><ele>115.4</ele><time>2026-04-06T15:27:50.702Z</time></trkpt><trkpt lat="43.2459283" lon="2.2145133"><ele>115.8</ele><time>2026-04-06T15:27:51.702Z</time></trkpt><trkpt lat="43.2459817" lon="2.2143933"><ele>116.19999999999999</ele><time>2026-04-06T15:27:52.701Z</time></trkpt><trkpt lat="43.2460317" lon="2.2142817"><ele>116.6</ele><time>2026-04-06T15:27:53.702Z</time></trkpt><trkpt lat="43.2460783" lon="2.2141783"><ele>117.0</ele><time>2026-04-06T15:27:54.703Z</time></trkpt><trkpt lat="43.2461217" lon="2.2140733"><ele>117.39999999999999</ele><time>2026-04-06T15:27:55.701Z</time></trkpt><trkpt lat="43.246165" lon="2.21396"><ele>117.79999999999998</ele><time>2026-04-06T15:27:56.7Z</time></trkpt><trkpt lat="43.2462167" lon="2.213845"><ele>118.2</ele><time>2026-04-06T15:27:57.703Z</time></trkpt><trkpt lat="43.2462733" lon="2.2137317"><ele>118.6</ele><time>2026-04-06T15:27:58.701Z</time></trkpt><trkpt lat="43.246335" lon="2.2136233"><ele>119.0</ele><time>2026-04-06T15:27:59.706Z</time></trkpt><trkpt lat="43.2464017" lon="2.2135117"><ele>118.80000000000001</ele><time>2026-04-06T15:28:00.704Z</time></trkpt><trkpt lat="43.2464667" lon="2.2134"><ele>118.60000000000001</ele><time>2026-04-06T15:28:01.705Z</time></trkpt><trkpt lat="43.2465283" lon="2.2132883"><ele>118.4</ele><time>2026-04-06T15:28:02.702Z</time></trkpt><trkpt lat="43.24659" lon="2.213175"><ele>118.2</ele><time>2026-04-06T15:28:03.703Z</time></trkpt><trkpt lat="43.2466483" lon="2.2130617"><ele>118.0</ele><time>2026-04-06T15:28:04.703Z</time></trkpt><trkpt lat="43.2467067" lon="2.2129533"><ele>118.50000000000001</ele><time>2026-04-06T15:28:05.701Z</time></trkpt><trkpt lat="43.2467667" lon="2.2128567"><ele>119.0</ele><time>2026-04-06T15:28:06.705Z</time></trkpt><trkpt lat="43.2468283" lon="2.2127733"><ele>119.5</ele><time>2026-04-06T15:28:07.702Z</time></trkpt><trkpt lat="43.246895" lon="2.212705"><ele>120.0</ele><time>2026-04-06T15:28:08.704Z</time></trkpt><trkpt lat="43.2469583" lon="2.212655"><ele>120.50000000000001</ele><time>2026-04-06T15:28:09.705Z</time></trkpt><trkpt lat="43.24702" lon="2.212615"><ele>121.0</ele><time>2026-04-06T15:28:10.703Z</time></trkpt><trkpt lat="43.2471217" lon="2.2125433"><ele>121.0</ele><time>2026-04-06T15:28:12.702Z</time></trkpt><trkpt lat="43.2471917" lon="2.212455"><ele>121.0</ele><time>2026-04-06T15:28:14.703Z</time></trkpt><trkpt lat="43.2472367" lon="2.2123117"><ele>121.0</ele><time>2026-04-06T15:28:16.703Z</time></trkpt><trkpt lat="43.2472417" lon="2.2121567"><ele>121.0</ele><time>2026-04-06T15:28:18.703Z</time></trkpt><trkpt lat="43.2472183" lon="2.2120317"><ele>121.0</ele><time>2026-04-06T15:28:20.705Z</time></trkpt><trkpt lat="43.2472483" lon="2.2119167"><ele>120.83333333333334</ele><time>2026-04-06T15:28:22.701Z</time></trkpt><trkpt lat="43.2473117" lon="2.2117967"><ele>120.66666666666667</ele><time>2026-04-06T15:28:24.706Z</time></trkpt><trkpt lat="43.2473583" lon="2.2117233"><ele>120.5</ele><time>2026-04-06T15:28:25.702Z</time></trkpt><trkpt lat="43.2474033" lon="2.2116533"><ele>120.33333333333334</ele><time>2026-04-06T15:28:26.704Z</time></trkpt><trkpt lat="43.24745" lon="2.2115867"><ele>120.16666666666667</ele><time>2026-04-06T15:28:27.703Z</time></trkpt><trkpt lat="43.2474917" lon="2.2115167"><ele>120.0</ele><time>2026-04-06T15:28:28.701Z</time></trkpt><trkpt lat="43.2475533" lon="2.21137"><ele>120.6</ele><time>2026-04-06T15:28:30.705Z</time></trkpt><trkpt lat="43.2475917" lon="2.2112467"><ele>121.2</ele><time>2026-04-06T15:28:32.706Z</time></trkpt><trkpt lat="43.2475683" lon="2.2111367"><ele>121.80000000000001</ele><time>2026-04-06T15:28:34.703Z</time></trkpt><trkpt lat="43.24752" lon="2.21104"><ele>122.4</ele><time>2026-04-06T15:28:37.705Z</time></trkpt><trkpt lat="43.2475983" lon="2.2110833"><ele>123.0</ele><time>2026-04-06T15:28:41.704Z</time></trkpt><trkpt lat="43.247705" lon="2.211195"><ele>123.0</ele><time>2026-04-06T15:28:43.703Z</time></trkpt><trkpt lat="43.2477783" lon="2.211265"><ele>123.0</ele><time>2026-04-06T15:28:44.702Z</time></trkpt><trkpt lat="43.247835" lon="2.2113217"><ele>123.0</ele><time>2026-04-06T15:28:45.703Z</time></trkpt><trkpt lat="43.2478967" lon="2.211365"><ele>123.0</ele><time>2026-04-06T15:28:46.696Z</time></trkpt><trkpt lat="43.2479633" lon="2.2114283"><ele>123.0</ele><time>2026-04-06T15:28:47.705Z</time></trkpt><trkpt lat="43.2480367" lon="2.2114983"><ele>123.0</ele><time>2026-04-06T15:28:48.703Z</time></trkpt><trkpt lat="43.2481433" lon="2.2115433"><ele>121.66666666666667</ele><time>2026-04-06T15:28:49.704Z</time></trkpt><trkpt lat="43.2482417" lon="2.2115783"><ele>120.33333333333334</ele><time>2026-04-06T15:28:50.705Z</time></trkpt><trkpt lat="43.248315" lon="2.211625"><ele>119.0</ele><time>2026-04-06T15:28:51.703Z</time></trkpt><trkpt lat="43.24838" lon="2.2116667"><ele>117.66666666666667</ele><time>2026-04-06T15:28:52.703Z</time></trkpt><trkpt lat="43.2484383" lon="2.211715"><ele>116.33333333333334</ele><time>2026-04-06T15:28:53.705Z</time></trkpt><trkpt lat="43.2485" lon="2.2117483"><ele>115.0</ele><time>2026-04-06T15:28:54.705Z</time></trkpt><trkpt lat="43.248565" lon="2.211745"><ele>115.0</ele><time>2026-04-06T15:28:55.697Z</time></trkpt><trkpt lat="43.2486333" lon="2.21164"><ele>115.0</ele><time>2026-04-06T15:28:56.704Z</time></trkpt><trkpt lat="43.2486917" lon="2.21154"><ele>115.0</ele><time>2026-04-06T15:28:57.704Z</time></trkpt><trkpt lat="43.2487467" lon="2.211445"><ele>115.0</ele><time>2026-04-06T15:28:58.702Z</time></trkpt><trkpt lat="43.2488017" lon="2.2113517"><ele>115.0</ele><time>2026-04-06T15:28:59.704Z</time></trkpt><trkpt lat="43.2488617" lon="2.2112617"><ele>114.8</ele><time>2026-04-06T15:29:00.707Z</time></trkpt><trkpt lat="43.24894" lon="2.21121"><ele>114.6</ele><time>2026-04-06T15:29:01.706Z</time></trkpt><trkpt lat="43.2490367" lon="2.2111783"><ele>114.4</ele><time>2026-04-06T15:29:02.705Z</time></trkpt><trkpt lat="43.2491717" lon="2.2112017"><ele>114.2</ele><time>2026-04-06T15:29:03.702Z</time></trkpt><trkpt lat="43.24929" lon="2.2112267"><ele>114.0</ele><time>2026-04-06T15:29:04.702Z</time></trkpt><trkpt lat="43.2494067" lon="2.21126"><ele>114.0</ele><time>2026-04-06T15:29:05.706Z</time></trkpt><trkpt lat="43.2495267" lon="2.211315"><ele>114.0</ele><time>2026-04-06T15:29:06.703Z</time></trkpt><trkpt lat="43.24965" lon="2.2113733"><ele>114.0</ele><time>2026-04-06T15:29:07.702Z</time></trkpt><trkpt lat="43.24977" lon="2.2114317"><ele>114.0</ele><time>2026-04-06T15:29:08.705Z</time></trkpt><trkpt lat="43.2498933" lon="2.211465"><ele>114.0</ele><time>2026-04-06T15:29:09.702Z</time></trkpt><trkpt lat="43.2500233" lon="2.2114783"><ele>114.0</ele><time>2026-04-06T15:29:10.704Z</time></trkpt><trkpt lat="43.2501583" lon="2.2114833"><ele>114.0</ele><time>2026-04-06T15:29:11.704Z</time></trkpt><trkpt lat="43.2502933" lon="2.2114833"><ele>114.0</ele><time>2026-04-06T15:29:12.702Z</time></trkpt><trkpt lat="43.25043" lon="2.2114833"><ele>114.0</ele><time>2026-04-06T15:29:13.701Z</time></trkpt><trkpt lat="43.2505667" lon="2.211475"><ele>114.0</ele><time>2026-04-06T15:29:14.706Z</time></trkpt><trkpt lat="43.2507067" lon="2.211465"><ele>114.0</ele><time>2026-04-06T15:29:15.701Z</time></trkpt><trkpt lat="43.2508467" lon="2.2114517"><ele>114.0</ele><time>2026-04-06T15:29:16.701Z</time></trkpt><trkpt lat="43.250985" lon="2.21144"><ele>114.0</ele><time>2026-04-06T15:29:17.7Z</time></trkpt><trkpt lat="43.2511167" lon="2.2114367"><ele>114.0</ele><time>2026-04-06T15:29:18.7Z</time></trkpt><trkpt lat="43.25124" lon="2.2114383"><ele>114.0</ele><time>2026-04-06T15:29:19.705Z</time></trkpt><trkpt lat="43.251355" lon="2.2114433"><ele>114.0</ele><time>2026-04-06T15:29:20.707Z</time></trkpt><trkpt lat="43.2514583" lon="2.2114483"><ele>114.0</ele><time>2026-04-06T15:29:21.704Z</time></trkpt><trkpt lat="43.2515483" lon="2.2114683"><ele>114.0</ele><time>2026-04-06T15:29:22.703Z</time></trkpt><trkpt lat="43.2516267" lon="2.2115"><ele>114.0</ele><time>2026-04-06T15:29:23.701Z</time></trkpt><trkpt lat="43.251695" lon="2.2115233"><ele>114.0</ele><time>2026-04-06T15:29:24.706Z</time></trkpt><trkpt lat="43.251805" lon="2.2114917"><ele>114.0</ele><time>2026-04-06T15:29:26.705Z</time></trkpt><trkpt lat="43.251865" lon="2.2114483"><ele>114.0</ele><time>2026-04-06T15:29:27.702Z</time></trkpt><trkpt lat="43.2519217" lon="2.21137"><ele>114.0</ele><time>2026-04-06T15:29:28.701Z</time></trkpt><trkpt lat="43.2519733" lon="2.2112633"><ele>114.0</ele><time>2026-04-06T15:29:29.703Z</time></trkpt><trkpt lat="43.2520417" lon="2.2111567"><ele>114.0</ele><time>2026-04-06T15:29:30.704Z</time></trkpt><trkpt lat="43.252115" lon="2.2110417"><ele>114.0</ele><time>2026-04-06T15:29:31.704Z</time></trkpt><trkpt lat="43.25219" lon="2.2109283"><ele>114.0</ele><time>2026-04-06T15:29:32.7Z</time></trkpt><trkpt lat="43.25227" lon="2.2107983"><ele>114.0</ele><time>2026-04-06T15:29:33.703Z</time></trkpt><trkpt lat="43.2523467" lon="2.2106667"><ele>114.0</ele><time>2026-04-06T15:29:34.702Z</time></trkpt><trkpt lat="43.252425" lon="2.21052"><ele>114.0</ele><time>2026-04-06T15:29:35.702Z</time></trkpt><trkpt lat="43.2525017" lon="2.210375"><ele>114.0</ele><time>2026-04-06T15:29:36.703Z</time></trkpt><trkpt lat="43.2525717" lon="2.2102"><ele>114.25</ele><time>2026-04-06T15:29:37.706Z</time></trkpt><trkpt lat="43.25264" lon="2.2100233"><ele>114.5</ele><time>2026-04-06T15:29:38.705Z</time></trkpt><trkpt lat="43.2527133" lon="2.2098483"><ele>114.75</ele><time>2026-04-06T15:29:39.704Z</time></trkpt><trkpt lat="43.2527917" lon="2.2096667"><ele>115.0</ele><time>2026-04-06T15:29:40.704Z</time></trkpt><trkpt lat="43.25287" lon="2.2094817"><ele>115.0</ele><time>2026-04-06T15:29:41.703Z</time></trkpt><trkpt lat="43.2529467" lon="2.2092867"><ele>115.0</ele><time>2026-04-06T15:29:42.704Z</time></trkpt><trkpt lat="43.2530217" lon="2.2091033"><ele>115.0</ele><time>2026-04-06T15:29:43.704Z</time></trkpt><trkpt lat="43.2530983" lon="2.2089183"><ele>114.66666666666667</ele><time>2026-04-06T15:29:44.704Z</time></trkpt><trkpt lat="43.2531783" lon="2.20874"><ele>114.33333333333334</ele><time>2026-04-06T15:29:45.704Z</time></trkpt><trkpt lat="43.2532567" lon="2.2085533"><ele>114.0</ele><time>2026-04-06T15:29:46.706Z</time></trkpt><trkpt lat="43.253335" lon="2.2083683"><ele>114.0</ele><time>2026-04-06T15:29:47.704Z</time></trkpt><trkpt lat="43.253405" lon="2.2081783"><ele>114.0</ele><time>2026-04-06T15:29:48.702Z</time></trkpt><trkpt lat="43.2534667" lon="2.2079733"><ele>114.0</ele><time>2026-04-06T15:29:49.705Z</time></trkpt><trkpt lat="43.2535217" lon="2.2077633"><ele>114.0</ele><time>2026-04-06T15:29:50.702Z</time></trkpt><trkpt lat="43.2535767" lon="2.2075617"><ele>114.0</ele><time>2026-04-06T15:29:51.702Z</time></trkpt><trkpt lat="43.253625" lon="2.2073717"><ele>114.0</ele><time>2026-04-06T15:29:52.705Z</time></trkpt><trkpt lat="43.2536717" lon="2.207185"><ele>114.0</ele><time>2026-04-06T15:29:53.705Z</time></trkpt><trkpt lat="43.2537183" lon="2.20701"><ele>114.0</ele><time>2026-04-06T15:29:54.7Z</time></trkpt><trkpt lat="43.2537717" lon="2.20684"><ele>114.0</ele><time>2026-04-06T15:29:55.702Z</time></trkpt><trkpt lat="43.25384" lon="2.206675"><ele>114.0</ele><time>2026-04-06T15:29:56.704Z</time></trkpt><trkpt lat="43.2539217" lon="2.20651"><ele>114.0</ele><time>2026-04-06T15:29:57.7Z</time></trkpt><trkpt lat="43.254015" lon="2.2063417"><ele>113.66666666666666</ele><time>2026-04-06T15:29:58.704Z</time></trkpt><trkpt lat="43.2541133" lon="2.2061783"><ele>113.33333333333333</ele><time>2026-04-06T15:29:59.701Z</time></trkpt><trkpt lat="43.25421" lon="2.206015"><ele>113.0</ele><time>2026-04-06T15:30:00.704Z</time></trkpt><trkpt lat="43.2543033" lon="2.2058567"><ele>113.0</ele><time>2026-04-06T15:30:01.702Z</time></trkpt><trkpt lat="43.254395" lon="2.2056883"><ele>113.0</ele><time>2026-04-06T15:30:02.702Z</time></trkpt><trkpt lat="43.25449" lon="2.205525"><ele>113.0</ele><time>2026-04-06T15:30:03.702Z</time></trkpt><trkpt lat="43.2545833" lon="2.205365"><ele>113.33333333333333</ele><time>2026-04-06T15:30:04.698Z</time></trkpt><trkpt lat="43.2546783" lon="2.2052"><ele>113.66666666666666</ele><time>2026-04-06T15:30:05.702Z</time></trkpt><trkpt lat="43.2547767" lon="2.20504"><ele>114.0</ele><time>2026-04-06T15:30:06.706Z</time></trkpt><trkpt lat="43.2548783" lon="2.2048833"><ele>114.0</ele><time>2026-04-06T15:30:07.703Z</time></trkpt><trkpt lat="43.2549917" lon="2.2047367"><ele>114.0</ele><time>2026-04-06T15:30:08.705Z</time></trkpt><trkpt lat="43.2551117" lon="2.2046067"><ele>114.0</ele><time>2026-04-06T15:30:09.697Z</time></trkpt><trkpt lat="43.255235" lon="2.2044883"><ele>114.0</ele><time>2026-04-06T15:30:10.705Z</time></trkpt><trkpt lat="43.25536" lon="2.2043817"><ele>114.0</ele><time>2026-04-06T15:30:11.703Z</time></trkpt><trkpt lat="43.2554867" lon="2.2042867"><ele>114.0</ele><time>2026-04-06T15:30:12.705Z</time></trkpt><trkpt lat="43.2556417" lon="2.2042283"><ele>114.33333333333334</ele><time>2026-04-06T15:30:13.704Z</time></trkpt><trkpt lat="43.2558117" lon="2.20419"><ele>114.66666666666667</ele><time>2026-04-06T15:30:14.703Z</time></trkpt><trkpt lat="43.255975" lon="2.2041633"><ele>115.0</ele><time>2026-04-06T15:30:15.701Z</time></trkpt><trkpt lat="43.2561233" lon="2.2041333"><ele>115.0</ele><time>2026-04-06T15:30:16.705Z</time></trkpt><trkpt lat="43.2562583" lon="2.2040983"><ele>115.0</ele><time>2026-04-06T15:30:17.702Z</time></trkpt><trkpt lat="43.2563883" lon="2.2040767"><ele>115.0</ele><time>2026-04-06T15:30:18.705Z</time></trkpt><trkpt lat="43.256515" lon="2.2040517"><ele>115.0</ele><time>2026-04-06T15:30:19.701Z</time></trkpt><trkpt lat="43.2566333" lon="2.2040217"><ele>115.4</ele><time>2026-04-06T15:30:20.705Z</time></trkpt><trkpt lat="43.2567467" lon="2.203995"><ele>115.8</ele><time>2026-04-06T15:30:21.701Z</time></trkpt><trkpt lat="43.2568467" lon="2.2039517"><ele>116.19999999999999</ele><time>2026-04-06T15:30:22.701Z</time></trkpt><trkpt lat="43.2569317" lon="2.2038733"><ele>116.6</ele><time>2026-04-06T15:30:23.703Z</time></trkpt><trkpt lat="43.2570033" lon="2.2037567"><ele>117.0</ele><time>2026-04-06T15:30:24.698Z</time></trkpt><trkpt lat="43.2570683" lon="2.2036267"><ele>117.0</ele><time>2026-04-06T15:30:25.701Z</time></trkpt><trkpt lat="43.2571333" lon="2.2034917"><ele>117.0</ele><time>2026-04-06T15:30:26.704Z</time></trkpt><trkpt lat="43.2571933" lon="2.2033617"><ele>117.0</ele><time>2026-04-06T15:30:27.704Z</time></trkpt><trkpt lat="43.2572483" lon="2.2032267"><ele>117.0</ele><time>2026-04-06T15:30:28.705Z</time></trkpt><trkpt lat="43.2573033" lon="2.2030983"><ele>119.0</ele><time>2026-04-06T15:30:29.705Z</time></trkpt><trkpt lat="43.2573667" lon="2.202985"><ele>120.99999999999999</ele><time>2026-04-06T15:30:30.705Z</time></trkpt><trkpt lat="43.257445" lon="2.2028867"><ele>122.99999999999999</ele><time>2026-04-06T15:30:31.705Z</time></trkpt><trkpt lat="43.2575333" lon="2.202805"><ele>125.0</ele><time>2026-04-06T15:30:32.704Z</time></trkpt><trkpt lat="43.2576217" lon="2.2027167"><ele>127.0</ele><time>2026-04-06T15:30:33.7Z</time></trkpt><trkpt lat="43.2577117" lon="2.2026367"><ele>127.0</ele><time>2026-04-06T15:30:34.701Z</time></trkpt><trkpt lat="43.2578" lon="2.2025633"><ele>126.99999999999999</ele><time>2026-04-06T15:30:35.696Z</time></trkpt><trkpt lat="43.2578983" lon="2.2024983"><ele>126.99999999999999</ele><time>2026-04-06T15:30:36.704Z</time></trkpt><trkpt lat="43.2579917" lon="2.202425"><ele>127.0</ele><time>2026-04-06T15:30:37.701Z</time></trkpt><trkpt lat="43.25809" lon="2.20235"><ele>127.0</ele><time>2026-04-06T15:30:38.705Z</time></trkpt><trkpt lat="43.2581933" lon="2.2022733"><ele>127.5</ele><time>2026-04-06T15:30:39.703Z</time></trkpt><trkpt lat="43.2583033" lon="2.2021983"><ele>128.0</ele><time>2026-04-06T15:30:40.7Z</time></trkpt><trkpt lat="43.2584133" lon="2.2021217"><ele>128.5</ele><time>2026-04-06T15:30:41.701Z</time></trkpt><trkpt lat="43.2585133" lon="2.2020417"><ele>129.0</ele><time>2026-04-06T15:30:42.703Z</time></trkpt><trkpt lat="43.25861" lon="2.2019633"><ele>129.0</ele><time>2026-04-06T15:30:43.704Z</time></trkpt><trkpt lat="43.258705" lon="2.2018817"><ele>129.0</ele><time>2026-04-06T15:30:44.706Z</time></trkpt><trkpt lat="43.2588017" lon="2.2018033"><ele>129.0</ele><time>2026-04-06T15:30:45.702Z</time></trkpt><trkpt lat="43.2589133" lon="2.2017383"><ele>129.0</ele><time>2026-04-06T15:30:46.701Z</time></trkpt><trkpt lat="43.2590267" lon="2.2016833"><ele>129.25</ele><time>2026-04-06T15:30:47.701Z</time></trkpt><trkpt lat="43.2591417" lon="2.20164"><ele>129.5</ele><time>2026-04-06T15:30:48.705Z</time></trkpt><trkpt lat="43.2592583" lon="2.2015783"><ele>129.75</ele><time>2026-04-06T15:30:49.701Z</time></trkpt><trkpt lat="43.2593633" lon="2.2014967"><ele>130.0</ele><time>2026-04-06T15:30:50.706Z</time></trkpt><trkpt lat="43.2594567" lon="2.2013917"><ele>130.0</ele><time>2026-04-06T15:30:51.704Z</time></trkpt><trkpt lat="43.259545" lon="2.2012683"><ele>130.0</ele><time>2026-04-06T15:30:52.697Z</time></trkpt><trkpt lat="43.2596367" lon="2.201135"><ele>130.0</ele><time>2026-04-06T15:30:53.701Z</time></trkpt><trkpt lat="43.259735" lon="2.2009983"><ele>130.0</ele><time>2026-04-06T15:30:54.705Z</time></trkpt><trkpt lat="43.2598283" lon="2.2008483"><ele>130.0</ele><time>2026-04-06T15:30:55.703Z</time></trkpt><trkpt lat="43.2599317" lon="2.2007033"><ele>130.0</ele><time>2026-04-06T15:30:56.704Z</time></trkpt><trkpt lat="43.260035" lon="2.20056"><ele>130.0</ele><time>2026-04-06T15:30:57.701Z</time></trkpt><trkpt lat="43.2601333" lon="2.2004267"><ele>130.0</ele><time>2026-04-06T15:30:58.706Z</time></trkpt><trkpt lat="43.2602267" lon="2.2002983"><ele>130.4</ele><time>2026-04-06T15:30:59.698Z</time></trkpt><trkpt lat="43.260315" lon="2.20018"><ele>130.8</ele><time>2026-04-06T15:31:00.703Z</time></trkpt><trkpt lat="43.2603967" lon="2.200075"><ele>131.2</ele><time>2026-04-06T15:31:01.704Z</time></trkpt><trkpt lat="43.2604733" lon="2.1999767"><ele>131.6</ele><time>2026-04-06T15:31:02.704Z</time></trkpt><trkpt lat="43.2605467" lon="2.1998867"><ele>132.0</ele><time>2026-04-06T15:31:03.702Z</time></trkpt><trkpt lat="43.2606117" lon="2.1998"><ele>131.75</ele><time>2026-04-06T15:31:04.702Z</time></trkpt><trkpt lat="43.2606667" lon="2.1997317"><ele>131.5</ele><time>2026-04-06T15:31:05.704Z</time></trkpt><trkpt lat="43.26074" lon="2.1996367"><ele>131.25</ele><time>2026-04-06T15:31:07.7Z</time></trkpt><trkpt lat="43.2607733" lon="2.1994483"><ele>131.0</ele><time>2026-04-06T15:31:21.7Z</time></trkpt><trkpt lat="43.2607367" lon="2.1992533"><ele>131.0</ele><time>2026-04-06T15:31:23.702Z</time></trkpt><trkpt lat="43.2606467" lon="2.1990433"><ele>131.0</ele><time>2026-04-06T15:31:24.705Z</time></trkpt><trkpt lat="43.2605917" lon="2.1988767"><ele>131.0</ele><time>2026-04-06T15:31:25.697Z</time></trkpt><trkpt lat="43.260535" lon="2.1986933"><ele>131.33333333333331</ele><time>2026-04-06T15:31:26.704Z</time></trkpt><trkpt lat="43.2604567" lon="2.1984667"><ele>131.66666666666666</ele><time>2026-04-06T15:31:27.705Z</time></trkpt><trkpt lat="43.2603817" lon="2.198235"><ele>132.0</ele><time>2026-04-06T15:31:28.703Z</time></trkpt><trkpt lat="43.260305" lon="2.1980017"><ele>131.66666666666666</ele><time>2026-04-06T15:31:29.697Z</time></trkpt><trkpt lat="43.2602183" lon="2.1977483"><ele>131.33333333333331</ele><time>2026-04-06T15:31:30.706Z</time></trkpt><trkpt lat="43.260125" lon="2.1974717"><ele>131.0</ele><time>2026-04-06T15:31:31.701Z</time></trkpt><trkpt lat="43.2600367" lon="2.1971883"><ele>131.0</ele><time>2026-04-06T15:31:32.702Z</time></trkpt><trkpt lat="43.2599567" lon="2.19691"><ele>131.0</ele><time>2026-04-06T15:31:33.702Z</time></trkpt><trkpt lat="43.259875" lon="2.1966183"><ele>131.0</ele><time>2026-04-06T15:31:34.706Z</time></trkpt><trkpt lat="43.2597867" lon="2.196305"><ele>130.5</ele><time>2026-04-06T15:31:35.701Z</time></trkpt><trkpt lat="43.2596983" lon="2.195985"><ele>130.0</ele><time>2026-04-06T15:31:36.705Z</time></trkpt><trkpt lat="43.25961" lon="2.1956667"><ele>130.0</ele><time>2026-04-06T15:31:37.704Z</time></trkpt><trkpt lat="43.2595167" lon="2.19535"><ele>130.0</ele><time>2026-04-06T15:31:38.705Z</time></trkpt><trkpt lat="43.259415" lon="2.1950267"><ele>129.5</ele><time>2026-04-06T15:31:39.704Z</time></trkpt><trkpt lat="43.259315" lon="2.1947017"><ele>129.0</ele><time>2026-04-06T15:31:40.704Z</time></trkpt><trkpt lat="43.259215" lon="2.1943767"><ele>129.0</ele><time>2026-04-06T15:31:41.704Z</time></trkpt><trkpt lat="43.25911" lon="2.1940533"><ele>129.0</ele><time>2026-04-06T15:31:42.705Z</time></trkpt><trkpt lat="43.2590033" lon="2.19373"><ele>129.0</ele><time>2026-04-06T15:31:43.705Z</time></trkpt><trkpt lat="43.2588933" lon="2.1934067"><ele>129.0</ele><time>2026-04-06T15:31:44.703Z</time></trkpt><trkpt lat="43.2587883" lon="2.1930917"><ele>129.5</ele><time>2026-04-06T15:31:45.701Z</time></trkpt><trkpt lat="43.2586783" lon="2.1927783"><ele>130.0</ele><time>2026-04-06T15:31:46.704Z</time></trkpt><trkpt lat="43.2585733" lon="2.1924683"><ele>130.0</ele><time>2026-04-06T15:31:47.707Z</time></trkpt><trkpt lat="43.2584683" lon="2.1921567"><ele>130.0</ele><time>2026-04-06T15:31:48.703Z</time></trkpt><trkpt lat="43.2583633" lon="2.19185"><ele>130.0</ele><time>2026-04-06T15:31:49.704Z</time></trkpt><trkpt lat="43.2582583" lon="2.19154"><ele>130.0</ele><time>2026-04-06T15:31:50.703Z</time></trkpt><trkpt lat="43.25815" lon="2.1912317"><ele>129.0</ele><time>2026-04-06T15:31:51.703Z</time></trkpt><trkpt lat="43.2580417" lon="2.190925"><ele>128.0</ele><time>2026-04-06T15:31:52.702Z</time></trkpt><trkpt lat="43.2579317" lon="2.19062"><ele>127.0</ele><time>2026-04-06T15:31:53.704Z</time></trkpt><trkpt lat="43.25782" lon="2.1903233"><ele>126.0</ele><time>2026-04-06T15:31:54.704Z</time></trkpt><trkpt lat="43.25771" lon="2.1900367"><ele>126.33333333333334</ele><time>2026-04-06T15:31:55.702Z</time></trkpt><trkpt lat="43.2576" lon="2.189765"><ele>126.66666666666667</ele><time>2026-04-06T15:31:56.705Z</time></trkpt><trkpt lat="43.2574917" lon="2.1895017"><ele>127.0</ele><time>2026-04-06T15:31:57.704Z</time></trkpt><trkpt lat="43.25738" lon="2.1892483"><ele>125.33333333333334</ele><time>2026-04-06T15:31:58.702Z</time></trkpt><trkpt lat="43.2572683" lon="2.189"><ele>123.66666666666666</ele><time>2026-04-06T15:31:59.702Z</time></trkpt><trkpt lat="43.2571633" lon="2.1887517"><ele>122.0</ele><time>2026-04-06T15:32:00.702Z</time></trkpt><trkpt lat="43.2570583" lon="2.1885017"><ele>122.0</ele><time>2026-04-06T15:32:01.7Z</time></trkpt><trkpt lat="43.256955" lon="2.1882533"><ele>122.0</ele><time>2026-04-06T15:32:02.7Z</time></trkpt><trkpt lat="43.256855" lon="2.18801"><ele>122.0</ele><time>2026-04-06T15:32:03.702Z</time></trkpt><trkpt lat="43.2567583" lon="2.1877717"><ele>121.33333333333333</ele><time>2026-04-06T15:32:04.703Z</time></trkpt><trkpt lat="43.256665" lon="2.1875367"><ele>120.66666666666666</ele><time>2026-04-06T15:32:05.703Z</time></trkpt><trkpt lat="43.2565783" lon="2.1873083"><ele>120.0</ele><time>2026-04-06T15:32:06.705Z</time></trkpt><trkpt lat="43.2564983" lon="2.18708"><ele>119.0</ele><time>2026-04-06T15:32:07.706Z</time></trkpt><trkpt lat="43.2564267" lon="2.186855"><ele>118.0</ele><time>2026-04-06T15:32:08.697Z</time></trkpt><trkpt lat="43.25636" lon="2.1866333"><ele>117.0</ele><time>2026-04-06T15:32:09.703Z</time></trkpt><trkpt lat="43.256295" lon="2.18641"><ele>117.0</ele><time>2026-04-06T15:32:10.702Z</time></trkpt><trkpt lat="43.2562517" lon="2.1862067"><ele>117.0</ele><time>2026-04-06T15:32:11.7Z</time></trkpt><trkpt lat="43.25621" lon="2.1859933"><ele>117.0</ele><time>2026-04-06T15:32:12.702Z</time></trkpt><trkpt lat="43.2561667" lon="2.185795"><ele>117.25</ele><time>2026-04-06T15:32:13.7Z</time></trkpt><trkpt lat="43.2561333" lon="2.18561"><ele>117.5</ele><time>2026-04-06T15:32:14.7Z</time></trkpt><trkpt lat="43.2560967" lon="2.185435"><ele>117.75</ele><time>2026-04-06T15:32:15.703Z</time></trkpt><trkpt lat="43.25606" lon="2.18527"><ele>118.0</ele><time>2026-04-06T15:32:16.706Z</time></trkpt><trkpt lat="43.25603" lon="2.18511"><ele>118.0</ele><time>2026-04-06T15:32:17.705Z</time></trkpt><trkpt lat="43.256005" lon="2.18495"><ele>118.00000000000001</ele><time>2026-04-06T15:32:18.702Z</time></trkpt><trkpt lat="43.256" lon="2.184805"><ele>118.00000000000001</ele><time>2026-04-06T15:32:19.706Z</time></trkpt><trkpt lat="43.2560283" lon="2.1846767"><ele>118.0</ele><time>2026-04-06T15:32:20.704Z</time></trkpt><trkpt lat="43.2561283" lon="2.184635"><ele>118.0</ele><time>2026-04-06T15:32:21.701Z</time></trkpt><trkpt lat="43.25624" lon="2.1846617"><ele>118.0</ele><time>2026-04-06T15:32:22.703Z</time></trkpt><trkpt lat="43.2563617" lon="2.1847483"><ele>118.0</ele><time>2026-04-06T15:32:23.703Z</time></trkpt><trkpt lat="43.2564633" lon="2.18485"><ele>118.0</ele><time>2026-04-06T15:32:24.703Z</time></trkpt><trkpt lat="43.2565717" lon="2.1849833"><ele>118.0</ele><time>2026-04-06T15:32:25.702Z</time></trkpt><trkpt lat="43.2567017" lon="2.185185"><ele>118.0</ele><time>2026-04-06T15:32:26.704Z</time></trkpt><trkpt lat="43.2568183" lon="2.1853533"><ele>118.0</ele><time>2026-04-06T15:32:27.702Z</time></trkpt><trkpt lat="43.2569367" lon="2.1855167"><ele>118.0</ele><time>2026-04-06T15:32:28.703Z</time></trkpt><trkpt lat="43.2570583" lon="2.1856767"><ele>118.0</ele><time>2026-04-06T15:32:29.706Z</time></trkpt><trkpt lat="43.2571783" lon="2.18582"><ele>118.0</ele><time>2026-04-06T15:32:30.701Z</time></trkpt><trkpt lat="43.257305" lon="2.185965"><ele>118.0</ele><time>2026-04-06T15:32:31.705Z</time></trkpt><trkpt lat="43.2574417" lon="2.1861083"><ele>118.0</ele><time>2026-04-06T15:32:32.705Z</time></trkpt><trkpt lat="43.2575883" lon="2.1862383"><ele>118.0</ele><time>2026-04-06T15:32:33.703Z</time></trkpt><trkpt lat="43.2577483" lon="2.1863583"><ele>118.0</ele><time>2026-04-06T15:32:34.704Z</time></trkpt><trkpt lat="43.25792" lon="2.1864733"><ele>118.33333333333334</ele><time>2026-04-06T15:32:35.704Z</time></trkpt><trkpt lat="43.2581017" lon="2.186595"><ele>118.66666666666666</ele><time>2026-04-06T15:32:36.703Z</time></trkpt><trkpt lat="43.2582867" lon="2.1867267"><ele>119.0</ele><time>2026-04-06T15:32:37.703Z</time></trkpt><trkpt lat="43.2584617" lon="2.1868583"><ele>121.0</ele><time>2026-04-06T15:32:38.706Z</time></trkpt><trkpt lat="43.2586317" lon="2.1869917"><ele>123.0</ele><time>2026-04-06T15:32:39.703Z</time></trkpt><trkpt lat="43.2587917" lon="2.1871183"><ele>125.0</ele><time>2026-04-06T15:32:40.698Z</time></trkpt><trkpt lat="43.2589567" lon="2.18724"><ele>126.66666666666666</ele><time>2026-04-06T15:32:41.703Z</time></trkpt><trkpt lat="43.2591317" lon="2.18735"><ele>128.33333333333334</ele><time>2026-04-06T15:32:42.706Z</time></trkpt><trkpt lat="43.25931" lon="2.18745"><ele>130.0</ele><time>2026-04-06T15:32:43.704Z</time></trkpt><trkpt lat="43.2594983" lon="2.1875433"><ele>130.0</ele><time>2026-04-06T15:32:44.701Z</time></trkpt><trkpt lat="43.2596917" lon="2.187635"><ele>130.0</ele><time>2026-04-06T15:32:45.699Z</time></trkpt><trkpt lat="43.259885" lon="2.1877283"><ele>130.0</ele><time>2026-04-06T15:32:46.702Z</time></trkpt><trkpt lat="43.2600817" lon="2.1878183"><ele>130.33333333333334</ele><time>2026-04-06T15:32:47.701Z</time></trkpt><trkpt lat="43.2602717" lon="2.1879083"><ele>130.66666666666666</ele><time>2026-04-06T15:32:48.704Z</time></trkpt><trkpt lat="43.2604633" lon="2.1879883"><ele>131.0</ele><time>2026-04-06T15:32:49.701Z</time></trkpt><trkpt lat="43.2606633" lon="2.1880467"><ele>131.0</ele><time>2026-04-06T15:32:50.706Z</time></trkpt><trkpt lat="43.2608667" lon="2.1880967"><ele>131.0</ele><time>2026-04-06T15:32:51.703Z</time></trkpt><trkpt lat="43.2610717" lon="2.1881483"><ele>131.0</ele><time>2026-04-06T15:32:52.704Z</time></trkpt><trkpt lat="43.26128" lon="2.188215"><ele>131.0</ele><time>2026-04-06T15:32:53.702Z</time></trkpt><trkpt lat="43.2614917" lon="2.1882983"><ele>131.0</ele><time>2026-04-06T15:32:54.697Z</time></trkpt><trkpt lat="43.2616983" lon="2.188405"><ele>131.0</ele><time>2026-04-06T15:32:55.701Z</time></trkpt><trkpt lat="43.2619017" lon="2.1885333"><ele>131.0</ele><time>2026-04-06T15:32:56.7Z</time></trkpt><trkpt lat="43.2621017" lon="2.188675"><ele>131.0</ele><time>2026-04-06T15:32:57.706Z</time></trkpt><trkpt lat="43.2623083" lon="2.1888217"><ele>131.0</ele><time>2026-04-06T15:32:58.703Z</time></trkpt><trkpt lat="43.26252" lon="2.1889667"><ele>131.0</ele><time>2026-04-06T15:32:59.697Z</time></trkpt><trkpt lat="43.2627317" lon="2.18912"><ele>131.0</ele><time>2026-04-06T15:33:00.699Z</time></trkpt><trkpt lat="43.262945" lon="2.1892717"><ele>131.0</ele><time>2026-04-06T15:33:01.704Z</time></trkpt><trkpt lat="43.2631633" lon="2.18942"><ele>132.5</ele><time>2026-04-06T15:33:02.704Z</time></trkpt><trkpt lat="43.2633817" lon="2.18956"><ele>134.0</ele><time>2026-04-06T15:33:03.702Z</time></trkpt><trkpt lat="43.2635983" lon="2.1896867"><ele>134.0</ele><time>2026-04-06T15:33:04.7Z</time></trkpt><trkpt lat="43.2638233" lon="2.1897967"><ele>134.0</ele><time>2026-04-06T15:33:05.703Z</time></trkpt><trkpt lat="43.2640517" lon="2.1898867"><ele>136.0</ele><time>2026-04-06T15:33:06.705Z</time></trkpt><trkpt lat="43.264285" lon="2.18995"><ele>138.0</ele><time>2026-04-06T15:33:07.706Z</time></trkpt><trkpt lat="43.2645233" lon="2.1899883"><ele>138.0</ele><time>2026-04-06T15:33:08.705Z</time></trkpt><trkpt lat="43.2647633" lon="2.19001"><ele>138.0</ele><time>2026-04-06T15:33:09.703Z</time></trkpt><trkpt lat="43.2649983" lon="2.1900183"><ele>138.5</ele><time>2026-04-06T15:33:10.702Z</time></trkpt><trkpt lat="43.2652283" lon="2.19002"><ele>139.0</ele><time>2026-04-06T15:33:11.704Z</time></trkpt><trkpt lat="43.26545" lon="2.1900167"><ele>140.0</ele><time>2026-04-06T15:33:12.705Z</time></trkpt><trkpt lat="43.265665" lon="2.1900117"><ele>141.0</ele><time>2026-04-06T15:33:13.701Z</time></trkpt><trkpt lat="43.2658767" lon="2.1900183"><ele>142.0</ele><time>2026-04-06T15:33:14.705Z</time></trkpt><trkpt lat="43.2660917" lon="2.1900517"><ele>142.0</ele><time>2026-04-06T15:33:15.702Z</time></trkpt><trkpt lat="43.2663083" lon="2.1901183"><ele>142.0</ele><time>2026-04-06T15:33:16.699Z</time></trkpt><trkpt lat="43.26653" lon="2.1902117"><ele>142.5</ele><time>2026-04-06T15:33:17.702Z</time></trkpt><trkpt lat="43.2667533" lon="2.190325"><ele>143.0</ele><time>2026-04-06T15:33:18.704Z</time></trkpt><trkpt lat="43.266975" lon="2.1904517"><ele>143.0</ele><time>2026-04-06T15:33:19.704Z</time></trkpt><trkpt lat="43.2671933" lon="2.1905867"><ele>143.0</ele><time>2026-04-06T15:33:20.703Z</time></trkpt><trkpt lat="43.2674067" lon="2.1907217"><ele>144.5</ele><time>2026-04-06T15:33:21.706Z</time></trkpt><trkpt lat="43.2676267" lon="2.1908417"><ele>146.0</ele><time>2026-04-06T15:33:22.702Z</time></trkpt><trkpt lat="43.267855" lon="2.1909467"><ele>146.0</ele><time>2026-04-06T15:33:23.703Z</time></trkpt><trkpt lat="43.2680833" lon="2.19103"><ele>146.0</ele><time>2026-04-06T15:33:24.706Z</time></trkpt><trkpt lat="43.2683117" lon="2.191095"><ele>147.0</ele><time>2026-04-06T15:33:25.708Z</time></trkpt><trkpt lat="43.2685333" lon="2.1911433"><ele>148.0</ele><time>2026-04-06T15:33:26.707Z</time></trkpt><trkpt lat="43.268745" lon="2.1911833"><ele>149.0</ele><time>2026-04-06T15:33:27.702Z</time></trkpt><trkpt lat="43.2689567" lon="2.1912167"><ele>150.33333333333331</ele><time>2026-04-06T15:33:28.704Z</time></trkpt><trkpt lat="43.2691683" lon="2.1912533"><ele>151.66666666666666</ele><time>2026-04-06T15:33:29.706Z</time></trkpt><trkpt lat="43.26938" lon="2.1912933"><ele>153.0</ele><time>2026-04-06T15:33:30.706Z</time></trkpt><trkpt lat="43.2695983" lon="2.191335"><ele>154.0</ele><time>2026-04-06T15:33:31.704Z</time></trkpt><trkpt lat="43.2698167" lon="2.1913917"><ele>155.0</ele><time>2026-04-06T15:33:32.705Z</time></trkpt><trkpt lat="43.2700367" lon="2.19146"><ele>156.0</ele><time>2026-04-06T15:33:33.703Z</time></trkpt><trkpt lat="43.2702617" lon="2.19153"><ele>157.0</ele><time>2026-04-06T15:33:34.703Z</time></trkpt><trkpt lat="43.270485" lon="2.1916033"><ele>158.0</ele><time>2026-04-06T15:33:35.706Z</time></trkpt><trkpt lat="43.270705" lon="2.19167"><ele>158.5</ele><time>2026-04-06T15:33:36.704Z</time></trkpt><trkpt lat="43.27093" lon="2.1917283"><ele>159.0</ele><time>2026-04-06T15:33:37.706Z</time></trkpt><trkpt lat="43.2711583" lon="2.1917783"><ele>159.0</ele><time>2026-04-06T15:33:38.706Z</time></trkpt><trkpt lat="43.2713883" lon="2.1918167"><ele>159.0</ele><time>2026-04-06T15:33:39.703Z</time></trkpt><trkpt lat="43.2716117" lon="2.19184"><ele>160.0</ele><time>2026-04-06T15:33:40.705Z</time></trkpt><trkpt lat="43.2718383" lon="2.1918633"><ele>161.0</ele><time>2026-04-06T15:33:41.704Z</time></trkpt><trkpt lat="43.2720667" lon="2.1918733"><ele>161.5</ele><time>2026-04-06T15:33:42.705Z</time></trkpt><trkpt lat="43.2722983" lon="2.1918867"><ele>162.0</ele><time>2026-04-06T15:33:43.704Z</time></trkpt><trkpt lat="43.2725317" lon="2.1919033"><ele>162.0</ele><time>2026-04-06T15:33:44.705Z</time></trkpt><trkpt lat="43.27277" lon="2.1919283"><ele>162.0</ele><time>2026-04-06T15:33:45.705Z</time></trkpt><trkpt lat="43.2730067" lon="2.1919667"><ele>162.5</ele><time>2026-04-06T15:33:46.704Z</time></trkpt><trkpt lat="43.2732433" lon="2.1920133"><ele>163.0</ele><time>2026-04-06T15:33:47.7Z</time></trkpt><trkpt lat="43.2734833" lon="2.192065"><ele>163.0</ele><time>2026-04-06T15:33:48.703Z</time></trkpt><trkpt lat="43.2737233" lon="2.1921267"><ele>163.0</ele><time>2026-04-06T15:33:49.699Z</time></trkpt><trkpt lat="43.2739533" lon="2.19219"><ele>162.5</ele><time>2026-04-06T15:33:50.705Z</time></trkpt><trkpt lat="43.2741783" lon="2.1922517"><ele>162.0</ele><time>2026-04-06T15:33:51.696Z</time></trkpt><trkpt lat="43.2743967" lon="2.1923117"><ele>162.0</ele><time>2026-04-06T15:33:52.701Z</time></trkpt><trkpt lat="43.2746083" lon="2.1923683"><ele>162.0</ele><time>2026-04-06T15:33:53.698Z</time></trkpt><trkpt lat="43.27482" lon="2.1924267"><ele>162.0</ele><time>2026-04-06T15:33:54.706Z</time></trkpt><trkpt lat="43.2750367" lon="2.19249"><ele>162.0</ele><time>2026-04-06T15:33:55.701Z</time></trkpt><trkpt lat="43.2752517" lon="2.19255"><ele>162.0</ele><time>2026-04-06T15:33:56.705Z</time></trkpt><trkpt lat="43.2754633" lon="2.1926"><ele>162.0</ele><time>2026-04-06T15:33:57.7Z</time></trkpt><trkpt lat="43.2756683" lon="2.19265"><ele>162.0</ele><time>2026-04-06T15:33:58.701Z</time></trkpt><trkpt lat="43.2758633" lon="2.1926883"><ele>162.0</ele><time>2026-04-06T15:33:59.704Z</time></trkpt><trkpt lat="43.2760467" lon="2.1927233"><ele>162.0</ele><time>2026-04-06T15:34:00.704Z</time></trkpt><trkpt lat="43.2762317" lon="2.1927517"><ele>162.0</ele><time>2026-04-06T15:34:01.706Z</time></trkpt><trkpt lat="43.2764217" lon="2.1927783"><ele>162.0</ele><time>2026-04-06T15:34:02.705Z</time></trkpt><trkpt lat="43.2766133" lon="2.19283"><ele>162.0</ele><time>2026-04-06T15:34:03.706Z</time></trkpt><trkpt lat="43.2768017" lon="2.1929133"><ele>160.0</ele><time>2026-04-06T15:34:04.705Z</time></trkpt><trkpt lat="43.276985" lon="2.1930417"><ele>158.0</ele><time>2026-04-06T15:34:05.706Z</time></trkpt><trkpt lat="43.2771683" lon="2.1931917"><ele>156.0</ele><time>2026-04-06T15:34:06.705Z</time></trkpt><trkpt lat="43.2773533" lon="2.193345"><ele>156.0</ele><time>2026-04-06T15:34:07.704Z</time></trkpt><trkpt lat="43.2775483" lon="2.1934983"><ele>156.0</ele><time>2026-04-06T15:34:08.705Z</time></trkpt><trkpt lat="43.2777433" lon="2.19366"><ele>156.0</ele><time>2026-04-06T15:34:09.702Z</time></trkpt><trkpt lat="43.2779367" lon="2.1938233"><ele>156.0</ele><time>2026-04-06T15:34:10.7Z</time></trkpt><trkpt lat="43.2781267" lon="2.19399"><ele>157.33333333333334</ele><time>2026-04-06T15:34:11.704Z</time></trkpt><trkpt lat="43.2783133" lon="2.194165"><ele>158.66666666666669</ele><time>2026-04-06T15:34:12.706Z</time></trkpt><trkpt lat="43.2784933" lon="2.1943467"><ele>160.0</ele><time>2026-04-06T15:34:13.7Z</time></trkpt><trkpt lat="43.27867" lon="2.1945283"><ele>160.0</ele><time>2026-04-06T15:34:14.7Z</time></trkpt><trkpt lat="43.2788383" lon="2.1947083"><ele>160.0</ele><time>2026-04-06T15:34:15.706Z</time></trkpt><trkpt lat="43.2790083" lon="2.194885"><ele>160.0</ele><time>2026-04-06T15:34:16.702Z</time></trkpt><trkpt lat="43.2791783" lon="2.195065"><ele>161.66666666666669</ele><time>2026-04-06T15:34:17.701Z</time></trkpt><trkpt lat="43.2793483" lon="2.1952383"><ele>163.33333333333334</ele><time>2026-04-06T15:34:18.706Z</time></trkpt><trkpt lat="43.2795183" lon="2.19542"><ele>165.0</ele><time>2026-04-06T15:34:19.705Z</time></trkpt><trkpt lat="43.2796867" lon="2.195595"><ele>166.33333333333334</ele><time>2026-04-06T15:34:20.699Z</time></trkpt><trkpt lat="43.27986" lon="2.1957717"><ele>167.66666666666669</ele><time>2026-04-06T15:34:21.701Z</time></trkpt><trkpt lat="43.2800333" lon="2.1959517"><ele>169.0</ele><time>2026-04-06T15:34:22.702Z</time></trkpt><trkpt lat="43.280205" lon="2.19613"><ele>169.0</ele><time>2026-04-06T15:34:23.703Z</time></trkpt><trkpt lat="43.280375" lon="2.1963117"><ele>169.0</ele><time>2026-04-06T15:34:24.703Z</time></trkpt><trkpt lat="43.280545" lon="2.1964917"><ele>169.0</ele><time>2026-04-06T15:34:25.705Z</time></trkpt><trkpt lat="43.2807217" lon="2.1966733"><ele>169.33333333333334</ele><time>2026-04-06T15:34:26.703Z</time></trkpt><trkpt lat="43.2809017" lon="2.19686"><ele>169.66666666666666</ele><time>2026-04-06T15:34:27.704Z</time></trkpt><trkpt lat="43.2810783" lon="2.1970483"><ele>170.0</ele><time>2026-04-06T15:34:28.701Z</time></trkpt><trkpt lat="43.28126" lon="2.1972367"><ele>171.5</ele><time>2026-04-06T15:34:29.704Z</time></trkpt><trkpt lat="43.28144" lon="2.1974283"><ele>173.0</ele><time>2026-04-06T15:34:30.699Z</time></trkpt><trkpt lat="43.2816233" lon="2.197615"><ele>173.0</ele><time>2026-04-06T15:34:31.703Z</time></trkpt><trkpt lat="43.2818067" lon="2.1977983"><ele>173.0</ele><time>2026-04-06T15:34:32.702Z</time></trkpt><trkpt lat="43.28199" lon="2.1979867"><ele>173.66666666666666</ele><time>2026-04-06T15:34:33.704Z</time></trkpt><trkpt lat="43.2821733" lon="2.1981717"><ele>174.33333333333334</ele><time>2026-04-06T15:34:34.704Z</time></trkpt><trkpt lat="43.2823467" lon="2.19835"><ele>175.0</ele><time>2026-04-06T15:34:35.699Z</time></trkpt><trkpt lat="43.2825117" lon="2.1985217"><ele>176.66666666666669</ele><time>2026-04-06T15:34:36.703Z</time></trkpt><trkpt lat="43.282675" lon="2.198685"><ele>178.33333333333334</ele><time>2026-04-06T15:34:37.702Z</time></trkpt><trkpt lat="43.282825" lon="2.1988517"><ele>180.0</ele><time>2026-04-06T15:34:38.702Z</time></trkpt><trkpt lat="43.2829617" lon="2.1990267"><ele>180.0</ele><time>2026-04-06T15:34:39.703Z</time></trkpt><trkpt lat="43.283085" lon="2.19922"><ele>180.0</ele><time>2026-04-06T15:34:40.701Z</time></trkpt><trkpt lat="43.28319" lon="2.1994367"><ele>180.0</ele><time>2026-04-06T15:34:41.704Z</time></trkpt><trkpt lat="43.2832783" lon="2.1996683"><ele>182.0</ele><time>2026-04-06T15:34:42.705Z</time></trkpt><trkpt lat="43.283365" lon="2.1999117"><ele>184.0</ele><time>2026-04-06T15:34:43.703Z</time></trkpt><trkpt lat="43.283455" lon="2.200155"><ele>186.0</ele><time>2026-04-06T15:34:44.701Z</time></trkpt><trkpt lat="43.2835467" lon="2.2004017"><ele>186.0</ele><time>2026-04-06T15:34:45.703Z</time></trkpt><trkpt lat="43.28364" lon="2.2006517"><ele>186.0</ele><time>2026-04-06T15:34:46.702Z</time></trkpt><trkpt lat="43.2837317" lon="2.2009067"><ele>186.0</ele><time>2026-04-06T15:34:47.702Z</time></trkpt><trkpt lat="43.2838233" lon="2.2011583"><ele>186.33333333333334</ele><time>2026-04-06T15:34:48.704Z</time></trkpt><trkpt lat="43.2839233" lon="2.201415"><ele>186.66666666666669</ele><time>2026-04-06T15:34:49.703Z</time></trkpt><trkpt lat="43.284025" lon="2.20167"><ele>187.0</ele><time>2026-04-06T15:34:50.701Z</time></trkpt><trkpt lat="43.28412" lon="2.2019233"><ele>189.33333333333334</ele><time>2026-04-06T15:34:51.703Z</time></trkpt><trkpt lat="43.2842117" lon="2.20217"><ele>191.66666666666669</ele><time>2026-04-06T15:34:52.705Z</time></trkpt><trkpt lat="43.2843017" lon="2.202415"><ele>194.0</ele><time>2026-04-06T15:34:53.703Z</time></trkpt><trkpt lat="43.2843933" lon="2.2026583"><ele>194.0</ele><time>2026-04-06T15:34:54.701Z</time></trkpt><trkpt lat="43.2844783" lon="2.202895"><ele>194.0</ele><time>2026-04-06T15:34:55.702Z</time></trkpt><trkpt lat="43.2845617" lon="2.2031283"><ele>194.0</ele><time>2026-04-06T15:34:56.703Z</time></trkpt><trkpt lat="43.2846417" lon="2.2033533"><ele>195.0</ele><time>2026-04-06T15:34:57.704Z</time></trkpt><trkpt lat="43.284725" lon="2.203565"><ele>196.0</ele><time>2026-04-06T15:34:58.703Z</time></trkpt><trkpt lat="43.2848117" lon="2.2037683"><ele>197.0</ele><time>2026-04-06T15:34:59.701Z</time></trkpt><trkpt lat="43.2849183" lon="2.2039433"><ele>198.33333333333334</ele><time>2026-04-06T15:35:00.705Z</time></trkpt><trkpt lat="43.2850517" lon="2.20408"><ele>199.66666666666669</ele><time>2026-04-06T15:35:01.703Z</time></trkpt><trkpt lat="43.2852083" lon="2.20416"><ele>201.0</ele><time>2026-04-06T15:35:02.7Z</time></trkpt><trkpt lat="43.2853717" lon="2.20422"><ele>201.0</ele><time>2026-04-06T15:35:03.702Z</time></trkpt><trkpt lat="43.285535" lon="2.2042767"><ele>201.0</ele><time>2026-04-06T15:35:04.703Z</time></trkpt><trkpt lat="43.2856867" lon="2.2043317"><ele>201.0</ele><time>2026-04-06T15:35:05.705Z</time></trkpt><trkpt lat="43.2858333" lon="2.20438"><ele>201.25</ele><time>2026-04-06T15:35:06.706Z</time></trkpt><trkpt lat="43.285985" lon="2.204415"><ele>201.5</ele><time>2026-04-06T15:35:07.7Z</time></trkpt><trkpt lat="43.2861333" lon="2.2044283"><ele>201.75</ele><time>2026-04-06T15:35:08.706Z</time></trkpt><trkpt lat="43.286275" lon="2.2044067"><ele>202.0</ele><time>2026-04-06T15:35:09.7Z</time></trkpt><trkpt lat="43.2864117" lon="2.2043617"><ele>201.25</ele><time>2026-04-06T15:35:10.703Z</time></trkpt><trkpt lat="43.2865483" lon="2.2043117"><ele>200.5</ele><time>2026-04-06T15:35:11.703Z</time></trkpt><trkpt lat="43.286675" lon="2.2042617"><ele>199.75</ele><time>2026-04-06T15:35:12.703Z</time></trkpt><trkpt lat="43.2867967" lon="2.2042133"><ele>199.0</ele><time>2026-04-06T15:35:13.701Z</time></trkpt><trkpt lat="43.2869067" lon="2.204185"><ele>199.0</ele><time>2026-04-06T15:35:14.701Z</time></trkpt><trkpt lat="43.286995" lon="2.20422"><ele>199.0</ele><time>2026-04-06T15:35:15.705Z</time></trkpt><trkpt lat="43.2870617" lon="2.2043083"><ele>199.0</ele><time>2026-04-06T15:35:16.702Z</time></trkpt><trkpt lat="43.2871117" lon="2.204435"><ele>199.0</ele><time>2026-04-06T15:35:17.701Z</time></trkpt><trkpt lat="43.2871267" lon="2.2045933"><ele>199.0</ele><time>2026-04-06T15:35:18.701Z</time></trkpt><trkpt lat="43.2871333" lon="2.2047633"><ele>198.0</ele><time>2026-04-06T15:35:19.7Z</time></trkpt><trkpt lat="43.2871283" lon="2.20494"><ele>197.0</ele><time>2026-04-06T15:35:20.703Z</time></trkpt><trkpt lat="43.28711" lon="2.205125"><ele>196.0</ele><time>2026-04-06T15:35:21.703Z</time></trkpt><trkpt lat="43.287075" lon="2.20531"><ele>195.0</ele><time>2026-04-06T15:35:22.702Z</time></trkpt><trkpt lat="43.287035" lon="2.2055083"><ele>193.33333333333334</ele><time>2026-04-06T15:35:23.7Z</time></trkpt><trkpt lat="43.286985" lon="2.2057083"><ele>191.66666666666669</ele><time>2026-04-06T15:35:24.704Z</time></trkpt><trkpt lat="43.28692" lon="2.2059133"><ele>190.0</ele><time>2026-04-06T15:35:25.701Z</time></trkpt><trkpt lat="43.2868633" lon="2.20613"><ele>190.0</ele><time>2026-04-06T15:35:26.707Z</time></trkpt><trkpt lat="43.2868183" lon="2.20635"><ele>190.0</ele><time>2026-04-06T15:35:27.701Z</time></trkpt><trkpt lat="43.2867933" lon="2.20657"><ele>190.0</ele><time>2026-04-06T15:35:28.703Z</time></trkpt><trkpt lat="43.2867717" lon="2.2067833"><ele>189.0</ele><time>2026-04-06T15:35:29.703Z</time></trkpt><trkpt lat="43.286755" lon="2.2069817"><ele>188.0</ele><time>2026-04-06T15:35:30.705Z</time></trkpt><trkpt lat="43.2867483" lon="2.20717"><ele>187.0</ele><time>2026-04-06T15:35:31.705Z</time></trkpt><trkpt lat="43.2867283" lon="2.2073267"><ele>186.0</ele><time>2026-04-06T15:35:32.706Z</time></trkpt><trkpt lat="43.2867333" lon="2.207475"><ele>185.60000000000002</ele><time>2026-04-06T15:35:33.704Z</time></trkpt><trkpt lat="43.28679" lon="2.2075967"><ele>185.2</ele><time>2026-04-06T15:35:34.704Z</time></trkpt><trkpt lat="43.2868367" lon="2.2076867"><ele>184.8</ele><time>2026-04-06T15:35:35.699Z</time></trkpt><trkpt lat="43.28693" lon="2.207695"><ele>184.39999999999998</ele><time>2026-04-06T15:35:36.706Z</time></trkpt><trkpt lat="43.2870083" lon="2.2076817"><ele>184.0</ele><time>2026-04-06T15:35:37.701Z</time></trkpt><trkpt lat="43.2871217" lon="2.2076267"><ele>183.33333333333334</ele><time>2026-04-06T15:35:38.704Z</time></trkpt><trkpt lat="43.2872617" lon="2.2075867"><ele>182.66666666666666</ele><time>2026-04-06T15:35:39.704Z</time></trkpt><trkpt lat="43.2874083" lon="2.2075733"><ele>182.0</ele><time>2026-04-06T15:35:40.702Z</time></trkpt><trkpt lat="43.2875867" lon="2.20758"><ele>182.0</ele><time>2026-04-06T15:35:41.704Z</time></trkpt><trkpt lat="43.2877717" lon="2.2075983"><ele>182.0</ele><time>2026-04-06T15:35:42.706Z</time></trkpt><trkpt lat="43.28796" lon="2.2076117"><ele>182.0</ele><time>2026-04-06T15:35:43.701Z</time></trkpt><trkpt lat="43.28816" lon="2.20763"><ele>184.66666666666666</ele><time>2026-04-06T15:35:44.704Z</time></trkpt><trkpt lat="43.2883783" lon="2.207655"><ele>187.33333333333334</ele><time>2026-04-06T15:35:45.697Z</time></trkpt><trkpt lat="43.2885967" lon="2.2076733"><ele>190.0</ele><time>2026-04-06T15:35:46.701Z</time></trkpt><trkpt lat="43.2888067" lon="2.2076717"><ele>191.66666666666669</ele><time>2026-04-06T15:35:47.702Z</time></trkpt><trkpt lat="43.2890167" lon="2.2076583"><ele>193.33333333333334</ele><time>2026-04-06T15:35:48.707Z</time></trkpt><trkpt lat="43.2892133" lon="2.2076517"><ele>195.0</ele><time>2026-04-06T15:35:49.706Z</time></trkpt><trkpt lat="43.2894083" lon="2.207655"><ele>195.0</ele><time>2026-04-06T15:35:50.704Z</time></trkpt><trkpt lat="43.2895867" lon="2.2076483"><ele>195.0</ele><time>2026-04-06T15:35:51.705Z</time></trkpt><trkpt lat="43.2897517" lon="2.2076383"><ele>195.0</ele><time>2026-04-06T15:35:52.706Z</time></trkpt><trkpt lat="43.2899133" lon="2.2076183"><ele>196.33333333333331</ele><time>2026-04-06T15:35:53.705Z</time></trkpt><trkpt lat="43.2900783" lon="2.2076017"><ele>197.66666666666666</ele><time>2026-04-06T15:35:54.707Z</time></trkpt><trkpt lat="43.2902433" lon="2.2075783"><ele>199.0</ele><time>2026-04-06T15:35:55.703Z</time></trkpt><trkpt lat="43.2904083" lon="2.2075533"><ele>199.0</ele><time>2026-04-06T15:35:56.705Z</time></trkpt><trkpt lat="43.290565" lon="2.2074983"><ele>199.0</ele><time>2026-04-06T15:35:57.701Z</time></trkpt><trkpt lat="43.290715" lon="2.2074117"><ele>199.0</ele><time>2026-04-06T15:35:58.705Z</time></trkpt><trkpt lat="43.2908583" lon="2.207315"><ele>199.0</ele><time>2026-04-06T15:35:59.706Z</time></trkpt><trkpt lat="43.2909867" lon="2.2072"><ele>199.0</ele><time>2026-04-06T15:36:00.705Z</time></trkpt><trkpt lat="43.2911117" lon="2.2070833"><ele>199.0</ele><time>2026-04-06T15:36:01.703Z</time></trkpt><trkpt lat="43.291235" lon="2.20697"><ele>199.0</ele><time>2026-04-06T15:36:02.707Z</time></trkpt><trkpt lat="43.2913617" lon="2.2068833"><ele>199.0</ele><time>2026-04-06T15:36:03.706Z</time></trkpt><trkpt lat="43.2914933" lon="2.2068317"><ele>199.0</ele><time>2026-04-06T15:36:04.7Z</time></trkpt><trkpt lat="43.2916233" lon="2.2068067"><ele>199.0</ele><time>2026-04-06T15:36:05.706Z</time></trkpt><trkpt lat="43.29175" lon="2.2068167"><ele>201.25</ele><time>2026-04-06T15:36:06.702Z</time></trkpt><trkpt lat="43.2918717" lon="2.2068583"><ele>203.5</ele><time>2026-04-06T15:36:07.707Z</time></trkpt><trkpt lat="43.29199" lon="2.2069233"><ele>205.75</ele><time>2026-04-06T15:36:08.705Z</time></trkpt><trkpt lat="43.2920967" lon="2.2070133"><ele>208.0</ele><time>2026-04-06T15:36:09.704Z</time></trkpt><trkpt lat="43.2921983" lon="2.207105"><ele>210.0</ele><time>2026-04-06T15:36:10.701Z</time></trkpt><trkpt lat="43.2922817" lon="2.20722"><ele>212.0</ele><time>2026-04-06T15:36:11.702Z</time></trkpt><trkpt lat="43.2923483" lon="2.207345"><ele>214.0</ele><time>2026-04-06T15:36:12.705Z</time></trkpt><trkpt lat="43.2923883" lon="2.2075"><ele>216.0</ele><time>2026-04-06T15:36:13.703Z</time></trkpt><trkpt lat="43.292395" lon="2.2076683"><ele>216.25</ele><time>2026-04-06T15:36:14.706Z</time></trkpt><trkpt lat="43.2923867" lon="2.2078433"><ele>216.5</ele><time>2026-04-06T15:36:15.703Z</time></trkpt><trkpt lat="43.29238" lon="2.2080233"><ele>216.75</ele><time>2026-04-06T15:36:16.701Z</time></trkpt><trkpt lat="43.292395" lon="2.2082233"><ele>217.0</ele><time>2026-04-06T15:36:17.703Z</time></trkpt><trkpt lat="43.29242" lon="2.2084517"><ele>217.66666666666666</ele><time>2026-04-06T15:36:18.706Z</time></trkpt><trkpt lat="43.2924583" lon="2.2087033"><ele>218.33333333333331</ele><time>2026-04-06T15:36:19.703Z</time></trkpt><trkpt lat="43.2925" lon="2.2089783"><ele>219.0</ele><time>2026-04-06T15:36:20.703Z</time></trkpt><trkpt lat="43.29255" lon="2.2092733"><ele>219.0</ele><time>2026-04-06T15:36:21.704Z</time></trkpt><trkpt lat="43.2925933" lon="2.209565"><ele>219.0</ele><time>2026-04-06T15:36:22.7Z</time></trkpt><trkpt lat="43.2926517" lon="2.2098733"><ele>219.0</ele><time>2026-04-06T15:36:23.705Z</time></trkpt><trkpt lat="43.2927083" lon="2.210195"><ele>219.0</ele><time>2026-04-06T15:36:24.705Z</time></trkpt><trkpt lat="43.2927633" lon="2.2105217"><ele>219.0</ele><time>2026-04-06T15:36:25.704Z</time></trkpt><trkpt lat="43.29282" lon="2.2108367"><ele>219.66666666666669</ele><time>2026-04-06T15:36:26.706Z</time></trkpt><trkpt lat="43.292875" lon="2.21114"><ele>220.33333333333334</ele><time>2026-04-06T15:36:27.705Z</time></trkpt><trkpt lat="43.292925" lon="2.2114333"><ele>221.0</ele><time>2026-04-06T15:36:28.701Z</time></trkpt><trkpt lat="43.2929717" lon="2.2117217"><ele>221.33333333333334</ele><time>2026-04-06T15:36:29.706Z</time></trkpt><trkpt lat="43.2930183" lon="2.2120033"><ele>221.66666666666669</ele><time>2026-04-06T15:36:30.706Z</time></trkpt><trkpt lat="43.29304" lon="2.2122783"><ele>222.0</ele><time>2026-04-06T15:36:31.706Z</time></trkpt><trkpt lat="43.2930467" lon="2.2125483"><ele>223.0</ele><time>2026-04-06T15:36:32.702Z</time></trkpt><trkpt lat="43.2930217" lon="2.212795"><ele>224.0</ele><time>2026-04-06T15:36:33.705Z</time></trkpt><trkpt lat="43.2929983" lon="2.2130183"><ele>225.0</ele><time>2026-04-06T15:36:34.705Z</time></trkpt><trkpt lat="43.2929867" lon="2.213215"><ele>225.0</ele><time>2026-04-06T15:36:35.704Z</time></trkpt><trkpt lat="43.2929917" lon="2.2133883"><ele>225.0</ele><time>2026-04-06T15:36:36.704Z</time></trkpt><trkpt lat="43.29304" lon="2.2135483"><ele>225.0</ele><time>2026-04-06T15:36:37.703Z</time></trkpt><trkpt lat="43.2931283" lon="2.2136767"><ele>225.0</ele><time>2026-04-06T15:36:38.701Z</time></trkpt><trkpt lat="43.29325" lon="2.2137617"><ele>225.66666666666669</ele><time>2026-04-06T15:36:39.704Z</time></trkpt><trkpt lat="43.29339" lon="2.2138033"><ele>226.33333333333334</ele><time>2026-04-06T15:36:40.705Z</time></trkpt><trkpt lat="43.2935367" lon="2.2138733"><ele>227.0</ele><time>2026-04-06T15:36:41.704Z</time></trkpt><trkpt lat="43.293685" lon="2.213965"><ele>225.33333333333334</ele><time>2026-04-06T15:36:42.706Z</time></trkpt><trkpt lat="43.2938267" lon="2.214075"><ele>223.66666666666669</ele><time>2026-04-06T15:36:43.703Z</time></trkpt><trkpt lat="43.293955" lon="2.214205"><ele>222.0</ele><time>2026-04-06T15:36:44.708Z</time></trkpt><trkpt lat="43.2940867" lon="2.2143417"><ele>221.33333333333331</ele><time>2026-04-06T15:36:45.705Z</time></trkpt><trkpt lat="43.2942167" lon="2.21447"><ele>220.66666666666666</ele><time>2026-04-06T15:36:46.703Z</time></trkpt><trkpt lat="43.29435" lon="2.2145867"><ele>220.0</ele><time>2026-04-06T15:36:47.703Z</time></trkpt><trkpt lat="43.294475" lon="2.2147083"><ele>217.75</ele><time>2026-04-06T15:36:48.704Z</time></trkpt><trkpt lat="43.2945917" lon="2.21483"><ele>215.5</ele><time>2026-04-06T15:36:49.702Z</time></trkpt><trkpt lat="43.294705" lon="2.214945"><ele>213.25</ele><time>2026-04-06T15:36:50.703Z</time></trkpt><trkpt lat="43.2948267" lon="2.215045"><ele>211.0</ele><time>2026-04-06T15:36:51.704Z</time></trkpt><trkpt lat="43.2949633" lon="2.2151117"><ele>211.0</ele><time>2026-04-06T15:36:52.703Z</time></trkpt><trkpt lat="43.2951117" lon="2.2151533"><ele>211.0</ele><time>2026-04-06T15:36:53.704Z</time></trkpt><trkpt lat="43.2952667" lon="2.2151717"><ele>211.0</ele><time>2026-04-06T15:36:54.704Z</time></trkpt><trkpt lat="43.2954167" lon="2.215175"><ele>211.0</ele><time>2026-04-06T15:36:55.703Z</time></trkpt><trkpt lat="43.2955633" lon="2.215165"><ele>211.0</ele><time>2026-04-06T15:36:56.705Z</time></trkpt><trkpt lat="43.2957067" lon="2.215165"><ele>211.0</ele><time>2026-04-06T15:36:57.705Z</time></trkpt><trkpt lat="43.295845" lon="2.2151467"><ele>211.0</ele><time>2026-04-06T15:36:58.702Z</time></trkpt><trkpt lat="43.2959783" lon="2.21509"><ele>211.0</ele><time>2026-04-06T15:36:59.699Z</time></trkpt><trkpt lat="43.29611" lon="2.21501"><ele>211.0</ele><time>2026-04-06T15:37:00.706Z</time></trkpt><trkpt lat="43.2962383" lon="2.2149167"><ele>211.0</ele><time>2026-04-06T15:37:01.703Z</time></trkpt><trkpt lat="43.2963667" lon="2.2148133"><ele>211.0</ele><time>2026-04-06T15:37:02.704Z</time></trkpt><trkpt lat="43.296495" lon="2.214705"><ele>211.0</ele><time>2026-04-06T15:37:03.701Z</time></trkpt><trkpt lat="43.296625" lon="2.2146"><ele>211.0</ele><time>2026-04-06T15:37:04.701Z</time></trkpt><trkpt lat="43.296755" lon="2.21449"><ele>211.0</ele><time>2026-04-06T15:37:05.704Z</time></trkpt><trkpt lat="43.296885" lon="2.2143833"><ele>211.0</ele><time>2026-04-06T15:37:06.706Z</time></trkpt><trkpt lat="43.2970133" lon="2.2142783"><ele>211.0</ele><time>2026-04-06T15:37:07.701Z</time></trkpt><trkpt lat="43.2971383" lon="2.21417"><ele>211.0</ele><time>2026-04-06T15:37:08.705Z</time></trkpt><trkpt lat="43.2972667" lon="2.2140667"><ele>211.0</ele><time>2026-04-06T15:37:09.705Z</time></trkpt><trkpt lat="43.29739" lon="2.2139617"><ele>207.75</ele><time>2026-04-06T15:37:10.702Z</time></trkpt><trkpt lat="43.29751" lon="2.2138417"><ele>204.5</ele><time>2026-04-06T15:37:11.705Z</time></trkpt><trkpt lat="43.2976217" lon="2.2137033"><ele>201.25</ele><time>2026-04-06T15:37:12.705Z</time></trkpt><trkpt lat="43.2977217" lon="2.2135533"><ele>198.0</ele><time>2026-04-06T15:37:13.704Z</time></trkpt><trkpt lat="43.2978233" lon="2.2133883"><ele>198.0</ele><time>2026-04-06T15:37:14.705Z</time></trkpt><trkpt lat="43.2979217" lon="2.2132167"><ele>198.0</ele><time>2026-04-06T15:37:15.703Z</time></trkpt><trkpt lat="43.2980283" lon="2.2130567"><ele>198.0</ele><time>2026-04-06T15:37:16.702Z</time></trkpt><trkpt lat="43.29814" lon="2.2128983"><ele>195.0</ele><time>2026-04-06T15:37:17.705Z</time></trkpt><trkpt lat="43.2982617" lon="2.2127467"><ele>192.0</ele><time>2026-04-06T15:37:18.701Z</time></trkpt><trkpt lat="43.2983867" lon="2.2125967"><ele>189.0</ele><time>2026-04-06T15:37:19.702Z</time></trkpt><trkpt lat="43.2985117" lon="2.2124533"><ele>192.66666666666669</ele><time>2026-04-06T15:37:20.705Z</time></trkpt><trkpt lat="43.2986317" lon="2.2123067"><ele>196.33333333333334</ele><time>2026-04-06T15:37:21.702Z</time></trkpt><trkpt lat="43.2987467" lon="2.2121667"><ele>200.0</ele><time>2026-04-06T15:37:22.7Z</time></trkpt><trkpt lat="43.29886" lon="2.2120333"><ele>196.0</ele><time>2026-04-06T15:37:23.701Z</time></trkpt><trkpt lat="43.2989733" lon="2.2119083"><ele>192.0</ele><time>2026-04-06T15:37:24.704Z</time></trkpt><trkpt lat="43.29909" lon="2.2117967"><ele>188.0</ele><time>2026-04-06T15:37:25.703Z</time></trkpt><trkpt lat="43.2992117" lon="2.211705"><ele>184.0</ele><time>2026-04-06T15:37:26.708Z</time></trkpt><trkpt lat="43.2993467" lon="2.2116333"><ele>184.0</ele><time>2026-04-06T15:37:27.704Z</time></trkpt><trkpt lat="43.2994733" lon="2.2115617"><ele>184.0</ele><time>2026-04-06T15:37:28.703Z</time></trkpt><trkpt lat="43.2995883" lon="2.21148"><ele>184.0</ele><time>2026-04-06T15:37:29.705Z</time></trkpt><trkpt lat="43.299695" lon="2.2113867"><ele>184.0</ele><time>2026-04-06T15:37:30.707Z</time></trkpt><trkpt lat="43.299805" lon="2.2112817"><ele>183.0</ele><time>2026-04-06T15:37:31.701Z</time></trkpt><trkpt lat="43.2999083" lon="2.2111633"><ele>182.0</ele><time>2026-04-06T15:37:32.706Z</time></trkpt><trkpt lat="43.3000183" lon="2.2110333"><ele>181.0</ele><time>2026-04-06T15:37:33.704Z</time></trkpt><trkpt lat="43.3001283" lon="2.2109"><ele>180.0</ele><time>2026-04-06T15:37:34.701Z</time></trkpt><trkpt lat="43.3002467" lon="2.21079"><ele>180.0</ele><time>2026-04-06T15:37:35.705Z</time></trkpt><trkpt lat="43.30038" lon="2.2107183"><ele>180.0</ele><time>2026-04-06T15:37:36.705Z</time></trkpt><trkpt lat="43.3005217" lon="2.2106883"><ele>180.0</ele><time>2026-04-06T15:37:37.698Z</time></trkpt><trkpt lat="43.3006667" lon="2.2106783"><ele>180.0</ele><time>2026-04-06T15:37:38.705Z</time></trkpt><trkpt lat="43.3008133" lon="2.2106833"><ele>177.0</ele><time>2026-04-06T15:37:39.703Z</time></trkpt><trkpt lat="43.3009583" lon="2.2106883"><ele>174.0</ele><time>2026-04-06T15:37:40.705Z</time></trkpt><trkpt lat="43.3011" lon="2.2106983"><ele>171.0</ele><time>2026-04-06T15:37:41.702Z</time></trkpt><trkpt lat="43.30124" lon="2.2107183"><ele>168.0</ele><time>2026-04-06T15:37:42.7Z</time></trkpt><trkpt lat="43.3013833" lon="2.21075"><ele>167.25</ele><time>2026-04-06T15:37:43.696Z</time></trkpt><trkpt lat="43.3014967" lon="2.210835"><ele>166.5</ele><time>2026-04-06T15:37:44.707Z</time></trkpt><trkpt lat="43.3015833" lon="2.21097"><ele>165.75</ele><time>2026-04-06T15:37:45.696Z</time></trkpt><trkpt lat="43.3016233" lon="2.211145"><ele>165.0</ele><time>2026-04-06T15:37:46.703Z</time></trkpt><trkpt lat="43.3016317" lon="2.211315"><ele>163.5</ele><time>2026-04-06T15:37:47.701Z</time></trkpt><trkpt lat="43.3016417" lon="2.2115033"><ele>162.0</ele><time>2026-04-06T15:37:48.702Z</time></trkpt><trkpt lat="43.3016733" lon="2.2116783"><ele>160.5</ele><time>2026-04-06T15:37:49.704Z</time></trkpt><trkpt lat="43.3017433" lon="2.211825"><ele>159.0</ele><time>2026-04-06T15:37:50.705Z</time></trkpt><trkpt lat="43.301845" lon="2.2119417"><ele>159.0</ele><time>2026-04-06T15:37:51.702Z</time></trkpt><trkpt lat="43.3019667" lon="2.21201"><ele>159.0</ele><time>2026-04-06T15:37:52.706Z</time></trkpt><trkpt lat="43.3021183" lon="2.2120417"><ele>159.0</ele><time>2026-04-06T15:37:53.702Z</time></trkpt><trkpt lat="43.30227" lon="2.21209"><ele>159.0</ele><time>2026-04-06T15:37:54.706Z</time></trkpt><trkpt lat="43.3024183" lon="2.2121433"><ele>159.0</ele><time>2026-04-06T15:37:55.706Z</time></trkpt><trkpt lat="43.30257" lon="2.2121917"><ele>159.0</ele><time>2026-04-06T15:37:56.706Z</time></trkpt><trkpt lat="43.302725" lon="2.2122417"><ele>159.0</ele><time>2026-04-06T15:37:57.702Z</time></trkpt><trkpt lat="43.3028817" lon="2.2123067"><ele>158.0</ele><time>2026-04-06T15:37:58.705Z</time></trkpt><trkpt lat="43.30303" lon="2.21238"><ele>157.0</ele><time>2026-04-06T15:37:59.704Z</time></trkpt><trkpt lat="43.3031817" lon="2.2124567"><ele>156.0</ele><time>2026-04-06T15:38:00.704Z</time></trkpt><trkpt lat="43.3033333" lon="2.2125317"><ele>156.0</ele><time>2026-04-06T15:38:01.704Z</time></trkpt><trkpt lat="43.303485" lon="2.2126083"><ele>156.0</ele><time>2026-04-06T15:38:02.703Z</time></trkpt><trkpt lat="43.3036317" lon="2.21269"><ele>156.0</ele><time>2026-04-06T15:38:03.704Z</time></trkpt><trkpt lat="43.3037767" lon="2.212765"><ele>156.0</ele><time>2026-04-06T15:38:04.704Z</time></trkpt><trkpt lat="43.3039133" lon="2.21284"><ele>156.0</ele><time>2026-04-06T15:38:05.706Z</time></trkpt><trkpt lat="43.3040417" lon="2.2129267"><ele>156.0</ele><time>2026-04-06T15:38:06.707Z</time></trkpt><trkpt lat="43.304155" lon="2.213025"><ele>156.0</ele><time>2026-04-06T15:38:07.702Z</time></trkpt><trkpt lat="43.30425" lon="2.21314"><ele>154.75</ele><time>2026-04-06T15:38:08.706Z</time></trkpt><trkpt lat="43.30433" lon="2.2132667"><ele>153.5</ele><time>2026-04-06T15:38:09.702Z</time></trkpt><trkpt lat="43.3044033" lon="2.2133933"><ele>152.25</ele><time>2026-04-06T15:38:10.697Z</time></trkpt><trkpt lat="43.304475" lon="2.21351"><ele>151.0</ele><time>2026-04-06T15:38:11.702Z</time></trkpt><trkpt lat="43.304535" lon="2.2136233"><ele>151.0</ele><time>2026-04-06T15:38:12.705Z</time></trkpt><trkpt lat="43.3045817" lon="2.2137433"><ele>151.0</ele><time>2026-04-06T15:38:13.704Z</time></trkpt><trkpt lat="43.3046083" lon="2.2138683"><ele>151.0</ele><time>2026-04-06T15:38:14.701Z</time></trkpt><trkpt lat="43.3046317" lon="2.214"><ele>151.0</ele><time>2026-04-06T15:38:15.701Z</time></trkpt><trkpt lat="43.3046583" lon="2.2141333"><ele>151.0</ele><time>2026-04-06T15:38:16.698Z</time></trkpt><trkpt lat="43.3047067" lon="2.214265"><ele>150.8</ele><time>2026-04-06T15:38:17.7Z</time></trkpt><trkpt lat="43.304775" lon="2.21438"><ele>150.6</ele><time>2026-04-06T15:38:18.702Z</time></trkpt><trkpt lat="43.3048533" lon="2.2144767"><ele>150.4</ele><time>2026-04-06T15:38:19.706Z</time></trkpt><trkpt lat="43.3049367" lon="2.2145617"><ele>150.2</ele><time>2026-04-06T15:38:20.705Z</time></trkpt><trkpt lat="43.3050233" lon="2.2146317"><ele>150.0</ele><time>2026-04-06T15:38:21.704Z</time></trkpt><trkpt lat="43.3051067" lon="2.2147017"><ele>150.0</ele><time>2026-04-06T15:38:22.704Z</time></trkpt><trkpt lat="43.305185" lon="2.2147633"><ele>150.0</ele><time>2026-04-06T15:38:23.702Z</time></trkpt><trkpt lat="43.305265" lon="2.21483"><ele>150.0</ele><time>2026-04-06T15:38:24.701Z</time></trkpt><trkpt lat="43.3053267" lon="2.2149083"><ele>150.0</ele><time>2026-04-06T15:38:25.701Z</time></trkpt><trkpt lat="43.3053817" lon="2.2150017"><ele>150.0</ele><time>2026-04-06T15:38:26.703Z</time></trkpt><trkpt lat="43.3054333" lon="2.2150983"><ele>150.0</ele><time>2026-04-06T15:38:27.705Z</time></trkpt><trkpt lat="43.3054783" lon="2.2151983"><ele>149.83333333333334</ele><time>2026-04-06T15:38:28.702Z</time></trkpt><trkpt lat="43.3055117" lon="2.215295"><ele>149.66666666666666</ele><time>2026-04-06T15:38:29.7Z</time></trkpt><trkpt lat="43.3055467" lon="2.2153917"><ele>149.5</ele><time>2026-04-06T15:38:30.7Z</time></trkpt><trkpt lat="43.30559" lon="2.2154767"><ele>149.33333333333331</ele><time>2026-04-06T15:38:31.703Z</time></trkpt><trkpt lat="43.3056433" lon="2.2155433"><ele>149.16666666666666</ele><time>2026-04-06T15:38:32.705Z</time></trkpt><trkpt lat="43.3057517" lon="2.215595"><ele>149.0</ele><time>2026-04-06T15:38:34.705Z</time></trkpt><trkpt lat="43.305875" lon="2.21557"><ele>149.0</ele><time>2026-04-06T15:38:36.705Z</time></trkpt><trkpt lat="43.3059433" lon="2.2155333"><ele>149.0</ele><time>2026-04-06T15:38:37.701Z</time></trkpt><trkpt lat="43.306055" lon="2.2154567"><ele>149.0</ele><time>2026-04-06T15:38:39.702Z</time></trkpt><trkpt lat="43.3061317" lon="2.2153883"><ele>149.0</ele><time>2026-04-06T15:38:40.701Z</time></trkpt><trkpt lat="43.3062133" lon="2.2153233"><ele>149.0</ele><time>2026-04-06T15:38:41.706Z</time></trkpt><trkpt lat="43.3062933" lon="2.2152617"><ele>149.0</ele><time>2026-04-06T15:38:42.701Z</time></trkpt><trkpt lat="43.30637" lon="2.21521"><ele>149.0</ele><time>2026-04-06T15:38:43.702Z</time></trkpt><trkpt lat="43.3064317" lon="2.21514"><ele>149.0</ele><time>2026-04-06T15:38:44.701Z</time></trkpt><trkpt lat="43.3064933" lon="2.2150583"><ele>149.0</ele><time>2026-04-06T15:38:45.697Z</time></trkpt><trkpt lat="43.306565" lon="2.2149783"><ele>149.0</ele><time>2026-04-06T15:38:46.703Z</time></trkpt><trkpt lat="43.3066433" lon="2.2149183"><ele>149.0</ele><time>2026-04-06T15:38:47.705Z</time></trkpt><trkpt lat="43.3067183" lon="2.2148467"><ele>149.5</ele><time>2026-04-06T15:38:48.706Z</time></trkpt><trkpt lat="43.3067983" lon="2.21479"><ele>150.0</ele><time>2026-04-06T15:38:49.702Z</time></trkpt><trkpt lat="43.3068783" lon="2.2147367"><ele>150.5</ele><time>2026-04-06T15:38:50.704Z</time></trkpt><trkpt lat="43.30696" lon="2.2146983"><ele>151.0</ele><time>2026-04-06T15:38:51.705Z</time></trkpt><trkpt lat="43.3070383" lon="2.2146633"><ele>151.5</ele><time>2026-04-06T15:38:52.698Z</time></trkpt><trkpt lat="43.307125" lon="2.2146583"><ele>152.0</ele><time>2026-04-06T15:38:53.704Z</time></trkpt><trkpt lat="43.3072117" lon="2.214665"><ele>153.5</ele><time>2026-04-06T15:38:54.703Z</time></trkpt><trkpt lat="43.307295" lon="2.2146817"><ele>155.0</ele><time>2026-04-06T15:38:55.702Z</time></trkpt><trkpt lat="43.30738" lon="2.2146967"><ele>156.5</ele><time>2026-04-06T15:38:56.702Z</time></trkpt><trkpt lat="43.3074717" lon="2.2147217"><ele>158.0</ele><time>2026-04-06T15:38:57.698Z</time></trkpt><trkpt lat="43.30756" lon="2.2147433"><ele>159.5</ele><time>2026-04-06T15:38:58.701Z</time></trkpt><trkpt lat="43.3076517" lon="2.21477"><ele>161.0</ele><time>2026-04-06T15:38:59.703Z</time></trkpt><trkpt lat="43.30774" lon="2.2147933"><ele>161.0</ele><time>2026-04-06T15:39:00.703Z</time></trkpt><trkpt lat="43.3078317" lon="2.214815"><ele>161.0</ele><time>2026-04-06T15:39:01.704Z</time></trkpt><trkpt lat="43.3079217" lon="2.2148383"><ele>161.0</ele><time>2026-04-06T15:39:02.705Z</time></trkpt><trkpt lat="43.308005" lon="2.2148583"><ele>161.0</ele><time>2026-04-06T15:39:03.703Z</time></trkpt><trkpt lat="43.3080783" lon="2.2148767"><ele>161.0</ele><time>2026-04-06T15:39:04.701Z</time></trkpt><trkpt lat="43.308145" lon="2.2149033"><ele>161.0</ele><time>2026-04-06T15:39:05.703Z</time></trkpt><trkpt lat="43.3082533" lon="2.2149417"><ele>162.33333333333331</ele><time>2026-04-06T15:39:07.703Z</time></trkpt><trkpt lat="43.3083117" lon="2.21498"><ele>163.66666666666666</ele><time>2026-04-06T15:39:09.707Z</time></trkpt><trkpt lat="43.308385" lon="2.2149767"><ele>165.0</ele><time>2026-04-06T15:39:17.7Z</time></trkpt><trkpt lat="43.3085033" lon="2.2150033"><ele>166.33333333333334</ele><time>2026-04-06T15:39:19.701Z</time></trkpt><trkpt lat="43.30857" lon="2.2150283"><ele>167.66666666666669</ele><time>2026-04-06T15:39:20.704Z</time></trkpt><trkpt lat="43.3086617" lon="2.2150667"><ele>169.0</ele><time>2026-04-06T15:39:21.704Z</time></trkpt><trkpt lat="43.308755" lon="2.215095"><ele>169.0</ele><time>2026-04-06T15:39:22.705Z</time></trkpt><trkpt lat="43.3088383" lon="2.2151133"><ele>169.0</ele><time>2026-04-06T15:39:23.705Z</time></trkpt><trkpt lat="43.3089233" lon="2.2151367"><ele>169.0</ele><time>2026-04-06T15:39:24.703Z</time></trkpt><trkpt lat="43.3090033" lon="2.2151633"><ele>169.0</ele><time>2026-04-06T15:39:25.703Z</time></trkpt><trkpt lat="43.30909" lon="2.215205"><ele>169.0</ele><time>2026-04-06T15:39:26.706Z</time></trkpt><trkpt lat="43.309165" lon="2.2152533"><ele>169.0</ele><time>2026-04-06T15:39:27.703Z</time></trkpt><trkpt lat="43.3092367" lon="2.2152867"><ele>170.0</ele><time>2026-04-06T15:39:28.704Z</time></trkpt><trkpt lat="43.3093067" lon="2.215305"><ele>171.0</ele><time>2026-04-06T15:39:29.697Z</time></trkpt><trkpt lat="43.3093767" lon="2.2153"><ele>172.0</ele><time>2026-04-06T15:39:30.698Z</time></trkpt><trkpt lat="43.3094417" lon="2.21527"><ele>173.0</ele><time>2026-04-06T15:39:31.703Z</time></trkpt><trkpt lat="43.3095033" lon="2.21521"><ele>174.0</ele><time>2026-04-06T15:39:32.705Z</time></trkpt><trkpt lat="43.30956" lon="2.2151433"><ele>175.0</ele><time>2026-04-06T15:39:33.702Z</time></trkpt><trkpt lat="43.3096067" lon="2.21506"><ele>176.0</ele><time>2026-04-06T15:39:34.701Z</time></trkpt><trkpt lat="43.30966" lon="2.2149833"><ele>176.0</ele><time>2026-04-06T15:39:35.704Z</time></trkpt><trkpt lat="43.309705" lon="2.2149017"><ele>176.0</ele><time>2026-04-06T15:39:36.703Z</time></trkpt><trkpt lat="43.309745" lon="2.21482"><ele>176.0</ele><time>2026-04-06T15:39:37.702Z</time></trkpt><trkpt lat="43.30979" lon="2.214745"><ele>176.0</ele><time>2026-04-06T15:39:38.705Z</time></trkpt><trkpt lat="43.309825" lon="2.2146617"><ele>176.0</ele><time>2026-04-06T15:39:39.703Z</time></trkpt><trkpt lat="43.3099" lon="2.21454"><ele>176.0</ele><time>2026-04-06T15:39:41.706Z</time></trkpt><trkpt lat="43.3099783" lon="2.2144567"><ele>177.0</ele><time>2026-04-06T15:39:43.702Z</time></trkpt><trkpt lat="43.3100917" lon="2.2144267"><ele>178.0</ele><time>2026-04-06T15:39:45.701Z</time></trkpt><trkpt lat="43.31019" lon="2.2143767"><ele>179.0</ele><time>2026-04-06T15:39:47.704Z</time></trkpt><trkpt lat="43.3103067" lon="2.2143883"><ele>180.0</ele><time>2026-04-06T15:39:49.703Z</time></trkpt><trkpt lat="43.3103767" lon="2.214385"><ele>181.0</ele><time>2026-04-06T15:39:50.702Z</time></trkpt><trkpt lat="43.31044" lon="2.2143717"><ele>181.0</ele><time>2026-04-06T15:39:51.706Z</time></trkpt><trkpt lat="43.310505" lon="2.2143717"><ele>181.0</ele><time>2026-04-06T15:39:52.702Z</time></trkpt><trkpt lat="43.3106067" lon="2.214415"><ele>181.0</ele><time>2026-04-06T15:39:54.703Z</time></trkpt><trkpt lat="43.310705" lon="2.2143583"><ele>181.0</ele><time>2026-04-06T15:39:56.702Z</time></trkpt><trkpt lat="43.310795" lon="2.2142667"><ele>181.0</ele><time>2026-04-06T15:39:58.702Z</time></trkpt><trkpt lat="43.3108917" lon="2.214225"><ele>181.5</ele><time>2026-04-06T15:40:00.705Z</time></trkpt><trkpt lat="43.3109867" lon="2.214265"><ele>182.0</ele><time>2026-04-06T15:40:02.704Z</time></trkpt><trkpt lat="43.3110817" lon="2.2143667"><ele>182.5</ele><time>2026-04-06T15:40:04.703Z</time></trkpt><trkpt lat="43.3111333" lon="2.2144267"><ele>183.0</ele><time>2026-04-06T15:40:05.705Z</time></trkpt><trkpt lat="43.3111783" lon="2.2145"><ele>183.5</ele><time>2026-04-06T15:40:06.704Z</time></trkpt><trkpt lat="43.31123" lon="2.2145767"><ele>184.0</ele><time>2026-04-06T15:40:07.701Z</time></trkpt><trkpt lat="43.31128" lon="2.2146533"><ele>184.0</ele><time>2026-04-06T15:40:08.701Z</time></trkpt><trkpt lat="43.3113233" lon="2.2147333"><ele>184.0</ele><time>2026-04-06T15:40:09.704Z</time></trkpt><trkpt lat="43.3113617" lon="2.214815"><ele>184.0</ele><time>2026-04-06T15:40:10.701Z</time></trkpt><trkpt lat="43.3114417" lon="2.2149167"><ele>184.0</ele><time>2026-04-06T15:40:12.701Z</time></trkpt><trkpt lat="43.3115167" lon="2.2149983"><ele>184.0</ele><time>2026-04-06T15:40:14.701Z</time></trkpt><trkpt lat="43.3115783" lon="2.2150967"><ele>184.0</ele><time>2026-04-06T15:40:16.703Z</time></trkpt><trkpt lat="43.3116883" lon="2.21517"><ele>184.16666666666669</ele><time>2026-04-06T15:40:18.701Z</time></trkpt><trkpt lat="43.3117433" lon="2.215215"><ele>184.33333333333334</ele><time>2026-04-06T15:40:19.703Z</time></trkpt><trkpt lat="43.3118017" lon="2.2152583"><ele>184.5</ele><time>2026-04-06T15:40:20.704Z</time></trkpt><trkpt lat="43.3118617" lon="2.215305"><ele>184.66666666666666</ele><time>2026-04-06T15:40:21.703Z</time></trkpt><trkpt lat="43.3119183" lon="2.2153767"><ele>184.83333333333331</ele><time>2026-04-06T15:40:22.702Z</time></trkpt><trkpt lat="43.3119717" lon="2.215435"><ele>185.0</ele><time>2026-04-06T15:40:23.703Z</time></trkpt><trkpt lat="43.312085" lon="2.2155183"><ele>185.0</ele><time>2026-04-06T15:40:25.701Z</time></trkpt><trkpt lat="43.3121883" lon="2.215605"><ele>185.0</ele><time>2026-04-06T15:40:27.705Z</time></trkpt><trkpt lat="43.3123083" lon="2.2156"><ele>185.0</ele><time>2026-04-06T15:40:37.705Z</time></trkpt><trkpt lat="43.3124117" lon="2.21566"><ele>185.0</ele><time>2026-04-06T15:40:39.704Z</time></trkpt><trkpt lat="43.3125267" lon="2.2157367"><ele>184.33333333333331</ele><time>2026-04-06T15:40:41.706Z</time></trkpt><trkpt lat="43.312585" lon="2.2157983"><ele>183.66666666666666</ele><time>2026-04-06T15:40:42.703Z</time></trkpt><trkpt lat="43.31265" lon="2.2158467"><ele>183.0</ele><time>2026-04-06T15:40:43.702Z</time></trkpt><trkpt lat="43.3127067" lon="2.215895"><ele>182.33333333333334</ele><time>2026-04-06T15:40:44.698Z</time></trkpt><trkpt lat="43.312785" lon="2.2158983"><ele>181.66666666666669</ele><time>2026-04-06T15:40:45.702Z</time></trkpt><trkpt lat="43.312875" lon="2.2158833"><ele>181.0</ele><time>2026-04-06T15:40:46.705Z</time></trkpt><trkpt lat="43.31295" lon="2.2158983"><ele>181.0</ele><time>2026-04-06T15:40:47.705Z</time></trkpt><trkpt lat="43.3130217" lon="2.2159117"><ele>181.0</ele><time>2026-04-06T15:40:48.705Z</time></trkpt><trkpt lat="43.3131267" lon="2.2158967"><ele>181.0</ele><time>2026-04-06T15:40:50.705Z</time></trkpt><trkpt lat="43.313215" lon="2.2158183"><ele>181.0</ele><time>2026-04-06T15:40:52.701Z</time></trkpt><trkpt lat="43.313305" lon="2.2157"><ele>181.0</ele><time>2026-04-06T15:40:54.708Z</time></trkpt><trkpt lat="43.31337" lon="2.2156483"><ele>182.20000000000002</ele><time>2026-04-06T15:40:55.704Z</time></trkpt><trkpt lat="43.31345" lon="2.2155967"><ele>183.4</ele><time>2026-04-06T15:40:56.706Z</time></trkpt><trkpt lat="43.3135467" lon="2.2155583"><ele>184.6</ele><time>2026-04-06T15:40:57.704Z</time></trkpt><trkpt lat="43.31367" lon="2.21553"><ele>185.8</ele><time>2026-04-06T15:40:58.704Z</time></trkpt><trkpt lat="43.3137867" lon="2.2154783"><ele>187.0</ele><time>2026-04-06T15:40:59.705Z</time></trkpt><trkpt lat="43.3139083" lon="2.2154283"><ele>190.0</ele><time>2026-04-06T15:41:00.705Z</time></trkpt><trkpt lat="43.3140433" lon="2.2153783"><ele>193.0</ele><time>2026-04-06T15:41:01.704Z</time></trkpt><trkpt lat="43.31419" lon="2.215315"><ele>196.0</ele><time>2026-04-06T15:41:02.704Z</time></trkpt><trkpt lat="43.314345" lon="2.215235"><ele>196.0</ele><time>2026-04-06T15:41:03.7Z</time></trkpt><trkpt lat="43.3145133" lon="2.2151667"><ele>196.0</ele><time>2026-04-06T15:41:04.701Z</time></trkpt><trkpt lat="43.31468" lon="2.21509"><ele>196.0</ele><time>2026-04-06T15:41:05.706Z</time></trkpt><trkpt lat="43.31484" lon="2.2149917"><ele>197.66666666666666</ele><time>2026-04-06T15:41:06.705Z</time></trkpt><trkpt lat="43.3150117" lon="2.2149"><ele>199.33333333333331</ele><time>2026-04-06T15:41:07.703Z</time></trkpt><trkpt lat="43.3151917" lon="2.2148233"><ele>201.0</ele><time>2026-04-06T15:41:08.702Z</time></trkpt><trkpt lat="43.3153717" lon="2.2147483"><ele>201.0</ele><time>2026-04-06T15:41:09.704Z</time></trkpt><trkpt lat="43.3155617" lon="2.2146983"><ele>201.0</ele><time>2026-04-06T15:41:10.702Z</time></trkpt><trkpt lat="43.3157667" lon="2.21468"><ele>201.0</ele><time>2026-04-06T15:41:11.7Z</time></trkpt><trkpt lat="43.3159833" lon="2.2146933"><ele>209.0</ele><time>2026-04-06T15:41:12.705Z</time></trkpt><trkpt lat="43.316215" lon="2.2147267"><ele>217.0</ele><time>2026-04-06T15:41:13.703Z</time></trkpt><trkpt lat="43.316455" lon="2.2147667"><ele>224.0</ele><time>2026-04-06T15:41:14.705Z</time></trkpt><trkpt lat="43.316695" lon="2.2148033"><ele>231.0</ele><time>2026-04-06T15:41:15.701Z</time></trkpt><trkpt lat="43.31694" lon="2.2148367"><ele>231.0</ele><time>2026-04-06T15:41:16.701Z</time></trkpt><trkpt lat="43.3171883" lon="2.21487"><ele>231.0</ele><time>2026-04-06T15:41:17.705Z</time></trkpt><trkpt lat="43.31743" lon="2.2149017"><ele>234.5</ele><time>2026-04-06T15:41:18.705Z</time></trkpt><trkpt lat="43.3176583" lon="2.21493"><ele>238.0</ele><time>2026-04-06T15:41:19.701Z</time></trkpt><trkpt lat="43.31788" lon="2.2149483"><ele>240.33333333333331</ele><time>2026-04-06T15:41:20.7Z</time></trkpt><trkpt lat="43.3181" lon="2.2149667"><ele>242.66666666666669</ele><time>2026-04-06T15:41:21.703Z</time></trkpt><trkpt lat="43.3183183" lon="2.21499"><ele>245.0</ele><time>2026-04-06T15:41:22.704Z</time></trkpt><trkpt lat="43.318535" lon="2.2150367"><ele>245.0</ele><time>2026-04-06T15:41:23.705Z</time></trkpt><trkpt lat="43.3187467" lon="2.2151133"><ele>245.0</ele><time>2026-04-06T15:41:24.707Z</time></trkpt><trkpt lat="43.3189467" lon="2.2152217"><ele>245.0</ele><time>2026-04-06T15:41:25.704Z</time></trkpt><trkpt lat="43.319135" lon="2.215365"><ele>246.66666666666669</ele><time>2026-04-06T15:41:26.706Z</time></trkpt><trkpt lat="43.3193067" lon="2.215545"><ele>248.33333333333331</ele><time>2026-04-06T15:41:27.7Z</time></trkpt><trkpt lat="43.31947" lon="2.215745"><ele>250.0</ele><time>2026-04-06T15:41:28.702Z</time></trkpt><trkpt lat="43.3196167" lon="2.21595"><ele>252.33333333333331</ele><time>2026-04-06T15:41:29.705Z</time></trkpt><trkpt lat="43.3197517" lon="2.2161467"><ele>254.66666666666669</ele><time>2026-04-06T15:41:30.706Z</time></trkpt><trkpt lat="43.319885" lon="2.2163317"><ele>257.0</ele><time>2026-04-06T15:41:31.704Z</time></trkpt><trkpt lat="43.32003" lon="2.2164983"><ele>257.0</ele><time>2026-04-06T15:41:32.702Z</time></trkpt><trkpt lat="43.3201883" lon="2.2166583"><ele>257.0</ele><time>2026-04-06T15:41:33.703Z</time></trkpt><trkpt lat="43.32036" lon="2.2168217"><ele>257.0</ele><time>2026-04-06T15:41:34.701Z</time></trkpt><trkpt lat="43.3205367" lon="2.2169917"><ele>257.0</ele><time>2026-04-06T15:41:35.704Z</time></trkpt><trkpt lat="43.32071" lon="2.217165"><ele>257.0</ele><time>2026-04-06T15:41:36.702Z</time></trkpt><trkpt lat="43.3208883" lon="2.2173367"><ele>257.0</ele><time>2026-04-06T15:41:37.703Z</time></trkpt><trkpt lat="43.321065" lon="2.2175017"><ele>257.0</ele><time>2026-04-06T15:41:38.705Z</time></trkpt><trkpt lat="43.3212417" lon="2.21767"><ele>257.0</ele><time>2026-04-06T15:41:39.702Z</time></trkpt><trkpt lat="43.3214167" lon="2.217835"><ele>257.0</ele><time>2026-04-06T15:41:40.703Z</time></trkpt><trkpt lat="43.3215817" lon="2.218"><ele>259.33333333333337</ele><time>2026-04-06T15:41:41.705Z</time></trkpt><trkpt lat="43.3217467" lon="2.218165"><ele>261.6666666666667</ele><time>2026-04-06T15:41:42.703Z</time></trkpt><trkpt lat="43.321905" lon="2.2183183"><ele>264.0</ele><time>2026-04-06T15:41:43.704Z</time></trkpt><trkpt lat="43.3220633" lon="2.218465"><ele>264.0</ele><time>2026-04-06T15:41:44.704Z</time></trkpt><trkpt lat="43.3222117" lon="2.2186067"><ele>264.0</ele><time>2026-04-06T15:41:45.704Z</time></trkpt><trkpt lat="43.3223617" lon="2.2187483"><ele>264.0</ele><time>2026-04-06T15:41:46.703Z</time></trkpt><trkpt lat="43.3225117" lon="2.2188883"><ele>266.3333333333333</ele><time>2026-04-06T15:41:47.701Z</time></trkpt><trkpt lat="43.322665" lon="2.2190333"><ele>268.66666666666663</ele><time>2026-04-06T15:41:48.701Z</time></trkpt><trkpt lat="43.3228183" lon="2.2191767"><ele>271.0</ele><time>2026-04-06T15:41:49.702Z</time></trkpt><trkpt lat="43.322975" lon="2.2193117"><ele>272.3333333333333</ele><time>2026-04-06T15:41:50.705Z</time></trkpt><trkpt lat="43.323135" lon="2.219435"><ele>273.6666666666667</ele><time>2026-04-06T15:41:51.702Z</time></trkpt><trkpt lat="43.3232967" lon="2.2195417"><ele>275.0</ele><time>2026-04-06T15:41:52.705Z</time></trkpt><trkpt lat="43.323455" lon="2.2196317"><ele>275.0</ele><time>2026-04-06T15:41:53.702Z</time></trkpt><trkpt lat="43.3236033" lon="2.21971"><ele>275.0</ele><time>2026-04-06T15:41:54.702Z</time></trkpt><trkpt lat="43.3237483" lon="2.2197867"><ele>275.0</ele><time>2026-04-06T15:41:55.705Z</time></trkpt><trkpt lat="43.32389" lon="2.2198633"><ele>276.0</ele><time>2026-04-06T15:41:56.706Z</time></trkpt><trkpt lat="43.3240383" lon="2.2199417"><ele>277.0</ele><time>2026-04-06T15:41:57.705Z</time></trkpt><trkpt lat="43.3241917" lon="2.2200217"><ele>278.0</ele><time>2026-04-06T15:41:58.698Z</time></trkpt><trkpt lat="43.3243483" lon="2.220105"><ele>278.0</ele><time>2026-04-06T15:41:59.703Z</time></trkpt><trkpt lat="43.3245067" lon="2.2201967"><ele>278.0</ele><time>2026-04-06T15:42:00.705Z</time></trkpt><trkpt lat="43.3246633" lon="2.2202833"><ele>278.0</ele><time>2026-04-06T15:42:01.704Z</time></trkpt><trkpt lat="43.3248233" lon="2.22037"><ele>277.6666666666667</ele><time>2026-04-06T15:42:02.705Z</time></trkpt><trkpt lat="43.324975" lon="2.22045"><ele>277.3333333333333</ele><time>2026-04-06T15:42:03.706Z</time></trkpt><trkpt lat="43.3251333" lon="2.22054"><ele>277.0</ele><time>2026-04-06T15:42:04.701Z</time></trkpt><trkpt lat="43.3252933" lon="2.22063"><ele>277.3333333333333</ele><time>2026-04-06T15:42:05.706Z</time></trkpt><trkpt lat="43.3254533" lon="2.2207217"><ele>277.6666666666667</ele><time>2026-04-06T15:42:06.706Z</time></trkpt><trkpt lat="43.3256183" lon="2.2208183"><ele>278.0</ele><time>2026-04-06T15:42:07.706Z</time></trkpt><trkpt lat="43.3257883" lon="2.2209083"><ele>278.0</ele><time>2026-04-06T15:42:08.703Z</time></trkpt><trkpt lat="43.3259517" lon="2.220985"><ele>278.0</ele><time>2026-04-06T15:42:09.698Z</time></trkpt><trkpt lat="43.326125" lon="2.2210467"><ele>278.0</ele><time>2026-04-06T15:42:10.696Z</time></trkpt><trkpt lat="43.3263217" lon="2.2210883"><ele>278.6666666666667</ele><time>2026-04-06T15:42:11.704Z</time></trkpt><trkpt lat="43.3265283" lon="2.2211083"><ele>279.3333333333333</ele><time>2026-04-06T15:42:12.697Z</time></trkpt><trkpt lat="43.3267683" lon="2.2211283"><ele>280.0</ele><time>2026-04-06T15:42:13.703Z</time></trkpt><trkpt lat="43.3270067" lon="2.22116"><ele>282.0</ele><time>2026-04-06T15:42:14.706Z</time></trkpt><trkpt lat="43.3272633" lon="2.2211967"><ele>284.0</ele><time>2026-04-06T15:42:15.703Z</time></trkpt><trkpt lat="43.3275233" lon="2.2212383"><ele>284.0</ele><time>2026-04-06T15:42:16.703Z</time></trkpt><trkpt lat="43.32778" lon="2.2212733"><ele>284.0</ele><time>2026-04-06T15:42:17.705Z</time></trkpt><trkpt lat="43.328035" lon="2.22132"><ele>286.0</ele><time>2026-04-06T15:42:18.702Z</time></trkpt><trkpt lat="43.328285" lon="2.2213833"><ele>288.0</ele><time>2026-04-06T15:42:19.704Z</time></trkpt><trkpt lat="43.3285317" lon="2.2214633"><ele>288.0</ele><time>2026-04-06T15:42:20.704Z</time></trkpt><trkpt lat="43.3287817" lon="2.221545"><ele>288.0</ele><time>2026-04-06T15:42:21.703Z</time></trkpt><trkpt lat="43.3290367" lon="2.2216233"><ele>291.0</ele><time>2026-04-06T15:42:22.702Z</time></trkpt><trkpt lat="43.3292817" lon="2.2217017"><ele>294.0</ele><time>2026-04-06T15:42:23.703Z</time></trkpt><trkpt lat="43.3295133" lon="2.22178"><ele>296.6666666666667</ele><time>2026-04-06T15:42:24.702Z</time></trkpt><trkpt lat="43.32973" lon="2.2218583"><ele>299.33333333333337</ele><time>2026-04-06T15:42:25.705Z</time></trkpt><trkpt lat="43.3299433" lon="2.2219317"><ele>302.0</ele><time>2026-04-06T15:42:26.706Z</time></trkpt><trkpt lat="43.3301483" lon="2.22201"><ele>302.0</ele><time>2026-04-06T15:42:27.705Z</time></trkpt><trkpt lat="43.3303533" lon="2.2221"><ele>302.0</ele><time>2026-04-06T15:42:28.702Z</time></trkpt><trkpt lat="43.330535" lon="2.2222"><ele>302.0</ele><time>2026-04-06T15:42:29.704Z</time></trkpt><trkpt lat="43.3307017" lon="2.2223083"><ele>304.6666666666667</ele><time>2026-04-06T15:42:30.704Z</time></trkpt><trkpt lat="43.3308717" lon="2.2223867"><ele>307.3333333333333</ele><time>2026-04-06T15:42:31.705Z</time></trkpt><trkpt lat="43.331055" lon="2.2224333"><ele>310.0</ele><time>2026-04-06T15:42:32.703Z</time></trkpt><trkpt lat="43.3312483" lon="2.2224367"><ele>312.0</ele><time>2026-04-06T15:42:33.703Z</time></trkpt><trkpt lat="43.33145" lon="2.22237"><ele>314.0</ele><time>2026-04-06T15:42:34.699Z</time></trkpt><trkpt lat="43.3316533" lon="2.2223017"><ele>316.0</ele><time>2026-04-06T15:42:35.703Z</time></trkpt><trkpt lat="43.33186" lon="2.2222117"><ele>316.0</ele><time>2026-04-06T15:42:36.706Z</time></trkpt><trkpt lat="43.332075" lon="2.2221367"><ele>316.0</ele><time>2026-04-06T15:42:37.699Z</time></trkpt><trkpt lat="43.3322933" lon="2.2220517"><ele>316.0</ele><time>2026-04-06T15:42:38.705Z</time></trkpt><trkpt lat="43.332515" lon="2.2219433"><ele>320.0</ele><time>2026-04-06T15:42:39.702Z</time></trkpt><trkpt lat="43.3327417" lon="2.221805"><ele>324.0</ele><time>2026-04-06T15:42:40.698Z</time></trkpt><trkpt lat="43.3329683" lon="2.2216567"><ele>327.0</ele><time>2026-04-06T15:42:41.705Z</time></trkpt><trkpt lat="43.333195" lon="2.2215017"><ele>330.0</ele><time>2026-04-06T15:42:42.7Z</time></trkpt><trkpt lat="43.3334183" lon="2.2213433"><ele>330.5</ele><time>2026-04-06T15:42:43.705Z</time></trkpt><trkpt lat="43.3336333" lon="2.2211917"><ele>331.0</ele><time>2026-04-06T15:42:44.701Z</time></trkpt><trkpt lat="43.3338417" lon="2.2210483"><ele>332.66666666666663</ele><time>2026-04-06T15:42:45.702Z</time></trkpt><trkpt lat="43.3340483" lon="2.220945"><ele>334.3333333333333</ele><time>2026-04-06T15:42:46.704Z</time></trkpt><trkpt lat="43.334265" lon="2.2208767"><ele>336.0</ele><time>2026-04-06T15:42:47.704Z</time></trkpt><trkpt lat="43.3344917" lon="2.22084"><ele>339.5</ele><time>2026-04-06T15:42:48.701Z</time></trkpt><trkpt lat="43.33473" lon="2.2208183"><ele>343.0</ele><time>2026-04-06T15:42:49.706Z</time></trkpt><trkpt lat="43.3349717" lon="2.220805"><ele>343.0</ele><time>2026-04-06T15:42:50.705Z</time></trkpt><trkpt lat="43.3352167" lon="2.22079"><ele>343.0</ele><time>2026-04-06T15:42:51.705Z</time></trkpt><trkpt lat="43.3354583" lon="2.220775"><ele>346.5</ele><time>2026-04-06T15:42:52.699Z</time></trkpt><trkpt lat="43.335695" lon="2.2207583"><ele>350.0</ele><time>2026-04-06T15:42:53.702Z</time></trkpt><trkpt lat="43.33592" lon="2.2207467"><ele>350.0</ele><time>2026-04-06T15:42:54.702Z</time></trkpt><trkpt lat="43.33614" lon="2.22075"><ele>350.0</ele><time>2026-04-06T15:42:55.704Z</time></trkpt><trkpt lat="43.3363583" lon="2.2207817"><ele>350.0</ele><time>2026-04-06T15:42:56.7Z</time></trkpt><trkpt lat="43.3365717" lon="2.22085"><ele>352.0</ele><time>2026-04-06T15:42:57.702Z</time></trkpt><trkpt lat="43.3367783" lon="2.2209567"><ele>354.0</ele><time>2026-04-06T15:42:58.701Z</time></trkpt><trkpt lat="43.3369833" lon="2.2210883"><ele>356.0</ele><time>2026-04-06T15:42:59.704Z</time></trkpt><trkpt lat="43.3371883" lon="2.2212167"><ele>358.0</ele><time>2026-04-06T15:43:00.702Z</time></trkpt><trkpt lat="43.3373933" lon="2.2213367"><ele>360.0</ele><time>2026-04-06T15:43:01.704Z</time></trkpt><trkpt lat="43.337605" lon="2.221445"><ele>362.0</ele><time>2026-04-06T15:43:02.704Z</time></trkpt><trkpt lat="43.33783" lon="2.2215367"><ele>365.0</ele><time>2026-04-06T15:43:03.705Z</time></trkpt><trkpt lat="43.338065" lon="2.2216083"><ele>368.0</ele><time>2026-04-06T15:43:04.703Z</time></trkpt><trkpt lat="43.3383133" lon="2.22167"><ele>368.0</ele><time>2026-04-06T15:43:05.702Z</time></trkpt><trkpt lat="43.33857" lon="2.2217367"><ele>368.0</ele><time>2026-04-06T15:43:06.707Z</time></trkpt><trkpt lat="43.338835" lon="2.2218033"><ele>369.5</ele><time>2026-04-06T15:43:07.704Z</time></trkpt><trkpt lat="43.339105" lon="2.2218717"><ele>371.0</ele><time>2026-04-06T15:43:08.702Z</time></trkpt><trkpt lat="43.3393817" lon="2.2219383"><ele>371.0</ele><time>2026-04-06T15:43:09.704Z</time></trkpt><trkpt lat="43.3396633" lon="2.22201"><ele>371.0</ele><time>2026-04-06T15:43:10.702Z</time></trkpt><trkpt lat="43.3399467" lon="2.222095"><ele>374.0</ele><time>2026-04-06T15:43:11.699Z</time></trkpt><trkpt lat="43.3402367" lon="2.222185"><ele>377.0</ele><time>2026-04-06T15:43:12.702Z</time></trkpt><trkpt lat="43.34053" lon="2.2222683"><ele>379.5</ele><time>2026-04-06T15:43:13.703Z</time></trkpt><trkpt lat="43.3408283" lon="2.2223467"><ele>382.0</ele><time>2026-04-06T15:43:14.703Z</time></trkpt><trkpt lat="43.34113" lon="2.2224233"><ele>384.5</ele><time>2026-04-06T15:43:15.7Z</time></trkpt><trkpt lat="43.3414417" lon="2.22251"><ele>387.0</ele><time>2026-04-06T15:43:16.697Z</time></trkpt><trkpt lat="43.3417333" lon="2.2225917"><ele>387.0</ele><time>2026-04-06T15:43:17.702Z</time></trkpt><trkpt lat="43.3420183" lon="2.2226717"><ele>387.0</ele><time>2026-04-06T15:43:18.705Z</time></trkpt><trkpt lat="43.3422883" lon="2.2227417"><ele>390.5</ele><time>2026-04-06T15:43:19.701Z</time></trkpt><trkpt lat="43.34255" lon="2.2228017"><ele>394.0</ele><time>2026-04-06T15:43:20.706Z</time></trkpt><trkpt lat="43.3427967" lon="2.22286"><ele>394.0</ele><time>2026-04-06T15:43:21.705Z</time></trkpt><trkpt lat="43.3430283" lon="2.2229217"><ele>394.0</ele><time>2026-04-06T15:43:22.703Z</time></trkpt><trkpt lat="43.34325" lon="2.2229817"><ele>396.0</ele><time>2026-04-06T15:43:23.704Z</time></trkpt><trkpt lat="43.3434633" lon="2.2230417"><ele>398.0</ele><time>2026-04-06T15:43:24.706Z</time></trkpt><trkpt lat="43.34367" lon="2.223095"><ele>400.0</ele><time>2026-04-06T15:43:25.702Z</time></trkpt><trkpt lat="43.3438667" lon="2.22313"><ele>402.6666666666667</ele><time>2026-04-06T15:43:26.705Z</time></trkpt><trkpt lat="43.3440533" lon="2.2231517"><ele>405.33333333333337</ele><time>2026-04-06T15:43:27.705Z</time></trkpt><trkpt lat="43.3442317" lon="2.2231617"><ele>408.0</ele><time>2026-04-06T15:43:28.702Z</time></trkpt><trkpt lat="43.3444033" lon="2.223165"><ele>408.0</ele><time>2026-04-06T15:43:29.706Z</time></trkpt><trkpt lat="43.3445717" lon="2.2231717"><ele>408.0</ele><time>2026-04-06T15:43:30.704Z</time></trkpt><trkpt lat="43.3447317" lon="2.2231867"><ele>408.0</ele><time>2026-04-06T15:43:31.702Z</time></trkpt><trkpt lat="43.3448883" lon="2.2232017"><ele>410.66666666666663</ele><time>2026-04-06T15:43:32.703Z</time></trkpt><trkpt lat="43.34504" lon="2.22321"><ele>413.3333333333333</ele><time>2026-04-06T15:43:33.703Z</time></trkpt><trkpt lat="43.3451933" lon="2.22322"><ele>416.0</ele><time>2026-04-06T15:43:34.701Z</time></trkpt><trkpt lat="43.345355" lon="2.2232283"><ele>416.0</ele><time>2026-04-06T15:43:35.705Z</time></trkpt><trkpt lat="43.3455183" lon="2.223235"><ele>416.0</ele><time>2026-04-06T15:43:36.705Z</time></trkpt><trkpt lat="43.34568" lon="2.2232467"><ele>416.0</ele><time>2026-04-06T15:43:37.701Z</time></trkpt><trkpt lat="43.3458417" lon="2.2232633"><ele>419.0</ele><time>2026-04-06T15:43:38.703Z</time></trkpt><trkpt lat="43.346" lon="2.2232783"><ele>422.0</ele><time>2026-04-06T15:43:39.702Z</time></trkpt><trkpt lat="43.34616" lon="2.2232967"><ele>425.0</ele><time>2026-04-06T15:43:40.698Z</time></trkpt><trkpt lat="43.34633" lon="2.223305"><ele>426.0</ele><time>2026-04-06T15:43:41.703Z</time></trkpt><trkpt lat="43.3465033" lon="2.22331"><ele>427.0</ele><time>2026-04-06T15:43:42.7Z</time></trkpt><trkpt lat="43.346675" lon="2.2233183"><ele>428.0</ele><time>2026-04-06T15:43:43.701Z</time></trkpt><trkpt lat="43.34685" lon="2.2233267"><ele>428.0</ele><time>2026-04-06T15:43:44.704Z</time></trkpt><trkpt lat="43.3470217" lon="2.2233383"><ele>428.0</ele><time>2026-04-06T15:43:45.699Z</time></trkpt><trkpt lat="43.3471783" lon="2.2233517"><ele>428.0</ele><time>2026-04-06T15:43:46.7Z</time></trkpt><trkpt lat="43.34733" lon="2.22336"><ele>429.25</ele><time>2026-04-06T15:43:47.704Z</time></trkpt><trkpt lat="43.3474733" lon="2.2233667"><ele>430.5</ele><time>2026-04-06T15:43:48.698Z</time></trkpt><trkpt lat="43.3476183" lon="2.2233733"><ele>431.75</ele><time>2026-04-06T15:43:49.702Z</time></trkpt><trkpt lat="43.3477667" lon="2.2233767"><ele>433.0</ele><time>2026-04-06T15:43:50.698Z</time></trkpt><trkpt lat="43.3479183" lon="2.2233583"><ele>436.0</ele><time>2026-04-06T15:43:51.7Z</time></trkpt><trkpt lat="43.3480733" lon="2.2233"><ele>439.0</ele><time>2026-04-06T15:43:52.703Z</time></trkpt><trkpt lat="43.34824" lon="2.2232117"><ele>442.0</ele><time>2026-04-06T15:43:53.703Z</time></trkpt><trkpt lat="43.34841" lon="2.2230933"><ele>442.33333333333337</ele><time>2026-04-06T15:43:54.703Z</time></trkpt><trkpt lat="43.3485967" lon="2.2229767"><ele>442.66666666666663</ele><time>2026-04-06T15:43:55.703Z</time></trkpt><trkpt lat="43.3488" lon="2.2228567"><ele>443.0</ele><time>2026-04-06T15:43:56.703Z</time></trkpt><trkpt lat="43.3490133" lon="2.2227267"><ele>447.5</ele><time>2026-04-06T15:43:57.705Z</time></trkpt><trkpt lat="43.349225" lon="2.2225867"><ele>452.0</ele><time>2026-04-06T15:43:58.703Z</time></trkpt><trkpt lat="43.34943" lon="2.22242"><ele>452.0</ele><time>2026-04-06T15:43:59.703Z</time></trkpt><trkpt lat="43.34965" lon="2.22225"><ele>452.0</ele><time>2026-04-06T15:44:00.703Z</time></trkpt><trkpt lat="43.3498917" lon="2.2221"><ele>456.5</ele><time>2026-04-06T15:44:01.705Z</time></trkpt><trkpt lat="43.350135" lon="2.2219483"><ele>461.0</ele><time>2026-04-06T15:44:02.702Z</time></trkpt><trkpt lat="43.3503633" lon="2.2217633"><ele>464.5</ele><time>2026-04-06T15:44:03.703Z</time></trkpt><trkpt lat="43.35057" lon="2.2215633"><ele>468.0</ele><time>2026-04-06T15:44:04.704Z</time></trkpt><trkpt lat="43.35077" lon="2.2214033"><ele>468.66666666666663</ele><time>2026-04-06T15:44:05.703Z</time></trkpt><trkpt lat="43.3509533" lon="2.221255"><ele>469.3333333333333</ele><time>2026-04-06T15:44:06.707Z</time></trkpt><trkpt lat="43.3511283" lon="2.2211267"><ele>470.0</ele><time>2026-04-06T15:44:07.705Z</time></trkpt><trkpt lat="43.351305" lon="2.2210067"><ele>471.66666666666663</ele><time>2026-04-06T15:44:08.703Z</time></trkpt><trkpt lat="43.3514833" lon="2.2208867"><ele>473.33333333333337</ele><time>2026-04-06T15:44:09.701Z</time></trkpt><trkpt lat="43.35167" lon="2.22077"><ele>475.0</ele><time>2026-04-06T15:44:10.703Z</time></trkpt><trkpt lat="43.3518617" lon="2.220655"><ele>475.6666666666667</ele><time>2026-04-06T15:44:11.701Z</time></trkpt><trkpt lat="43.352065" lon="2.220555"><ele>476.33333333333337</ele><time>2026-04-06T15:44:12.703Z</time></trkpt><trkpt lat="43.35227" lon="2.2204717"><ele>477.0</ele><time>2026-04-06T15:44:13.704Z</time></trkpt><trkpt lat="43.35247" lon="2.2203767"><ele>478.33333333333337</ele><time>2026-04-06T15:44:14.705Z</time></trkpt><trkpt lat="43.3526633" lon="2.2202833"><ele>479.6666666666667</ele><time>2026-04-06T15:44:15.705Z</time></trkpt><trkpt lat="43.3528567" lon="2.2201933"><ele>481.0</ele><time>2026-04-06T15:44:16.705Z</time></trkpt><trkpt lat="43.3530483" lon="2.2200983"><ele>482.0</ele><time>2026-04-06T15:44:17.703Z</time></trkpt><trkpt lat="43.3532417" lon="2.2200017"><ele>483.0</ele><time>2026-04-06T15:44:18.701Z</time></trkpt><trkpt lat="43.3534317" lon="2.2199033"><ele>484.0</ele><time>2026-04-06T15:44:19.701Z</time></trkpt><trkpt lat="43.35361" lon="2.2198017"><ele>484.0</ele><time>2026-04-06T15:44:20.703Z</time></trkpt><trkpt lat="43.3537967" lon="2.219715"><ele>484.0</ele><time>2026-04-06T15:44:21.697Z</time></trkpt><trkpt lat="43.3539833" lon="2.2196233"><ele>484.0</ele><time>2026-04-06T15:44:22.705Z</time></trkpt><trkpt lat="43.35417" lon="2.219555"><ele>485.6666666666667</ele><time>2026-04-06T15:44:23.701Z</time></trkpt><trkpt lat="43.35436" lon="2.219465"><ele>487.33333333333337</ele><time>2026-04-06T15:44:24.707Z</time></trkpt><trkpt lat="43.3545533" lon="2.2193917"><ele>489.0</ele><time>2026-04-06T15:44:25.698Z</time></trkpt><trkpt lat="43.3547433" lon="2.21931"><ele>489.66666666666663</ele><time>2026-04-06T15:44:26.704Z</time></trkpt><trkpt lat="43.3549317" lon="2.2192333"><ele>490.3333333333333</ele><time>2026-04-06T15:44:27.705Z</time></trkpt><trkpt lat="43.35511" lon="2.21915"><ele>491.0</ele><time>2026-04-06T15:44:28.703Z</time></trkpt><trkpt lat="43.355275" lon="2.219085"><ele>491.0</ele><time>2026-04-06T15:44:29.704Z</time></trkpt><trkpt lat="43.3554267" lon="2.2190383"><ele>491.0</ele><time>2026-04-06T15:44:30.705Z</time></trkpt><trkpt lat="43.3555717" lon="2.21898"><ele>491.0</ele><time>2026-04-06T15:44:31.703Z</time></trkpt><trkpt lat="43.3557183" lon="2.2189283"><ele>492.75</ele><time>2026-04-06T15:44:32.703Z</time></trkpt><trkpt lat="43.3558633" lon="2.2188733"><ele>494.5</ele><time>2026-04-06T15:44:33.704Z</time></trkpt><trkpt lat="43.356005" lon="2.2188167"><ele>496.25</ele><time>2026-04-06T15:44:34.702Z</time></trkpt><trkpt lat="43.3561417" lon="2.2187617"><ele>498.0</ele><time>2026-04-06T15:44:35.703Z</time></trkpt><trkpt lat="43.3562733" lon="2.2187117"><ele>499.75</ele><time>2026-04-06T15:44:36.704Z</time></trkpt><trkpt lat="43.3564" lon="2.2186783"><ele>501.5</ele><time>2026-04-06T15:44:37.702Z</time></trkpt><trkpt lat="43.356525" lon="2.2186467"><ele>503.25</ele><time>2026-04-06T15:44:38.703Z</time></trkpt><trkpt lat="43.3566533" lon="2.2186267"><ele>505.0</ele><time>2026-04-06T15:44:39.702Z</time></trkpt><trkpt lat="43.3567767" lon="2.2186417"><ele>505.0</ele><time>2026-04-06T15:44:40.701Z</time></trkpt><trkpt lat="43.3569017" lon="2.2186733"><ele>505.0</ele><time>2026-04-06T15:44:41.701Z</time></trkpt><trkpt lat="43.3570233" lon="2.2187267"><ele>505.0</ele><time>2026-04-06T15:44:42.705Z</time></trkpt><trkpt lat="43.357145" lon="2.2187833"><ele>505.0</ele><time>2026-04-06T15:44:43.701Z</time></trkpt><trkpt lat="43.3572733" lon="2.218845"><ele>506.5</ele><time>2026-04-06T15:44:44.707Z</time></trkpt><trkpt lat="43.3574067" lon="2.218905"><ele>508.0</ele><time>2026-04-06T15:44:45.704Z</time></trkpt><trkpt lat="43.3575367" lon="2.21897"><ele>509.5</ele><time>2026-04-06T15:44:46.702Z</time></trkpt><trkpt lat="43.3576633" lon="2.21904"><ele>511.0</ele><time>2026-04-06T15:44:47.702Z</time></trkpt><trkpt lat="43.35779" lon="2.2191083"><ele>511.5</ele><time>2026-04-06T15:44:48.701Z</time></trkpt><trkpt lat="43.3579117" lon="2.2191683"><ele>512.0</ele><time>2026-04-06T15:44:49.704Z</time></trkpt><trkpt lat="43.35803" lon="2.219225"><ele>512.5</ele><time>2026-04-06T15:44:50.702Z</time></trkpt><trkpt lat="43.35815" lon="2.219285"><ele>513.0</ele><time>2026-04-06T15:44:51.703Z</time></trkpt><trkpt lat="43.3582683" lon="2.2193533"><ele>514.5</ele><time>2026-04-06T15:44:52.704Z</time></trkpt><trkpt lat="43.3583883" lon="2.2194167"><ele>516.0</ele><time>2026-04-06T15:44:53.702Z</time></trkpt><trkpt lat="43.35851" lon="2.2194717"><ele>517.5</ele><time>2026-04-06T15:44:54.702Z</time></trkpt><trkpt lat="43.3586283" lon="2.219525"><ele>519.0</ele><time>2026-04-06T15:44:55.703Z</time></trkpt><trkpt lat="43.3587417" lon="2.2195767"><ele>519.0</ele><time>2026-04-06T15:44:56.705Z</time></trkpt><trkpt lat="43.3588533" lon="2.21964"><ele>519.0</ele><time>2026-04-06T15:44:57.703Z</time></trkpt><trkpt lat="43.3589583" lon="2.2197017"><ele>519.0</ele><time>2026-04-06T15:44:58.7Z</time></trkpt><trkpt lat="43.359065" lon="2.2197567"><ele>519.0</ele><time>2026-04-06T15:44:59.702Z</time></trkpt><trkpt lat="43.3591667" lon="2.2198083"><ele>519.8</ele><time>2026-04-06T15:45:00.701Z</time></trkpt><trkpt lat="43.3592633" lon="2.2198567"><ele>520.5999999999999</ele><time>2026-04-06T15:45:01.703Z</time></trkpt><trkpt lat="43.35936" lon="2.2198983"><ele>521.4</ele><time>2026-04-06T15:45:02.699Z</time></trkpt><trkpt lat="43.3594533" lon="2.2199383"><ele>522.1999999999999</ele><time>2026-04-06T15:45:03.7Z</time></trkpt><trkpt lat="43.3595383" lon="2.2199817"><ele>523.0</ele><time>2026-04-06T15:45:04.7Z</time></trkpt><trkpt lat="43.3596167" lon="2.2200217"><ele>523.0</ele><time>2026-04-06T15:45:05.704Z</time></trkpt><trkpt lat="43.3596883" lon="2.220065"><ele>523.0</ele><time>2026-04-06T15:45:06.703Z</time></trkpt><trkpt lat="43.3597567" lon="2.2200967"><ele>523.0</ele><time>2026-04-06T15:45:07.702Z</time></trkpt><trkpt lat="43.3598517" lon="2.22014"><ele>523.0</ele><time>2026-04-06T15:45:09.701Z</time></trkpt><trkpt lat="43.359935" lon="2.22018"><ele>523.0</ele><time>2026-04-06T15:45:13.7Z</time></trkpt><trkpt lat="43.36002" lon="2.220225"><ele>523.0</ele><time>2026-04-06T15:45:15.705Z</time></trkpt><trkpt lat="43.360105" lon="2.2202867"><ele>524.1999999999999</ele><time>2026-04-06T15:45:17.701Z</time></trkpt><trkpt lat="43.3602267" lon="2.2203433"><ele>525.4</ele><time>2026-04-06T15:45:19.701Z</time></trkpt><trkpt lat="43.3602967" lon="2.2203817"><ele>526.5999999999999</ele><time>2026-04-06T15:45:20.706Z</time></trkpt><trkpt lat="43.3603767" lon="2.22042"><ele>527.8</ele><time>2026-04-06T15:45:21.702Z</time></trkpt><trkpt lat="43.3604567" lon="2.2204483"><ele>529.0</ele><time>2026-04-06T15:45:22.702Z</time></trkpt><trkpt lat="43.3605417" lon="2.220475"><ele>529.8</ele><time>2026-04-06T15:45:23.701Z</time></trkpt><trkpt lat="43.3606233" lon="2.2205033"><ele>530.5999999999999</ele><time>2026-04-06T15:45:24.7Z</time></trkpt><trkpt lat="43.3607033" lon="2.2205483"><ele>531.4</ele><time>2026-04-06T15:45:25.702Z</time></trkpt><trkpt lat="43.3607867" lon="2.2206"><ele>532.1999999999999</ele><time>2026-04-06T15:45:26.704Z</time></trkpt><trkpt lat="43.3608767" lon="2.2206533"><ele>533.0</ele><time>2026-04-06T15:45:27.702Z</time></trkpt><trkpt lat="43.36097" lon="2.220705"><ele>533.0</ele><time>2026-04-06T15:45:28.699Z</time></trkpt><trkpt lat="43.3610617" lon="2.2207633"><ele>533.0</ele><time>2026-04-06T15:45:29.702Z</time></trkpt><trkpt lat="43.3611567" lon="2.220815"><ele>533.0</ele><time>2026-04-06T15:45:30.705Z</time></trkpt><trkpt lat="43.3612567" lon="2.2208567"><ele>533.0</ele><time>2026-04-06T15:45:31.703Z</time></trkpt><trkpt lat="43.361355" lon="2.2209083"><ele>533.0</ele><time>2026-04-06T15:45:32.705Z</time></trkpt><trkpt lat="43.361445" lon="2.2209517"><ele>533.8</ele><time>2026-04-06T15:45:33.704Z</time></trkpt><trkpt lat="43.3615317" lon="2.2209967"><ele>534.5999999999999</ele><time>2026-04-06T15:45:34.705Z</time></trkpt><trkpt lat="43.3616183" lon="2.2210433"><ele>535.4000000000001</ele><time>2026-04-06T15:45:35.704Z</time></trkpt><trkpt lat="43.36171" lon="2.22109"><ele>536.2</ele><time>2026-04-06T15:45:36.703Z</time></trkpt><trkpt lat="43.3617983" lon="2.22113"><ele>537.0</ele><time>2026-04-06T15:45:37.705Z</time></trkpt><trkpt lat="43.3618967" lon="2.2211767"><ele>537.0</ele><time>2026-04-06T15:45:38.705Z</time></trkpt><trkpt lat="43.3620033" lon="2.221235"><ele>537.0</ele><time>2026-04-06T15:45:39.698Z</time></trkpt><trkpt lat="43.362105" lon="2.2212867"><ele>537.0</ele><time>2026-04-06T15:45:40.7Z</time></trkpt><trkpt lat="43.3622117" lon="2.22134"><ele>537.0</ele><time>2026-04-06T15:45:41.704Z</time></trkpt><trkpt lat="43.3623133" lon="2.2213883"><ele>537.0</ele><time>2026-04-06T15:45:42.703Z</time></trkpt><trkpt lat="43.362415" lon="2.22143"><ele>538.2</ele><time>2026-04-06T15:45:43.705Z</time></trkpt><trkpt lat="43.3625067" lon="2.221475"><ele>539.4000000000001</ele><time>2026-04-06T15:45:44.705Z</time></trkpt><trkpt lat="43.3625917" lon="2.2215267"><ele>540.5999999999999</ele><time>2026-04-06T15:45:45.701Z</time></trkpt><trkpt lat="43.3626883" lon="2.221575"><ele>541.8</ele><time>2026-04-06T15:45:46.701Z</time></trkpt><trkpt lat="43.3627983" lon="2.2216267"><ele>543.0</ele><time>2026-04-06T15:45:47.704Z</time></trkpt><trkpt lat="43.3629183" lon="2.2216983"><ele>546.0</ele><time>2026-04-06T15:45:48.706Z</time></trkpt><trkpt lat="43.3630383" lon="2.2217867"><ele>549.0</ele><time>2026-04-06T15:45:49.703Z</time></trkpt><trkpt lat="43.36318" lon="2.22188"><ele>552.0</ele><time>2026-04-06T15:45:50.704Z</time></trkpt><trkpt lat="43.3633367" lon="2.2219883"><ele>552.0</ele><time>2026-04-06T15:45:51.705Z</time></trkpt><trkpt lat="43.363495" lon="2.2220917"><ele>552.0</ele><time>2026-04-06T15:45:52.704Z</time></trkpt><trkpt lat="43.3636717" lon="2.2222017"><ele>552.0</ele><time>2026-04-06T15:45:53.701Z</time></trkpt><trkpt lat="43.363865" lon="2.222335"><ele>555.0</ele><time>2026-04-06T15:45:54.703Z</time></trkpt><trkpt lat="43.3640667" lon="2.2224717"><ele>558.0</ele><time>2026-04-06T15:45:55.702Z</time></trkpt><trkpt lat="43.364275" lon="2.2226233"><ele>558.0</ele><time>2026-04-06T15:45:56.701Z</time></trkpt><trkpt lat="43.3644983" lon="2.2227917"><ele>558.0</ele><time>2026-04-06T15:45:57.704Z</time></trkpt><trkpt lat="43.3647233" lon="2.2229717"><ele>561.0</ele><time>2026-04-06T15:45:58.705Z</time></trkpt><trkpt lat="43.3649567" lon="2.22314"><ele>564.0</ele><time>2026-04-06T15:45:59.702Z</time></trkpt><trkpt lat="43.365195" lon="2.2233117"><ele>565.0</ele><time>2026-04-06T15:46:00.703Z</time></trkpt><trkpt lat="43.365425" lon="2.2234867"><ele>566.0</ele><time>2026-04-06T15:46:01.701Z</time></trkpt><trkpt lat="43.3656533" lon="2.2236583"><ele>568.5</ele><time>2026-04-06T15:46:02.703Z</time></trkpt><trkpt lat="43.365875" lon="2.223825"><ele>571.0</ele><time>2026-04-06T15:46:03.701Z</time></trkpt><trkpt lat="43.366115" lon="2.2239917"><ele>571.5</ele><time>2026-04-06T15:46:04.702Z</time></trkpt><trkpt lat="43.3663483" lon="2.224135"><ele>572.0</ele><time>2026-04-06T15:46:05.702Z</time></trkpt><trkpt lat="43.3665833" lon="2.2242683"><ele>576.0</ele><time>2026-04-06T15:46:06.701Z</time></trkpt><trkpt lat="43.3668233" lon="2.2243917"><ele>580.0</ele><time>2026-04-06T15:46:07.701Z</time></trkpt><trkpt lat="43.3670517" lon="2.2244967"><ele>581.3333333333334</ele><time>2026-04-06T15:46:08.701Z</time></trkpt><trkpt lat="43.3672583" lon="2.2246067"><ele>582.6666666666666</ele><time>2026-04-06T15:46:09.701Z</time></trkpt><trkpt lat="43.3674667" lon="2.2247167"><ele>584.0</ele><time>2026-04-06T15:46:10.704Z</time></trkpt><trkpt lat="43.36767" lon="2.22482"><ele>584.0</ele><time>2026-04-06T15:46:11.702Z</time></trkpt><trkpt lat="43.36787" lon="2.2249167"><ele>584.0</ele><time>2026-04-06T15:46:12.701Z</time></trkpt><trkpt lat="43.3680567" lon="2.2250133"><ele>584.0</ele><time>2026-04-06T15:46:13.702Z</time></trkpt><trkpt lat="43.368235" lon="2.22511"><ele>585.3333333333333</ele><time>2026-04-06T15:46:14.7Z</time></trkpt><trkpt lat="43.3684133" lon="2.225205"><ele>586.6666666666666</ele><time>2026-04-06T15:46:15.705Z</time></trkpt><trkpt lat="43.3685833" lon="2.225295"><ele>588.0</ele><time>2026-04-06T15:46:16.701Z</time></trkpt><trkpt lat="43.368745" lon="2.2253883"><ele>588.6666666666666</ele><time>2026-04-06T15:46:17.705Z</time></trkpt><trkpt lat="43.3689033" lon="2.2254883"><ele>589.3333333333333</ele><time>2026-04-06T15:46:18.703Z</time></trkpt><trkpt lat="43.3690517" lon="2.2255867"><ele>590.0</ele><time>2026-04-06T15:46:19.704Z</time></trkpt><trkpt lat="43.369205" lon="2.2256767"><ele>590.0</ele><time>2026-04-06T15:46:20.705Z</time></trkpt><trkpt lat="43.3693733" lon="2.2257283"><ele>590.0</ele><time>2026-04-06T15:46:21.706Z</time></trkpt><trkpt lat="43.3695467" lon="2.2257533"><ele>590.0</ele><time>2026-04-06T15:46:22.706Z</time></trkpt><trkpt lat="43.3697183" lon="2.2257567"><ele>591.75</ele><time>2026-04-06T15:46:23.704Z</time></trkpt><trkpt lat="43.36988" lon="2.22575"><ele>593.5</ele><time>2026-04-06T15:46:24.706Z</time></trkpt><trkpt lat="43.37003" lon="2.2257433"><ele>595.25</ele><time>2026-04-06T15:46:25.705Z</time></trkpt><trkpt lat="43.3701667" lon="2.225765"><ele>597.0</ele><time>2026-04-06T15:46:26.697Z</time></trkpt><trkpt lat="43.3702917" lon="2.225815"><ele>597.0</ele><time>2026-04-06T15:46:27.704Z</time></trkpt><trkpt lat="43.37041" lon="2.2258917"><ele>597.0</ele><time>2026-04-06T15:46:28.704Z</time></trkpt><trkpt lat="43.3705217" lon="2.2259767"><ele>597.0</ele><time>2026-04-06T15:46:29.702Z</time></trkpt><trkpt lat="43.3706367" lon="2.2260533"><ele>597.0</ele><time>2026-04-06T15:46:30.702Z</time></trkpt><trkpt lat="43.3707583" lon="2.2261317"><ele>598.25</ele><time>2026-04-06T15:46:31.704Z</time></trkpt><trkpt lat="43.3708683" lon="2.22622"><ele>599.5</ele><time>2026-04-06T15:46:32.702Z</time></trkpt><trkpt lat="43.3709667" lon="2.2263167"><ele>600.75</ele><time>2026-04-06T15:46:33.705Z</time></trkpt><trkpt lat="43.371045" lon="2.2264267"><ele>602.0</ele><time>2026-04-06T15:46:34.704Z</time></trkpt><trkpt lat="43.3711033" lon="2.2265417"><ele>602.6</ele><time>2026-04-06T15:46:35.706Z</time></trkpt><trkpt lat="43.3711233" lon="2.226675"><ele>603.2</ele><time>2026-04-06T15:46:36.706Z</time></trkpt><trkpt lat="43.3711383" lon="2.2268133"><ele>603.8</ele><time>2026-04-06T15:46:37.706Z</time></trkpt><trkpt lat="43.3711317" lon="2.2269633"><ele>604.4</ele><time>2026-04-06T15:46:38.704Z</time></trkpt><trkpt lat="43.3711317" lon="2.227135"><ele>605.0</ele><time>2026-04-06T15:46:39.702Z</time></trkpt><trkpt lat="43.3711317" lon="2.227325"><ele>605.25</ele><time>2026-04-06T15:46:40.705Z</time></trkpt><trkpt lat="43.3711317" lon="2.2275183"><ele>605.5</ele><time>2026-04-06T15:46:41.706Z</time></trkpt><trkpt lat="43.3711267" lon="2.2277083"><ele>605.75</ele><time>2026-04-06T15:46:42.706Z</time></trkpt><trkpt lat="43.3711233" lon="2.2278867"><ele>606.0</ele><time>2026-04-06T15:46:43.703Z</time></trkpt><trkpt lat="43.3711367" lon="2.22807"><ele>606.5</ele><time>2026-04-06T15:46:44.704Z</time></trkpt><trkpt lat="43.3711733" lon="2.22825"><ele>607.0</ele><time>2026-04-06T15:46:45.702Z</time></trkpt><trkpt lat="43.371235" lon="2.2284217"><ele>607.5</ele><time>2026-04-06T15:46:46.704Z</time></trkpt><trkpt lat="43.3713183" lon="2.2286"><ele>608.0</ele><time>2026-04-06T15:46:47.703Z</time></trkpt><trkpt lat="43.3714017" lon="2.2287683"><ele>609.3333333333333</ele><time>2026-04-06T15:46:48.705Z</time></trkpt><trkpt lat="43.3715033" lon="2.2289267"><ele>610.6666666666666</ele><time>2026-04-06T15:46:49.702Z</time></trkpt><trkpt lat="43.37159" lon="2.2291"><ele>612.0</ele><time>2026-04-06T15:46:50.703Z</time></trkpt><trkpt lat="43.3716867" lon="2.22928"><ele>612.0</ele><time>2026-04-06T15:46:51.705Z</time></trkpt><trkpt lat="43.371795" lon="2.2294617"><ele>612.0</ele><time>2026-04-06T15:46:52.698Z</time></trkpt><trkpt lat="43.3719033" lon="2.22964"><ele>612.0</ele><time>2026-04-06T15:46:53.703Z</time></trkpt><trkpt lat="43.3719967" lon="2.22982"><ele>612.3333333333334</ele><time>2026-04-06T15:46:54.705Z</time></trkpt><trkpt lat="43.3720933" lon="2.2300167"><ele>612.6666666666667</ele><time>2026-04-06T15:46:55.704Z</time></trkpt><trkpt lat="43.3721983" lon="2.2302067"><ele>613.0</ele><time>2026-04-06T15:46:56.702Z</time></trkpt><trkpt lat="43.372295" lon="2.230395"><ele>613.6666666666667</ele><time>2026-04-06T15:46:57.703Z</time></trkpt><trkpt lat="43.3723817" lon="2.2305783"><ele>614.3333333333334</ele><time>2026-04-06T15:46:58.702Z</time></trkpt><trkpt lat="43.3724733" lon="2.23075"><ele>615.0</ele><time>2026-04-06T15:46:59.704Z</time></trkpt><trkpt lat="43.37258" lon="2.23089"><ele>615.0</ele><time>2026-04-06T15:47:00.704Z</time></trkpt><trkpt lat="43.3727033" lon="2.230995"><ele>615.0</ele><time>2026-04-06T15:47:01.704Z</time></trkpt><trkpt lat="43.3728267" lon="2.2310967"><ele>615.0</ele><time>2026-04-06T15:47:02.707Z</time></trkpt><trkpt lat="43.372955" lon="2.2312117"><ele>615.0</ele><time>2026-04-06T15:47:03.704Z</time></trkpt><trkpt lat="43.3730833" lon="2.2313433"><ele>615.3333333333334</ele><time>2026-04-06T15:47:04.705Z</time></trkpt><trkpt lat="43.3731867" lon="2.2315017"><ele>615.6666666666667</ele><time>2026-04-06T15:47:05.704Z</time></trkpt><trkpt lat="43.37329" lon="2.231685"><ele>616.0</ele><time>2026-04-06T15:47:06.707Z</time></trkpt><trkpt lat="43.3733933" lon="2.231875"><ele>616.0</ele><time>2026-04-06T15:47:07.701Z</time></trkpt><trkpt lat="43.3735083" lon="2.232055"><ele>616.0</ele><time>2026-04-06T15:47:08.704Z</time></trkpt><trkpt lat="43.3736283" lon="2.23222"><ele>616.0</ele><time>2026-04-06T15:47:09.704Z</time></trkpt><trkpt lat="43.373755" lon="2.2323717"><ele>617.6666666666667</ele><time>2026-04-06T15:47:10.705Z</time></trkpt><trkpt lat="43.37389" lon="2.232505"><ele>619.3333333333334</ele><time>2026-04-06T15:47:11.701Z</time></trkpt><trkpt lat="43.3740367" lon="2.232615"><ele>621.0</ele><time>2026-04-06T15:47:12.708Z</time></trkpt><trkpt lat="43.374175" lon="2.2327133"><ele>621.0</ele><time>2026-04-06T15:47:13.705Z</time></trkpt><trkpt lat="43.3742867" lon="2.2328367"><ele>621.0</ele><time>2026-04-06T15:47:14.705Z</time></trkpt><trkpt lat="43.3743767" lon="2.2329867"><ele>621.0</ele><time>2026-04-06T15:47:15.705Z</time></trkpt><trkpt lat="43.3744567" lon="2.233155"><ele>621.0</ele><time>2026-04-06T15:47:16.704Z</time></trkpt><trkpt lat="43.374515" lon="2.2333567"><ele>621.0</ele><time>2026-04-06T15:47:17.705Z</time></trkpt><trkpt lat="43.3745617" lon="2.2335683"><ele>621.0</ele><time>2026-04-06T15:47:18.706Z</time></trkpt><trkpt lat="43.3746033" lon="2.2337917"><ele>621.0</ele><time>2026-04-06T15:47:19.705Z</time></trkpt><trkpt lat="43.374645" lon="2.2340333"><ele>623.6666666666666</ele><time>2026-04-06T15:47:20.703Z</time></trkpt><trkpt lat="43.37469" lon="2.2342767"><ele>626.3333333333333</ele><time>2026-04-06T15:47:21.704Z</time></trkpt><trkpt lat="43.37474" lon="2.2345233"><ele>629.0</ele><time>2026-04-06T15:47:22.705Z</time></trkpt><trkpt lat="43.374785" lon="2.234755"><ele>626.0</ele><time>2026-04-06T15:47:23.705Z</time></trkpt><trkpt lat="43.3748283" lon="2.234975"><ele>623.0</ele><time>2026-04-06T15:47:24.696Z</time></trkpt><trkpt lat="43.3748683" lon="2.2351917"><ele>620.0</ele><time>2026-04-06T15:47:25.695Z</time></trkpt><trkpt lat="43.374925" lon="2.23541"><ele>620.0</ele><time>2026-04-06T15:47:26.708Z</time></trkpt><trkpt lat="43.3749567" lon="2.2356067"><ele>620.0</ele><time>2026-04-06T15:47:27.696Z</time></trkpt><trkpt lat="43.374975" lon="2.23578"><ele>620.0</ele><time>2026-04-06T15:47:28.697Z</time></trkpt><trkpt lat="43.374975" lon="2.23594"><ele>620.0</ele><time>2026-04-06T15:47:29.701Z</time></trkpt><trkpt lat="43.37491" lon="2.2361"><ele>619.3333333333333</ele><time>2026-04-06T15:47:30.699Z</time></trkpt><trkpt lat="43.3747083" lon="2.2362067"><ele>618.6666666666666</ele><time>2026-04-06T15:47:31.699Z</time></trkpt><trkpt lat="43.3745633" lon="2.23633"><ele>618.0</ele><time>2026-04-06T15:47:32.698Z</time></trkpt><trkpt lat="43.3744367" lon="2.2364817"><ele>619.6666666666666</ele><time>2026-04-06T15:47:33.697Z</time></trkpt><trkpt lat="43.3743083" lon="2.236625"><ele>621.3333333333333</ele><time>2026-04-06T15:47:34.698Z</time></trkpt><trkpt lat="43.374205" lon="2.2367667"><ele>623.0</ele><time>2026-04-06T15:47:35.704Z</time></trkpt><trkpt lat="43.3741033" lon="2.2369067"><ele>623.0</ele><time>2026-04-06T15:47:36.704Z</time></trkpt><trkpt lat="43.3739933" lon="2.237055"><ele>623.0</ele><time>2026-04-06T15:47:37.704Z</time></trkpt><trkpt lat="43.3738783" lon="2.237185"><ele>623.0</ele><time>2026-04-06T15:47:38.704Z</time></trkpt><trkpt lat="43.3737717" lon="2.2373183"><ele>623.0</ele><time>2026-04-06T15:47:39.701Z</time></trkpt><trkpt lat="43.3736933" lon="2.2374467"><ele>625.0</ele><time>2026-04-06T15:47:40.703Z</time></trkpt><trkpt lat="43.373645" lon="2.23761"><ele>627.0</ele><time>2026-04-06T15:47:41.706Z</time></trkpt><trkpt lat="43.37362" lon="2.2377933"><ele>629.0</ele><time>2026-04-06T15:47:42.702Z</time></trkpt><trkpt lat="43.37361" lon="2.2379883"><ele>631.0</ele><time>2026-04-06T15:47:43.705Z</time></trkpt><trkpt lat="43.373615" lon="2.2381867"><ele>631.25</ele><time>2026-04-06T15:47:44.705Z</time></trkpt><trkpt lat="43.3736233" lon="2.2383817"><ele>631.5</ele><time>2026-04-06T15:47:45.706Z</time></trkpt><trkpt lat="43.3736333" lon="2.238565"><ele>631.75</ele><time>2026-04-06T15:47:46.699Z</time></trkpt><trkpt lat="43.3736433" lon="2.2387533"><ele>632.0</ele><time>2026-04-06T15:47:47.703Z</time></trkpt><trkpt lat="43.37366" lon="2.2389483"><ele>632.5</ele><time>2026-04-06T15:47:48.701Z</time></trkpt><trkpt lat="43.3736883" lon="2.239125"><ele>633.0</ele><time>2026-04-06T15:47:49.7Z</time></trkpt><trkpt lat="43.373705" lon="2.2393133"><ele>633.5</ele><time>2026-04-06T15:47:50.705Z</time></trkpt><trkpt lat="43.373705" lon="2.2394933"><ele>634.0</ele><time>2026-04-06T15:47:51.704Z</time></trkpt><trkpt lat="43.3737" lon="2.23967"><ele>634.75</ele><time>2026-04-06T15:47:52.702Z</time></trkpt><trkpt lat="43.37367" lon="2.2398367"><ele>635.5</ele><time>2026-04-06T15:47:53.705Z</time></trkpt><trkpt lat="43.37362" lon="2.2399967"><ele>636.25</ele><time>2026-04-06T15:47:54.701Z</time></trkpt><trkpt lat="43.37354" lon="2.2401417"><ele>637.0</ele><time>2026-04-06T15:47:55.704Z</time></trkpt><trkpt lat="43.3734383" lon="2.2402667"><ele>637.0</ele><time>2026-04-06T15:47:56.705Z</time></trkpt><trkpt lat="43.373325" lon="2.2403867"><ele>637.0</ele><time>2026-04-06T15:47:57.7Z</time></trkpt><trkpt lat="43.3732133" lon="2.240505"><ele>637.0</ele><time>2026-04-06T15:47:58.704Z</time></trkpt><trkpt lat="43.3731067" lon="2.2406333"><ele>637.0</ele><time>2026-04-06T15:47:59.702Z</time></trkpt><trkpt lat="43.3730117" lon="2.24077"><ele>637.75</ele><time>2026-04-06T15:48:00.701Z</time></trkpt><trkpt lat="43.3729233" lon="2.240905"><ele>638.5</ele><time>2026-04-06T15:48:01.704Z</time></trkpt><trkpt lat="43.3728267" lon="2.2410433"><ele>639.25</ele><time>2026-04-06T15:48:02.703Z</time></trkpt><trkpt lat="43.3727283" lon="2.2411883"><ele>640.0</ele><time>2026-04-06T15:48:03.699Z</time></trkpt><trkpt lat="43.3726283" lon="2.2413267"><ele>640.25</ele><time>2026-04-06T15:48:04.705Z</time></trkpt><trkpt lat="43.37253" lon="2.2414717"><ele>640.5</ele><time>2026-04-06T15:48:05.702Z</time></trkpt><trkpt lat="43.3724367" lon="2.2416233"><ele>640.75</ele><time>2026-04-06T15:48:06.698Z</time></trkpt><trkpt lat="43.37234" lon="2.2417733"><ele>641.0</ele><time>2026-04-06T15:48:07.703Z</time></trkpt><trkpt lat="43.372235" lon="2.2419167"><ele>640.6666666666666</ele><time>2026-04-06T15:48:08.706Z</time></trkpt><trkpt lat="43.37212" lon="2.2420583"><ele>640.3333333333334</ele><time>2026-04-06T15:48:09.706Z</time></trkpt><trkpt lat="43.3720017" lon="2.242205"><ele>640.0</ele><time>2026-04-06T15:48:10.701Z</time></trkpt><trkpt lat="43.371885" lon="2.2423483"><ele>640.0</ele><time>2026-04-06T15:48:11.702Z</time></trkpt><trkpt lat="43.3717717" lon="2.2424933"><ele>640.0</ele><time>2026-04-06T15:48:12.705Z</time></trkpt><trkpt lat="43.3716617" lon="2.242625"><ele>640.0</ele><time>2026-04-06T15:48:13.703Z</time></trkpt><trkpt lat="43.37155" lon="2.2427467"><ele>640.0</ele><time>2026-04-06T15:48:14.702Z</time></trkpt><trkpt lat="43.3714383" lon="2.2428733"><ele>638.5</ele><time>2026-04-06T15:48:15.702Z</time></trkpt><trkpt lat="43.371325" lon="2.2429967"><ele>637.0</ele><time>2026-04-06T15:48:16.705Z</time></trkpt><trkpt lat="43.3712133" lon="2.243115"><ele>635.5</ele><time>2026-04-06T15:48:17.702Z</time></trkpt><trkpt lat="43.3710983" lon="2.2432333"><ele>634.0</ele><time>2026-04-06T15:48:18.699Z</time></trkpt><trkpt lat="43.3709783" lon="2.243345"><ele>634.0</ele><time>2026-04-06T15:48:19.705Z</time></trkpt><trkpt lat="43.3708533" lon="2.24345"><ele>634.0</ele><time>2026-04-06T15:48:20.705Z</time></trkpt><trkpt lat="43.3707317" lon="2.24356"><ele>634.0</ele><time>2026-04-06T15:48:21.705Z</time></trkpt><trkpt lat="43.3706183" lon="2.2436783"><ele>634.0</ele><time>2026-04-06T15:48:22.704Z</time></trkpt><trkpt lat="43.37052" lon="2.2438"><ele>632.5</ele><time>2026-04-06T15:48:23.702Z</time></trkpt><trkpt lat="43.3704317" lon="2.2439333"><ele>631.0</ele><time>2026-04-06T15:48:24.705Z</time></trkpt><trkpt lat="43.3703517" lon="2.244095"><ele>629.5</ele><time>2026-04-06T15:48:25.696Z</time></trkpt><trkpt lat="43.37028" lon="2.2442567"><ele>628.0</ele><time>2026-04-06T15:48:26.706Z</time></trkpt><trkpt lat="43.3702133" lon="2.24442"><ele>628.0</ele><time>2026-04-06T15:48:27.705Z</time></trkpt><trkpt lat="43.3701483" lon="2.2445917"><ele>628.0</ele><time>2026-04-06T15:48:28.702Z</time></trkpt><trkpt lat="43.3700783" lon="2.2447583"><ele>628.0</ele><time>2026-04-06T15:48:29.704Z</time></trkpt><trkpt lat="43.3700067" lon="2.244925"><ele>628.0</ele><time>2026-04-06T15:48:30.704Z</time></trkpt><trkpt lat="43.36993" lon="2.2450933"><ele>627.75</ele><time>2026-04-06T15:48:31.706Z</time></trkpt><trkpt lat="43.3698517" lon="2.2452533"><ele>627.5</ele><time>2026-04-06T15:48:32.704Z</time></trkpt><trkpt lat="43.3697833" lon="2.2454067"><ele>627.25</ele><time>2026-04-06T15:48:33.703Z</time></trkpt><trkpt lat="43.3697217" lon="2.2455583"><ele>627.0</ele><time>2026-04-06T15:48:34.702Z</time></trkpt><trkpt lat="43.3696617" lon="2.2457117"><ele>626.4</ele><time>2026-04-06T15:48:35.704Z</time></trkpt><trkpt lat="43.3696033" lon="2.2458583"><ele>625.8000000000001</ele><time>2026-04-06T15:48:36.703Z</time></trkpt><trkpt lat="43.3695483" lon="2.2459983"><ele>625.2</ele><time>2026-04-06T15:48:37.704Z</time></trkpt><trkpt lat="43.3695" lon="2.2461317"><ele>624.6</ele><time>2026-04-06T15:48:38.706Z</time></trkpt><trkpt lat="43.369465" lon="2.2462617"><ele>624.0</ele><time>2026-04-06T15:48:39.704Z</time></trkpt><trkpt lat="43.3694467" lon="2.24639"><ele>623.4</ele><time>2026-04-06T15:48:40.701Z</time></trkpt><trkpt lat="43.3694383" lon="2.2465267"><ele>622.8</ele><time>2026-04-06T15:48:41.704Z</time></trkpt><trkpt lat="43.369435" lon="2.2466667"><ele>622.2</ele><time>2026-04-06T15:48:42.704Z</time></trkpt><trkpt lat="43.36944" lon="2.24681"><ele>621.6</ele><time>2026-04-06T15:48:43.698Z</time></trkpt><trkpt lat="43.3694467" lon="2.24695"><ele>621.0</ele><time>2026-04-06T15:48:44.7Z</time></trkpt><trkpt lat="43.3694583" lon="2.2470883"><ele>621.0</ele><time>2026-04-06T15:48:45.701Z</time></trkpt><trkpt lat="43.36948" lon="2.2472267"><ele>621.0</ele><time>2026-04-06T15:48:46.705Z</time></trkpt><trkpt lat="43.3695167" lon="2.247355"><ele>621.0</ele><time>2026-04-06T15:48:47.703Z</time></trkpt><trkpt lat="43.3695667" lon="2.2474683"><ele>621.0</ele><time>2026-04-06T15:48:48.704Z</time></trkpt><trkpt lat="43.3696367" lon="2.2475517"><ele>621.0</ele><time>2026-04-06T15:48:49.705Z</time></trkpt><trkpt lat="43.3697167" lon="2.247605"><ele>620.4</ele><time>2026-04-06T15:48:50.704Z</time></trkpt><trkpt lat="43.3697917" lon="2.247655"><ele>619.8</ele><time>2026-04-06T15:48:51.703Z</time></trkpt><trkpt lat="43.3698783" lon="2.24768"><ele>619.1999999999999</ele><time>2026-04-06T15:48:52.703Z</time></trkpt><trkpt lat="43.3699683" lon="2.2476567"><ele>618.6</ele><time>2026-04-06T15:48:53.704Z</time></trkpt><trkpt lat="43.3700617" lon="2.2476283"><ele>618.0</ele><time>2026-04-06T15:48:54.705Z</time></trkpt><trkpt lat="43.3701517" lon="2.247605"><ele>618.0</ele><time>2026-04-06T15:48:55.701Z</time></trkpt><trkpt lat="43.3702383" lon="2.2475783"><ele>618.0</ele><time>2026-04-06T15:48:56.704Z</time></trkpt><trkpt lat="43.370315" lon="2.24756"><ele>618.0</ele><time>2026-04-06T15:48:57.702Z</time></trkpt><trkpt lat="43.3703933" lon="2.2475333"><ele>618.0</ele><time>2026-04-06T15:48:58.701Z</time></trkpt><trkpt lat="43.370465" lon="2.24751"><ele>618.0</ele><time>2026-04-06T15:48:59.705Z</time></trkpt><trkpt lat="43.370535" lon="2.2474717"><ele>618.0</ele><time>2026-04-06T15:49:00.704Z</time></trkpt><trkpt lat="43.3705967" lon="2.2474417"><ele>618.2857142857143</ele><time>2026-04-06T15:49:01.706Z</time></trkpt><trkpt lat="43.3706567" lon="2.2474033"><ele>618.5714285714286</ele><time>2026-04-06T15:49:02.702Z</time></trkpt><trkpt lat="43.370715" lon="2.247355"><ele>618.8571428571429</ele><time>2026-04-06T15:49:03.704Z</time></trkpt><trkpt lat="43.3707783" lon="2.2473117"><ele>619.1428571428571</ele><time>2026-04-06T15:49:04.704Z</time></trkpt><trkpt lat="43.3708483" lon="2.2472583"><ele>619.4285714285714</ele><time>2026-04-06T15:49:05.704Z</time></trkpt><trkpt lat="43.3709117" lon="2.2472217"><ele>619.7142857142858</ele><time>2026-04-06T15:49:06.708Z</time></trkpt><trkpt lat="43.37099" lon="2.2472083"><ele>620.0</ele><time>2026-04-06T15:49:07.702Z</time></trkpt><trkpt lat="43.3710783" lon="2.2472017"><ele>621.6666666666666</ele><time>2026-04-06T15:49:08.702Z</time></trkpt><trkpt lat="43.3711617" lon="2.247185"><ele>623.3333333333333</ele><time>2026-04-06T15:49:09.705Z</time></trkpt><trkpt lat="43.371245" lon="2.2471617"><ele>625.0</ele><time>2026-04-06T15:49:10.705Z</time></trkpt><trkpt lat="43.3713367" lon="2.2471417"><ele>626.6666666666666</ele><time>2026-04-06T15:49:11.704Z</time></trkpt><trkpt lat="43.371415" lon="2.247145"><ele>628.3333333333334</ele><time>2026-04-06T15:49:12.703Z</time></trkpt><trkpt lat="43.37149" lon="2.24715"><ele>630.0</ele><time>2026-04-06T15:49:13.706Z</time></trkpt><trkpt lat="43.371585" lon="2.2473183"><ele>630.0</ele><time>2026-04-06T15:49:15.705Z</time></trkpt><trkpt lat="43.3716117" lon="2.2474633"><ele>630.0</ele><time>2026-04-06T15:49:16.7Z</time></trkpt><trkpt lat="43.3716383" lon="2.2475783"><ele>630.0</ele><time>2026-04-06T15:49:17.701Z</time></trkpt><trkpt lat="43.3716" lon="2.2478117"><ele>630.0</ele><time>2026-04-06T15:49:18.706Z</time></trkpt><trkpt lat="43.371525" lon="2.2480383"><ele>628.75</ele><time>2026-04-06T15:49:19.702Z</time></trkpt><trkpt lat="43.3714433" lon="2.248215"><ele>627.5</ele><time>2026-04-06T15:49:20.699Z</time></trkpt><trkpt lat="43.3713767" lon="2.2484067"><ele>626.25</ele><time>2026-04-06T15:49:21.704Z</time></trkpt><trkpt lat="43.3713" lon="2.2485717"><ele>625.0</ele><time>2026-04-06T15:49:22.704Z</time></trkpt><trkpt lat="43.3712367" lon="2.248725"><ele>620.75</ele><time>2026-04-06T15:49:23.702Z</time></trkpt><trkpt lat="43.3711483" lon="2.2488567"><ele>616.5</ele><time>2026-04-06T15:49:24.702Z</time></trkpt><trkpt lat="43.37105" lon="2.24898"><ele>612.25</ele><time>2026-04-06T15:49:25.703Z</time></trkpt><trkpt lat="43.370965" lon="2.249125"><ele>608.0</ele><time>2026-04-06T15:49:26.704Z</time></trkpt><trkpt lat="43.3708683" lon="2.2492783"><ele>607.75</ele><time>2026-04-06T15:49:27.705Z</time></trkpt><trkpt lat="43.3707767" lon="2.24944"><ele>607.5</ele><time>2026-04-06T15:49:28.701Z</time></trkpt><trkpt lat="43.3706967" lon="2.2496083"><ele>607.25</ele><time>2026-04-06T15:49:29.703Z</time></trkpt><trkpt lat="43.3706083" lon="2.249765"><ele>607.0</ele><time>2026-04-06T15:49:30.706Z</time></trkpt><trkpt lat="43.3705333" lon="2.2499033"><ele>604.0</ele><time>2026-04-06T15:49:31.703Z</time></trkpt><trkpt lat="43.37044" lon="2.25002"><ele>601.0</ele><time>2026-04-06T15:49:32.701Z</time></trkpt><trkpt lat="43.3703467" lon="2.2501183"><ele>598.0</ele><time>2026-04-06T15:49:33.704Z</time></trkpt><trkpt lat="43.37026" lon="2.2502317"><ele>595.0</ele><time>2026-04-06T15:49:34.704Z</time></trkpt><trkpt lat="43.37018" lon="2.2503617"><ele>595.0</ele><time>2026-04-06T15:49:35.705Z</time></trkpt><trkpt lat="43.3701083" lon="2.2505083"><ele>595.0</ele><time>2026-04-06T15:49:36.703Z</time></trkpt><trkpt lat="43.3700467" lon="2.2506633"><ele>595.0</ele><time>2026-04-06T15:49:37.702Z</time></trkpt><trkpt lat="43.37" lon="2.2508267"><ele>595.0</ele><time>2026-04-06T15:49:38.702Z</time></trkpt><trkpt lat="43.3699767" lon="2.250985"><ele>595.25</ele><time>2026-04-06T15:49:39.704Z</time></trkpt><trkpt lat="43.36995" lon="2.2511417"><ele>595.5</ele><time>2026-04-06T15:49:40.703Z</time></trkpt><trkpt lat="43.3699083" lon="2.2512867"><ele>595.75</ele><time>2026-04-06T15:49:41.701Z</time></trkpt><trkpt lat="43.36984" lon="2.2514167"><ele>596.0</ele><time>2026-04-06T15:49:42.705Z</time></trkpt><trkpt lat="43.3697383" lon="2.2515517"><ele>593.0</ele><time>2026-04-06T15:49:43.701Z</time></trkpt><trkpt lat="43.3696217" lon="2.2516683"><ele>590.0</ele><time>2026-04-06T15:49:44.706Z</time></trkpt><trkpt lat="43.3694983" lon="2.2517867"><ele>587.0</ele><time>2026-04-06T15:49:45.701Z</time></trkpt><trkpt lat="43.36937" lon="2.2519133"><ele>587.0</ele><time>2026-04-06T15:49:46.706Z</time></trkpt><trkpt lat="43.369245" lon="2.2520517"><ele>587.0</ele><time>2026-04-06T15:49:47.705Z</time></trkpt><trkpt lat="43.3691133" lon="2.25219"><ele>587.0</ele><time>2026-04-06T15:49:48.705Z</time></trkpt><trkpt lat="43.3689867" lon="2.2523233"><ele>586.25</ele><time>2026-04-06T15:49:49.707Z</time></trkpt><trkpt lat="43.368865" lon="2.2524483"><ele>585.5</ele><time>2026-04-06T15:49:50.701Z</time></trkpt><trkpt lat="43.36875" lon="2.2525783"><ele>584.75</ele><time>2026-04-06T15:49:51.705Z</time></trkpt><trkpt lat="43.3686367" lon="2.25271"><ele>584.0</ele><time>2026-04-06T15:49:52.702Z</time></trkpt><trkpt lat="43.368535" lon="2.2528483"><ele>584.0</ele><time>2026-04-06T15:49:53.703Z</time></trkpt><trkpt lat="43.3684283" lon="2.252955"><ele>584.0</ele><time>2026-04-06T15:49:54.704Z</time></trkpt><trkpt lat="43.3683083" lon="2.2530483"><ele>584.0</ele><time>2026-04-06T15:49:55.703Z</time></trkpt><trkpt lat="43.3681683" lon="2.2531117"><ele>584.0</ele><time>2026-04-06T15:49:56.703Z</time></trkpt><trkpt lat="43.36801" lon="2.2531217"><ele>583.0</ele><time>2026-04-06T15:49:57.699Z</time></trkpt><trkpt lat="43.3678583" lon="2.25312"><ele>582.0</ele><time>2026-04-06T15:49:58.706Z</time></trkpt><trkpt lat="43.3677067" lon="2.2530917"><ele>581.0</ele><time>2026-04-06T15:49:59.703Z</time></trkpt><trkpt lat="43.36755" lon="2.2529867"><ele>581.0</ele><time>2026-04-06T15:50:00.701Z</time></trkpt><trkpt lat="43.36741" lon="2.252885"><ele>581.0</ele><time>2026-04-06T15:50:01.704Z</time></trkpt><trkpt lat="43.3672933" lon="2.2527267"><ele>581.0</ele><time>2026-04-06T15:50:02.704Z</time></trkpt><trkpt lat="43.3672067" lon="2.2525083"><ele>579.6666666666666</ele><time>2026-04-06T15:50:03.703Z</time></trkpt><trkpt lat="43.3670783" lon="2.25237"><ele>578.3333333333334</ele><time>2026-04-06T15:50:04.701Z</time></trkpt><trkpt lat="43.366945" lon="2.2522283"><ele>577.0</ele><time>2026-04-06T15:50:05.704Z</time></trkpt><trkpt lat="43.3667967" lon="2.25211"><ele>575.3333333333334</ele><time>2026-04-06T15:50:06.7Z</time></trkpt><trkpt lat="43.3666433" lon="2.25201"><ele>573.6666666666666</ele><time>2026-04-06T15:50:07.704Z</time></trkpt><trkpt lat="43.3664817" lon="2.2519467"><ele>572.0</ele><time>2026-04-06T15:50:08.704Z</time></trkpt><trkpt lat="43.3663117" lon="2.251915"><ele>570.3333333333333</ele><time>2026-04-06T15:50:09.702Z</time></trkpt><trkpt lat="43.36613" lon="2.2518933"><ele>568.6666666666666</ele><time>2026-04-06T15:50:10.702Z</time></trkpt><trkpt lat="43.3659567" lon="2.251885"><ele>567.0</ele><time>2026-04-06T15:50:11.704Z</time></trkpt><trkpt lat="43.365765" lon="2.251905"><ele>567.0</ele><time>2026-04-06T15:50:12.703Z</time></trkpt><trkpt lat="43.36558" lon="2.25196"><ele>567.0</ele><time>2026-04-06T15:50:13.702Z</time></trkpt><trkpt lat="43.3653933" lon="2.252035"><ele>567.0</ele><time>2026-04-06T15:50:14.705Z</time></trkpt><trkpt lat="43.3652133" lon="2.252105"><ele>566.0</ele><time>2026-04-06T15:50:15.704Z</time></trkpt><trkpt lat="43.3650333" lon="2.2521717"><ele>565.0</ele><time>2026-04-06T15:50:16.702Z</time></trkpt><trkpt lat="43.3648517" lon="2.2522283"><ele>564.0</ele><time>2026-04-06T15:50:17.705Z</time></trkpt><trkpt lat="43.3646683" lon="2.252295"><ele>563.3333333333334</ele><time>2026-04-06T15:50:18.704Z</time></trkpt><trkpt lat="43.3644733" lon="2.2523633"><ele>562.6666666666667</ele><time>2026-04-06T15:50:19.701Z</time></trkpt><trkpt lat="43.3642833" lon="2.252415"><ele>562.0</ele><time>2026-04-06T15:50:20.701Z</time></trkpt><trkpt lat="43.3640917" lon="2.2524583"><ele>562.0</ele><time>2026-04-06T15:50:21.702Z</time></trkpt><trkpt lat="43.3638917" lon="2.2525083"><ele>562.0</ele><time>2026-04-06T15:50:22.703Z</time></trkpt><trkpt lat="43.3636917" lon="2.2525583"><ele>562.0</ele><time>2026-04-06T15:50:23.704Z</time></trkpt><trkpt lat="43.363495" lon="2.25261"><ele>558.6666666666667</ele><time>2026-04-06T15:50:24.703Z</time></trkpt><trkpt lat="43.3632983" lon="2.2526583"><ele>555.3333333333334</ele><time>2026-04-06T15:50:25.704Z</time></trkpt><trkpt lat="43.3631067" lon="2.2527117"><ele>552.0</ele><time>2026-04-06T15:50:26.704Z</time></trkpt><trkpt lat="43.3629083" lon="2.252765"><ele>549.6666666666666</ele><time>2026-04-06T15:50:27.704Z</time></trkpt><trkpt lat="43.362715" lon="2.2528167"><ele>547.3333333333333</ele><time>2026-04-06T15:50:28.705Z</time></trkpt><trkpt lat="43.3625167" lon="2.25288"><ele>545.0</ele><time>2026-04-06T15:50:29.704Z</time></trkpt><trkpt lat="43.3623283" lon="2.2529383"><ele>545.3333333333333</ele><time>2026-04-06T15:50:30.705Z</time></trkpt><trkpt lat="43.3621467" lon="2.2530133"><ele>545.6666666666666</ele><time>2026-04-06T15:50:31.704Z</time></trkpt><trkpt lat="43.3619767" lon="2.2531"><ele>546.0</ele><time>2026-04-06T15:50:32.704Z</time></trkpt><trkpt lat="43.3618067" lon="2.2532333"><ele>546.0</ele><time>2026-04-06T15:50:33.703Z</time></trkpt><trkpt lat="43.3616283" lon="2.25337"><ele>546.0</ele><time>2026-04-06T15:50:34.699Z</time></trkpt><trkpt lat="43.361455" lon="2.25351"><ele>546.0</ele><time>2026-04-06T15:50:35.702Z</time></trkpt><trkpt lat="43.3612767" lon="2.2536583"><ele>545.0</ele><time>2026-04-06T15:50:36.702Z</time></trkpt><trkpt lat="43.3611017" lon="2.253805"><ele>544.0</ele><time>2026-04-06T15:50:37.702Z</time></trkpt><trkpt lat="43.3609367" lon="2.2539367"><ele>543.0</ele><time>2026-04-06T15:50:38.707Z</time></trkpt><trkpt lat="43.3607733" lon="2.2540767"><ele>543.0</ele><time>2026-04-06T15:50:39.704Z</time></trkpt><trkpt lat="43.36062" lon="2.2542067"><ele>543.0</ele><time>2026-04-06T15:50:40.706Z</time></trkpt><trkpt lat="43.3604717" lon="2.2543317"><ele>543.0</ele><time>2026-04-06T15:50:41.702Z</time></trkpt><trkpt lat="43.36032" lon="2.25445"><ele>541.3333333333334</ele><time>2026-04-06T15:50:42.701Z</time></trkpt><trkpt lat="43.36018" lon="2.254565"><ele>539.6666666666667</ele><time>2026-04-06T15:50:43.699Z</time></trkpt><trkpt lat="43.3600533" lon="2.2546817"><ele>538.0</ele><time>2026-04-06T15:50:44.705Z</time></trkpt><trkpt lat="43.35994" lon="2.2548117"><ele>538.0</ele><time>2026-04-06T15:50:45.7Z</time></trkpt><trkpt lat="43.3598367" lon="2.2549533"><ele>538.0</ele><time>2026-04-06T15:50:46.703Z</time></trkpt><trkpt lat="43.3597433" lon="2.2551183"><ele>538.0</ele><time>2026-04-06T15:50:47.704Z</time></trkpt><trkpt lat="43.35966" lon="2.25531"><ele>535.3333333333334</ele><time>2026-04-06T15:50:48.704Z</time></trkpt><trkpt lat="43.3595767" lon="2.2554917"><ele>532.6666666666666</ele><time>2026-04-06T15:50:49.706Z</time></trkpt><trkpt lat="43.359495" lon="2.2556717"><ele>530.0</ele><time>2026-04-06T15:50:50.706Z</time></trkpt><trkpt lat="43.3594067" lon="2.25585"><ele>530.0</ele><time>2026-04-06T15:50:51.702Z</time></trkpt><trkpt lat="43.3593217" lon="2.2560267"><ele>530.0</ele><time>2026-04-06T15:50:52.703Z</time></trkpt><trkpt lat="43.3592317" lon="2.2561883"><ele>530.0</ele><time>2026-04-06T15:50:53.704Z</time></trkpt><trkpt lat="43.35912" lon="2.2563283"><ele>530.0</ele><time>2026-04-06T15:50:54.704Z</time></trkpt><trkpt lat="43.358985" lon="2.2564333"><ele>530.0</ele><time>2026-04-06T15:50:55.705Z</time></trkpt><trkpt lat="43.3588333" lon="2.256505"><ele>530.0</ele><time>2026-04-06T15:50:56.706Z</time></trkpt><trkpt lat="43.3586733" lon="2.25657"><ele>527.6666666666666</ele><time>2026-04-06T15:50:57.703Z</time></trkpt><trkpt lat="43.3585083" lon="2.2566267"><ele>525.3333333333334</ele><time>2026-04-06T15:50:58.704Z</time></trkpt><trkpt lat="43.35834" lon="2.25667"><ele>523.0</ele><time>2026-04-06T15:50:59.704Z</time></trkpt><trkpt lat="43.3581733" lon="2.25671"><ele>521.0</ele><time>2026-04-06T15:51:00.706Z</time></trkpt><trkpt lat="43.358" lon="2.2567583"><ele>519.0</ele><time>2026-04-06T15:51:01.703Z</time></trkpt><trkpt lat="43.35783" lon="2.256815"><ele>517.0</ele><time>2026-04-06T15:51:02.708Z</time></trkpt><trkpt lat="43.357665" lon="2.25689"><ele>517.0</ele><time>2026-04-06T15:51:03.702Z</time></trkpt><trkpt lat="43.3575083" lon="2.256975"><ele>517.0</ele><time>2026-04-06T15:51:04.702Z</time></trkpt><trkpt lat="43.35736" lon="2.2570683"><ele>517.0</ele><time>2026-04-06T15:51:05.696Z</time></trkpt><trkpt lat="43.3572183" lon="2.2571667"><ele>515.6666666666667</ele><time>2026-04-06T15:51:06.706Z</time></trkpt><trkpt lat="43.3570767" lon="2.2572667"><ele>514.3333333333334</ele><time>2026-04-06T15:51:07.701Z</time></trkpt><trkpt lat="43.3569417" lon="2.25737"><ele>513.0</ele><time>2026-04-06T15:51:08.702Z</time></trkpt><trkpt lat="43.3568133" lon="2.257485"><ele>513.0</ele><time>2026-04-06T15:51:09.705Z</time></trkpt><trkpt lat="43.3566967" lon="2.2576117"><ele>513.0</ele><time>2026-04-06T15:51:10.698Z</time></trkpt><trkpt lat="43.3565983" lon="2.2577717"><ele>513.0</ele><time>2026-04-06T15:51:11.703Z</time></trkpt><trkpt lat="43.3565133" lon="2.2579617"><ele>512.6666666666666</ele><time>2026-04-06T15:51:12.703Z</time></trkpt><trkpt lat="43.3564367" lon="2.2581583"><ele>512.3333333333333</ele><time>2026-04-06T15:51:13.704Z</time></trkpt><trkpt lat="43.35636" lon="2.258355"><ele>512.0</ele><time>2026-04-06T15:51:14.705Z</time></trkpt><trkpt lat="43.3562883" lon="2.2585667"><ele>510.3333333333333</ele><time>2026-04-06T15:51:15.701Z</time></trkpt><trkpt lat="43.3562183" lon="2.2587717"><ele>508.66666666666663</ele><time>2026-04-06T15:51:16.704Z</time></trkpt><trkpt lat="43.356165" lon="2.2589833"><ele>507.0</ele><time>2026-04-06T15:51:17.704Z</time></trkpt><trkpt lat="43.356135" lon="2.25921"><ele>505.66666666666663</ele><time>2026-04-06T15:51:18.703Z</time></trkpt><trkpt lat="43.3561267" lon="2.259445"><ele>504.3333333333333</ele><time>2026-04-06T15:51:19.703Z</time></trkpt><trkpt lat="43.3561367" lon="2.259665"><ele>503.0</ele><time>2026-04-06T15:51:20.705Z</time></trkpt><trkpt lat="43.3561633" lon="2.2598833"><ele>501.66666666666663</ele><time>2026-04-06T15:51:21.703Z</time></trkpt><trkpt lat="43.35622" lon="2.2600917"><ele>500.33333333333337</ele><time>2026-04-06T15:51:22.705Z</time></trkpt><trkpt lat="43.3563033" lon="2.2602733"><ele>499.0</ele><time>2026-04-06T15:51:23.701Z</time></trkpt><trkpt lat="43.35641" lon="2.2604283"><ele>500.6666666666667</ele><time>2026-04-06T15:51:24.701Z</time></trkpt><trkpt lat="43.3565317" lon="2.260585"><ele>502.33333333333337</ele><time>2026-04-06T15:51:25.705Z</time></trkpt><trkpt lat="43.3566567" lon="2.2607567"><ele>504.0</ele><time>2026-04-06T15:51:26.705Z</time></trkpt><trkpt lat="43.3567733" lon="2.2609433"><ele>504.0</ele><time>2026-04-06T15:51:27.701Z</time></trkpt><trkpt lat="43.3568717" lon="2.2611417"><ele>504.0</ele><time>2026-04-06T15:51:28.703Z</time></trkpt><trkpt lat="43.3569617" lon="2.2613467"><ele>504.0</ele><time>2026-04-06T15:51:29.704Z</time></trkpt><trkpt lat="43.3570433" lon="2.26155"><ele>498.33333333333337</ele><time>2026-04-06T15:51:30.703Z</time></trkpt><trkpt lat="43.3571183" lon="2.2617583"><ele>492.6666666666667</ele><time>2026-04-06T15:51:31.703Z</time></trkpt><trkpt lat="43.3571667" lon="2.2619633"><ele>487.0</ele><time>2026-04-06T15:51:32.705Z</time></trkpt><trkpt lat="43.3571933" lon="2.2621667"><ele>491.75</ele><time>2026-04-06T15:51:33.705Z</time></trkpt><trkpt lat="43.3572417" lon="2.2623483"><ele>496.5</ele><time>2026-04-06T15:51:34.706Z</time></trkpt><trkpt lat="43.357315" lon="2.2625067"><ele>501.25</ele><time>2026-04-06T15:51:35.702Z</time></trkpt><trkpt lat="43.357405" lon="2.26264"><ele>506.0</ele><time>2026-04-06T15:51:36.702Z</time></trkpt><trkpt lat="43.3574867" lon="2.2627683"><ele>506.0</ele><time>2026-04-06T15:51:37.704Z</time></trkpt><trkpt lat="43.3575317" lon="2.2629333"><ele>506.0</ele><time>2026-04-06T15:51:38.703Z</time></trkpt><trkpt lat="43.3575483" lon="2.2631083"><ele>506.0</ele><time>2026-04-06T15:51:39.705Z</time></trkpt><trkpt lat="43.3575117" lon="2.2633033"><ele>506.0</ele><time>2026-04-06T15:51:40.704Z</time></trkpt><trkpt lat="43.357485" lon="2.2634833"><ele>504.6</ele><time>2026-04-06T15:51:41.703Z</time></trkpt><trkpt lat="43.35743" lon="2.2636417"><ele>503.20000000000005</ele><time>2026-04-06T15:51:42.706Z</time></trkpt><trkpt lat="43.357365" lon="2.263775"><ele>501.79999999999995</ele><time>2026-04-06T15:51:43.702Z</time></trkpt><trkpt lat="43.3573633" lon="2.2639233"><ele>500.4</ele><time>2026-04-06T15:51:44.706Z</time></trkpt><trkpt lat="43.3574017" lon="2.2640433"><ele>499.0</ele><time>2026-04-06T15:51:45.699Z</time></trkpt><trkpt lat="43.3574667" lon="2.2641283"><ele>499.0</ele><time>2026-04-06T15:51:46.701Z</time></trkpt><trkpt lat="43.3575533" lon="2.2641717"><ele>499.0</ele><time>2026-04-06T15:51:47.704Z</time></trkpt><trkpt lat="43.357665" lon="2.264175"><ele>499.0</ele><time>2026-04-06T15:51:48.702Z</time></trkpt><trkpt lat="43.3578583" lon="2.26397"><ele>499.0</ele><time>2026-04-06T15:51:49.705Z</time></trkpt><trkpt lat="43.3580117" lon="2.2638417"><ele>500.6666666666667</ele><time>2026-04-06T15:51:50.706Z</time></trkpt><trkpt lat="43.35816" lon="2.2637317"><ele>502.33333333333337</ele><time>2026-04-06T15:51:51.703Z</time></trkpt><trkpt lat="43.3583" lon="2.2636533"><ele>504.0</ele><time>2026-04-06T15:51:52.706Z</time></trkpt><trkpt lat="43.3584383" lon="2.263585"><ele>504.0</ele><time>2026-04-06T15:51:53.702Z</time></trkpt><trkpt lat="43.35858" lon="2.2634917"><ele>504.0</ele><time>2026-04-06T15:51:54.705Z</time></trkpt><trkpt lat="43.3587267" lon="2.26345"><ele>504.0</ele><time>2026-04-06T15:51:55.702Z</time></trkpt><trkpt lat="43.35889" lon="2.26346"><ele>503.66666666666663</ele><time>2026-04-06T15:51:56.702Z</time></trkpt><trkpt lat="43.3590517" lon="2.263515"><ele>503.3333333333333</ele><time>2026-04-06T15:51:57.705Z</time></trkpt><trkpt lat="43.359205" lon="2.2635717"><ele>503.0</ele><time>2026-04-06T15:51:58.702Z</time></trkpt><trkpt lat="43.3593483" lon="2.26364"><ele>503.0</ele><time>2026-04-06T15:51:59.702Z</time></trkpt><trkpt lat="43.3594883" lon="2.2637133"><ele>503.0</ele><time>2026-04-06T15:52:00.704Z</time></trkpt><trkpt lat="43.3596367" lon="2.2637733"><ele>503.0</ele><time>2026-04-06T15:52:01.703Z</time></trkpt><trkpt lat="43.35978" lon="2.26384"><ele>502.0</ele><time>2026-04-06T15:52:02.699Z</time></trkpt><trkpt lat="43.359915" lon="2.2638883"><ele>501.0</ele><time>2026-04-06T15:52:03.701Z</time></trkpt><trkpt lat="43.3600667" lon="2.263935"><ele>500.0</ele><time>2026-04-06T15:52:04.703Z</time></trkpt><trkpt lat="43.36022" lon="2.2639917"><ele>495.66666666666663</ele><time>2026-04-06T15:52:05.702Z</time></trkpt><trkpt lat="43.360375" lon="2.2640567"><ele>491.33333333333337</ele><time>2026-04-06T15:52:06.703Z</time></trkpt><trkpt lat="43.3605217" lon="2.2641433"><ele>487.0</ele><time>2026-04-06T15:52:07.705Z</time></trkpt><trkpt lat="43.360655" lon="2.2642433"><ele>487.0</ele><time>2026-04-06T15:52:08.703Z</time></trkpt><trkpt lat="43.360785" lon="2.264365"><ele>487.0</ele><time>2026-04-06T15:52:09.705Z</time></trkpt><trkpt lat="43.3609183" lon="2.2644783"><ele>487.0</ele><time>2026-04-06T15:52:10.702Z</time></trkpt><trkpt lat="43.3610533" lon="2.264575"><ele>487.0</ele><time>2026-04-06T15:52:11.701Z</time></trkpt><trkpt lat="43.36119" lon="2.264655"><ele>487.0</ele><time>2026-04-06T15:52:12.704Z</time></trkpt><trkpt lat="43.3613233" lon="2.26468"><ele>487.0</ele><time>2026-04-06T15:52:13.697Z</time></trkpt><trkpt lat="43.3614583" lon="2.2646517"><ele>487.0</ele><time>2026-04-06T15:52:14.704Z</time></trkpt><trkpt lat="43.3615967" lon="2.2646033"><ele>488.25</ele><time>2026-04-06T15:52:15.702Z</time></trkpt><trkpt lat="43.3617283" lon="2.2645133"><ele>489.5</ele><time>2026-04-06T15:52:16.703Z</time></trkpt><trkpt lat="43.3618317" lon="2.2643967"><ele>490.75</ele><time>2026-04-06T15:52:17.7Z</time></trkpt><trkpt lat="43.36191" lon="2.264255"><ele>492.0</ele><time>2026-04-06T15:52:18.705Z</time></trkpt><trkpt lat="43.3619833" lon="2.2641033"><ele>492.0</ele><time>2026-04-06T15:52:19.699Z</time></trkpt><trkpt lat="43.3620633" lon="2.2639683"><ele>492.0</ele><time>2026-04-06T15:52:20.705Z</time></trkpt><trkpt lat="43.3621683" lon="2.2638883"><ele>492.0</ele><time>2026-04-06T15:52:21.704Z</time></trkpt><trkpt lat="43.3622783" lon="2.2638433"><ele>492.0</ele><time>2026-04-06T15:52:22.706Z</time></trkpt><trkpt lat="43.3623933" lon="2.26386"><ele>490.33333333333337</ele><time>2026-04-06T15:52:23.704Z</time></trkpt><trkpt lat="43.3625167" lon="2.263945"><ele>488.6666666666667</ele><time>2026-04-06T15:52:24.703Z</time></trkpt><trkpt lat="43.3626217" lon="2.264105"><ele>487.0</ele><time>2026-04-06T15:52:25.701Z</time></trkpt><trkpt lat="43.3627367" lon="2.26425"><ele>487.0</ele><time>2026-04-06T15:52:26.704Z</time></trkpt><trkpt lat="43.362845" lon="2.2643967"><ele>487.0</ele><time>2026-04-06T15:52:27.705Z</time></trkpt><trkpt lat="43.3629583" lon="2.2645467"><ele>487.0</ele><time>2026-04-06T15:52:28.703Z</time></trkpt><trkpt lat="43.3630667" lon="2.2646967"><ele>488.5</ele><time>2026-04-06T15:52:29.701Z</time></trkpt><trkpt lat="43.363165" lon="2.2648533"><ele>490.0</ele><time>2026-04-06T15:52:30.702Z</time></trkpt><trkpt lat="43.363245" lon="2.2650217"><ele>491.5</ele><time>2026-04-06T15:52:31.7Z</time></trkpt><trkpt lat="43.36331" lon="2.26521"><ele>493.0</ele><time>2026-04-06T15:52:32.706Z</time></trkpt><trkpt lat="43.363355" lon="2.2654067"><ele>493.0</ele><time>2026-04-06T15:52:33.703Z</time></trkpt><trkpt lat="43.3633883" lon="2.265605"><ele>493.0</ele><time>2026-04-06T15:52:34.704Z</time></trkpt><trkpt lat="43.3634183" lon="2.2657867"><ele>493.0</ele><time>2026-04-06T15:52:35.703Z</time></trkpt><trkpt lat="43.36346" lon="2.2659567"><ele>493.0</ele><time>2026-04-06T15:52:36.704Z</time></trkpt><trkpt lat="43.3635283" lon="2.2661167"><ele>493.0</ele><time>2026-04-06T15:52:37.703Z</time></trkpt><trkpt lat="43.36362" lon="2.2662633"><ele>493.0</ele><time>2026-04-06T15:52:38.704Z</time></trkpt><trkpt lat="43.3637233" lon="2.2663867"><ele>493.0</ele><time>2026-04-06T15:52:39.704Z</time></trkpt><trkpt lat="43.3638583" lon="2.2664633"><ele>493.0</ele><time>2026-04-06T15:52:40.701Z</time></trkpt><trkpt lat="43.3640133" lon="2.2665"><ele>493.0</ele><time>2026-04-06T15:52:41.703Z</time></trkpt><trkpt lat="43.36417" lon="2.266515"><ele>493.0</ele><time>2026-04-06T15:52:42.704Z</time></trkpt><trkpt lat="43.3643267" lon="2.2665117"><ele>493.0</ele><time>2026-04-06T15:52:43.697Z</time></trkpt><trkpt lat="43.36448" lon="2.2665033"><ele>493.0</ele><time>2026-04-06T15:52:44.703Z</time></trkpt><trkpt lat="43.3646467" lon="2.2664517"><ele>493.0</ele><time>2026-04-06T15:52:45.701Z</time></trkpt><trkpt lat="43.3648" lon="2.2664333"><ele>493.0</ele><time>2026-04-06T15:52:46.705Z</time></trkpt><trkpt lat="43.3649367" lon="2.2664733"><ele>496.0</ele><time>2026-04-06T15:52:47.705Z</time></trkpt><trkpt lat="43.3650783" lon="2.2665433"><ele>499.0</ele><time>2026-04-06T15:52:48.7Z</time></trkpt><trkpt lat="43.3651983" lon="2.266665"><ele>502.0</ele><time>2026-04-06T15:52:49.701Z</time></trkpt><trkpt lat="43.3652967" lon="2.26683"><ele>502.0</ele><time>2026-04-06T15:52:50.705Z</time></trkpt><trkpt lat="43.365375" lon="2.267015"><ele>502.0</ele><time>2026-04-06T15:52:51.704Z</time></trkpt><trkpt lat="43.365445" lon="2.26721"><ele>502.0</ele><time>2026-04-06T15:52:52.704Z</time></trkpt><trkpt lat="43.3655233" lon="2.2673967"><ele>504.6666666666667</ele><time>2026-04-06T15:52:53.705Z</time></trkpt><trkpt lat="43.365605" lon="2.267605"><ele>507.33333333333337</ele><time>2026-04-06T15:52:54.701Z</time></trkpt><trkpt lat="43.3656983" lon="2.2677867"><ele>510.0</ele><time>2026-04-06T15:52:55.703Z</time></trkpt><trkpt lat="43.3657933" lon="2.2679617"><ele>505.66666666666663</ele><time>2026-04-06T15:52:56.697Z</time></trkpt><trkpt lat="43.365895" lon="2.26813"><ele>501.3333333333333</ele><time>2026-04-06T15:52:57.703Z</time></trkpt><trkpt lat="43.366" lon="2.2682867"><ele>497.0</ele><time>2026-04-06T15:52:58.703Z</time></trkpt><trkpt lat="43.3661083" lon="2.268425"><ele>497.0</ele><time>2026-04-06T15:52:59.704Z</time></trkpt><trkpt lat="43.3662167" lon="2.26856"><ele>497.0</ele><time>2026-04-06T15:53:00.697Z</time></trkpt><trkpt lat="43.3663233" lon="2.2687"><ele>497.0</ele><time>2026-04-06T15:53:01.706Z</time></trkpt><trkpt lat="43.36644" lon="2.2688133"><ele>497.0</ele><time>2026-04-06T15:53:02.704Z</time></trkpt><trkpt lat="43.36656" lon="2.26893"><ele>499.25</ele><time>2026-04-06T15:53:03.705Z</time></trkpt><trkpt lat="43.3666667" lon="2.2690483"><ele>501.5</ele><time>2026-04-06T15:53:04.704Z</time></trkpt><trkpt lat="43.3667433" lon="2.2691933"><ele>503.75</ele><time>2026-04-06T15:53:05.705Z</time></trkpt><trkpt lat="43.3667817" lon="2.2693433"><ele>506.0</ele><time>2026-04-06T15:53:06.7Z</time></trkpt><trkpt lat="43.3668217" lon="2.2694817"><ele>506.0</ele><time>2026-04-06T15:53:07.703Z</time></trkpt><trkpt lat="43.3667817" lon="2.26972"><ele>506.0</ele><time>2026-04-06T15:53:08.702Z</time></trkpt><trkpt lat="43.36673" lon="2.2699317"><ele>506.0</ele><time>2026-04-06T15:53:09.704Z</time></trkpt><trkpt lat="43.3666933" lon="2.2701167"><ele>504.8</ele><time>2026-04-06T15:53:10.702Z</time></trkpt><trkpt lat="43.3666567" lon="2.270295"><ele>503.6</ele><time>2026-04-06T15:53:11.7Z</time></trkpt><trkpt lat="43.3666467" lon="2.2704683"><ele>502.4</ele><time>2026-04-06T15:53:12.702Z</time></trkpt><trkpt lat="43.3666383" lon="2.2705833"><ele>501.2</ele><time>2026-04-06T15:53:13.703Z</time></trkpt><trkpt lat="43.3667" lon="2.27064"><ele>500.0</ele><time>2026-04-06T15:53:14.704Z</time></trkpt><trkpt lat="43.3668133" lon="2.2705867"><ele>500.0</ele><time>2026-04-06T15:53:15.704Z</time></trkpt><trkpt lat="43.36695" lon="2.27052"><ele>500.0</ele><time>2026-04-06T15:53:16.703Z</time></trkpt><trkpt lat="43.3670667" lon="2.2705633"><ele>500.0</ele><time>2026-04-06T15:53:17.703Z</time></trkpt><trkpt lat="43.3671833" lon="2.27062"><ele>500.0</ele><time>2026-04-06T15:53:18.702Z</time></trkpt><trkpt lat="43.3672933" lon="2.2706917"><ele>501.75</ele><time>2026-04-06T15:53:19.703Z</time></trkpt><trkpt lat="43.3674" lon="2.2707717"><ele>503.5</ele><time>2026-04-06T15:53:20.704Z</time></trkpt><trkpt lat="43.367495" lon="2.27087"><ele>505.25</ele><time>2026-04-06T15:53:21.702Z</time></trkpt><trkpt lat="43.367585" lon="2.2709617"><ele>507.0</ele><time>2026-04-06T15:53:22.703Z</time></trkpt><trkpt lat="43.3676717" lon="2.27106"><ele>507.0</ele><time>2026-04-06T15:53:23.704Z</time></trkpt><trkpt lat="43.3677317" lon="2.2711817"><ele>507.0</ele><time>2026-04-06T15:53:24.705Z</time></trkpt><trkpt lat="43.3677767" lon="2.2713067"><ele>507.0</ele><time>2026-04-06T15:53:25.701Z</time></trkpt><trkpt lat="43.3677683" lon="2.2714783"><ele>507.0</ele><time>2026-04-06T15:53:26.704Z</time></trkpt><trkpt lat="43.3677233" lon="2.27167"><ele>506.0</ele><time>2026-04-06T15:53:27.703Z</time></trkpt><trkpt lat="43.3676533" lon="2.2718417"><ele>505.00000000000006</ele><time>2026-04-06T15:53:28.704Z</time></trkpt><trkpt lat="43.3676317" lon="2.271975"><ele>504.00000000000006</ele><time>2026-04-06T15:53:29.7Z</time></trkpt><trkpt lat="43.3676267" lon="2.2720967"><ele>503.0</ele><time>2026-04-06T15:53:30.702Z</time></trkpt><trkpt lat="43.3676383" lon="2.2721933"><ele>502.0</ele><time>2026-04-06T15:53:31.697Z</time></trkpt><trkpt lat="43.3676917" lon="2.2722733"><ele>502.0</ele><time>2026-04-06T15:53:32.703Z</time></trkpt><trkpt lat="43.367775" lon="2.2723383"><ele>502.0</ele><time>2026-04-06T15:53:33.705Z</time></trkpt><trkpt lat="43.367885" lon="2.27238"><ele>502.0</ele><time>2026-04-06T15:53:34.703Z</time></trkpt><trkpt lat="43.3680233" lon="2.2723983"><ele>502.0</ele><time>2026-04-06T15:53:35.704Z</time></trkpt><trkpt lat="43.3681433" lon="2.27248"><ele>503.0</ele><time>2026-04-06T15:53:36.702Z</time></trkpt><trkpt lat="43.368265" lon="2.2725567"><ele>504.0</ele><time>2026-04-06T15:53:37.703Z</time></trkpt><trkpt lat="43.3683833" lon="2.272625"><ele>505.0</ele><time>2026-04-06T15:53:38.706Z</time></trkpt><trkpt lat="43.3685167" lon="2.27265"><ele>506.0</ele><time>2026-04-06T15:53:39.703Z</time></trkpt><trkpt lat="43.3686367" lon="2.272715"><ele>506.0</ele><time>2026-04-06T15:53:40.705Z</time></trkpt><trkpt lat="43.3687567" lon="2.2727917"><ele>506.0</ele><time>2026-04-06T15:53:41.701Z</time></trkpt><trkpt lat="43.3688467" lon="2.27293"><ele>506.0</ele><time>2026-04-06T15:53:42.698Z</time></trkpt><trkpt lat="43.3689233" lon="2.27308"><ele>506.0</ele><time>2026-04-06T15:53:43.704Z</time></trkpt><trkpt lat="43.3689933" lon="2.2732567"><ele>506.5</ele><time>2026-04-06T15:53:44.704Z</time></trkpt><trkpt lat="43.3690717" lon="2.2734167"><ele>507.0</ele><time>2026-04-06T15:53:45.703Z</time></trkpt><trkpt lat="43.3691733" lon="2.273545"><ele>507.5</ele><time>2026-04-06T15:53:46.702Z</time></trkpt><trkpt lat="43.3692833" lon="2.2736567"><ele>508.0</ele><time>2026-04-06T15:53:47.703Z</time></trkpt><trkpt lat="43.3693883" lon="2.2737717"><ele>508.0</ele><time>2026-04-06T15:53:48.705Z</time></trkpt><trkpt lat="43.3694783" lon="2.2739167"><ele>508.0</ele><time>2026-04-06T15:53:49.705Z</time></trkpt><trkpt lat="43.3695467" lon="2.274085"><ele>508.0</ele><time>2026-04-06T15:53:50.704Z</time></trkpt><trkpt lat="43.3695933" lon="2.2742533"><ele>508.0</ele><time>2026-04-06T15:53:51.703Z</time></trkpt><trkpt lat="43.3696267" lon="2.2744233"><ele>509.0</ele><time>2026-04-06T15:53:52.703Z</time></trkpt><trkpt lat="43.3696667" lon="2.274605"><ele>510.0</ele><time>2026-04-06T15:53:53.704Z</time></trkpt><trkpt lat="43.3696983" lon="2.2747683"><ele>511.0</ele><time>2026-04-06T15:53:54.704Z</time></trkpt><trkpt lat="43.3697317" lon="2.2749367"><ele>512.0</ele><time>2026-04-06T15:53:55.704Z</time></trkpt><trkpt lat="43.3697467" lon="2.2750917"><ele>512.0</ele><time>2026-04-06T15:53:56.705Z</time></trkpt><trkpt lat="43.3697517" lon="2.2752267"><ele>512.0</ele><time>2026-04-06T15:53:57.704Z</time></trkpt><trkpt lat="43.369765" lon="2.2753567"><ele>512.0</ele><time>2026-04-06T15:53:58.703Z</time></trkpt><trkpt lat="43.3697733" lon="2.2754917"><ele>512.0</ele><time>2026-04-06T15:53:59.703Z</time></trkpt><trkpt lat="43.3697567" lon="2.27562"><ele>512.0</ele><time>2026-04-06T15:54:00.704Z</time></trkpt><trkpt lat="43.3697367" lon="2.2757533"><ele>513.25</ele><time>2026-04-06T15:54:01.703Z</time></trkpt><trkpt lat="43.3697067" lon="2.27589"><ele>514.5</ele><time>2026-04-06T15:54:02.704Z</time></trkpt><trkpt lat="43.3696717" lon="2.2760467"><ele>515.75</ele><time>2026-04-06T15:54:03.702Z</time></trkpt><trkpt lat="43.369635" lon="2.27621"><ele>517.0</ele><time>2026-04-06T15:54:04.705Z</time></trkpt><trkpt lat="43.3695917" lon="2.2763833"><ele>516.0</ele><time>2026-04-06T15:54:05.702Z</time></trkpt><trkpt lat="43.3695417" lon="2.276565"><ele>515.0</ele><time>2026-04-06T15:54:06.706Z</time></trkpt><trkpt lat="43.3694933" lon="2.2767367"><ele>514.0</ele><time>2026-04-06T15:54:07.699Z</time></trkpt><trkpt lat="43.3694533" lon="2.276905"><ele>513.0</ele><time>2026-04-06T15:54:08.704Z</time></trkpt><trkpt lat="43.36941" lon="2.2770767"><ele>513.0</ele><time>2026-04-06T15:54:09.699Z</time></trkpt><trkpt lat="43.3693583" lon="2.2772467"><ele>513.0</ele><time>2026-04-06T15:54:10.704Z</time></trkpt><trkpt lat="43.369325" lon="2.277425"><ele>513.0</ele><time>2026-04-06T15:54:11.703Z</time></trkpt><trkpt lat="43.369295" lon="2.2776133"><ele>513.0</ele><time>2026-04-06T15:54:12.703Z</time></trkpt><trkpt lat="43.3692833" lon="2.2778067"><ele>516.5</ele><time>2026-04-06T15:54:13.705Z</time></trkpt><trkpt lat="43.3692883" lon="2.2780067"><ele>520.0</ele><time>2026-04-06T15:54:14.705Z</time></trkpt><trkpt lat="43.3693133" lon="2.2782017"><ele>523.5</ele><time>2026-04-06T15:54:15.704Z</time></trkpt><trkpt lat="43.369345" lon="2.2783983"><ele>527.0</ele><time>2026-04-06T15:54:16.7Z</time></trkpt><trkpt lat="43.36939" lon="2.2785833"><ele>526.25</ele><time>2026-04-06T15:54:17.701Z</time></trkpt><trkpt lat="43.3694483" lon="2.2787633"><ele>525.5</ele><time>2026-04-06T15:54:18.702Z</time></trkpt><trkpt lat="43.3695217" lon="2.27894"><ele>524.75</ele><time>2026-04-06T15:54:19.704Z</time></trkpt><trkpt lat="43.3696067" lon="2.279095"><ele>524.0</ele><time>2026-04-06T15:54:20.703Z</time></trkpt><trkpt lat="43.3696983" lon="2.2792217"><ele>529.4</ele><time>2026-04-06T15:54:21.703Z</time></trkpt><trkpt lat="43.3697883" lon="2.279315"><ele>534.8</ele><time>2026-04-06T15:54:22.704Z</time></trkpt><trkpt lat="43.3698683" lon="2.2793883"><ele>540.2</ele><time>2026-04-06T15:54:23.701Z</time></trkpt><trkpt lat="43.36996" lon="2.2794117"><ele>545.6</ele><time>2026-04-06T15:54:24.705Z</time></trkpt><trkpt lat="43.3700383" lon="2.279425"><ele>551.0</ele><time>2026-04-06T15:54:25.703Z</time></trkpt><trkpt lat="43.3701167" lon="2.279405"><ele>551.0</ele><time>2026-04-06T15:54:26.705Z</time></trkpt><trkpt lat="43.3701817" lon="2.279395"><ele>551.0</ele><time>2026-04-06T15:54:27.704Z</time></trkpt><trkpt lat="43.370245" lon="2.279395"><ele>551.0</ele><time>2026-04-06T15:54:28.701Z</time></trkpt><trkpt lat="43.3703333" lon="2.2794467"><ele>551.0</ele><time>2026-04-06T15:54:30.702Z</time></trkpt><trkpt lat="43.3703833" lon="2.2795533"><ele>551.0</ele><time>2026-04-06T15:54:32.701Z</time></trkpt><trkpt lat="43.3704233" lon="2.2797033"><ele>551.0</ele><time>2026-04-06T15:54:34.702Z</time></trkpt><trkpt lat="43.37045" lon="2.2797917"><ele>552.2857142857142</ele><time>2026-04-06T15:54:35.704Z</time></trkpt><trkpt lat="43.370485" lon="2.2798717"><ele>553.5714285714286</ele><time>2026-04-06T15:54:36.702Z</time></trkpt><trkpt lat="43.370525" lon="2.2799533"><ele>554.8571428571429</ele><time>2026-04-06T15:54:37.704Z</time></trkpt><trkpt lat="43.37057" lon="2.2800283"><ele>556.1428571428571</ele><time>2026-04-06T15:54:38.705Z</time></trkpt><trkpt lat="43.370625" lon="2.2800917"><ele>557.4285714285714</ele><time>2026-04-06T15:54:39.702Z</time></trkpt><trkpt lat="43.3706883" lon="2.2801383"><ele>558.7142857142857</ele><time>2026-04-06T15:54:40.704Z</time></trkpt><trkpt lat="43.3707567" lon="2.2801767"><ele>560.0</ele><time>2026-04-06T15:54:41.703Z</time></trkpt><trkpt lat="43.3708117" lon="2.280235"><ele>560.0</ele><time>2026-04-06T15:54:42.702Z</time></trkpt><trkpt lat="43.370865" lon="2.2803017"><ele>560.0</ele><time>2026-04-06T15:54:43.701Z</time></trkpt><trkpt lat="43.3709167" lon="2.2803867"><ele>560.0</ele><time>2026-04-06T15:54:44.708Z</time></trkpt><trkpt lat="43.3709733" lon="2.2804667"><ele>560.0</ele><time>2026-04-06T15:54:45.7Z</time></trkpt><trkpt lat="43.3710267" lon="2.2805567"><ele>560.0</ele><time>2026-04-06T15:54:46.705Z</time></trkpt><trkpt lat="43.3710783" lon="2.2806467"><ele>560.0</ele><time>2026-04-06T15:54:47.704Z</time></trkpt><trkpt lat="43.3711233" lon="2.2807383"><ele>556.8333333333333</ele><time>2026-04-06T15:54:48.704Z</time></trkpt><trkpt lat="43.371155" lon="2.2808383"><ele>553.6666666666666</ele><time>2026-04-06T15:54:49.705Z</time></trkpt><trkpt lat="43.371175" lon="2.28095"><ele>550.5</ele><time>2026-04-06T15:54:50.702Z</time></trkpt><trkpt lat="43.371185" lon="2.2810583"><ele>547.3333333333334</ele><time>2026-04-06T15:54:51.703Z</time></trkpt><trkpt lat="43.371195" lon="2.2811767"><ele>544.1666666666667</ele><time>2026-04-06T15:54:52.707Z</time></trkpt><trkpt lat="43.3712083" lon="2.2812867"><ele>541.0</ele><time>2026-04-06T15:54:53.704Z</time></trkpt><trkpt lat="43.37122" lon="2.281395"><ele>538.6</ele><time>2026-04-06T15:54:54.705Z</time></trkpt><trkpt lat="43.3712367" lon="2.2814917"><ele>536.2</ele><time>2026-04-06T15:54:55.705Z</time></trkpt><trkpt lat="43.37125" lon="2.2816533"><ele>533.8</ele><time>2026-04-06T15:54:57.703Z</time></trkpt><trkpt lat="43.3712217" lon="2.281795"><ele>531.4</ele><time>2026-04-06T15:54:59.705Z</time></trkpt><trkpt lat="43.3711367" lon="2.28188"><ele>529.0</ele><time>2026-04-06T15:55:01.705Z</time></trkpt><trkpt lat="43.3710317" lon="2.2819533"><ele>529.0</ele><time>2026-04-06T15:55:03.704Z</time></trkpt><trkpt lat="43.3709367" lon="2.2820317"><ele>529.0</ele><time>2026-04-06T15:55:05.705Z</time></trkpt><trkpt lat="43.3708883" lon="2.2820917"><ele>529.0</ele><time>2026-04-06T15:55:06.705Z</time></trkpt><trkpt lat="43.370835" lon="2.2821567"><ele>529.0</ele><time>2026-04-06T15:55:07.702Z</time></trkpt><trkpt lat="43.3707633" lon="2.2822133"><ele>529.0</ele><time>2026-04-06T15:55:08.706Z</time></trkpt><trkpt lat="43.3706983" lon="2.2822717"><ele>529.0</ele><time>2026-04-06T15:55:09.706Z</time></trkpt><trkpt lat="43.3707117" lon="2.282385"><ele>528.4</ele><time>2026-04-06T15:55:10.706Z</time></trkpt><trkpt lat="43.3706833" lon="2.2825567"><ele>527.8</ele><time>2026-04-06T15:55:12.704Z</time></trkpt><trkpt lat="43.3706583" lon="2.28264"><ele>527.2</ele><time>2026-04-06T15:55:13.703Z</time></trkpt><trkpt lat="43.3706767" lon="2.2828217"><ele>526.6</ele><time>2026-04-06T15:55:15.704Z</time></trkpt><trkpt lat="43.3707133" lon="2.2829133"><ele>526.0</ele><time>2026-04-06T15:55:16.704Z</time></trkpt><trkpt lat="43.3707433" lon="2.2830383"><ele>524.6</ele><time>2026-04-06T15:55:18.703Z</time></trkpt><trkpt lat="43.3707917" lon="2.283115"><ele>523.2</ele><time>2026-04-06T15:55:25.705Z</time></trkpt><trkpt lat="43.37084" lon="2.2832267"><ele>521.8</ele><time>2026-04-06T15:55:28.702Z</time></trkpt><trkpt lat="43.37085" lon="2.283335"><ele>520.4</ele><time>2026-04-06T15:55:30.705Z</time></trkpt><trkpt lat="43.3708367" lon="2.2834817"><ele>519.0</ele><time>2026-04-06T15:55:32.706Z</time></trkpt><trkpt lat="43.3708383" lon="2.2836467"><ele>519.0</ele><time>2026-04-06T15:55:34.705Z</time></trkpt><trkpt lat="43.3708217" lon="2.2837333"><ele>519.0</ele><time>2026-04-06T15:55:35.705Z</time></trkpt><trkpt lat="43.3707783" lon="2.28389"><ele>519.0</ele><time>2026-04-06T15:55:37.705Z</time></trkpt><trkpt lat="43.3706917" lon="2.2840183"><ele>519.0</ele><time>2026-04-06T15:55:39.703Z</time></trkpt><trkpt lat="43.370625" lon="2.28408"><ele>519.0</ele><time>2026-04-06T15:55:40.701Z</time></trkpt><trkpt lat="43.3705767" lon="2.284155"><ele>518.1428571428571</ele><time>2026-04-06T15:55:41.702Z</time></trkpt><trkpt lat="43.3705333" lon="2.284235"><ele>517.2857142857142</ele><time>2026-04-06T15:55:42.704Z</time></trkpt><trkpt lat="43.3704867" lon="2.2843133"><ele>516.4285714285714</ele><time>2026-04-06T15:55:43.703Z</time></trkpt><trkpt lat="43.370435" lon="2.2843867"><ele>515.5714285714286</ele><time>2026-04-06T15:55:44.706Z</time></trkpt><trkpt lat="43.3703733" lon="2.2844483"><ele>514.7142857142858</ele><time>2026-04-06T15:55:45.704Z</time></trkpt><trkpt lat="43.3703383" lon="2.2845283"><ele>513.8571428571429</ele><time>2026-04-06T15:55:46.705Z</time></trkpt><trkpt lat="43.3703017" lon="2.28461"><ele>513.0</ele><time>2026-04-06T15:55:47.703Z</time></trkpt><trkpt lat="43.370275" lon="2.2846967"><ele>512.0</ele><time>2026-04-06T15:55:48.705Z</time></trkpt><trkpt lat="43.3702517" lon="2.28478"><ele>511.0</ele><time>2026-04-06T15:55:49.702Z</time></trkpt><trkpt lat="43.3702267" lon="2.28486"><ele>510.0</ele><time>2026-04-06T15:55:50.705Z</time></trkpt><trkpt lat="43.3701983" lon="2.2849417"><ele>509.0</ele><time>2026-04-06T15:55:51.704Z</time></trkpt><trkpt lat="43.370175" lon="2.285095"><ele>508.0</ele><time>2026-04-06T15:55:53.704Z</time></trkpt><trkpt lat="43.37014" lon="2.2852283"><ele>507.0</ele><time>2026-04-06T15:55:55.704Z</time></trkpt><trkpt lat="43.3700967" lon="2.2853367"><ele>507.0</ele><time>2026-04-06T15:55:57.702Z</time></trkpt><trkpt lat="43.3700417" lon="2.2854333"><ele>507.0</ele><time>2026-04-06T15:55:59.704Z</time></trkpt><trkpt lat="43.3699867" lon="2.2855317"><ele>507.0</ele><time>2026-04-06T15:56:01.704Z</time></trkpt><trkpt lat="43.3699367" lon="2.285645"><ele>507.0</ele><time>2026-04-06T15:56:03.704Z</time></trkpt><trkpt lat="43.3699567" lon="2.2857383"><ele>507.0</ele><time>2026-04-06T15:56:05.706Z</time></trkpt><trkpt lat="43.3700233" lon="2.2858067"><ele>507.0</ele><time>2026-04-06T15:56:07.702Z</time></trkpt><trkpt lat="43.3700967" lon="2.2858483"><ele>507.6666666666667</ele><time>2026-04-06T15:56:09.704Z</time></trkpt><trkpt lat="43.3701917" lon="2.285935"><ele>508.33333333333337</ele><time>2026-04-06T15:56:11.702Z</time></trkpt><trkpt lat="43.3702383" lon="2.2860117"><ele>509.0</ele><time>2026-04-06T15:56:12.703Z</time></trkpt><trkpt lat="43.3702767" lon="2.286105"><ele>509.6666666666667</ele><time>2026-04-06T15:56:13.7Z</time></trkpt><trkpt lat="43.3702933" lon="2.2862117"><ele>510.33333333333337</ele><time>2026-04-06T15:56:14.701Z</time></trkpt><trkpt lat="43.3703083" lon="2.2863317"><ele>511.0</ele><time>2026-04-06T15:56:15.701Z</time></trkpt><trkpt lat="43.3703183" lon="2.2864533"><ele>511.20000000000005</ele><time>2026-04-06T15:56:16.703Z</time></trkpt><trkpt lat="43.370315" lon="2.2865733"><ele>511.40000000000003</ele><time>2026-04-06T15:56:17.701Z</time></trkpt><trkpt lat="43.3703133" lon="2.2866967"><ele>511.6</ele><time>2026-04-06T15:56:18.705Z</time></trkpt><trkpt lat="43.3703017" lon="2.28683"><ele>511.8</ele><time>2026-04-06T15:56:19.702Z</time></trkpt><trkpt lat="43.3702967" lon="2.286965"><ele>512.0</ele><time>2026-04-06T15:56:20.701Z</time></trkpt><trkpt lat="43.37029" lon="2.2871033"><ele>512.0</ele><time>2026-04-06T15:56:21.702Z</time></trkpt><trkpt lat="43.37027" lon="2.2872367"><ele>512.0</ele><time>2026-04-06T15:56:22.704Z</time></trkpt><trkpt lat="43.3702517" lon="2.287375"><ele>512.0</ele><time>2026-04-06T15:56:23.702Z</time></trkpt><trkpt lat="43.3702333" lon="2.28752"><ele>512.0</ele><time>2026-04-06T15:56:24.701Z</time></trkpt><trkpt lat="43.370215" lon="2.2876683"><ele>512.0</ele><time>2026-04-06T15:56:25.702Z</time></trkpt><trkpt lat="43.3702" lon="2.2878267"><ele>511.5</ele><time>2026-04-06T15:56:26.703Z</time></trkpt><trkpt lat="43.3701833" lon="2.28799"><ele>511.0</ele><time>2026-04-06T15:56:27.703Z</time></trkpt><trkpt lat="43.3701683" lon="2.2881567"><ele>510.5</ele><time>2026-04-06T15:56:28.702Z</time></trkpt><trkpt lat="43.3701567" lon="2.2883317"><ele>510.0</ele><time>2026-04-06T15:56:29.704Z</time></trkpt><trkpt lat="43.3701833" lon="2.28852"><ele>510.0</ele><time>2026-04-06T15:56:30.705Z</time></trkpt><trkpt lat="43.3701883" lon="2.2886883"><ele>510.0</ele><time>2026-04-06T15:56:31.703Z</time></trkpt><trkpt lat="43.3701917" lon="2.2888483"><ele>510.0</ele><time>2026-04-06T15:56:32.705Z</time></trkpt><trkpt lat="43.3702083" lon="2.2890033"><ele>510.0</ele><time>2026-04-06T15:56:33.704Z</time></trkpt><trkpt lat="43.3702317" lon="2.28915"><ele>510.2</ele><time>2026-04-06T15:56:34.702Z</time></trkpt><trkpt lat="43.3702533" lon="2.2892917"><ele>510.4</ele><time>2026-04-06T15:56:35.705Z</time></trkpt><trkpt lat="43.370275" lon="2.2894283"><ele>510.6</ele><time>2026-04-06T15:56:36.702Z</time></trkpt><trkpt lat="43.3702883" lon="2.2895617"><ele>510.8</ele><time>2026-04-06T15:56:37.697Z</time></trkpt><trkpt lat="43.3703067" lon="2.2896883"><ele>511.0</ele><time>2026-04-06T15:56:38.701Z</time></trkpt><trkpt lat="43.3703233" lon="2.2898"><ele>511.00000000000006</ele><time>2026-04-06T15:56:39.703Z</time></trkpt><trkpt lat="43.3703583" lon="2.2899117"><ele>511.0</ele><time>2026-04-06T15:56:40.705Z</time></trkpt><trkpt lat="43.3703933" lon="2.2900117"><ele>511.0</ele><time>2026-04-06T15:56:41.704Z</time></trkpt><trkpt lat="43.3704267" lon="2.2900983"><ele>511.0</ele><time>2026-04-06T15:56:42.703Z</time></trkpt><trkpt lat="43.3704883" lon="2.290255"><ele>511.00000000000006</ele><time>2026-04-06T15:56:44.705Z</time></trkpt><trkpt lat="43.370525" lon="2.29033"><ele>511.0</ele><time>2026-04-06T15:56:45.701Z</time></trkpt><trkpt lat="43.370565" lon="2.2904083"><ele>514.0</ele><time>2026-04-06T15:56:46.705Z</time></trkpt><trkpt lat="43.3706" lon="2.2904917"><ele>517.0</ele><time>2026-04-06T15:56:47.703Z</time></trkpt><trkpt lat="43.3706367" lon="2.29058"><ele>520.0</ele><time>2026-04-06T15:56:48.704Z</time></trkpt><trkpt lat="43.3706667" lon="2.2906767"><ele>523.0</ele><time>2026-04-06T15:56:49.704Z</time></trkpt><trkpt lat="43.3706983" lon="2.2907867"><ele>526.0</ele><time>2026-04-06T15:56:50.704Z</time></trkpt><trkpt lat="43.370735" lon="2.2909167"><ele>529.0</ele><time>2026-04-06T15:56:51.702Z</time></trkpt><trkpt lat="43.3707583" lon="2.2910683"><ele>529.0</ele><time>2026-04-06T15:56:52.705Z</time></trkpt><trkpt lat="43.37078" lon="2.29126"><ele>529.0</ele><time>2026-04-06T15:56:53.703Z</time></trkpt><trkpt lat="43.37077" lon="2.291445"><ele>529.0</ele><time>2026-04-06T15:56:54.701Z</time></trkpt><trkpt lat="43.3707883" lon="2.2916267"><ele>529.0</ele><time>2026-04-06T15:56:55.704Z</time></trkpt><trkpt lat="43.3708067" lon="2.291825"><ele>529.0</ele><time>2026-04-06T15:56:56.702Z</time></trkpt><trkpt lat="43.3708317" lon="2.292045"><ele>529.0</ele><time>2026-04-06T15:56:57.701Z</time></trkpt><trkpt lat="43.3708417" lon="2.29225"><ele>529.0</ele><time>2026-04-06T15:56:58.702Z</time></trkpt><trkpt lat="43.3708233" lon="2.2924567"><ele>528.6666666666667</ele><time>2026-04-06T15:56:59.703Z</time></trkpt><trkpt lat="43.370795" lon="2.2926667"><ele>528.3333333333334</ele><time>2026-04-06T15:57:00.701Z</time></trkpt><trkpt lat="43.370765" lon="2.2928783"><ele>528.0</ele><time>2026-04-06T15:57:01.703Z</time></trkpt><trkpt lat="43.3707683" lon="2.293115"><ele>527.6666666666666</ele><time>2026-04-06T15:57:02.706Z</time></trkpt><trkpt lat="43.3707583" lon="2.293335"><ele>527.3333333333333</ele><time>2026-04-06T15:57:03.701Z</time></trkpt><trkpt lat="43.370765" lon="2.2935667"><ele>527.0</ele><time>2026-04-06T15:57:04.703Z</time></trkpt><trkpt lat="43.3707817" lon="2.2937583"><ele>527.0</ele><time>2026-04-06T15:57:05.697Z</time></trkpt><trkpt lat="43.37079" lon="2.2939217"><ele>527.0</ele><time>2026-04-06T15:57:06.706Z</time></trkpt><trkpt lat="43.3707983" lon="2.2940683"><ele>527.0</ele><time>2026-04-06T15:57:07.704Z</time></trkpt><trkpt lat="43.3707883" lon="2.294185"><ele>527.0</ele><time>2026-04-06T15:57:08.704Z</time></trkpt><trkpt lat="43.3707717" lon="2.2943017"><ele>527.0</ele><time>2026-04-06T15:57:09.703Z</time></trkpt><trkpt lat="43.3707533" lon="2.29441"><ele>527.4</ele><time>2026-04-06T15:57:10.703Z</time></trkpt><trkpt lat="43.3707183" lon="2.2945117"><ele>527.8000000000001</ele><time>2026-04-06T15:57:11.704Z</time></trkpt><trkpt lat="43.37068" lon="2.2946183"><ele>528.2</ele><time>2026-04-06T15:57:12.704Z</time></trkpt><trkpt lat="43.370645" lon="2.2947483"><ele>528.6</ele><time>2026-04-06T15:57:13.701Z</time></trkpt><trkpt lat="43.3706283" lon="2.294895"><ele>529.0</ele><time>2026-04-06T15:57:14.706Z</time></trkpt><trkpt lat="43.3706233" lon="2.295055"><ele>529.0</ele><time>2026-04-06T15:57:15.698Z</time></trkpt><trkpt lat="43.37063" lon="2.2952267"><ele>529.0</ele><time>2026-04-06T15:57:16.704Z</time></trkpt><trkpt lat="43.3706433" lon="2.295415"><ele>529.0</ele><time>2026-04-06T15:57:17.705Z</time></trkpt><trkpt lat="43.3706467" lon="2.2956117"><ele>529.0</ele><time>2026-04-06T15:57:18.705Z</time></trkpt><trkpt lat="43.370635" lon="2.2958133"><ele>530.75</ele><time>2026-04-06T15:57:19.703Z</time></trkpt><trkpt lat="43.370625" lon="2.2960117"><ele>532.5</ele><time>2026-04-06T15:57:20.704Z</time></trkpt><trkpt lat="43.3706067" lon="2.2962117"><ele>534.25</ele><time>2026-04-06T15:57:21.705Z</time></trkpt><trkpt lat="43.370585" lon="2.296415"><ele>536.0</ele><time>2026-04-06T15:57:22.704Z</time></trkpt><trkpt lat="43.3705617" lon="2.2966117"><ele>536.3333333333333</ele><time>2026-04-06T15:57:23.702Z</time></trkpt><trkpt lat="43.3705583" lon="2.2968233"><ele>536.6666666666666</ele><time>2026-04-06T15:57:24.705Z</time></trkpt><trkpt lat="43.370575" lon="2.2970383"><ele>537.0</ele><time>2026-04-06T15:57:25.705Z</time></trkpt><trkpt lat="43.370595" lon="2.2972417"><ele>536.6666666666666</ele><time>2026-04-06T15:57:26.706Z</time></trkpt><trkpt lat="43.3706233" lon="2.2974533"><ele>536.3333333333333</ele><time>2026-04-06T15:57:27.702Z</time></trkpt><trkpt lat="43.3706667" lon="2.29766"><ele>536.0</ele><time>2026-04-06T15:57:28.704Z</time></trkpt><trkpt lat="43.3707167" lon="2.2978567"><ele>536.0</ele><time>2026-04-06T15:57:29.704Z</time></trkpt><trkpt lat="43.370765" lon="2.2980383"><ele>536.0</ele><time>2026-04-06T15:57:30.706Z</time></trkpt><trkpt lat="43.3708067" lon="2.2982183"><ele>536.0</ele><time>2026-04-06T15:57:31.704Z</time></trkpt><trkpt lat="43.3708317" lon="2.2984017"><ele>536.0</ele><time>2026-04-06T15:57:32.709Z</time></trkpt><trkpt lat="43.3708117" lon="2.29858"><ele>534.25</ele><time>2026-04-06T15:57:33.701Z</time></trkpt><trkpt lat="43.3707733" lon="2.29876"><ele>532.5</ele><time>2026-04-06T15:57:34.702Z</time></trkpt><trkpt lat="43.370705" lon="2.298915"><ele>530.75</ele><time>2026-04-06T15:57:35.701Z</time></trkpt><trkpt lat="43.3706267" lon="2.2990667"><ele>529.0</ele><time>2026-04-06T15:57:36.704Z</time></trkpt><trkpt lat="43.3705633" lon="2.299225"><ele>529.75</ele><time>2026-04-06T15:57:37.704Z</time></trkpt><trkpt lat="43.3705133" lon="2.2993833"><ele>530.5</ele><time>2026-04-06T15:57:38.705Z</time></trkpt><trkpt lat="43.37049" lon="2.299555"><ele>531.25</ele><time>2026-04-06T15:57:39.705Z</time></trkpt><trkpt lat="43.3704667" lon="2.29974"><ele>532.0</ele><time>2026-04-06T15:57:40.701Z</time></trkpt><trkpt lat="43.3704433" lon="2.2999267"><ele>532.0</ele><time>2026-04-06T15:57:41.703Z</time></trkpt><trkpt lat="43.3704117" lon="2.3001183"><ele>532.0</ele><time>2026-04-06T15:57:42.705Z</time></trkpt><trkpt lat="43.3703717" lon="2.3002867"><ele>532.0</ele><time>2026-04-06T15:57:43.704Z</time></trkpt><trkpt lat="43.3703367" lon="2.3004333"><ele>532.0</ele><time>2026-04-06T15:57:44.706Z</time></trkpt><trkpt lat="43.3703017" lon="2.3005583"><ele>532.0</ele><time>2026-04-06T15:57:45.701Z</time></trkpt><trkpt lat="43.3702733" lon="2.3006667"><ele>532.0</ele><time>2026-04-06T15:57:46.704Z</time></trkpt><trkpt lat="43.370245" lon="2.3007583"><ele>532.0</ele><time>2026-04-06T15:57:47.705Z</time></trkpt><trkpt lat="43.3701767" lon="2.300745"><ele>532.0</ele><time>2026-04-06T15:57:50.706Z</time></trkpt><trkpt lat="43.3702283" lon="2.3006167"><ele>532.0</ele><time>2026-04-06T15:57:52.703Z</time></trkpt><trkpt lat="43.3702683" lon="2.3005217"><ele>532.0</ele><time>2026-04-06T15:57:53.701Z</time></trkpt><trkpt lat="43.3703067" lon="2.3004217"><ele>532.0</ele><time>2026-04-06T15:57:54.706Z</time></trkpt><trkpt lat="43.37032" lon="2.3002867"><ele>532.0</ele><time>2026-04-06T15:57:55.701Z</time></trkpt><trkpt lat="43.370295" lon="2.300135"><ele>532.0</ele><time>2026-04-06T15:57:56.701Z</time></trkpt><trkpt lat="43.3702033" lon="2.2999667"><ele>532.0</ele><time>2026-04-06T15:57:57.705Z</time></trkpt><trkpt lat="43.3701283" lon="2.2998617"><ele>532.0</ele><time>2026-04-06T15:57:58.702Z</time></trkpt><trkpt lat="43.3700483" lon="2.2997717"><ele>532.0</ele><time>2026-04-06T15:57:59.705Z</time></trkpt><trkpt lat="43.36993" lon="2.2997117"><ele>532.0</ele><time>2026-04-06T15:58:00.705Z</time></trkpt><trkpt lat="43.3697783" lon="2.2996883"><ele>532.0</ele><time>2026-04-06T15:58:01.703Z</time></trkpt><trkpt lat="43.3695433" lon="2.2997517"><ele>530.6666666666667</ele><time>2026-04-06T15:58:02.708Z</time></trkpt><trkpt lat="43.3693733" lon="2.2997333"><ele>529.3333333333334</ele><time>2026-04-06T15:58:03.702Z</time></trkpt><trkpt lat="43.3692117" lon="2.29973"><ele>528.0</ele><time>2026-04-06T15:58:04.702Z</time></trkpt><trkpt lat="43.3690517" lon="2.2997417"><ele>528.0</ele><time>2026-04-06T15:58:05.702Z</time></trkpt><trkpt lat="43.3689017" lon="2.2997417"><ele>528.0</ele><time>2026-04-06T15:58:06.701Z</time></trkpt><trkpt lat="43.3687567" lon="2.299735"><ele>528.0</ele><time>2026-04-06T15:58:07.707Z</time></trkpt><trkpt lat="43.3686183" lon="2.2997383"><ele>528.0</ele><time>2026-04-06T15:58:08.704Z</time></trkpt><trkpt lat="43.3684817" lon="2.2997317"><ele>530.0</ele><time>2026-04-06T15:58:09.707Z</time></trkpt><trkpt lat="43.36834" lon="2.2997183"><ele>532.0</ele><time>2026-04-06T15:58:10.703Z</time></trkpt><trkpt lat="43.3681967" lon="2.2997267"><ele>534.0</ele><time>2026-04-06T15:58:11.701Z</time></trkpt><trkpt lat="43.36806" lon="2.29974"><ele>536.0</ele><time>2026-04-06T15:58:12.701Z</time></trkpt><trkpt lat="43.367935" lon="2.2997667"><ele>539.25</ele><time>2026-04-06T15:58:13.706Z</time></trkpt><trkpt lat="43.3678233" lon="2.2997283"><ele>542.5</ele><time>2026-04-06T15:58:14.705Z</time></trkpt><trkpt lat="43.3677067" lon="2.299675"><ele>545.75</ele><time>2026-04-06T15:58:15.706Z</time></trkpt><trkpt lat="43.367605" lon="2.2996017"><ele>549.0</ele><time>2026-04-06T15:58:16.704Z</time></trkpt><trkpt lat="43.367575" lon="2.29946"><ele>549.0</ele><time>2026-04-06T15:58:17.705Z</time></trkpt><trkpt lat="43.3676267" lon="2.2992767"><ele>549.0</ele><time>2026-04-06T15:58:18.703Z</time></trkpt><trkpt lat="43.367675" lon="2.2990917"><ele>549.0</ele><time>2026-04-06T15:58:19.702Z</time></trkpt><trkpt lat="43.3677067" lon="2.2989617"><ele>549.0</ele><time>2026-04-06T15:58:20.704Z</time></trkpt><trkpt lat="43.3677433" lon="2.2988633"><ele>549.1666666666666</ele><time>2026-04-06T15:58:21.704Z</time></trkpt><trkpt lat="43.367755" lon="2.2987717"><ele>549.3333333333334</ele><time>2026-04-06T15:58:22.705Z</time></trkpt><trkpt lat="43.3677383" lon="2.2986383"><ele>549.5</ele><time>2026-04-06T15:58:24.705Z</time></trkpt><trkpt lat="43.3676733" lon="2.2985783"><ele>549.6666666666667</ele><time>2026-04-06T15:58:32.701Z</time></trkpt><trkpt lat="43.3676167" lon="2.29868"><ele>549.8333333333334</ele><time>2026-04-06T15:58:34.704Z</time></trkpt><trkpt lat="43.3675767" lon="2.29875"><ele>550.0</ele><time>2026-04-06T15:58:35.702Z</time></trkpt><trkpt lat="43.3675367" lon="2.298835"><ele>549.75</ele><time>2026-04-06T15:58:36.704Z</time></trkpt><trkpt lat="43.367455" lon="2.2990183"><ele>549.5</ele><time>2026-04-06T15:58:37.7Z</time></trkpt><trkpt lat="43.3674017" lon="2.2991567"><ele>549.25</ele><time>2026-04-06T15:58:38.703Z</time></trkpt><trkpt lat="43.36736" lon="2.2992867"><ele>549.0</ele><time>2026-04-06T15:58:39.705Z</time></trkpt><trkpt lat="43.3673317" lon="2.299435"><ele>549.0</ele><time>2026-04-06T15:58:40.705Z</time></trkpt><trkpt lat="43.36732" lon="2.2995883"><ele>549.0</ele><time>2026-04-06T15:58:41.704Z</time></trkpt><trkpt lat="43.367325" lon="2.299735"><ele>549.0</ele><time>2026-04-06T15:58:42.706Z</time></trkpt><trkpt lat="43.3673183" lon="2.29987"><ele>549.0</ele><time>2026-04-06T15:58:43.704Z</time></trkpt><trkpt lat="43.367285" lon="2.2999783"><ele>549.0</ele><time>2026-04-06T15:58:44.704Z</time></trkpt><trkpt lat="43.3672433" lon="2.300065"><ele>549.8333333333334</ele><time>2026-04-06T15:58:45.705Z</time></trkpt><trkpt lat="43.3671867" lon="2.3001367"><ele>550.6666666666666</ele><time>2026-04-06T15:58:46.702Z</time></trkpt><trkpt lat="43.3671183" lon="2.3001967"><ele>551.5</ele><time>2026-04-06T15:58:47.703Z</time></trkpt><trkpt lat="43.3670617" lon="2.3002733"><ele>552.3333333333333</ele><time>2026-04-06T15:58:48.706Z</time></trkpt><trkpt lat="43.367005" lon="2.3003617"><ele>553.1666666666666</ele><time>2026-04-06T15:58:49.704Z</time></trkpt><trkpt lat="43.366965" lon="2.30046"><ele>554.0</ele><time>2026-04-06T15:58:50.705Z</time></trkpt><trkpt lat="43.366945" lon="2.30057"><ele>553.6</ele><time>2026-04-06T15:58:51.703Z</time></trkpt><trkpt lat="43.366945" lon="2.300705"><ele>553.2</ele><time>2026-04-06T15:58:52.706Z</time></trkpt><trkpt lat="43.3669317" lon="2.3008383"><ele>552.8000000000001</ele><time>2026-04-06T15:58:53.705Z</time></trkpt><trkpt lat="43.366905" lon="2.3009833"><ele>552.4</ele><time>2026-04-06T15:58:54.704Z</time></trkpt><trkpt lat="43.36686" lon="2.3011567"><ele>552.0</ele><time>2026-04-06T15:58:55.697Z</time></trkpt><trkpt lat="43.3668183" lon="2.3013217"><ele>551.5</ele><time>2026-04-06T15:58:56.707Z</time></trkpt><trkpt lat="43.3667667" lon="2.3014967"><ele>551.0</ele><time>2026-04-06T15:58:57.702Z</time></trkpt><trkpt lat="43.366715" lon="2.3016917"><ele>550.5</ele><time>2026-04-06T15:58:58.704Z</time></trkpt><trkpt lat="43.3666633" lon="2.301895"><ele>550.0</ele><time>2026-04-06T15:58:59.705Z</time></trkpt><trkpt lat="43.36661" lon="2.3020967"><ele>550.0</ele><time>2026-04-06T15:59:00.705Z</time></trkpt><trkpt lat="43.366555" lon="2.3022983"><ele>550.0</ele><time>2026-04-06T15:59:01.702Z</time></trkpt><trkpt lat="43.3665" lon="2.3025067"><ele>550.0</ele><time>2026-04-06T15:59:02.706Z</time></trkpt><trkpt lat="43.36644" lon="2.3027217"><ele>550.0</ele><time>2026-04-06T15:59:03.705Z</time></trkpt><trkpt lat="43.3663817" lon="2.3029433"><ele>550.0</ele><time>2026-04-06T15:59:04.702Z</time></trkpt><trkpt lat="43.3663233" lon="2.30316"><ele>550.0</ele><time>2026-04-06T15:59:05.703Z</time></trkpt><trkpt lat="43.3662667" lon="2.303375"><ele>547.0</ele><time>2026-04-06T15:59:06.702Z</time></trkpt><trkpt lat="43.3662133" lon="2.303595"><ele>544.0</ele><time>2026-04-06T15:59:07.697Z</time></trkpt><trkpt lat="43.3661533" lon="2.3038133"><ele>541.0</ele><time>2026-04-06T15:59:08.705Z</time></trkpt><trkpt lat="43.3660933" lon="2.30404"><ele>541.0</ele><time>2026-04-06T15:59:09.704Z</time></trkpt><trkpt lat="43.366025" lon="2.3042633"><ele>541.0</ele><time>2026-04-06T15:59:10.701Z</time></trkpt><trkpt lat="43.36595" lon="2.304485"><ele>541.0</ele><time>2026-04-06T15:59:11.702Z</time></trkpt><trkpt lat="43.365865" lon="2.3047117"><ele>542.0</ele><time>2026-04-06T15:59:12.704Z</time></trkpt><trkpt lat="43.3657783" lon="2.3049317"><ele>543.0</ele><time>2026-04-06T15:59:13.703Z</time></trkpt><trkpt lat="43.36569" lon="2.305155"><ele>544.0</ele><time>2026-04-06T15:59:14.706Z</time></trkpt><trkpt lat="43.365605" lon="2.3053833"><ele>541.3333333333334</ele><time>2026-04-06T15:59:15.704Z</time></trkpt><trkpt lat="43.365515" lon="2.3056083"><ele>538.6666666666666</ele><time>2026-04-06T15:59:16.701Z</time></trkpt><trkpt lat="43.3654217" lon="2.3058317"><ele>536.0</ele><time>2026-04-06T15:59:17.706Z</time></trkpt><trkpt lat="43.36533" lon="2.30605"><ele>536.0</ele><time>2026-04-06T15:59:18.705Z</time></trkpt><trkpt lat="43.3652467" lon="2.3062633"><ele>536.0</ele><time>2026-04-06T15:59:19.704Z</time></trkpt><trkpt lat="43.3651683" lon="2.3064817"><ele>536.0</ele><time>2026-04-06T15:59:20.705Z</time></trkpt><trkpt lat="43.3651" lon="2.3066983"><ele>538.0</ele><time>2026-04-06T15:59:21.704Z</time></trkpt><trkpt lat="43.3650383" lon="2.3069167"><ele>540.0</ele><time>2026-04-06T15:59:22.706Z</time></trkpt><trkpt lat="43.364985" lon="2.3071283"><ele>542.0</ele><time>2026-04-06T15:59:23.706Z</time></trkpt><trkpt lat="43.3649267" lon="2.3073367"><ele>541.6666666666666</ele><time>2026-04-06T15:59:24.703Z</time></trkpt><trkpt lat="43.3648517" lon="2.3075367"><ele>541.3333333333334</ele><time>2026-04-06T15:59:25.704Z</time></trkpt><trkpt lat="43.3647683" lon="2.307725"><ele>541.0</ele><time>2026-04-06T15:59:26.707Z</time></trkpt><trkpt lat="43.3646733" lon="2.3078933"><ele>541.0</ele><time>2026-04-06T15:59:27.706Z</time></trkpt><trkpt lat="43.3645683" lon="2.3080467"><ele>541.0</ele><time>2026-04-06T15:59:28.702Z</time></trkpt><trkpt lat="43.36446" lon="2.3081833"><ele>541.0</ele><time>2026-04-06T15:59:29.705Z</time></trkpt><trkpt lat="43.3643517" lon="2.308305"><ele>541.0</ele><time>2026-04-06T15:59:30.707Z</time></trkpt><trkpt lat="43.36425" lon="2.3084217"><ele>541.75</ele><time>2026-04-06T15:59:31.703Z</time></trkpt><trkpt lat="43.3641567" lon="2.3085383"><ele>542.5</ele><time>2026-04-06T15:59:32.706Z</time></trkpt><trkpt lat="43.3640767" lon="2.308675"><ele>543.25</ele><time>2026-04-06T15:59:33.702Z</time></trkpt><trkpt lat="43.3640067" lon="2.3088267"><ele>544.0</ele><time>2026-04-06T15:59:34.7Z</time></trkpt><trkpt lat="43.363955" lon="2.3089917"><ele>544.75</ele><time>2026-04-06T15:59:35.702Z</time></trkpt><trkpt lat="43.363925" lon="2.30917"><ele>545.5</ele><time>2026-04-06T15:59:36.701Z</time></trkpt><trkpt lat="43.3639033" lon="2.3093617"><ele>546.25</ele><time>2026-04-06T15:59:37.702Z</time></trkpt><trkpt lat="43.36389" lon="2.3095567"><ele>547.0</ele><time>2026-04-06T15:59:38.705Z</time></trkpt><trkpt lat="43.3638767" lon="2.309755"><ele>547.6666666666667</ele><time>2026-04-06T15:59:39.702Z</time></trkpt><trkpt lat="43.363865" lon="2.309965"><ele>548.3333333333334</ele><time>2026-04-06T15:59:40.706Z</time></trkpt><trkpt lat="43.36385" lon="2.3101683"><ele>549.0</ele><time>2026-04-06T15:59:41.699Z</time></trkpt><trkpt lat="43.3638383" lon="2.3103767"><ele>547.3333333333334</ele><time>2026-04-06T15:59:42.701Z</time></trkpt><trkpt lat="43.36383" lon="2.3105833"><ele>545.6666666666667</ele><time>2026-04-06T15:59:43.705Z</time></trkpt><trkpt lat="43.3638233" lon="2.3107917"><ele>544.0</ele><time>2026-04-06T15:59:44.703Z</time></trkpt><trkpt lat="43.3638233" lon="2.3110033"><ele>544.0</ele><time>2026-04-06T15:59:45.705Z</time></trkpt><trkpt lat="43.3638367" lon="2.3112233"><ele>544.0</ele><time>2026-04-06T15:59:46.701Z</time></trkpt><trkpt lat="43.3638617" lon="2.3114333"><ele>544.0</ele><time>2026-04-06T15:59:47.705Z</time></trkpt><trkpt lat="43.3638883" lon="2.3116317"><ele>545.25</ele><time>2026-04-06T15:59:48.699Z</time></trkpt><trkpt lat="43.3639217" lon="2.3118267"><ele>546.5</ele><time>2026-04-06T15:59:49.703Z</time></trkpt><trkpt lat="43.3639533" lon="2.3120117"><ele>547.75</ele><time>2026-04-06T15:59:50.697Z</time></trkpt><trkpt lat="43.3639817" lon="2.3121883"><ele>549.0</ele><time>2026-04-06T15:59:51.703Z</time></trkpt><trkpt lat="43.364" lon="2.3123583"><ele>550.25</ele><time>2026-04-06T15:59:52.704Z</time></trkpt><trkpt lat="43.3639867" lon="2.3125167"><ele>551.5</ele><time>2026-04-06T15:59:53.704Z</time></trkpt><trkpt lat="43.3639317" lon="2.312655"><ele>552.75</ele><time>2026-04-06T15:59:54.702Z</time></trkpt><trkpt lat="43.363855" lon="2.31278"><ele>554.0</ele><time>2026-04-06T15:59:55.703Z</time></trkpt><trkpt lat="43.3637533" lon="2.3128833"><ele>552.0</ele><time>2026-04-06T15:59:56.701Z</time></trkpt><trkpt lat="43.3636283" lon="2.3129883"><ele>550.0</ele><time>2026-04-06T15:59:57.705Z</time></trkpt><trkpt lat="43.3634967" lon="2.3131"><ele>548.0</ele><time>2026-04-06T15:59:58.698Z</time></trkpt><trkpt lat="43.3633567" lon="2.313215"><ele>548.0</ele><time>2026-04-06T15:59:59.702Z</time></trkpt><trkpt lat="43.3632217" lon="2.313345"><ele>548.0</ele><time>2026-04-06T16:00:00.705Z</time></trkpt><trkpt lat="43.3630867" lon="2.31347"><ele>548.0</ele><time>2026-04-06T16:00:01.705Z</time></trkpt><trkpt lat="43.3629483" lon="2.3135917"><ele>546.3333333333333</ele><time>2026-04-06T16:00:02.703Z</time></trkpt><trkpt lat="43.3628117" lon="2.3137117"><ele>544.6666666666666</ele><time>2026-04-06T16:00:03.702Z</time></trkpt><trkpt lat="43.36267" lon="2.31384"><ele>543.0</ele><time>2026-04-06T16:00:04.7Z</time></trkpt><trkpt lat="43.362525" lon="2.3139733"><ele>543.0</ele><time>2026-04-06T16:00:05.702Z</time></trkpt><trkpt lat="43.3623767" lon="2.3140983"><ele>543.0</ele><time>2026-04-06T16:00:06.704Z</time></trkpt><trkpt lat="43.3622167" lon="2.3142167"><ele>543.0</ele><time>2026-04-06T16:00:07.704Z</time></trkpt><trkpt lat="43.3620583" lon="2.3143317"><ele>540.3333333333334</ele><time>2026-04-06T16:00:08.703Z</time></trkpt><trkpt lat="43.3618983" lon="2.3144283"><ele>537.6666666666667</ele><time>2026-04-06T16:00:09.706Z</time></trkpt><trkpt lat="43.361725" lon="2.314505"><ele>535.0</ele><time>2026-04-06T16:00:10.696Z</time></trkpt><trkpt lat="43.3615483" lon="2.314565"><ele>535.0</ele><time>2026-04-06T16:00:11.704Z</time></trkpt><trkpt lat="43.3613683" lon="2.3146083"><ele>535.0</ele><time>2026-04-06T16:00:12.703Z</time></trkpt><trkpt lat="43.361185" lon="2.3146517"><ele>535.0</ele><time>2026-04-06T16:00:13.704Z</time></trkpt><trkpt lat="43.3610033" lon="2.3146917"><ele>533.6666666666667</ele><time>2026-04-06T16:00:14.702Z</time></trkpt><trkpt lat="43.3608183" lon="2.3147367"><ele>532.3333333333334</ele><time>2026-04-06T16:00:15.704Z</time></trkpt><trkpt lat="43.3606267" lon="2.314785"><ele>531.0</ele><time>2026-04-06T16:00:16.702Z</time></trkpt><trkpt lat="43.360435" lon="2.3148333"><ele>529.0</ele><time>2026-04-06T16:00:17.705Z</time></trkpt><trkpt lat="43.360245" lon="2.3148817"><ele>527.0</ele><time>2026-04-06T16:00:18.703Z</time></trkpt><trkpt lat="43.360055" lon="2.314935"><ele>525.0</ele><time>2026-04-06T16:00:19.705Z</time></trkpt><trkpt lat="43.359865" lon="2.3149867"><ele>523.3333333333334</ele><time>2026-04-06T16:00:20.705Z</time></trkpt><trkpt lat="43.359675" lon="2.3150583"><ele>521.6666666666667</ele><time>2026-04-06T16:00:21.7Z</time></trkpt><trkpt lat="43.3594867" lon="2.31515"><ele>520.0</ele><time>2026-04-06T16:00:22.701Z</time></trkpt><trkpt lat="43.3592983" lon="2.315255"><ele>520.0</ele><time>2026-04-06T16:00:23.701Z</time></trkpt><trkpt lat="43.3591117" lon="2.315365"><ele>520.0</ele><time>2026-04-06T16:00:24.705Z</time></trkpt><trkpt lat="43.358925" lon="2.31548"><ele>520.0</ele><time>2026-04-06T16:00:25.706Z</time></trkpt><trkpt lat="43.3587367" lon="2.3155967"><ele>518.0</ele><time>2026-04-06T16:00:26.705Z</time></trkpt><trkpt lat="43.3585517" lon="2.315725"><ele>516.0</ele><time>2026-04-06T16:00:27.706Z</time></trkpt><trkpt lat="43.3583733" lon="2.3158683"><ele>514.0</ele><time>2026-04-06T16:00:28.705Z</time></trkpt><trkpt lat="43.3582" lon="2.31602"><ele>512.6666666666667</ele><time>2026-04-06T16:00:29.708Z</time></trkpt><trkpt lat="43.3580283" lon="2.3161783"><ele>511.33333333333337</ele><time>2026-04-06T16:00:30.702Z</time></trkpt><trkpt lat="43.3578567" lon="2.3163367"><ele>510.0</ele><time>2026-04-06T16:00:31.702Z</time></trkpt><trkpt lat="43.3576817" lon="2.3164967"><ele>510.0</ele><time>2026-04-06T16:00:32.704Z</time></trkpt><trkpt lat="43.3575033" lon="2.3166583"><ele>510.0</ele><time>2026-04-06T16:00:33.701Z</time></trkpt><trkpt lat="43.3573267" lon="2.3168267"><ele>510.0</ele><time>2026-04-06T16:00:34.705Z</time></trkpt><trkpt lat="43.3571617" lon="2.316995"><ele>508.66666666666663</ele><time>2026-04-06T16:00:35.703Z</time></trkpt><trkpt lat="43.357005" lon="2.3171867"><ele>507.3333333333333</ele><time>2026-04-06T16:00:36.706Z</time></trkpt><trkpt lat="43.3568567" lon="2.3173867"><ele>506.0</ele><time>2026-04-06T16:00:37.701Z</time></trkpt><trkpt lat="43.3567033" lon="2.3175917"><ele>505.66666666666663</ele><time>2026-04-06T16:00:38.702Z</time></trkpt><trkpt lat="43.356555" lon="2.317795"><ele>505.33333333333337</ele><time>2026-04-06T16:00:39.703Z</time></trkpt><trkpt lat="43.3564083" lon="2.3179967"><ele>505.0</ele><time>2026-04-06T16:00:40.704Z</time></trkpt><trkpt lat="43.356265" lon="2.3181967"><ele>503.0</ele><time>2026-04-06T16:00:41.703Z</time></trkpt><trkpt lat="43.3561233" lon="2.3183917"><ele>501.0</ele><time>2026-04-06T16:00:42.705Z</time></trkpt><trkpt lat="43.3559883" lon="2.318585"><ele>499.0</ele><time>2026-04-06T16:00:43.706Z</time></trkpt><trkpt lat="43.3558617" lon="2.3187683"><ele>498.0</ele><time>2026-04-06T16:00:44.703Z</time></trkpt><trkpt lat="43.35574" lon="2.31894"><ele>497.0</ele><time>2026-04-06T16:00:45.703Z</time></trkpt><trkpt lat="43.3556167" lon="2.3191117"><ele>496.0</ele><time>2026-04-06T16:00:46.706Z</time></trkpt><trkpt lat="43.3555" lon="2.3192867"><ele>495.6666666666667</ele><time>2026-04-06T16:00:47.705Z</time></trkpt><trkpt lat="43.3553917" lon="2.3194633"><ele>495.33333333333337</ele><time>2026-04-06T16:00:48.704Z</time></trkpt><trkpt lat="43.3552917" lon="2.3196633"><ele>495.0</ele><time>2026-04-06T16:00:49.706Z</time></trkpt><trkpt lat="43.35521" lon="2.3198767"><ele>494.33333333333337</ele><time>2026-04-06T16:00:50.705Z</time></trkpt><trkpt lat="43.35513" lon="2.3200983"><ele>493.6666666666667</ele><time>2026-04-06T16:00:51.701Z</time></trkpt><trkpt lat="43.3550467" lon="2.320315"><ele>493.0</ele><time>2026-04-06T16:00:52.698Z</time></trkpt><trkpt lat="43.3549467" lon="2.3205267"><ele>492.0</ele><time>2026-04-06T16:00:53.703Z</time></trkpt><trkpt lat="43.35483" lon="2.32073"><ele>491.0</ele><time>2026-04-06T16:00:54.701Z</time></trkpt><trkpt lat="43.3547067" lon="2.3209267"><ele>490.0</ele><time>2026-04-06T16:00:55.706Z</time></trkpt><trkpt lat="43.35458" lon="2.32112"><ele>490.0</ele><time>2026-04-06T16:00:56.706Z</time></trkpt><trkpt lat="43.3544517" lon="2.32132"><ele>490.0</ele><time>2026-04-06T16:00:57.702Z</time></trkpt><trkpt lat="43.35432" lon="2.32152"><ele>490.0</ele><time>2026-04-06T16:00:58.705Z</time></trkpt><trkpt lat="43.35419" lon="2.3217217"><ele>489.6666666666667</ele><time>2026-04-06T16:00:59.701Z</time></trkpt><trkpt lat="43.3540567" lon="2.3219217"><ele>489.33333333333337</ele><time>2026-04-06T16:01:00.706Z</time></trkpt><trkpt lat="43.353925" lon="2.32212"><ele>489.0</ele><time>2026-04-06T16:01:01.704Z</time></trkpt><trkpt lat="43.3538" lon="2.3223217"><ele>487.33333333333337</ele><time>2026-04-06T16:01:02.706Z</time></trkpt><trkpt lat="43.35368" lon="2.322525"><ele>485.6666666666667</ele><time>2026-04-06T16:01:03.705Z</time></trkpt><trkpt lat="43.3535567" lon="2.3227317"><ele>484.0</ele><time>2026-04-06T16:01:04.707Z</time></trkpt><trkpt lat="43.353435" lon="2.3229317"><ele>484.6666666666667</ele><time>2026-04-06T16:01:05.705Z</time></trkpt><trkpt lat="43.35332" lon="2.3231367"><ele>485.33333333333337</ele><time>2026-04-06T16:01:06.705Z</time></trkpt><trkpt lat="43.3532033" lon="2.3233433"><ele>486.0</ele><time>2026-04-06T16:01:07.705Z</time></trkpt><trkpt lat="43.3530867" lon="2.3235483"><ele>484.0</ele><time>2026-04-06T16:01:08.701Z</time></trkpt><trkpt lat="43.35297" lon="2.3237517"><ele>482.0</ele><time>2026-04-06T16:01:09.701Z</time></trkpt><trkpt lat="43.3528517" lon="2.3239633"><ele>480.0</ele><time>2026-04-06T16:01:10.698Z</time></trkpt><trkpt lat="43.3527383" lon="2.3241683"><ele>480.0</ele><time>2026-04-06T16:01:11.699Z</time></trkpt><trkpt lat="43.352625" lon="2.3243733"><ele>480.0</ele><time>2026-04-06T16:01:12.702Z</time></trkpt><trkpt lat="43.3525183" lon="2.3245967"><ele>480.0</ele><time>2026-04-06T16:01:13.703Z</time></trkpt><trkpt lat="43.3524083" lon="2.324825"><ele>480.0</ele><time>2026-04-06T16:01:14.703Z</time></trkpt><trkpt lat="43.3522983" lon="2.3250633"><ele>480.0</ele><time>2026-04-06T16:01:15.705Z</time></trkpt><trkpt lat="43.3521867" lon="2.3253033"><ele>480.0</ele><time>2026-04-06T16:01:16.702Z</time></trkpt><trkpt lat="43.352075" lon="2.32555"><ele>478.33333333333337</ele><time>2026-04-06T16:01:17.708Z</time></trkpt><trkpt lat="43.3519617" lon="2.325805"><ele>476.6666666666667</ele><time>2026-04-06T16:01:18.704Z</time></trkpt><trkpt lat="43.35185" lon="2.3260633"><ele>475.0</ele><time>2026-04-06T16:01:19.703Z</time></trkpt><trkpt lat="43.3517367" lon="2.326325"><ele>474.6666666666667</ele><time>2026-04-06T16:01:20.703Z</time></trkpt><trkpt lat="43.3516233" lon="2.32659"><ele>474.33333333333337</ele><time>2026-04-06T16:01:21.704Z</time></trkpt><trkpt lat="43.3515083" lon="2.3268533"><ele>474.0</ele><time>2026-04-06T16:01:22.704Z</time></trkpt><trkpt lat="43.35139" lon="2.3271167"><ele>472.0</ele><time>2026-04-06T16:01:23.705Z</time></trkpt><trkpt lat="43.3512633" lon="2.3273733"><ele>470.0</ele><time>2026-04-06T16:01:24.704Z</time></trkpt><trkpt lat="43.35113" lon="2.3276233"><ele>470.0</ele><time>2026-04-06T16:01:25.704Z</time></trkpt><trkpt lat="43.3509917" lon="2.327885"><ele>470.0</ele><time>2026-04-06T16:01:26.704Z</time></trkpt><trkpt lat="43.3508483" lon="2.3281333"><ele>471.0</ele><time>2026-04-06T16:01:27.703Z</time></trkpt><trkpt lat="43.3507083" lon="2.3283967"><ele>472.0</ele><time>2026-04-06T16:01:28.696Z</time></trkpt><trkpt lat="43.35058" lon="2.32866"><ele>470.0</ele><time>2026-04-06T16:01:29.702Z</time></trkpt><trkpt lat="43.3504683" lon="2.32894"><ele>468.0</ele><time>2026-04-06T16:01:30.697Z</time></trkpt><trkpt lat="43.3503683" lon="2.329225"><ele>468.0</ele><time>2026-04-06T16:01:31.703Z</time></trkpt><trkpt lat="43.3502633" lon="2.3295133"><ele>468.0</ele><time>2026-04-06T16:01:32.706Z</time></trkpt><trkpt lat="43.3501433" lon="2.3298"><ele>467.5</ele><time>2026-04-06T16:01:33.704Z</time></trkpt><trkpt lat="43.35001" lon="2.3300667"><ele>467.0</ele><time>2026-04-06T16:01:34.701Z</time></trkpt><trkpt lat="43.3498767" lon="2.3303217"><ele>466.66666666666663</ele><time>2026-04-06T16:01:35.701Z</time></trkpt><trkpt lat="43.349745" lon="2.3305667"><ele>466.33333333333337</ele><time>2026-04-06T16:01:36.705Z</time></trkpt><trkpt lat="43.34962" lon="2.3308017"><ele>466.0</ele><time>2026-04-06T16:01:37.702Z</time></trkpt><trkpt lat="43.3495033" lon="2.33102"><ele>465.6666666666667</ele><time>2026-04-06T16:01:38.705Z</time></trkpt><trkpt lat="43.3493917" lon="2.3312367"><ele>465.33333333333337</ele><time>2026-04-06T16:01:39.704Z</time></trkpt><trkpt lat="43.3492833" lon="2.3314517"><ele>465.0</ele><time>2026-04-06T16:01:40.701Z</time></trkpt><trkpt lat="43.3491867" lon="2.3316633"><ele>465.0</ele><time>2026-04-06T16:01:41.701Z</time></trkpt><trkpt lat="43.3491017" lon="2.331875"><ele>465.0</ele><time>2026-04-06T16:01:42.707Z</time></trkpt><trkpt lat="43.3490267" lon="2.3320917"><ele>465.0</ele><time>2026-04-06T16:01:43.704Z</time></trkpt><trkpt lat="43.348955" lon="2.3323017"><ele>464.66666666666663</ele><time>2026-04-06T16:01:44.704Z</time></trkpt><trkpt lat="43.3488867" lon="2.3325167"><ele>464.3333333333333</ele><time>2026-04-06T16:01:45.706Z</time></trkpt><trkpt lat="43.3488217" lon="2.3327117"><ele>464.0</ele><time>2026-04-06T16:01:46.704Z</time></trkpt><trkpt lat="43.34877" lon="2.33291"><ele>465.3333333333333</ele><time>2026-04-06T16:01:47.704Z</time></trkpt><trkpt lat="43.3487467" lon="2.3331183"><ele>466.66666666666663</ele><time>2026-04-06T16:01:48.706Z</time></trkpt><trkpt lat="43.3487567" lon="2.3333417"><ele>468.0</ele><time>2026-04-06T16:01:49.705Z</time></trkpt><trkpt lat="43.3488" lon="2.3335617"><ele>468.0</ele><time>2026-04-06T16:01:50.704Z</time></trkpt><trkpt lat="43.34887" lon="2.3337683"><ele>468.0</ele><time>2026-04-06T16:01:51.706Z</time></trkpt><trkpt lat="43.3489533" lon="2.3339733"><ele>468.0</ele><time>2026-04-06T16:01:52.702Z</time></trkpt><trkpt lat="43.349035" lon="2.3341717"><ele>468.0</ele><time>2026-04-06T16:01:53.703Z</time></trkpt><trkpt lat="43.3491083" lon="2.3343633"><ele>468.0</ele><time>2026-04-06T16:01:54.705Z</time></trkpt><trkpt lat="43.349175" lon="2.3345517"><ele>468.0</ele><time>2026-04-06T16:01:55.703Z</time></trkpt><trkpt lat="43.3492333" lon="2.3347433"><ele>468.0</ele><time>2026-04-06T16:01:56.702Z</time></trkpt><trkpt lat="43.3492767" lon="2.3349533"><ele>468.0</ele><time>2026-04-06T16:01:57.705Z</time></trkpt><trkpt lat="43.349295" lon="2.3351717"><ele>468.0</ele><time>2026-04-06T16:01:58.702Z</time></trkpt><trkpt lat="43.3492867" lon="2.3354"><ele>466.66666666666663</ele><time>2026-04-06T16:01:59.705Z</time></trkpt><trkpt lat="43.34926" lon="2.335635"><ele>465.3333333333333</ele><time>2026-04-06T16:02:00.704Z</time></trkpt><trkpt lat="43.34922" lon="2.33588"><ele>464.0</ele><time>2026-04-06T16:02:01.704Z</time></trkpt><trkpt lat="43.349175" lon="2.3361333"><ele>464.0</ele><time>2026-04-06T16:02:02.707Z</time></trkpt><trkpt lat="43.3491283" lon="2.3363933"><ele>464.0</ele><time>2026-04-06T16:02:03.699Z</time></trkpt><trkpt lat="43.349085" lon="2.336655"><ele>464.0</ele><time>2026-04-06T16:02:04.704Z</time></trkpt><trkpt lat="43.34904" lon="2.3369117"><ele>464.0</ele><time>2026-04-06T16:02:05.703Z</time></trkpt><trkpt lat="43.3489917" lon="2.3371617"><ele>464.0</ele><time>2026-04-06T16:02:06.705Z</time></trkpt><trkpt lat="43.348945" lon="2.33742"><ele>464.0</ele><time>2026-04-06T16:02:07.699Z</time></trkpt><trkpt lat="43.3489067" lon="2.337675"><ele>464.66666666666663</ele><time>2026-04-06T16:02:08.703Z</time></trkpt><trkpt lat="43.3488633" lon="2.3379233"><ele>465.33333333333337</ele><time>2026-04-06T16:02:09.704Z</time></trkpt><trkpt lat="43.3488117" lon="2.338175"><ele>466.0</ele><time>2026-04-06T16:02:10.702Z</time></trkpt><trkpt lat="43.348745" lon="2.33842"><ele>466.0</ele><time>2026-04-06T16:02:11.703Z</time></trkpt><trkpt lat="43.3486583" lon="2.33865"><ele>466.0</ele><time>2026-04-06T16:02:12.705Z</time></trkpt><trkpt lat="43.348545" lon="2.338855"><ele>466.0</ele><time>2026-04-06T16:02:13.703Z</time></trkpt><trkpt lat="43.3484133" lon="2.339045"><ele>464.6666666666667</ele><time>2026-04-06T16:02:14.705Z</time></trkpt><trkpt lat="43.3482717" lon="2.3392317"><ele>463.33333333333337</ele><time>2026-04-06T16:02:15.703Z</time></trkpt><trkpt lat="43.3481233" lon="2.3394133"><ele>462.0</ele><time>2026-04-06T16:02:16.704Z</time></trkpt><trkpt lat="43.3479783" lon="2.3395967"><ele>461.66666666666663</ele><time>2026-04-06T16:02:17.701Z</time></trkpt><trkpt lat="43.347835" lon="2.3397817"><ele>461.3333333333333</ele><time>2026-04-06T16:02:18.705Z</time></trkpt><trkpt lat="43.34769" lon="2.3399633"><ele>461.0</ele><time>2026-04-06T16:02:19.701Z</time></trkpt><trkpt lat="43.347545" lon="2.3401483"><ele>461.0</ele><time>2026-04-06T16:02:20.704Z</time></trkpt><trkpt lat="43.3474067" lon="2.340345"><ele>461.0</ele><time>2026-04-06T16:02:21.701Z</time></trkpt><trkpt lat="43.3472783" lon="2.34055"><ele>461.0</ele><time>2026-04-06T16:02:22.704Z</time></trkpt><trkpt lat="43.3471533" lon="2.3407667"><ele>459.66666666666663</ele><time>2026-04-06T16:02:23.702Z</time></trkpt><trkpt lat="43.347035" lon="2.3409883"><ele>458.33333333333337</ele><time>2026-04-06T16:02:24.702Z</time></trkpt><trkpt lat="43.3469167" lon="2.341215"><ele>457.0</ele><time>2026-04-06T16:02:25.703Z</time></trkpt><trkpt lat="43.3467967" lon="2.3414417"><ele>457.0</ele><time>2026-04-06T16:02:26.705Z</time></trkpt><trkpt lat="43.3466767" lon="2.341665"><ele>457.0</ele><time>2026-04-06T16:02:27.705Z</time></trkpt><trkpt lat="43.34656" lon="2.3418933"><ele>457.0</ele><time>2026-04-06T16:02:28.7Z</time></trkpt><trkpt lat="43.3464433" lon="2.3421217"><ele>453.33333333333337</ele><time>2026-04-06T16:02:29.701Z</time></trkpt><trkpt lat="43.3463267" lon="2.3423467"><ele>449.66666666666663</ele><time>2026-04-06T16:02:30.705Z</time></trkpt><trkpt lat="43.34621" lon="2.3425683"><ele>446.0</ele><time>2026-04-06T16:02:31.705Z</time></trkpt><trkpt lat="43.3460967" lon="2.3427883"><ele>446.0</ele><time>2026-04-06T16:02:32.705Z</time></trkpt><trkpt lat="43.345985" lon="2.3430017"><ele>446.0</ele><time>2026-04-06T16:02:33.701Z</time></trkpt><trkpt lat="43.3458767" lon="2.3432133"><ele>446.0</ele><time>2026-04-06T16:02:34.702Z</time></trkpt><trkpt lat="43.345775" lon="2.3434167"><ele>447.0</ele><time>2026-04-06T16:02:35.702Z</time></trkpt><trkpt lat="43.3456817" lon="2.34361"><ele>448.0</ele><time>2026-04-06T16:02:36.706Z</time></trkpt><trkpt lat="43.3455883" lon="2.3437983"><ele>449.0</ele><time>2026-04-06T16:02:37.704Z</time></trkpt><trkpt lat="43.3454983" lon="2.3439817"><ele>446.66666666666663</ele><time>2026-04-06T16:02:38.705Z</time></trkpt><trkpt lat="43.3454117" lon="2.3441567"><ele>444.33333333333337</ele><time>2026-04-06T16:02:39.703Z</time></trkpt><trkpt lat="43.345325" lon="2.3443233"><ele>442.0</ele><time>2026-04-06T16:02:40.7Z</time></trkpt><trkpt lat="43.3452367" lon="2.344485"><ele>442.0</ele><time>2026-04-06T16:02:41.703Z</time></trkpt><trkpt lat="43.3451567" lon="2.3446517"><ele>442.0</ele><time>2026-04-06T16:02:42.705Z</time></trkpt><trkpt lat="43.345095" lon="2.3448233"><ele>442.0</ele><time>2026-04-06T16:02:43.704Z</time></trkpt><trkpt lat="43.3450517" lon="2.344995"><ele>442.0</ele><time>2026-04-06T16:02:44.705Z</time></trkpt><trkpt lat="43.345025" lon="2.34516"><ele>441.75</ele><time>2026-04-06T16:02:45.703Z</time></trkpt><trkpt lat="43.3450083" lon="2.3453233"><ele>441.5</ele><time>2026-04-06T16:02:46.7Z</time></trkpt><trkpt lat="43.344995" lon="2.3454817"><ele>441.25</ele><time>2026-04-06T16:02:47.702Z</time></trkpt><trkpt lat="43.3449833" lon="2.345635"><ele>441.0</ele><time>2026-04-06T16:02:48.704Z</time></trkpt><trkpt lat="43.3449717" lon="2.34579"><ele>441.0</ele><time>2026-04-06T16:02:49.703Z</time></trkpt><trkpt lat="43.3449617" lon="2.345955"><ele>441.0</ele><time>2026-04-06T16:02:50.705Z</time></trkpt><trkpt lat="43.3449633" lon="2.346135"><ele>441.0</ele><time>2026-04-06T16:02:51.701Z</time></trkpt><trkpt lat="43.3449733" lon="2.3463317"><ele>441.0</ele><time>2026-04-06T16:02:52.706Z</time></trkpt><trkpt lat="43.3449967" lon="2.34654"><ele>441.0</ele><time>2026-04-06T16:02:53.704Z</time></trkpt><trkpt lat="43.3450217" lon="2.3467633"><ele>441.0</ele><time>2026-04-06T16:02:54.704Z</time></trkpt><trkpt lat="43.34505" lon="2.3469983"><ele>441.0</ele><time>2026-04-06T16:02:55.702Z</time></trkpt><trkpt lat="43.3450883" lon="2.3472433"><ele>441.66666666666663</ele><time>2026-04-06T16:02:56.707Z</time></trkpt><trkpt lat="43.3451417" lon="2.34749"><ele>442.3333333333333</ele><time>2026-04-06T16:02:57.704Z</time></trkpt><trkpt lat="43.34522" lon="2.3477383"><ele>443.0</ele><time>2026-04-06T16:02:58.703Z</time></trkpt><trkpt lat="43.3453333" lon="2.3479833"><ele>444.0</ele><time>2026-04-06T16:02:59.704Z</time></trkpt><trkpt lat="43.3454633" lon="2.3482217"><ele>445.0</ele><time>2026-04-06T16:03:00.704Z</time></trkpt><trkpt lat="43.3455867" lon="2.348455"><ele>446.0</ele><time>2026-04-06T16:03:01.702Z</time></trkpt><trkpt lat="43.3457117" lon="2.34869"><ele>447.0</ele><time>2026-04-06T16:03:02.697Z</time></trkpt><trkpt lat="43.3458483" lon="2.3489267"><ele>448.0</ele><time>2026-04-06T16:03:03.704Z</time></trkpt><trkpt lat="43.3459817" lon="2.3491617"><ele>449.0</ele><time>2026-04-06T16:03:04.703Z</time></trkpt><trkpt lat="43.346105" lon="2.3494017"><ele>449.0</ele><time>2026-04-06T16:03:05.702Z</time></trkpt><trkpt lat="43.3462017" lon="2.34965"><ele>449.0</ele><time>2026-04-06T16:03:06.704Z</time></trkpt><trkpt lat="43.3462733" lon="2.3499133"><ele>449.0</ele><time>2026-04-06T16:03:07.702Z</time></trkpt><trkpt lat="43.3463133" lon="2.35019"><ele>448.66666666666663</ele><time>2026-04-06T16:03:08.706Z</time></trkpt><trkpt lat="43.3463283" lon="2.3504717"><ele>448.33333333333337</ele><time>2026-04-06T16:03:09.705Z</time></trkpt><trkpt lat="43.3463183" lon="2.3507567"><ele>448.0</ele><time>2026-04-06T16:03:10.705Z</time></trkpt><trkpt lat="43.34629" lon="2.35104"><ele>447.6666666666667</ele><time>2026-04-06T16:03:11.703Z</time></trkpt><trkpt lat="43.34623" lon="2.3513283"><ele>447.33333333333337</ele><time>2026-04-06T16:03:12.706Z</time></trkpt><trkpt lat="43.3461233" lon="2.351575"><ele>447.0</ele><time>2026-04-06T16:03:13.702Z</time></trkpt><trkpt lat="43.3460017" lon="2.35181"><ele>447.0</ele><time>2026-04-06T16:03:14.699Z</time></trkpt><trkpt lat="43.3458633" lon="2.3520167"><ele>447.0</ele><time>2026-04-06T16:03:15.706Z</time></trkpt><trkpt lat="43.345745" lon="2.3522067"><ele>447.0</ele><time>2026-04-06T16:03:16.697Z</time></trkpt><trkpt lat="43.34563" lon="2.352425"><ele>445.33333333333337</ele><time>2026-04-06T16:03:17.697Z</time></trkpt><trkpt lat="43.3455317" lon="2.3526333"><ele>443.6666666666667</ele><time>2026-04-06T16:03:18.699Z</time></trkpt><trkpt lat="43.34545" lon="2.352875"><ele>442.0</ele><time>2026-04-06T16:03:19.697Z</time></trkpt><trkpt lat="43.3453767" lon="2.3531067"><ele>441.33333333333337</ele><time>2026-04-06T16:03:20.697Z</time></trkpt><trkpt lat="43.3453017" lon="2.35334"><ele>440.66666666666663</ele><time>2026-04-06T16:03:21.698Z</time></trkpt><trkpt lat="43.3452583" lon="2.353605"><ele>440.0</ele><time>2026-04-06T16:03:22.699Z</time></trkpt><trkpt lat="43.345215" lon="2.353885"><ele>437.66666666666663</ele><time>2026-04-06T16:03:23.703Z</time></trkpt><trkpt lat="43.34518" lon="2.354165"><ele>435.33333333333337</ele><time>2026-04-06T16:03:24.705Z</time></trkpt><trkpt lat="43.3451333" lon="2.354445"><ele>433.0</ele><time>2026-04-06T16:03:25.705Z</time></trkpt><trkpt lat="43.3450933" lon="2.354725"><ele>430.33333333333337</ele><time>2026-04-06T16:03:26.704Z</time></trkpt><trkpt lat="43.3450567" lon="2.355015"><ele>427.66666666666663</ele><time>2026-04-06T16:03:27.705Z</time></trkpt><trkpt lat="43.3450167" lon="2.3553033"><ele>425.0</ele><time>2026-04-06T16:03:28.697Z</time></trkpt><trkpt lat="43.3449783" lon="2.3556033"><ele>424.3333333333333</ele><time>2026-04-06T16:03:29.703Z</time></trkpt><trkpt lat="43.344925" lon="2.3558933"><ele>423.66666666666663</ele><time>2026-04-06T16:03:30.706Z</time></trkpt><trkpt lat="43.3448783" lon="2.3561833"><ele>423.0</ele><time>2026-04-06T16:03:31.699Z</time></trkpt><trkpt lat="43.3448433" lon="2.3564767"><ele>421.66666666666663</ele><time>2026-04-06T16:03:32.706Z</time></trkpt><trkpt lat="43.3447883" lon="2.3567633"><ele>420.3333333333333</ele><time>2026-04-06T16:03:33.7Z</time></trkpt><trkpt lat="43.3447233" lon="2.3570483"><ele>419.0</ele><time>2026-04-06T16:03:34.702Z</time></trkpt><trkpt lat="43.3446467" lon="2.3573233"><ele>415.3333333333333</ele><time>2026-04-06T16:03:35.706Z</time></trkpt><trkpt lat="43.3445517" lon="2.3575717"><ele>411.66666666666663</ele><time>2026-04-06T16:03:36.702Z</time></trkpt><trkpt lat="43.3444417" lon="2.3578017"><ele>408.0</ele><time>2026-04-06T16:03:37.704Z</time></trkpt><trkpt lat="43.3443267" lon="2.3580117"><ele>406.66666666666663</ele><time>2026-04-06T16:03:38.704Z</time></trkpt><trkpt lat="43.3442083" lon="2.3582183"><ele>405.3333333333333</ele><time>2026-04-06T16:03:39.703Z</time></trkpt><trkpt lat="43.3440917" lon="2.3584183"><ele>404.0</ele><time>2026-04-06T16:03:40.703Z</time></trkpt><trkpt lat="43.3439783" lon="2.3586"><ele>403.66666666666663</ele><time>2026-04-06T16:03:41.704Z</time></trkpt><trkpt lat="43.3438683" lon="2.3587833"><ele>403.33333333333337</ele><time>2026-04-06T16:03:42.706Z</time></trkpt><trkpt lat="43.3437683" lon="2.358965"><ele>403.0</ele><time>2026-04-06T16:03:43.706Z</time></trkpt><trkpt lat="43.343665" lon="2.3591133"><ele>401.0</ele><time>2026-04-06T16:03:44.703Z</time></trkpt><trkpt lat="43.3435783" lon="2.3592783"><ele>399.0</ele><time>2026-04-06T16:03:45.698Z</time></trkpt><trkpt lat="43.3434967" lon="2.3594383"><ele>397.0</ele><time>2026-04-06T16:03:46.704Z</time></trkpt><trkpt lat="43.3434167" lon="2.35959"><ele>395.0</ele><time>2026-04-06T16:03:47.696Z</time></trkpt><trkpt lat="43.34334" lon="2.3597333"><ele>393.75</ele><time>2026-04-06T16:03:48.705Z</time></trkpt><trkpt lat="43.3432617" lon="2.3598583"><ele>392.5</ele><time>2026-04-06T16:03:49.702Z</time></trkpt><trkpt lat="43.3431817" lon="2.3599783"><ele>391.25</ele><time>2026-04-06T16:03:50.705Z</time></trkpt><trkpt lat="43.3431083" lon="2.3601017"><ele>390.0</ele><time>2026-04-06T16:03:51.702Z</time></trkpt><trkpt lat="43.3430483" lon="2.3602367"><ele>387.4</ele><time>2026-04-06T16:03:52.7Z</time></trkpt><trkpt lat="43.3429933" lon="2.36037"><ele>384.8</ele><time>2026-04-06T16:03:53.705Z</time></trkpt><trkpt lat="43.3429383" lon="2.360495"><ele>382.20000000000005</ele><time>2026-04-06T16:03:54.705Z</time></trkpt><trkpt lat="43.3428833" lon="2.3606183"><ele>379.6</ele><time>2026-04-06T16:03:55.706Z</time></trkpt><trkpt lat="43.3428383" lon="2.3607467"><ele>377.0</ele><time>2026-04-06T16:03:56.703Z</time></trkpt><trkpt lat="43.3428" lon="2.3608733"><ele>377.0</ele><time>2026-04-06T16:03:57.702Z</time></trkpt><trkpt lat="43.342765" lon="2.361"><ele>377.0</ele><time>2026-04-06T16:03:58.704Z</time></trkpt><trkpt lat="43.342735" lon="2.3611383"><ele>377.0</ele><time>2026-04-06T16:03:59.706Z</time></trkpt><trkpt lat="43.342705" lon="2.3612717"><ele>377.0</ele><time>2026-04-06T16:04:00.707Z</time></trkpt><trkpt lat="43.342665" lon="2.3614"><ele>377.0</ele><time>2026-04-06T16:04:01.704Z</time></trkpt><trkpt lat="43.342615" lon="2.361515"><ele>377.0</ele><time>2026-04-06T16:04:02.707Z</time></trkpt><trkpt lat="43.3425483" lon="2.3616067"><ele>377.0</ele><time>2026-04-06T16:04:03.703Z</time></trkpt><trkpt lat="43.342475" lon="2.3616867"><ele>377.0</ele><time>2026-04-06T16:04:04.705Z</time></trkpt><trkpt lat="43.3423933" lon="2.3617633"><ele>377.0</ele><time>2026-04-06T16:04:05.704Z</time></trkpt><trkpt lat="43.3423183" lon="2.3618533"><ele>377.0</ele><time>2026-04-06T16:04:06.706Z</time></trkpt><trkpt lat="43.3422417" lon="2.3619383"><ele>376.33333333333337</ele><time>2026-04-06T16:04:07.705Z</time></trkpt><trkpt lat="43.3421667" lon="2.3620167"><ele>375.6666666666667</ele><time>2026-04-06T16:04:08.707Z</time></trkpt><trkpt lat="43.3420967" lon="2.3620967"><ele>375.0</ele><time>2026-04-06T16:04:09.705Z</time></trkpt><trkpt lat="43.342025" lon="2.3621717"><ele>374.3333333333333</ele><time>2026-04-06T16:04:10.702Z</time></trkpt><trkpt lat="43.3419533" lon="2.3622283"><ele>373.66666666666663</ele><time>2026-04-06T16:04:11.706Z</time></trkpt><trkpt lat="43.3418783" lon="2.3622667"><ele>373.0</ele><time>2026-04-06T16:04:12.704Z</time></trkpt><trkpt lat="43.3418017" lon="2.36228"><ele>373.0</ele><time>2026-04-06T16:04:13.699Z</time></trkpt><trkpt lat="43.3417217" lon="2.3622683"><ele>373.0</ele><time>2026-04-06T16:04:14.7Z</time></trkpt><trkpt lat="43.3416383" lon="2.3622467"><ele>373.0</ele><time>2026-04-06T16:04:15.697Z</time></trkpt><trkpt lat="43.34155" lon="2.3622167"><ele>373.0</ele><time>2026-04-06T16:04:16.701Z</time></trkpt><trkpt lat="43.3414583" lon="2.3621883"><ele>373.0</ele><time>2026-04-06T16:04:17.703Z</time></trkpt><trkpt lat="43.341365" lon="2.3621683"><ele>373.0</ele><time>2026-04-06T16:04:18.704Z</time></trkpt><trkpt lat="43.3412733" lon="2.362165"><ele>371.57142857142856</ele><time>2026-04-06T16:04:19.705Z</time></trkpt><trkpt lat="43.3411933" lon="2.3621733"><ele>370.14285714285717</ele><time>2026-04-06T16:04:20.703Z</time></trkpt><trkpt lat="43.3411167" lon="2.3621967"><ele>368.71428571428567</ele><time>2026-04-06T16:04:21.702Z</time></trkpt><trkpt lat="43.341045" lon="2.3621967"><ele>367.2857142857143</ele><time>2026-04-06T16:04:22.701Z</time></trkpt><trkpt lat="43.3409683" lon="2.362195"><ele>365.85714285714283</ele><time>2026-04-06T16:04:23.702Z</time></trkpt><trkpt lat="43.340895" lon="2.3621683"><ele>364.4285714285714</ele><time>2026-04-06T16:04:24.704Z</time></trkpt><trkpt lat="43.3408367" lon="2.362125"><ele>363.0</ele><time>2026-04-06T16:04:25.697Z</time></trkpt><trkpt lat="43.340805" lon="2.3619533"><ele>363.0</ele><time>2026-04-06T16:04:27.704Z</time></trkpt><trkpt lat="43.34085" lon="2.36182"><ele>363.0</ele><time>2026-04-06T16:04:28.704Z</time></trkpt><trkpt lat="43.3408867" lon="2.3617283"><ele>363.0</ele><time>2026-04-06T16:04:29.701Z</time></trkpt><trkpt lat="43.3409483" lon="2.36161"><ele>363.0</ele><time>2026-04-06T16:04:30.704Z</time></trkpt><trkpt lat="43.34109" lon="2.3615233"><ele>363.0</ele><time>2026-04-06T16:04:31.706Z</time></trkpt><trkpt lat="43.34121" lon="2.3614533"><ele>363.0</ele><time>2026-04-06T16:04:32.704Z</time></trkpt><trkpt lat="43.3413117" lon="2.3614"><ele>363.0</ele><time>2026-04-06T16:04:33.701Z</time></trkpt><trkpt lat="43.3414083" lon="2.3613417"><ele>363.0</ele><time>2026-04-06T16:04:34.704Z</time></trkpt><trkpt lat="43.3415017" lon="2.3612817"><ele>363.0</ele><time>2026-04-06T16:04:35.705Z</time></trkpt><trkpt lat="43.3415767" lon="2.3612067"><ele>363.0</ele><time>2026-04-06T16:04:36.7Z</time></trkpt><trkpt lat="43.341645" lon="2.36114"><ele>363.3333333333333</ele><time>2026-04-06T16:04:37.706Z</time></trkpt><trkpt lat="43.3416933" lon="2.361065"><ele>363.6666666666667</ele><time>2026-04-06T16:04:38.706Z</time></trkpt><trkpt lat="43.3416267" lon="2.36098"><ele>364.0</ele><time>2026-04-06T16:04:39.704Z</time></trkpt><trkpt lat="43.3415783" lon="2.3608967"><ele>364.33333333333337</ele><time>2026-04-06T16:04:40.705Z</time></trkpt><trkpt lat="43.3415" lon="2.36081"><ele>364.6666666666667</ele><time>2026-04-06T16:04:41.705Z</time></trkpt><trkpt lat="43.3414117" lon="2.3607317"><ele>365.0</ele><time>2026-04-06T16:04:42.702Z</time></trkpt><trkpt lat="43.3413217" lon="2.360655"><ele>364.0</ele><time>2026-04-06T16:04:43.704Z</time></trkpt><trkpt lat="43.341225" lon="2.36057"><ele>363.0</ele><time>2026-04-06T16:04:44.707Z</time></trkpt><trkpt lat="43.3411233" lon="2.36048"><ele>362.0</ele><time>2026-04-06T16:04:45.705Z</time></trkpt><trkpt lat="43.3410167" lon="2.3603817"><ele>361.0</ele><time>2026-04-06T16:04:46.704Z</time></trkpt><trkpt lat="43.340895" lon="2.3602733"><ele>360.5</ele><time>2026-04-06T16:04:47.705Z</time></trkpt><trkpt lat="43.3407783" lon="2.3601667"><ele>360.0</ele><time>2026-04-06T16:04:48.705Z</time></trkpt><trkpt lat="43.3406767" lon="2.3600533"><ele>359.5</ele><time>2026-04-06T16:04:49.701Z</time></trkpt><trkpt lat="43.3405667" lon="2.35994"><ele>359.0</ele><time>2026-04-06T16:04:50.705Z</time></trkpt><trkpt lat="43.3404517" lon="2.3598217"><ele>359.0</ele><time>2026-04-06T16:04:51.705Z</time></trkpt><trkpt lat="43.3403317" lon="2.3597067"><ele>359.0</ele><time>2026-04-06T16:04:52.704Z</time></trkpt><trkpt lat="43.3402083" lon="2.35959"><ele>359.0</ele><time>2026-04-06T16:04:53.704Z</time></trkpt><trkpt lat="43.3400817" lon="2.359465"><ele>359.33333333333337</ele><time>2026-04-06T16:04:54.708Z</time></trkpt><trkpt lat="43.3399567" lon="2.35934"><ele>359.6666666666667</ele><time>2026-04-06T16:04:55.701Z</time></trkpt><trkpt lat="43.3398317" lon="2.3592167"><ele>360.0</ele><time>2026-04-06T16:04:56.706Z</time></trkpt><trkpt lat="43.3397017" lon="2.359105"><ele>360.0</ele><time>2026-04-06T16:04:57.702Z</time></trkpt><trkpt lat="43.3395667" lon="2.3590033"><ele>360.0</ele><time>2026-04-06T16:04:58.704Z</time></trkpt><trkpt lat="43.339425" lon="2.358915"><ele>360.0</ele><time>2026-04-06T16:04:59.703Z</time></trkpt><trkpt lat="43.339275" lon="2.358845"><ele>361.0</ele><time>2026-04-06T16:05:00.706Z</time></trkpt><trkpt lat="43.3391217" lon="2.3587933"><ele>362.0</ele><time>2026-04-06T16:05:01.705Z</time></trkpt><trkpt lat="43.33896" lon="2.358775"><ele>363.0</ele><time>2026-04-06T16:05:02.703Z</time></trkpt><trkpt lat="43.338795" lon="2.3587817"><ele>363.0</ele><time>2026-04-06T16:05:03.707Z</time></trkpt><trkpt lat="43.3386283" lon="2.3588083"><ele>363.0</ele><time>2026-04-06T16:05:04.697Z</time></trkpt><trkpt lat="43.3384583" lon="2.3588517"><ele>363.0</ele><time>2026-04-06T16:05:05.702Z</time></trkpt><trkpt lat="43.33829" lon="2.358895"><ele>360.6666666666667</ele><time>2026-04-06T16:05:06.702Z</time></trkpt><trkpt lat="43.33812" lon="2.3589283"><ele>358.33333333333337</ele><time>2026-04-06T16:05:07.705Z</time></trkpt><trkpt lat="43.3379517" lon="2.358945"><ele>356.0</ele><time>2026-04-06T16:05:08.706Z</time></trkpt><trkpt lat="43.3377833" lon="2.358935"><ele>356.0</ele><time>2026-04-06T16:05:09.705Z</time></trkpt><trkpt lat="43.3376033" lon="2.3588933"><ele>356.0</ele><time>2026-04-06T16:05:10.702Z</time></trkpt><trkpt lat="43.3374283" lon="2.3588267"><ele>356.0</ele><time>2026-04-06T16:05:11.702Z</time></trkpt><trkpt lat="43.33726" lon="2.35873"><ele>355.33333333333337</ele><time>2026-04-06T16:05:12.706Z</time></trkpt><trkpt lat="43.337095" lon="2.35863"><ele>354.6666666666667</ele><time>2026-04-06T16:05:13.705Z</time></trkpt><trkpt lat="43.3369417" lon="2.3585167"><ele>354.0</ele><time>2026-04-06T16:05:14.706Z</time></trkpt><trkpt lat="43.336785" lon="2.358405"><ele>354.0</ele><time>2026-04-06T16:05:15.704Z</time></trkpt><trkpt lat="43.336625" lon="2.3583133"><ele>354.0</ele><time>2026-04-06T16:05:16.704Z</time></trkpt><trkpt lat="43.3364633" lon="2.3582433"><ele>354.0</ele><time>2026-04-06T16:05:17.703Z</time></trkpt><trkpt lat="43.3363017" lon="2.3581983"><ele>353.6666666666667</ele><time>2026-04-06T16:05:18.706Z</time></trkpt><trkpt lat="43.3361383" lon="2.3581783"><ele>353.33333333333337</ele><time>2026-04-06T16:05:19.704Z</time></trkpt><trkpt lat="43.3359767" lon="2.3581883"><ele>353.0</ele><time>2026-04-06T16:05:20.705Z</time></trkpt><trkpt lat="43.335815" lon="2.3582317"><ele>353.0</ele><time>2026-04-06T16:05:21.703Z</time></trkpt><trkpt lat="43.3356567" lon="2.358305"><ele>353.0</ele><time>2026-04-06T16:05:22.704Z</time></trkpt><trkpt lat="43.3355067" lon="2.3583933"><ele>353.0</ele><time>2026-04-06T16:05:23.705Z</time></trkpt><trkpt lat="43.3353617" lon="2.3585083"><ele>350.0</ele><time>2026-04-06T16:05:24.703Z</time></trkpt><trkpt lat="43.3352283" lon="2.3586417"><ele>347.0</ele><time>2026-04-06T16:05:25.703Z</time></trkpt><trkpt lat="43.335105" lon="2.358795"><ele>344.0</ele><time>2026-04-06T16:05:26.705Z</time></trkpt><trkpt lat="43.3349883" lon="2.3589683"><ele>344.0</ele><time>2026-04-06T16:05:27.706Z</time></trkpt><trkpt lat="43.3348717" lon="2.3591483"><ele>344.0</ele><time>2026-04-06T16:05:28.701Z</time></trkpt><trkpt lat="43.3347617" lon="2.3593317"><ele>344.0</ele><time>2026-04-06T16:05:29.705Z</time></trkpt><trkpt lat="43.33465" lon="2.3595233"><ele>342.0</ele><time>2026-04-06T16:05:30.705Z</time></trkpt><trkpt lat="43.3345417" lon="2.3597183"><ele>340.0</ele><time>2026-04-06T16:05:31.702Z</time></trkpt><trkpt lat="43.334435" lon="2.3599167"><ele>338.0</ele><time>2026-04-06T16:05:32.705Z</time></trkpt><trkpt lat="43.33433" lon="2.3601167"><ele>338.0</ele><time>2026-04-06T16:05:33.701Z</time></trkpt><trkpt lat="43.3342267" lon="2.3603217"><ele>338.0</ele><time>2026-04-06T16:05:34.703Z</time></trkpt><trkpt lat="43.3341233" lon="2.360525"><ele>338.0</ele><time>2026-04-06T16:05:35.702Z</time></trkpt><trkpt lat="43.3340233" lon="2.3607283"><ele>338.0</ele><time>2026-04-06T16:05:36.703Z</time></trkpt><trkpt lat="43.3339183" lon="2.360935"><ele>338.0</ele><time>2026-04-06T16:05:37.703Z</time></trkpt><trkpt lat="43.3338167" lon="2.36114"><ele>338.0</ele><time>2026-04-06T16:05:38.705Z</time></trkpt><trkpt lat="43.3337133" lon="2.3613333"><ele>336.33333333333337</ele><time>2026-04-06T16:05:39.701Z</time></trkpt><trkpt lat="43.3336083" lon="2.3615167"><ele>334.6666666666667</ele><time>2026-04-06T16:05:40.705Z</time></trkpt><trkpt lat="43.3334983" lon="2.36169"><ele>333.0</ele><time>2026-04-06T16:05:41.703Z</time></trkpt><trkpt lat="43.3333833" lon="2.3618567"><ele>333.0</ele><time>2026-04-06T16:05:42.7Z</time></trkpt><trkpt lat="43.3332683" lon="2.3620183"><ele>333.0</ele><time>2026-04-06T16:05:43.701Z</time></trkpt><trkpt lat="43.3331633" lon="2.3621833"><ele>333.0</ele><time>2026-04-06T16:05:44.706Z</time></trkpt><trkpt lat="43.3330683" lon="2.3623417"><ele>330.6666666666667</ele><time>2026-04-06T16:05:45.703Z</time></trkpt><trkpt lat="43.3329767" lon="2.362525"><ele>328.33333333333337</ele><time>2026-04-06T16:05:46.704Z</time></trkpt><trkpt lat="43.33289" lon="2.3627083"><ele>326.0</ele><time>2026-04-06T16:05:47.706Z</time></trkpt><trkpt lat="43.332795" lon="2.3628917"><ele>326.0</ele><time>2026-04-06T16:05:48.706Z</time></trkpt><trkpt lat="43.33269" lon="2.3630683"><ele>326.0</ele><time>2026-04-06T16:05:49.703Z</time></trkpt><trkpt lat="43.33257" lon="2.3632333"><ele>326.0</ele><time>2026-04-06T16:05:50.706Z</time></trkpt><trkpt lat="43.332445" lon="2.3633883"><ele>326.0</ele><time>2026-04-06T16:05:51.706Z</time></trkpt><trkpt lat="43.332315" lon="2.363545"><ele>326.0</ele><time>2026-04-06T16:05:52.704Z</time></trkpt><trkpt lat="43.3321867" lon="2.363705"><ele>326.0</ele><time>2026-04-06T16:05:53.706Z</time></trkpt><trkpt lat="43.33206" lon="2.36386"><ele>324.0</ele><time>2026-04-06T16:05:54.705Z</time></trkpt><trkpt lat="43.33194" lon="2.3640033"><ele>322.0</ele><time>2026-04-06T16:05:55.707Z</time></trkpt><trkpt lat="43.331825" lon="2.36414"><ele>320.0</ele><time>2026-04-06T16:05:56.706Z</time></trkpt><trkpt lat="43.3317133" lon="2.3642783"><ele>320.0</ele><time>2026-04-06T16:05:57.704Z</time></trkpt><trkpt lat="43.3316067" lon="2.3644183"><ele>320.0</ele><time>2026-04-06T16:05:58.703Z</time></trkpt><trkpt lat="43.3315083" lon="2.3645433"><ele>320.0</ele><time>2026-04-06T16:05:59.705Z</time></trkpt><trkpt lat="43.3314117" lon="2.36466"><ele>320.0</ele><time>2026-04-06T16:06:00.705Z</time></trkpt><trkpt lat="43.3313217" lon="2.3647733"><ele>319.4</ele><time>2026-04-06T16:06:01.705Z</time></trkpt><trkpt lat="43.3312333" lon="2.364865"><ele>318.8</ele><time>2026-04-06T16:06:02.703Z</time></trkpt><trkpt lat="43.3311433" lon="2.3649217"><ele>318.2</ele><time>2026-04-06T16:06:03.701Z</time></trkpt><trkpt lat="43.331055" lon="2.364925"><ele>317.6</ele><time>2026-04-06T16:06:04.703Z</time></trkpt><trkpt lat="43.3309667" lon="2.3648933"><ele>317.0</ele><time>2026-04-06T16:06:05.704Z</time></trkpt><trkpt lat="43.330895" lon="2.3648"><ele>316.0</ele><time>2026-04-06T16:06:06.707Z</time></trkpt><trkpt lat="43.3308433" lon="2.3646783"><ele>315.0</ele><time>2026-04-06T16:06:07.703Z</time></trkpt><trkpt lat="43.3308183" lon="2.3644933"><ele>314.0</ele><time>2026-04-06T16:06:08.705Z</time></trkpt><trkpt lat="43.330795" lon="2.3643017"><ele>313.0</ele><time>2026-04-06T16:06:09.706Z</time></trkpt><trkpt lat="43.330765" lon="2.3641133"><ele>313.0</ele><time>2026-04-06T16:06:10.705Z</time></trkpt><trkpt lat="43.33073" lon="2.363925"><ele>313.0</ele><time>2026-04-06T16:06:11.703Z</time></trkpt><trkpt lat="43.330685" lon="2.3637433"><ele>313.0</ele><time>2026-04-06T16:06:12.703Z</time></trkpt><trkpt lat="43.330635" lon="2.3635667"><ele>313.0</ele><time>2026-04-06T16:06:13.705Z</time></trkpt><trkpt lat="43.330585" lon="2.3633967"><ele>311.5</ele><time>2026-04-06T16:06:14.705Z</time></trkpt><trkpt lat="43.33053" lon="2.36323"><ele>310.0</ele><time>2026-04-06T16:06:15.701Z</time></trkpt><trkpt lat="43.33047" lon="2.3630717"><ele>308.5</ele><time>2026-04-06T16:06:16.704Z</time></trkpt><trkpt lat="43.3303983" lon="2.3629167"><ele>307.0</ele><time>2026-04-06T16:06:17.706Z</time></trkpt><trkpt lat="43.3303217" lon="2.3627717"><ele>306.25</ele><time>2026-04-06T16:06:18.706Z</time></trkpt><trkpt lat="43.330245" lon="2.362625"><ele>305.5</ele><time>2026-04-06T16:06:19.701Z</time></trkpt><trkpt lat="43.3301683" lon="2.3624783"><ele>304.75</ele><time>2026-04-06T16:06:20.703Z</time></trkpt><trkpt lat="43.33009" lon="2.3623267"><ele>304.0</ele><time>2026-04-06T16:06:21.704Z</time></trkpt><trkpt lat="43.330025" lon="2.362175"><ele>304.0</ele><time>2026-04-06T16:06:22.704Z</time></trkpt><trkpt lat="43.3299717" lon="2.36202"><ele>304.0</ele><time>2026-04-06T16:06:23.702Z</time></trkpt><trkpt lat="43.3299267" lon="2.3618633"><ele>304.0</ele><time>2026-04-06T16:06:24.697Z</time></trkpt><trkpt lat="43.3298867" lon="2.3617067"><ele>304.0</ele><time>2026-04-06T16:06:25.705Z</time></trkpt><trkpt lat="43.329855" lon="2.3615417"><ele>304.0</ele><time>2026-04-06T16:06:26.703Z</time></trkpt><trkpt lat="43.3298367" lon="2.3613817"><ele>304.0</ele><time>2026-04-06T16:06:27.703Z</time></trkpt><trkpt lat="43.3297983" lon="2.36122"><ele>304.0</ele><time>2026-04-06T16:06:28.702Z</time></trkpt><trkpt lat="43.3297433" lon="2.3610733"><ele>304.0</ele><time>2026-04-06T16:06:29.7Z</time></trkpt><trkpt lat="43.3296883" lon="2.3609267"><ele>302.0</ele><time>2026-04-06T16:06:30.707Z</time></trkpt><trkpt lat="43.3296467" lon="2.3607733"><ele>300.0</ele><time>2026-04-06T16:06:31.703Z</time></trkpt><trkpt lat="43.32961" lon="2.3606167"><ele>298.0</ele><time>2026-04-06T16:06:32.706Z</time></trkpt><trkpt lat="43.3295733" lon="2.36046"><ele>296.0</ele><time>2026-04-06T16:06:33.701Z</time></trkpt><trkpt lat="43.3295317" lon="2.3603067"><ele>294.8</ele><time>2026-04-06T16:06:34.701Z</time></trkpt><trkpt lat="43.3294817" lon="2.360165"><ele>293.6</ele><time>2026-04-06T16:06:35.706Z</time></trkpt><trkpt lat="43.329435" lon="2.360025"><ele>292.4</ele><time>2026-04-06T16:06:36.704Z</time></trkpt><trkpt lat="43.3293917" lon="2.3598933"><ele>291.2</ele><time>2026-04-06T16:06:37.704Z</time></trkpt><trkpt lat="43.3293483" lon="2.359755"><ele>290.0</ele><time>2026-04-06T16:06:38.704Z</time></trkpt><trkpt lat="43.3293117" lon="2.359625"><ele>289.83333333333337</ele><time>2026-04-06T16:06:39.7Z</time></trkpt><trkpt lat="43.329285" lon="2.3595033"><ele>289.6666666666667</ele><time>2026-04-06T16:06:40.702Z</time></trkpt><trkpt lat="43.3292567" lon="2.3593983"><ele>289.5</ele><time>2026-04-06T16:06:41.702Z</time></trkpt><trkpt lat="43.32923" lon="2.359315"><ele>289.3333333333333</ele><time>2026-04-06T16:06:42.701Z</time></trkpt><trkpt lat="43.3292017" lon="2.3592067"><ele>289.16666666666663</ele><time>2026-04-06T16:06:44.703Z</time></trkpt><trkpt lat="43.3291533" lon="2.3591317"><ele>289.0</ele><time>2026-04-06T16:06:48.701Z</time></trkpt><trkpt lat="43.32908" lon="2.3592333"><ele>289.0</ele><time>2026-04-06T16:06:51.701Z</time></trkpt><trkpt lat="43.329055" lon="2.3594067"><ele>289.0</ele><time>2026-04-06T16:06:53.701Z</time></trkpt><trkpt lat="43.3290283" lon="2.35951"><ele>289.0</ele><time>2026-04-06T16:06:54.703Z</time></trkpt><trkpt lat="43.329005" lon="2.3596217"><ele>289.0</ele><time>2026-04-06T16:06:55.701Z</time></trkpt><trkpt lat="43.3289783" lon="2.35975"><ele>289.0</ele><time>2026-04-06T16:06:56.703Z</time></trkpt><trkpt lat="43.3289517" lon="2.3598883"><ele>289.25</ele><time>2026-04-06T16:06:57.701Z</time></trkpt><trkpt lat="43.3289083" lon="2.3600317"><ele>289.5</ele><time>2026-04-06T16:06:58.701Z</time></trkpt><trkpt lat="43.3288567" lon="2.3601817"><ele>289.75</ele><time>2026-04-06T16:06:59.703Z</time></trkpt><trkpt lat="43.3287967" lon="2.3603433"><ele>290.0</ele><time>2026-04-06T16:07:00.701Z</time></trkpt><trkpt lat="43.32873" lon="2.3605017"><ele>288.5</ele><time>2026-04-06T16:07:01.704Z</time></trkpt><trkpt lat="43.328645" lon="2.3606533"><ele>287.0</ele><time>2026-04-06T16:07:02.704Z</time></trkpt><trkpt lat="43.3285433" lon="2.3608033"><ele>285.5</ele><time>2026-04-06T16:07:03.701Z</time></trkpt><trkpt lat="43.3284433" lon="2.3609517"><ele>284.0</ele><time>2026-04-06T16:07:04.705Z</time></trkpt><trkpt lat="43.3283367" lon="2.3610983"><ele>284.0</ele><time>2026-04-06T16:07:05.702Z</time></trkpt><trkpt lat="43.3282233" lon="2.3612483"><ele>284.0</ele><time>2026-04-06T16:07:06.703Z</time></trkpt><trkpt lat="43.3281083" lon="2.361385"><ele>284.0</ele><time>2026-04-06T16:07:07.702Z</time></trkpt><trkpt lat="43.3279867" lon="2.361525"><ele>282.0</ele><time>2026-04-06T16:07:08.704Z</time></trkpt><trkpt lat="43.327875" lon="2.3616783"><ele>280.0</ele><time>2026-04-06T16:07:09.701Z</time></trkpt><trkpt lat="43.3277633" lon="2.3618333"><ele>278.0</ele><time>2026-04-06T16:07:10.703Z</time></trkpt><trkpt lat="43.327655" lon="2.36202"><ele>280.0</ele><time>2026-04-06T16:07:11.702Z</time></trkpt><trkpt lat="43.3275567" lon="2.3622217"><ele>282.0</ele><time>2026-04-06T16:07:12.705Z</time></trkpt><trkpt lat="43.3274683" lon="2.3624333"><ele>284.0</ele><time>2026-04-06T16:07:13.702Z</time></trkpt><trkpt lat="43.32739" lon="2.36266"><ele>284.0</ele><time>2026-04-06T16:07:14.703Z</time></trkpt><trkpt lat="43.32733" lon="2.3628983"><ele>284.0</ele><time>2026-04-06T16:07:15.706Z</time></trkpt><trkpt lat="43.32728" lon="2.3631517"><ele>284.0</ele><time>2026-04-06T16:07:16.703Z</time></trkpt><trkpt lat="43.3272533" lon="2.3634067"><ele>281.0</ele><time>2026-04-06T16:07:17.702Z</time></trkpt><trkpt lat="43.3272233" lon="2.3636667"><ele>278.0</ele><time>2026-04-06T16:07:18.703Z</time></trkpt><trkpt lat="43.327185" lon="2.3639267"><ele>275.0</ele><time>2026-04-06T16:07:19.703Z</time></trkpt><trkpt lat="43.327135" lon="2.364185"><ele>275.0</ele><time>2026-04-06T16:07:20.704Z</time></trkpt><trkpt lat="43.3270917" lon="2.3644483"><ele>275.0</ele><time>2026-04-06T16:07:21.704Z</time></trkpt><trkpt lat="43.3270567" lon="2.364705"><ele>275.0</ele><time>2026-04-06T16:07:22.705Z</time></trkpt><trkpt lat="43.3270233" lon="2.3649633"><ele>275.0</ele><time>2026-04-06T16:07:23.703Z</time></trkpt><trkpt lat="43.3269767" lon="2.3652133"><ele>275.0</ele><time>2026-04-06T16:07:24.703Z</time></trkpt><trkpt lat="43.326905" lon="2.3654417"><ele>275.0</ele><time>2026-04-06T16:07:25.705Z</time></trkpt><trkpt lat="43.3267967" lon="2.3656433"><ele>275.33333333333337</ele><time>2026-04-06T16:07:26.707Z</time></trkpt><trkpt lat="43.3266683" lon="2.3658267"><ele>275.6666666666667</ele><time>2026-04-06T16:07:27.704Z</time></trkpt><trkpt lat="43.3265283" lon="2.3659933"><ele>276.0</ele><time>2026-04-06T16:07:28.7Z</time></trkpt><trkpt lat="43.32639" lon="2.3661633"><ele>276.0</ele><time>2026-04-06T16:07:29.701Z</time></trkpt><trkpt lat="43.3262567" lon="2.3663383"><ele>276.0</ele><time>2026-04-06T16:07:30.705Z</time></trkpt><trkpt lat="43.32613" lon="2.3665067"><ele>276.0</ele><time>2026-04-06T16:07:31.704Z</time></trkpt><trkpt lat="43.3260117" lon="2.36667"><ele>276.5</ele><time>2026-04-06T16:07:32.701Z</time></trkpt><trkpt lat="43.3259017" lon="2.36683"><ele>277.0</ele><time>2026-04-06T16:07:33.705Z</time></trkpt><trkpt lat="43.3257983" lon="2.366975"><ele>277.5</ele><time>2026-04-06T16:07:34.704Z</time></trkpt><trkpt lat="43.325695" lon="2.3671017"><ele>278.0</ele><time>2026-04-06T16:07:35.705Z</time></trkpt><trkpt lat="43.3255817" lon="2.3672033"><ele>277.5</ele><time>2026-04-06T16:07:36.703Z</time></trkpt><trkpt lat="43.3254633" lon="2.3672417"><ele>277.0</ele><time>2026-04-06T16:07:37.7Z</time></trkpt><trkpt lat="43.325345" lon="2.3672183"><ele>276.5</ele><time>2026-04-06T16:07:38.704Z</time></trkpt><trkpt lat="43.325245" lon="2.3671217"><ele>276.0</ele><time>2026-04-06T16:07:39.704Z</time></trkpt><trkpt lat="43.32517" lon="2.3669817"><ele>276.0</ele><time>2026-04-06T16:07:40.705Z</time></trkpt><trkpt lat="43.3251" lon="2.3668283"><ele>276.0</ele><time>2026-04-06T16:07:41.704Z</time></trkpt><trkpt lat="43.3250267" lon="2.3666867"><ele>276.0</ele><time>2026-04-06T16:07:42.705Z</time></trkpt><trkpt lat="43.3249517" lon="2.366545"><ele>276.0</ele><time>2026-04-06T16:07:43.701Z</time></trkpt><trkpt lat="43.3248683" lon="2.3664317"><ele>275.40000000000003</ele><time>2026-04-06T16:07:44.706Z</time></trkpt><trkpt lat="43.3247717" lon="2.3663467"><ele>274.8</ele><time>2026-04-06T16:07:45.701Z</time></trkpt><trkpt lat="43.32467" lon="2.366315"><ele>274.20000000000005</ele><time>2026-04-06T16:07:46.704Z</time></trkpt><trkpt lat="43.324565" lon="2.3663317"><ele>273.6</ele><time>2026-04-06T16:07:47.703Z</time></trkpt><trkpt lat="43.324475" lon="2.3663867"><ele>273.0</ele><time>2026-04-06T16:07:48.702Z</time></trkpt><trkpt lat="43.3243883" lon="2.36649"><ele>273.0</ele><time>2026-04-06T16:07:49.705Z</time></trkpt><trkpt lat="43.3243067" lon="2.3666017"><ele>273.0</ele><time>2026-04-06T16:07:50.701Z</time></trkpt><trkpt lat="43.3242283" lon="2.3667217"><ele>273.0</ele><time>2026-04-06T16:07:51.695Z</time></trkpt><trkpt lat="43.32415" lon="2.3668517"><ele>273.0</ele><time>2026-04-06T16:07:52.696Z</time></trkpt><trkpt lat="43.3240717" lon="2.3669933"><ele>273.0</ele><time>2026-04-06T16:07:53.704Z</time></trkpt><trkpt lat="43.3240033" lon="2.3671883"><ele>273.0</ele><time>2026-04-06T16:07:54.7Z</time></trkpt><trkpt lat="43.3239367" lon="2.3673967"><ele>273.0</ele><time>2026-04-06T16:07:55.704Z</time></trkpt><trkpt lat="43.3238717" lon="2.3675967"><ele>272.5</ele><time>2026-04-06T16:07:56.696Z</time></trkpt><trkpt lat="43.3238133" lon="2.3677667"><ele>272.0</ele><time>2026-04-06T16:07:57.706Z</time></trkpt><trkpt lat="43.3237283" lon="2.3678683"><ele>271.5</ele><time>2026-04-06T16:07:58.696Z</time></trkpt><trkpt lat="43.3236133" lon="2.3679167"><ele>271.0</ele><time>2026-04-06T16:07:59.705Z</time></trkpt><trkpt lat="43.3234983" lon="2.367945"><ele>271.0</ele><time>2026-04-06T16:08:00.704Z</time></trkpt><trkpt lat="43.3233933" lon="2.3679133"><ele>271.0</ele><time>2026-04-06T16:08:01.701Z</time></trkpt><trkpt lat="43.3232967" lon="2.3678783"><ele>271.0</ele><time>2026-04-06T16:08:02.704Z</time></trkpt><trkpt lat="43.3232033" lon="2.3678717"><ele>271.0</ele><time>2026-04-06T16:08:03.702Z</time></trkpt><trkpt lat="43.3231083" lon="2.3678867"><ele>271.0</ele><time>2026-04-06T16:08:04.703Z</time></trkpt><trkpt lat="43.3230233" lon="2.3679417"><ele>270.8</ele><time>2026-04-06T16:08:05.703Z</time></trkpt><trkpt lat="43.3229417" lon="2.3680267"><ele>270.6</ele><time>2026-04-06T16:08:06.702Z</time></trkpt><trkpt lat="43.322875" lon="2.36812"><ele>270.4</ele><time>2026-04-06T16:08:07.706Z</time></trkpt><trkpt lat="43.322815" lon="2.3682533"><ele>270.2</ele><time>2026-04-06T16:08:08.7Z</time></trkpt><trkpt lat="43.32276" lon="2.368405"><ele>270.0</ele><time>2026-04-06T16:08:09.705Z</time></trkpt><trkpt lat="43.3227033" lon="2.3685883"><ele>270.0</ele><time>2026-04-06T16:08:10.705Z</time></trkpt><trkpt lat="43.322635" lon="2.3687967"><ele>270.0</ele><time>2026-04-06T16:08:11.704Z</time></trkpt><trkpt lat="43.322565" lon="2.36902"><ele>270.0</ele><time>2026-04-06T16:08:12.707Z</time></trkpt><trkpt lat="43.32251" lon="2.3692483"><ele>270.3333333333333</ele><time>2026-04-06T16:08:13.705Z</time></trkpt><trkpt lat="43.322465" lon="2.36947"><ele>270.66666666666663</ele><time>2026-04-06T16:08:14.701Z</time></trkpt><trkpt lat="43.322405" lon="2.3696767"><ele>271.0</ele><time>2026-04-06T16:08:15.704Z</time></trkpt><trkpt lat="43.322325" lon="2.3698533"><ele>270.5</ele><time>2026-04-06T16:08:16.705Z</time></trkpt><trkpt lat="43.322225" lon="2.3699983"><ele>270.0</ele><time>2026-04-06T16:08:17.704Z</time></trkpt><trkpt lat="43.3221" lon="2.37008"><ele>269.5</ele><time>2026-04-06T16:08:18.704Z</time></trkpt><trkpt lat="43.3219467" lon="2.3700967"><ele>269.0</ele><time>2026-04-06T16:08:19.702Z</time></trkpt><trkpt lat="43.3217733" lon="2.3700917"><ele>269.0</ele><time>2026-04-06T16:08:20.706Z</time></trkpt><trkpt lat="43.32159" lon="2.370095"><ele>269.0</ele><time>2026-04-06T16:08:21.698Z</time></trkpt><trkpt lat="43.3214067" lon="2.3701283"><ele>269.0</ele><time>2026-04-06T16:08:22.702Z</time></trkpt><trkpt lat="43.32124" lon="2.370185"><ele>269.0</ele><time>2026-04-06T16:08:23.703Z</time></trkpt><trkpt lat="43.321095" lon="2.3703"><ele>269.0</ele><time>2026-04-06T16:08:24.705Z</time></trkpt><trkpt lat="43.320985" lon="2.3704667"><ele>269.0</ele><time>2026-04-06T16:08:25.705Z</time></trkpt><trkpt lat="43.32089" lon="2.3706467"><ele>269.0</ele><time>2026-04-06T16:08:26.701Z</time></trkpt><trkpt lat="43.320795" lon="2.3707933"><ele>269.0</ele><time>2026-04-06T16:08:27.705Z</time></trkpt><trkpt lat="43.32069" lon="2.37091"><ele>269.0</ele><time>2026-04-06T16:08:28.701Z</time></trkpt><trkpt lat="43.32057" lon="2.370975"><ele>269.0</ele><time>2026-04-06T16:08:29.703Z</time></trkpt><trkpt lat="43.320445" lon="2.3709717"><ele>268.5</ele><time>2026-04-06T16:08:30.707Z</time></trkpt><trkpt lat="43.3203267" lon="2.3709117"><ele>268.0</ele><time>2026-04-06T16:08:31.704Z</time></trkpt><trkpt lat="43.3202183" lon="2.3708033"><ele>267.5</ele><time>2026-04-06T16:08:32.702Z</time></trkpt><trkpt lat="43.3201" lon="2.37071"><ele>267.0</ele><time>2026-04-06T16:08:33.702Z</time></trkpt><trkpt lat="43.3199667" lon="2.3706733"><ele>267.0</ele><time>2026-04-06T16:08:34.704Z</time></trkpt><trkpt lat="43.31982" lon="2.3706967"><ele>267.0</ele><time>2026-04-06T16:08:35.704Z</time></trkpt><trkpt lat="43.3196617" lon="2.3707767"><ele>267.0</ele><time>2026-04-06T16:08:36.705Z</time></trkpt><trkpt lat="43.31951" lon="2.3708733"><ele>267.0</ele><time>2026-04-06T16:08:37.704Z</time></trkpt><trkpt lat="43.3193617" lon="2.3710167"><ele>267.0</ele><time>2026-04-06T16:08:38.701Z</time></trkpt><trkpt lat="43.3192367" lon="2.37121"><ele>267.0</ele><time>2026-04-06T16:08:39.706Z</time></trkpt><trkpt lat="43.3191283" lon="2.371445"><ele>267.0</ele><time>2026-04-06T16:08:40.698Z</time></trkpt><trkpt lat="43.319025" lon="2.3717067"><ele>267.0</ele><time>2026-04-06T16:08:41.704Z</time></trkpt><trkpt lat="43.3189217" lon="2.3719667"><ele>267.0</ele><time>2026-04-06T16:08:42.705Z</time></trkpt><trkpt lat="43.3188133" lon="2.3722183"><ele>265.3333333333333</ele><time>2026-04-06T16:08:43.699Z</time></trkpt><trkpt lat="43.3186917" lon="2.372445"><ele>263.66666666666663</ele><time>2026-04-06T16:08:44.7Z</time></trkpt><trkpt lat="43.318545" lon="2.3726367"><ele>262.0</ele><time>2026-04-06T16:08:45.703Z</time></trkpt><trkpt lat="43.318375" lon="2.3728033"><ele>262.0</ele><time>2026-04-06T16:08:46.704Z</time></trkpt><trkpt lat="43.3181917" lon="2.3729367"><ele>262.0</ele><time>2026-04-06T16:08:47.703Z</time></trkpt><trkpt lat="43.3180033" lon="2.3730633"><ele>262.0</ele><time>2026-04-06T16:08:48.703Z</time></trkpt><trkpt lat="43.3178183" lon="2.3731967"><ele>262.0</ele><time>2026-04-06T16:08:49.703Z</time></trkpt><trkpt lat="43.31764" lon="2.3733333"><ele>262.0</ele><time>2026-04-06T16:08:50.702Z</time></trkpt><trkpt lat="43.3174633" lon="2.37347"><ele>262.0</ele><time>2026-04-06T16:08:51.703Z</time></trkpt><trkpt lat="43.3172867" lon="2.37361"><ele>261.3333333333333</ele><time>2026-04-06T16:08:52.701Z</time></trkpt><trkpt lat="43.317115" lon="2.3737667"><ele>260.6666666666667</ele><time>2026-04-06T16:08:53.703Z</time></trkpt><trkpt lat="43.3169517" lon="2.373935"><ele>260.0</ele><time>2026-04-06T16:08:54.702Z</time></trkpt><trkpt lat="43.3168" lon="2.3741183"><ele>260.0</ele><time>2026-04-06T16:08:55.7Z</time></trkpt><trkpt lat="43.3166617" lon="2.3743083"><ele>260.0</ele><time>2026-04-06T16:08:56.707Z</time></trkpt><trkpt lat="43.3165383" lon="2.37451"><ele>260.0</ele><time>2026-04-06T16:08:57.703Z</time></trkpt><trkpt lat="43.316435" lon="2.3747283"><ele>258.6666666666667</ele><time>2026-04-06T16:08:58.704Z</time></trkpt><trkpt lat="43.3163533" lon="2.37496"><ele>257.3333333333333</ele><time>2026-04-06T16:08:59.702Z</time></trkpt><trkpt lat="43.31629" lon="2.3752083"><ele>256.0</ele><time>2026-04-06T16:09:00.705Z</time></trkpt><trkpt lat="43.3162383" lon="2.3754533"><ele>257.0</ele><time>2026-04-06T16:09:01.705Z</time></trkpt><trkpt lat="43.3161917" lon="2.3756867"><ele>258.0</ele><time>2026-04-06T16:09:02.704Z</time></trkpt><trkpt lat="43.3161417" lon="2.3759183"><ele>259.0</ele><time>2026-04-06T16:09:03.7Z</time></trkpt><trkpt lat="43.3160917" lon="2.37614"><ele>260.0</ele><time>2026-04-06T16:09:04.702Z</time></trkpt><trkpt lat="43.3160717" lon="2.3763567"><ele>261.0</ele><time>2026-04-06T16:09:05.703Z</time></trkpt><trkpt lat="43.3160833" lon="2.3765833"><ele>262.0</ele><time>2026-04-06T16:09:06.704Z</time></trkpt><trkpt lat="43.31614" lon="2.3768"><ele>262.0</ele><time>2026-04-06T16:09:07.703Z</time></trkpt><trkpt lat="43.3162233" lon="2.3770117"><ele>262.0</ele><time>2026-04-06T16:09:08.702Z</time></trkpt><trkpt lat="43.3163133" lon="2.3772217"><ele>262.0</ele><time>2026-04-06T16:09:09.704Z</time></trkpt><trkpt lat="43.3164033" lon="2.377425"><ele>260.66666666666663</ele><time>2026-04-06T16:09:10.703Z</time></trkpt><trkpt lat="43.31649" lon="2.3776333"><ele>259.3333333333333</ele><time>2026-04-06T16:09:11.704Z</time></trkpt><trkpt lat="43.3165667" lon="2.3778467"><ele>258.0</ele><time>2026-04-06T16:09:12.704Z</time></trkpt><trkpt lat="43.316625" lon="2.3780767"><ele>256.3333333333333</ele><time>2026-04-06T16:09:13.702Z</time></trkpt><trkpt lat="43.3166433" lon="2.378315"><ele>254.66666666666666</ele><time>2026-04-06T16:09:14.697Z</time></trkpt><trkpt lat="43.3166367" lon="2.3785617"><ele>253.0</ele><time>2026-04-06T16:09:15.705Z</time></trkpt><trkpt lat="43.3165867" lon="2.3787983"><ele>252.0</ele><time>2026-04-06T16:09:16.704Z</time></trkpt><trkpt lat="43.3165233" lon="2.3790317"><ele>251.0</ele><time>2026-04-06T16:09:17.701Z</time></trkpt><trkpt lat="43.3164433" lon="2.3792583"><ele>250.0</ele><time>2026-04-06T16:09:18.705Z</time></trkpt><trkpt lat="43.31635" lon="2.3794733"><ele>249.33333333333331</ele><time>2026-04-06T16:09:19.703Z</time></trkpt><trkpt lat="43.3162383" lon="2.379665"><ele>248.66666666666669</ele><time>2026-04-06T16:09:20.704Z</time></trkpt><trkpt lat="43.316105" lon="2.3798283"><ele>248.0</ele><time>2026-04-06T16:09:21.697Z</time></trkpt><trkpt lat="43.31596" lon="2.379975"><ele>246.66666666666669</ele><time>2026-04-06T16:09:22.703Z</time></trkpt><trkpt lat="43.31582" lon="2.380135"><ele>245.33333333333331</ele><time>2026-04-06T16:09:23.701Z</time></trkpt><trkpt lat="43.3156983" lon="2.380325"><ele>244.0</ele><time>2026-04-06T16:09:24.705Z</time></trkpt><trkpt lat="43.3155883" lon="2.3805367"><ele>242.0</ele><time>2026-04-06T16:09:25.701Z</time></trkpt><trkpt lat="43.315495" lon="2.3807583"><ele>240.0</ele><time>2026-04-06T16:09:26.703Z</time></trkpt><trkpt lat="43.3154067" lon="2.3809883"><ele>238.0</ele><time>2026-04-06T16:09:27.703Z</time></trkpt><trkpt lat="43.31533" lon="2.381235"><ele>237.33333333333331</ele><time>2026-04-06T16:09:28.705Z</time></trkpt><trkpt lat="43.3152683" lon="2.3814867"><ele>236.66666666666669</ele><time>2026-04-06T16:09:29.701Z</time></trkpt><trkpt lat="43.3152167" lon="2.3817367"><ele>236.0</ele><time>2026-04-06T16:09:30.701Z</time></trkpt><trkpt lat="43.3151767" lon="2.3819933"><ele>234.66666666666669</ele><time>2026-04-06T16:09:31.699Z</time></trkpt><trkpt lat="43.3151467" lon="2.3822433"><ele>233.33333333333331</ele><time>2026-04-06T16:09:32.704Z</time></trkpt><trkpt lat="43.3151083" lon="2.3824883"><ele>232.0</ele><time>2026-04-06T16:09:33.704Z</time></trkpt><trkpt lat="43.3150733" lon="2.382735"><ele>232.0</ele><time>2026-04-06T16:09:34.703Z</time></trkpt><trkpt lat="43.3150583" lon="2.38298"><ele>232.0</ele><time>2026-04-06T16:09:35.705Z</time></trkpt><trkpt lat="43.3150617" lon="2.383225"><ele>232.0</ele><time>2026-04-06T16:09:36.705Z</time></trkpt><trkpt lat="43.315075" lon="2.3834733"><ele>232.0</ele><time>2026-04-06T16:09:37.706Z</time></trkpt><trkpt lat="43.3150883" lon="2.3837183"><ele>232.0</ele><time>2026-04-06T16:09:38.705Z</time></trkpt><trkpt lat="43.3151033" lon="2.3839767"><ele>232.0</ele><time>2026-04-06T16:09:39.702Z</time></trkpt><trkpt lat="43.3151017" lon="2.38423"><ele>231.0</ele><time>2026-04-06T16:09:40.704Z</time></trkpt><trkpt lat="43.3150633" lon="2.38448"><ele>230.0</ele><time>2026-04-06T16:09:41.706Z</time></trkpt><trkpt lat="43.314975" lon="2.3847183"><ele>229.0</ele><time>2026-04-06T16:09:42.698Z</time></trkpt><trkpt lat="43.3148833" lon="2.38495"><ele>227.66666666666666</ele><time>2026-04-06T16:09:43.703Z</time></trkpt><trkpt lat="43.314795" lon="2.38518"><ele>226.33333333333331</ele><time>2026-04-06T16:09:44.704Z</time></trkpt><trkpt lat="43.31471" lon="2.385415"><ele>225.0</ele><time>2026-04-06T16:09:45.701Z</time></trkpt><trkpt lat="43.3146317" lon="2.3856483"><ele>222.0</ele><time>2026-04-06T16:09:46.702Z</time></trkpt><trkpt lat="43.314555" lon="2.385885"><ele>219.0</ele><time>2026-04-06T16:09:47.704Z</time></trkpt><trkpt lat="43.31449" lon="2.3861167"><ele>216.0</ele><time>2026-04-06T16:09:48.706Z</time></trkpt><trkpt lat="43.314435" lon="2.3863517"><ele>215.66666666666669</ele><time>2026-04-06T16:09:49.702Z</time></trkpt><trkpt lat="43.3143933" lon="2.3865983"><ele>215.33333333333334</ele><time>2026-04-06T16:09:50.705Z</time></trkpt><trkpt lat="43.3143733" lon="2.3868467"><ele>215.0</ele><time>2026-04-06T16:09:51.705Z</time></trkpt><trkpt lat="43.314365" lon="2.3871"><ele>212.33333333333334</ele><time>2026-04-06T16:09:52.705Z</time></trkpt><trkpt lat="43.3143733" lon="2.3873517"><ele>209.66666666666669</ele><time>2026-04-06T16:09:53.704Z</time></trkpt><trkpt lat="43.3143867" lon="2.387595"><ele>207.0</ele><time>2026-04-06T16:09:54.705Z</time></trkpt><trkpt lat="43.3144117" lon="2.3878283"><ele>205.33333333333331</ele><time>2026-04-06T16:09:55.703Z</time></trkpt><trkpt lat="43.3144583" lon="2.3880467"><ele>203.66666666666666</ele><time>2026-04-06T16:09:56.705Z</time></trkpt><trkpt lat="43.314515" lon="2.3882433"><ele>202.0</ele><time>2026-04-06T16:09:57.702Z</time></trkpt><trkpt lat="43.3145617" lon="2.3884267"><ele>202.0</ele><time>2026-04-06T16:09:58.706Z</time></trkpt><trkpt lat="43.3145783" lon="2.3886117"><ele>202.0</ele><time>2026-04-06T16:09:59.697Z</time></trkpt><trkpt lat="43.314565" lon="2.3888017"><ele>202.0</ele><time>2026-04-06T16:10:00.704Z</time></trkpt><trkpt lat="43.3145167" lon="2.3889983"><ele>202.0</ele><time>2026-04-06T16:10:01.704Z</time></trkpt><trkpt lat="43.314425" lon="2.3891633"><ele>201.66666666666666</ele><time>2026-04-06T16:10:02.702Z</time></trkpt><trkpt lat="43.3143417" lon="2.3893517"><ele>201.33333333333331</ele><time>2026-04-06T16:10:03.704Z</time></trkpt><trkpt lat="43.314275" lon="2.38957"><ele>201.0</ele><time>2026-04-06T16:10:04.702Z</time></trkpt><trkpt lat="43.3142333" lon="2.3898017"><ele>201.0</ele><time>2026-04-06T16:10:05.704Z</time></trkpt><trkpt lat="43.3141933" lon="2.3900383"><ele>201.0</ele><time>2026-04-06T16:10:06.703Z</time></trkpt><trkpt lat="43.3141317" lon="2.390265"><ele>201.0</ele><time>2026-04-06T16:10:07.704Z</time></trkpt><trkpt lat="43.31404" lon="2.3904717"><ele>199.66666666666669</ele><time>2026-04-06T16:10:08.703Z</time></trkpt><trkpt lat="43.3139283" lon="2.3906467"><ele>198.33333333333334</ele><time>2026-04-06T16:10:09.705Z</time></trkpt><trkpt lat="43.3138133" lon="2.390795"><ele>197.0</ele><time>2026-04-06T16:10:10.704Z</time></trkpt><trkpt lat="43.3137017" lon="2.3909233"><ele>195.75</ele><time>2026-04-06T16:10:11.704Z</time></trkpt><trkpt lat="43.313615" lon="2.3910533"><ele>194.5</ele><time>2026-04-06T16:10:12.705Z</time></trkpt><trkpt lat="43.3135683" lon="2.391195"><ele>193.25</ele><time>2026-04-06T16:10:13.703Z</time></trkpt><trkpt lat="43.3135683" lon="2.3913417"><ele>192.0</ele><time>2026-04-06T16:10:14.703Z</time></trkpt><trkpt lat="43.3136117" lon="2.391495"><ele>190.75</ele><time>2026-04-06T16:10:15.702Z</time></trkpt><trkpt lat="43.3137017" lon="2.3916167"><ele>189.5</ele><time>2026-04-06T16:10:16.703Z</time></trkpt><trkpt lat="43.3138267" lon="2.3916567"><ele>188.25</ele><time>2026-04-06T16:10:17.704Z</time></trkpt><trkpt lat="43.3139683" lon="2.3916283"><ele>187.0</ele><time>2026-04-06T16:10:18.705Z</time></trkpt><trkpt lat="43.314125" lon="2.39156"><ele>187.0</ele><time>2026-04-06T16:10:19.704Z</time></trkpt><trkpt lat="43.3142867" lon="2.391495"><ele>187.0</ele><time>2026-04-06T16:10:20.704Z</time></trkpt><trkpt lat="43.314445" lon="2.39148"><ele>187.0</ele><time>2026-04-06T16:10:21.702Z</time></trkpt><trkpt lat="43.3146033" lon="2.391485"><ele>185.0</ele><time>2026-04-06T16:10:22.706Z</time></trkpt><trkpt lat="43.3147567" lon="2.39148"><ele>183.0</ele><time>2026-04-06T16:10:23.703Z</time></trkpt><trkpt lat="43.314905" lon="2.3914333"><ele>181.0</ele><time>2026-04-06T16:10:24.704Z</time></trkpt><trkpt lat="43.3150483" lon="2.391325"><ele>185.66666666666669</ele><time>2026-04-06T16:10:25.703Z</time></trkpt><trkpt lat="43.3152" lon="2.3911883"><ele>190.33333333333334</ele><time>2026-04-06T16:10:26.705Z</time></trkpt><trkpt lat="43.3153667" lon="2.3910717"><ele>195.0</ele><time>2026-04-06T16:10:27.705Z</time></trkpt><trkpt lat="43.3155417" lon="2.390975"><ele>191.66666666666666</ele><time>2026-04-06T16:10:28.706Z</time></trkpt><trkpt lat="43.31571" lon="2.3908783"><ele>188.33333333333331</ele><time>2026-04-06T16:10:29.706Z</time></trkpt><trkpt lat="43.31587" lon="2.3907833"><ele>185.0</ele><time>2026-04-06T16:10:30.696Z</time></trkpt><trkpt lat="43.3160233" lon="2.390675"><ele>185.0</ele><time>2026-04-06T16:10:31.702Z</time></trkpt><trkpt lat="43.3161533" lon="2.3905467"><ele>185.0</ele><time>2026-04-06T16:10:32.707Z</time></trkpt><trkpt lat="43.316265" lon="2.390395"><ele>185.0</ele><time>2026-04-06T16:10:33.702Z</time></trkpt><trkpt lat="43.3163367" lon="2.39023"><ele>184.4</ele><time>2026-04-06T16:10:34.706Z</time></trkpt><trkpt lat="43.3163917" lon="2.3900817"><ele>183.8</ele><time>2026-04-06T16:10:35.705Z</time></trkpt><trkpt lat="43.31643" lon="2.3899417"><ele>183.2</ele><time>2026-04-06T16:10:36.698Z</time></trkpt><trkpt lat="43.3164683" lon="2.3898333"><ele>182.6</ele><time>2026-04-06T16:10:37.705Z</time></trkpt><trkpt lat="43.316505" lon="2.3897283"><ele>182.0</ele><time>2026-04-06T16:10:38.705Z</time></trkpt><trkpt lat="43.3165883" lon="2.38981"><ele>182.0</ele><time>2026-04-06T16:10:40.702Z</time></trkpt><trkpt lat="43.3165783" lon="2.3898983"><ele>182.0</ele><time>2026-04-06T16:10:41.705Z</time></trkpt><trkpt lat="43.3165667" lon="2.389985"><ele>182.0</ele><time>2026-04-06T16:10:42.703Z</time></trkpt><trkpt lat="43.3165417" lon="2.3900767"><ele>182.0</ele><time>2026-04-06T16:10:43.701Z</time></trkpt><trkpt lat="43.3165117" lon="2.39018"><ele>182.0</ele><time>2026-04-06T16:10:44.701Z</time></trkpt><trkpt lat="43.316475" lon="2.390295"><ele>182.0</ele><time>2026-04-06T16:10:45.704Z</time></trkpt><trkpt lat="43.31642" lon="2.3904133"><ele>182.75</ele><time>2026-04-06T16:10:46.706Z</time></trkpt><trkpt lat="43.3163567" lon="2.3905383"><ele>183.5</ele><time>2026-04-06T16:10:47.701Z</time></trkpt><trkpt lat="43.3162833" lon="2.39067"><ele>184.25</ele><time>2026-04-06T16:10:48.705Z</time></trkpt><trkpt lat="43.3161883" lon="2.3907833"><ele>185.0</ele><time>2026-04-06T16:10:49.7Z</time></trkpt><trkpt lat="43.3160767" lon="2.3908883"><ele>185.0</ele><time>2026-04-06T16:10:50.707Z</time></trkpt><trkpt lat="43.3159617" lon="2.3910017"><ele>185.0</ele><time>2026-04-06T16:10:51.702Z</time></trkpt><trkpt lat="43.315835" lon="2.39111"><ele>185.0</ele><time>2026-04-06T16:10:52.703Z</time></trkpt><trkpt lat="43.31571" lon="2.39123"><ele>185.0</ele><time>2026-04-06T16:10:53.705Z</time></trkpt><trkpt lat="43.315595" lon="2.3913583"><ele>183.66666666666666</ele><time>2026-04-06T16:10:54.704Z</time></trkpt><trkpt lat="43.31548" lon="2.3914783"><ele>182.33333333333334</ele><time>2026-04-06T16:10:55.7Z</time></trkpt><trkpt lat="43.3153667" lon="2.3916067"><ele>181.0</ele><time>2026-04-06T16:10:56.705Z</time></trkpt><trkpt lat="43.3152367" lon="2.3917383"><ele>181.0</ele><time>2026-04-06T16:10:57.703Z</time></trkpt><trkpt lat="43.31509" lon="2.3918583"><ele>181.0</ele><time>2026-04-06T16:10:58.701Z</time></trkpt><trkpt lat="43.314945" lon="2.3919617"><ele>181.0</ele><time>2026-04-06T16:10:59.702Z</time></trkpt><trkpt lat="43.314805" lon="2.3920583"><ele>180.0</ele><time>2026-04-06T16:11:00.702Z</time></trkpt><trkpt lat="43.3146683" lon="2.3921433"><ele>179.0</ele><time>2026-04-06T16:11:01.705Z</time></trkpt><trkpt lat="43.3145317" lon="2.3922217"><ele>178.0</ele><time>2026-04-06T16:11:02.704Z</time></trkpt><trkpt lat="43.3144" lon="2.392315"><ele>177.0</ele><time>2026-04-06T16:11:03.703Z</time></trkpt><trkpt lat="43.3142683" lon="2.3924267"><ele>177.0</ele><time>2026-04-06T16:11:04.7Z</time></trkpt><trkpt lat="43.3141433" lon="2.39256"><ele>177.0</ele><time>2026-04-06T16:11:05.703Z</time></trkpt><trkpt lat="43.3140267" lon="2.392715"><ele>177.0</ele><time>2026-04-06T16:11:06.705Z</time></trkpt><trkpt lat="43.31391" lon="2.392875"><ele>176.66666666666666</ele><time>2026-04-06T16:11:07.705Z</time></trkpt><trkpt lat="43.3137867" lon="2.39302"><ele>176.33333333333331</ele><time>2026-04-06T16:11:08.704Z</time></trkpt><trkpt lat="43.3136617" lon="2.3931767"><ele>176.0</ele><time>2026-04-06T16:11:09.702Z</time></trkpt><trkpt lat="43.3135517" lon="2.3933267"><ele>176.0</ele><time>2026-04-06T16:11:10.703Z</time></trkpt><trkpt lat="43.313465" lon="2.3934817"><ele>176.0</ele><time>2026-04-06T16:11:11.705Z</time></trkpt><trkpt lat="43.3133783" lon="2.39364"><ele>176.0</ele><time>2026-04-06T16:11:12.701Z</time></trkpt><trkpt lat="43.3132783" lon="2.3937833"><ele>176.0</ele><time>2026-04-06T16:11:13.701Z</time></trkpt><trkpt lat="43.3131583" lon="2.3938917"><ele>173.0</ele><time>2026-04-06T16:11:14.701Z</time></trkpt><trkpt lat="43.31301" lon="2.3939517"><ele>170.0</ele><time>2026-04-06T16:11:15.705Z</time></trkpt><trkpt lat="43.3128483" lon="2.3939717"><ele>167.0</ele><time>2026-04-06T16:11:16.701Z</time></trkpt><trkpt lat="43.31268" lon="2.3939783"><ele>167.0</ele><time>2026-04-06T16:11:17.703Z</time></trkpt><trkpt lat="43.3125133" lon="2.39397"><ele>167.0</ele><time>2026-04-06T16:11:18.702Z</time></trkpt><trkpt lat="43.3123467" lon="2.393965"><ele>167.0</ele><time>2026-04-06T16:11:19.703Z</time></trkpt><trkpt lat="43.3121783" lon="2.39396"><ele>166.33333333333331</ele><time>2026-04-06T16:11:20.703Z</time></trkpt><trkpt lat="43.3120117" lon="2.393935"><ele>165.66666666666666</ele><time>2026-04-06T16:11:21.704Z</time></trkpt><trkpt lat="43.31186" lon="2.39387"><ele>165.0</ele><time>2026-04-06T16:11:22.702Z</time></trkpt><trkpt lat="43.3117167" lon="2.3937733"><ele>165.66666666666666</ele><time>2026-04-06T16:11:23.703Z</time></trkpt><trkpt lat="43.311565" lon="2.3936867"><ele>166.33333333333331</ele><time>2026-04-06T16:11:24.705Z</time></trkpt><trkpt lat="43.3114133" lon="2.39359"><ele>167.0</ele><time>2026-04-06T16:11:25.702Z</time></trkpt><trkpt lat="43.3112683" lon="2.3935"><ele>167.0</ele><time>2026-04-06T16:11:26.7Z</time></trkpt><trkpt lat="43.3111333" lon="2.393425"><ele>167.0</ele><time>2026-04-06T16:11:27.705Z</time></trkpt><trkpt lat="43.3109983" lon="2.3933733"><ele>167.0</ele><time>2026-04-06T16:11:28.704Z</time></trkpt><trkpt lat="43.310865" lon="2.39332"><ele>167.0</ele><time>2026-04-06T16:11:29.705Z</time></trkpt><trkpt lat="43.310735" lon="2.3932683"><ele>167.0</ele><time>2026-04-06T16:11:30.704Z</time></trkpt><trkpt lat="43.310605" lon="2.3932167"><ele>167.0</ele><time>2026-04-06T16:11:31.702Z</time></trkpt><trkpt lat="43.3104733" lon="2.393155"><ele>167.0</ele><time>2026-04-06T16:11:32.702Z</time></trkpt><trkpt lat="43.3103417" lon="2.3930833"><ele>167.0</ele><time>2026-04-06T16:11:33.702Z</time></trkpt><trkpt lat="43.31023" lon="2.3929833"><ele>167.25</ele><time>2026-04-06T16:11:34.701Z</time></trkpt><trkpt lat="43.310125" lon="2.3928883"><ele>167.5</ele><time>2026-04-06T16:11:35.704Z</time></trkpt><trkpt lat="43.3100233" lon="2.3928"><ele>167.75</ele><time>2026-04-06T16:11:36.705Z</time></trkpt><trkpt lat="43.3099167" lon="2.3927283"><ele>168.0</ele><time>2026-04-06T16:11:37.704Z</time></trkpt><trkpt lat="43.3098" lon="2.3926633"><ele>168.66666666666666</ele><time>2026-04-06T16:11:38.704Z</time></trkpt><trkpt lat="43.3096767" lon="2.39262"><ele>169.33333333333331</ele><time>2026-04-06T16:11:39.702Z</time></trkpt><trkpt lat="43.309515" lon="2.3925967"><ele>170.0</ele><time>2026-04-06T16:11:40.702Z</time></trkpt><trkpt lat="43.3093533" lon="2.3925883"><ele>170.0</ele><time>2026-04-06T16:11:41.702Z</time></trkpt><trkpt lat="43.3091617" lon="2.3926067"><ele>170.0</ele><time>2026-04-06T16:11:42.703Z</time></trkpt><trkpt lat="43.3089617" lon="2.3926067"><ele>170.0</ele><time>2026-04-06T16:11:43.701Z</time></trkpt><trkpt lat="43.30877" lon="2.3926"><ele>169.33333333333331</ele><time>2026-04-06T16:11:44.704Z</time></trkpt><trkpt lat="43.3085717" lon="2.39258"><ele>168.66666666666666</ele><time>2026-04-06T16:11:45.704Z</time></trkpt><trkpt lat="43.30838" lon="2.3925483"><ele>168.0</ele><time>2026-04-06T16:11:46.701Z</time></trkpt><trkpt lat="43.3081917" lon="2.39251"><ele>165.66666666666666</ele><time>2026-04-06T16:11:47.703Z</time></trkpt><trkpt lat="43.3080117" lon="2.3924517"><ele>163.33333333333331</ele><time>2026-04-06T16:11:48.702Z</time></trkpt><trkpt lat="43.3078283" lon="2.392405"><ele>161.0</ele><time>2026-04-06T16:11:49.703Z</time></trkpt><trkpt lat="43.3076583" lon="2.39235"><ele>161.0</ele><time>2026-04-06T16:11:50.699Z</time></trkpt><trkpt lat="43.3074733" lon="2.392355"><ele>161.0</ele><time>2026-04-06T16:11:51.701Z</time></trkpt><trkpt lat="43.307305" lon="2.3923733"><ele>161.0</ele><time>2026-04-06T16:11:52.702Z</time></trkpt><trkpt lat="43.3071283" lon="2.39249"><ele>162.5</ele><time>2026-04-06T16:11:53.705Z</time></trkpt><trkpt lat="43.3069317" lon="2.392635"><ele>164.0</ele><time>2026-04-06T16:11:54.703Z</time></trkpt><trkpt lat="43.3067333" lon="2.392795"><ele>164.0</ele><time>2026-04-06T16:11:55.7Z</time></trkpt><trkpt lat="43.306535" lon="2.392955"><ele>164.0</ele><time>2026-04-06T16:11:56.703Z</time></trkpt><trkpt lat="43.306345" lon="2.3931367"><ele>163.0</ele><time>2026-04-06T16:11:57.704Z</time></trkpt><trkpt lat="43.30615" lon="2.393305"><ele>162.0</ele><time>2026-04-06T16:11:58.704Z</time></trkpt><trkpt lat="43.3059483" lon="2.3934417"><ele>162.0</ele><time>2026-04-06T16:11:59.704Z</time></trkpt><trkpt lat="43.3057267" lon="2.39355"><ele>162.0</ele><time>2026-04-06T16:12:00.707Z</time></trkpt><trkpt lat="43.305495" lon="2.39362"><ele>163.0</ele><time>2026-04-06T16:12:01.704Z</time></trkpt><trkpt lat="43.305255" lon="2.3936467"><ele>164.0</ele><time>2026-04-06T16:12:02.703Z</time></trkpt><trkpt lat="43.305015" lon="2.3936683"><ele>164.0</ele><time>2026-04-06T16:12:03.706Z</time></trkpt><trkpt lat="43.3047867" lon="2.39368"><ele>164.0</ele><time>2026-04-06T16:12:04.702Z</time></trkpt><trkpt lat="43.3045467" lon="2.3937183"><ele>164.0</ele><time>2026-04-06T16:12:05.703Z</time></trkpt><trkpt lat="43.30431" lon="2.3937867"><ele>164.0</ele><time>2026-04-06T16:12:06.701Z</time></trkpt><trkpt lat="43.3040783" lon="2.39388"><ele>165.5</ele><time>2026-04-06T16:12:07.705Z</time></trkpt><trkpt lat="43.3038483" lon="2.393985"><ele>167.0</ele><time>2026-04-06T16:12:08.703Z</time></trkpt><trkpt lat="43.3036267" lon="2.3940817"><ele>167.0</ele><time>2026-04-06T16:12:09.702Z</time></trkpt><trkpt lat="43.303405" lon="2.3941683"><ele>167.0</ele><time>2026-04-06T16:12:10.702Z</time></trkpt><trkpt lat="43.3031733" lon="2.3942533"><ele>167.0</ele><time>2026-04-06T16:12:11.702Z</time></trkpt><trkpt lat="43.3029367" lon="2.3943167"><ele>167.0</ele><time>2026-04-06T16:12:12.704Z</time></trkpt><trkpt lat="43.3027" lon="2.3943683"><ele>167.0</ele><time>2026-04-06T16:12:13.704Z</time></trkpt><trkpt lat="43.302465" lon="2.3944117"><ele>167.0</ele><time>2026-04-06T16:12:14.703Z</time></trkpt><trkpt lat="43.3022383" lon="2.3944367"><ele>170.5</ele><time>2026-04-06T16:12:15.704Z</time></trkpt><trkpt lat="43.3020117" lon="2.3944767"><ele>174.0</ele><time>2026-04-06T16:12:16.704Z</time></trkpt><trkpt lat="43.3017867" lon="2.3945167"><ele>174.0</ele><time>2026-04-06T16:12:17.703Z</time></trkpt><trkpt lat="43.3015667" lon="2.3945567"><ele>174.0</ele><time>2026-04-06T16:12:18.703Z</time></trkpt><trkpt lat="43.3013417" lon="2.394625"><ele>170.0</ele><time>2026-04-06T16:12:19.705Z</time></trkpt><trkpt lat="43.3011167" lon="2.3947"><ele>166.0</ele><time>2026-04-06T16:12:20.705Z</time></trkpt><trkpt lat="43.30091" lon="2.3947833"><ele>162.0</ele><time>2026-04-06T16:12:21.706Z</time></trkpt><trkpt lat="43.3007167" lon="2.3949433"><ele>164.5</ele><time>2026-04-06T16:12:22.705Z</time></trkpt><trkpt lat="43.3005167" lon="2.3950833"><ele>167.0</ele><time>2026-04-06T16:12:23.705Z</time></trkpt><trkpt lat="43.300305" lon="2.3952033"><ele>167.0</ele><time>2026-04-06T16:12:24.704Z</time></trkpt><trkpt lat="43.30008" lon="2.3953067"><ele>167.0</ele><time>2026-04-06T16:12:25.704Z</time></trkpt><trkpt lat="43.2998633" lon="2.3953967"><ele>165.0</ele><time>2026-04-06T16:12:26.705Z</time></trkpt><trkpt lat="43.2996417" lon="2.39551"><ele>163.0</ele><time>2026-04-06T16:12:27.699Z</time></trkpt><trkpt lat="43.29943" lon="2.3956333"><ele>163.0</ele><time>2026-04-06T16:12:28.705Z</time></trkpt><trkpt lat="43.29923" lon="2.3957783"><ele>163.0</ele><time>2026-04-06T16:12:29.705Z</time></trkpt><trkpt lat="43.2990433" lon="2.3959283"><ele>163.0</ele><time>2026-04-06T16:12:30.706Z</time></trkpt><trkpt lat="43.2988633" lon="2.396135"><ele>166.0</ele><time>2026-04-06T16:12:31.706Z</time></trkpt><trkpt lat="43.298695" lon="2.39641"><ele>169.0</ele><time>2026-04-06T16:12:32.708Z</time></trkpt><trkpt lat="43.2985433" lon="2.39668"><ele>169.0</ele><time>2026-04-06T16:12:33.706Z</time></trkpt><trkpt lat="43.29841" lon="2.396945"><ele>169.0</ele><time>2026-04-06T16:12:34.705Z</time></trkpt><trkpt lat="43.2982833" lon="2.397225"><ele>166.0</ele><time>2026-04-06T16:12:35.704Z</time></trkpt><trkpt lat="43.2981533" lon="2.3975033"><ele>163.0</ele><time>2026-04-06T16:12:36.706Z</time></trkpt><trkpt lat="43.2980167" lon="2.39777"><ele>165.33333333333334</ele><time>2026-04-06T16:12:37.705Z</time></trkpt><trkpt lat="43.29787" lon="2.3980017"><ele>167.66666666666666</ele><time>2026-04-06T16:12:38.707Z</time></trkpt><trkpt lat="43.29772" lon="2.3982217"><ele>170.0</ele><time>2026-04-06T16:12:39.705Z</time></trkpt><trkpt lat="43.2975667" lon="2.3984433"><ele>170.0</ele><time>2026-04-06T16:12:40.706Z</time></trkpt><trkpt lat="43.2974083" lon="2.398675"><ele>170.0</ele><time>2026-04-06T16:12:41.705Z</time></trkpt><trkpt lat="43.2972667" lon="2.3989367"><ele>175.5</ele><time>2026-04-06T16:12:42.704Z</time></trkpt><trkpt lat="43.2971333" lon="2.39921"><ele>181.0</ele><time>2026-04-06T16:12:43.705Z</time></trkpt><trkpt lat="43.2970083" lon="2.399495"><ele>175.0</ele><time>2026-04-06T16:12:44.702Z</time></trkpt><trkpt lat="43.2968833" lon="2.3997567"><ele>169.0</ele><time>2026-04-06T16:12:45.699Z</time></trkpt><trkpt lat="43.2967583" lon="2.4000117"><ele>169.0</ele><time>2026-04-06T16:12:46.703Z</time></trkpt><trkpt lat="43.2966367" lon="2.40025"><ele>169.0</ele><time>2026-04-06T16:12:47.702Z</time></trkpt><trkpt lat="43.2965017" lon="2.400465"><ele>169.0</ele><time>2026-04-06T16:12:48.704Z</time></trkpt><trkpt lat="43.296335" lon="2.4006317"><ele>168.0</ele><time>2026-04-06T16:12:49.703Z</time></trkpt><trkpt lat="43.2961633" lon="2.4007667"><ele>167.0</ele><time>2026-04-06T16:12:50.708Z</time></trkpt><trkpt lat="43.2960017" lon="2.4008967"><ele>166.0</ele><time>2026-04-06T16:12:51.703Z</time></trkpt><trkpt lat="43.2958533" lon="2.4010433"><ele>166.0</ele><time>2026-04-06T16:12:52.706Z</time></trkpt><trkpt lat="43.2957117" lon="2.4011983"><ele>166.0</ele><time>2026-04-06T16:12:53.701Z</time></trkpt><trkpt lat="43.2956233" lon="2.4013717"><ele>166.0</ele><time>2026-04-06T16:12:54.706Z</time></trkpt><trkpt lat="43.2955167" lon="2.4015267"><ele>164.66666666666669</ele><time>2026-04-06T16:12:55.704Z</time></trkpt><trkpt lat="43.2954017" lon="2.4016533"><ele>163.33333333333334</ele><time>2026-04-06T16:12:56.703Z</time></trkpt><trkpt lat="43.2952567" lon="2.4017133"><ele>162.0</ele><time>2026-04-06T16:12:57.704Z</time></trkpt><trkpt lat="43.2951" lon="2.40175"><ele>162.0</ele><time>2026-04-06T16:12:58.705Z</time></trkpt><trkpt lat="43.2949217" lon="2.40174"><ele>162.0</ele><time>2026-04-06T16:12:59.703Z</time></trkpt><trkpt lat="43.29474" lon="2.4017233"><ele>162.0</ele><time>2026-04-06T16:13:00.704Z</time></trkpt><trkpt lat="43.2945583" lon="2.4017017"><ele>161.66666666666666</ele><time>2026-04-06T16:13:01.706Z</time></trkpt><trkpt lat="43.2943667" lon="2.4017167"><ele>161.33333333333331</ele><time>2026-04-06T16:13:02.706Z</time></trkpt><trkpt lat="43.2941717" lon="2.4017817"><ele>161.0</ele><time>2026-04-06T16:13:03.703Z</time></trkpt><trkpt lat="43.2939733" lon="2.401865"><ele>160.66666666666666</ele><time>2026-04-06T16:13:04.705Z</time></trkpt><trkpt lat="43.2937633" lon="2.4019883"><ele>160.33333333333334</ele><time>2026-04-06T16:13:05.697Z</time></trkpt><trkpt lat="43.293555" lon="2.402085"><ele>160.0</ele><time>2026-04-06T16:13:06.707Z</time></trkpt><trkpt lat="43.293335" lon="2.4021717"><ele>157.5</ele><time>2026-04-06T16:13:07.705Z</time></trkpt><trkpt lat="43.2931017" lon="2.4022433"><ele>155.0</ele><time>2026-04-06T16:13:08.705Z</time></trkpt><trkpt lat="43.2928683" lon="2.4022633"><ele>155.0</ele><time>2026-04-06T16:13:09.703Z</time></trkpt><trkpt lat="43.292635" lon="2.4022433"><ele>155.0</ele><time>2026-04-06T16:13:10.701Z</time></trkpt><trkpt lat="43.2924067" lon="2.4021733"><ele>154.5</ele><time>2026-04-06T16:13:11.707Z</time></trkpt><trkpt lat="43.2921767" lon="2.4020667"><ele>154.0</ele><time>2026-04-06T16:13:12.706Z</time></trkpt><trkpt lat="43.2919533" lon="2.40194"><ele>154.0</ele><time>2026-04-06T16:13:13.706Z</time></trkpt><trkpt lat="43.2917367" lon="2.4018017"><ele>154.0</ele><time>2026-04-06T16:13:14.702Z</time></trkpt><trkpt lat="43.2915283" lon="2.40166"><ele>151.5</ele><time>2026-04-06T16:13:15.705Z</time></trkpt><trkpt lat="43.2913217" lon="2.4015133"><ele>149.0</ele><time>2026-04-06T16:13:16.704Z</time></trkpt><trkpt lat="43.2911267" lon="2.4013533"><ele>149.66666666666666</ele><time>2026-04-06T16:13:17.705Z</time></trkpt><trkpt lat="43.2909433" lon="2.4011883"><ele>150.33333333333334</ele><time>2026-04-06T16:13:18.705Z</time></trkpt><trkpt lat="43.2907733" lon="2.4010083"><ele>151.0</ele><time>2026-04-06T16:13:19.703Z</time></trkpt><trkpt lat="43.2906183" lon="2.4008233"><ele>151.33333333333334</ele><time>2026-04-06T16:13:20.706Z</time></trkpt><trkpt lat="43.29048" lon="2.40064"><ele>151.66666666666666</ele><time>2026-04-06T16:13:21.701Z</time></trkpt><trkpt lat="43.2903533" lon="2.40046"><ele>152.0</ele><time>2026-04-06T16:13:22.703Z</time></trkpt><trkpt lat="43.2902233" lon="2.4002967"><ele>152.0</ele><time>2026-04-06T16:13:23.704Z</time></trkpt><trkpt lat="43.290085" lon="2.40015"><ele>152.0</ele><time>2026-04-06T16:13:24.708Z</time></trkpt><trkpt lat="43.28994" lon="2.40001"><ele>152.0</ele><time>2026-04-06T16:13:25.704Z</time></trkpt><trkpt lat="43.2897983" lon="2.399895"><ele>152.66666666666666</ele><time>2026-04-06T16:13:26.707Z</time></trkpt><trkpt lat="43.2896567" lon="2.399775"><ele>153.33333333333334</ele><time>2026-04-06T16:13:27.703Z</time></trkpt><trkpt lat="43.2895167" lon="2.3996783"><ele>154.0</ele><time>2026-04-06T16:13:28.704Z</time></trkpt><trkpt lat="43.2893567" lon="2.399615"><ele>154.0</ele><time>2026-04-06T16:13:29.703Z</time></trkpt><trkpt lat="43.2891867" lon="2.39959"><ele>154.0</ele><time>2026-04-06T16:13:30.707Z</time></trkpt><trkpt lat="43.2889967" lon="2.39961"><ele>154.0</ele><time>2026-04-06T16:13:31.706Z</time></trkpt><trkpt lat="43.2887817" lon="2.39966"><ele>149.0</ele><time>2026-04-06T16:13:32.696Z</time></trkpt><trkpt lat="43.2885567" lon="2.3997067"><ele>144.0</ele><time>2026-04-06T16:13:33.704Z</time></trkpt><trkpt lat="43.2883233" lon="2.39974"><ele>145.0</ele><time>2026-04-06T16:13:34.7Z</time></trkpt><trkpt lat="43.2880917" lon="2.3997417"><ele>146.0</ele><time>2026-04-06T16:13:35.7Z</time></trkpt><trkpt lat="43.287875" lon="2.39975"><ele>147.0</ele><time>2026-04-06T16:13:36.705Z</time></trkpt><trkpt lat="43.287665" lon="2.3997567"><ele>147.0</ele><time>2026-04-06T16:13:37.7Z</time></trkpt><trkpt lat="43.28747" lon="2.3997583"><ele>147.0</ele><time>2026-04-06T16:13:38.703Z</time></trkpt><trkpt lat="43.2872733" lon="2.3997733"><ele>147.0</ele><time>2026-04-06T16:13:39.702Z</time></trkpt><trkpt lat="43.2870783" lon="2.3998033"><ele>148.33333333333334</ele><time>2026-04-06T16:13:40.701Z</time></trkpt><trkpt lat="43.286895" lon="2.399855"><ele>149.66666666666669</ele><time>2026-04-06T16:13:41.7Z</time></trkpt><trkpt lat="43.28673" lon="2.3999383"><ele>151.0</ele><time>2026-04-06T16:13:42.701Z</time></trkpt><trkpt lat="43.28658" lon="2.4000567"><ele>151.0</ele><time>2026-04-06T16:13:43.701Z</time></trkpt><trkpt lat="43.2864433" lon="2.4002017"><ele>151.0</ele><time>2026-04-06T16:13:44.706Z</time></trkpt><trkpt lat="43.2863367" lon="2.4003533"><ele>151.0</ele><time>2026-04-06T16:13:45.704Z</time></trkpt><trkpt lat="43.2862517" lon="2.400525"><ele>150.25</ele><time>2026-04-06T16:13:46.703Z</time></trkpt><trkpt lat="43.2861883" lon="2.4007183"><ele>149.5</ele><time>2026-04-06T16:13:47.704Z</time></trkpt><trkpt lat="43.2861383" lon="2.400915"><ele>148.75</ele><time>2026-04-06T16:13:48.705Z</time></trkpt><trkpt lat="43.2861" lon="2.4011017"><ele>148.0</ele><time>2026-04-06T16:13:49.703Z</time></trkpt><trkpt lat="43.286025" lon="2.4012433"><ele>146.75</ele><time>2026-04-06T16:13:50.705Z</time></trkpt><trkpt lat="43.285935" lon="2.4013617"><ele>145.5</ele><time>2026-04-06T16:13:51.702Z</time></trkpt><trkpt lat="43.2858367" lon="2.4014467"><ele>144.25</ele><time>2026-04-06T16:13:52.706Z</time></trkpt><trkpt lat="43.2857167" lon="2.4014767"><ele>143.0</ele><time>2026-04-06T16:13:53.703Z</time></trkpt><trkpt lat="43.2855783" lon="2.4014767"><ele>142.66666666666666</ele><time>2026-04-06T16:13:54.702Z</time></trkpt><trkpt lat="43.2854483" lon="2.4014283"><ele>142.33333333333334</ele><time>2026-04-06T16:13:55.701Z</time></trkpt><trkpt lat="43.2853083" lon="2.4013583"><ele>142.0</ele><time>2026-04-06T16:13:56.702Z</time></trkpt><trkpt lat="43.285135" lon="2.4012833"><ele>142.0</ele><time>2026-04-06T16:13:57.699Z</time></trkpt><trkpt lat="43.28494" lon="2.40121"><ele>142.0</ele><time>2026-04-06T16:13:58.703Z</time></trkpt><trkpt lat="43.284745" lon="2.40114"><ele>142.0</ele><time>2026-04-06T16:13:59.705Z</time></trkpt><trkpt lat="43.2845417" lon="2.4010933"><ele>141.0</ele><time>2026-04-06T16:14:00.702Z</time></trkpt><trkpt lat="43.2843383" lon="2.4010533"><ele>140.0</ele><time>2026-04-06T16:14:01.705Z</time></trkpt><trkpt lat="43.2841383" lon="2.4010117"><ele>139.0</ele><time>2026-04-06T16:14:02.705Z</time></trkpt><trkpt lat="43.28394" lon="2.4009633"><ele>137.66666666666669</ele><time>2026-04-06T16:14:03.708Z</time></trkpt><trkpt lat="43.2837433" lon="2.4009117"><ele>136.33333333333334</ele><time>2026-04-06T16:14:04.703Z</time></trkpt><trkpt lat="43.2835467" lon="2.4008617"><ele>135.0</ele><time>2026-04-06T16:14:05.705Z</time></trkpt><trkpt lat="43.283345" lon="2.40081"><ele>135.0</ele><time>2026-04-06T16:14:06.705Z</time></trkpt><trkpt lat="43.28314" lon="2.4007667"><ele>135.0</ele><time>2026-04-06T16:14:07.706Z</time></trkpt><trkpt lat="43.2829367" lon="2.400735"><ele>135.0</ele><time>2026-04-06T16:14:08.705Z</time></trkpt><trkpt lat="43.2827317" lon="2.4007167"><ele>134.66666666666666</ele><time>2026-04-06T16:14:09.704Z</time></trkpt><trkpt lat="43.2825233" lon="2.4007267"><ele>134.33333333333331</ele><time>2026-04-06T16:14:10.706Z</time></trkpt><trkpt lat="43.28232" lon="2.40077"><ele>134.0</ele><time>2026-04-06T16:14:11.704Z</time></trkpt><trkpt lat="43.2821233" lon="2.4008483"><ele>133.33333333333331</ele><time>2026-04-06T16:14:12.702Z</time></trkpt><trkpt lat="43.2819367" lon="2.40095"><ele>132.66666666666666</ele><time>2026-04-06T16:14:13.708Z</time></trkpt><trkpt lat="43.2817567" lon="2.4010533"><ele>132.0</ele><time>2026-04-06T16:14:14.704Z</time></trkpt><trkpt lat="43.28158" lon="2.4011383"><ele>131.33333333333334</ele><time>2026-04-06T16:14:15.705Z</time></trkpt><trkpt lat="43.2814033" lon="2.4012"><ele>130.66666666666669</ele><time>2026-04-06T16:14:16.704Z</time></trkpt><trkpt lat="43.2812167" lon="2.40123"><ele>130.0</ele><time>2026-04-06T16:14:17.698Z</time></trkpt><trkpt lat="43.2810217" lon="2.4012333"><ele>130.0</ele><time>2026-04-06T16:14:18.706Z</time></trkpt><trkpt lat="43.2808183" lon="2.4012133"><ele>130.0</ele><time>2026-04-06T16:14:19.706Z</time></trkpt><trkpt lat="43.28061" lon="2.4011783"><ele>130.0</ele><time>2026-04-06T16:14:20.704Z</time></trkpt><trkpt lat="43.2803983" lon="2.4011417"><ele>130.0</ele><time>2026-04-06T16:14:21.708Z</time></trkpt><trkpt lat="43.28019" lon="2.4011"><ele>130.0</ele><time>2026-04-06T16:14:22.701Z</time></trkpt><trkpt lat="43.279975" lon="2.401065"><ele>130.0</ele><time>2026-04-06T16:14:23.705Z</time></trkpt><trkpt lat="43.27976" lon="2.4010333"><ele>130.0</ele><time>2026-04-06T16:14:24.707Z</time></trkpt><trkpt lat="43.27955" lon="2.4009933"><ele>130.0</ele><time>2026-04-06T16:14:25.705Z</time></trkpt><trkpt lat="43.27934" lon="2.4009533"><ele>130.0</ele><time>2026-04-06T16:14:26.701Z</time></trkpt><trkpt lat="43.279125" lon="2.4009183"><ele>130.0</ele><time>2026-04-06T16:14:27.704Z</time></trkpt><trkpt lat="43.2789183" lon="2.4008783"><ele>130.0</ele><time>2026-04-06T16:14:28.706Z</time></trkpt><trkpt lat="43.27871" lon="2.4008367"><ele>130.0</ele><time>2026-04-06T16:14:29.703Z</time></trkpt><trkpt lat="43.2785017" lon="2.4007983"><ele>130.0</ele><time>2026-04-06T16:14:30.703Z</time></trkpt><trkpt lat="43.2782917" lon="2.4007567"><ele>130.0</ele><time>2026-04-06T16:14:31.704Z</time></trkpt><trkpt lat="43.2780883" lon="2.4007183"><ele>130.0</ele><time>2026-04-06T16:14:32.7Z</time></trkpt><trkpt lat="43.2778883" lon="2.40068"><ele>129.66666666666669</ele><time>2026-04-06T16:14:33.7Z</time></trkpt><trkpt lat="43.2776917" lon="2.400635"><ele>129.33333333333334</ele><time>2026-04-06T16:14:34.701Z</time></trkpt><trkpt lat="43.2774983" lon="2.4005883"><ele>129.0</ele><time>2026-04-06T16:14:35.702Z</time></trkpt><trkpt lat="43.277315" lon="2.4005367"><ele>128.33333333333334</ele><time>2026-04-06T16:14:36.704Z</time></trkpt><trkpt lat="43.2771383" lon="2.4004883"><ele>127.66666666666667</ele><time>2026-04-06T16:14:37.705Z</time></trkpt><trkpt lat="43.27696" lon="2.40044"><ele>127.0</ele><time>2026-04-06T16:14:38.704Z</time></trkpt><trkpt lat="43.27678" lon="2.40041"><ele>127.0</ele><time>2026-04-06T16:14:39.705Z</time></trkpt><trkpt lat="43.2765883" lon="2.4003933"><ele>127.0</ele><time>2026-04-06T16:14:40.704Z</time></trkpt><trkpt lat="43.2763817" lon="2.400375"><ele>127.0</ele><time>2026-04-06T16:14:41.701Z</time></trkpt><trkpt lat="43.2761683" lon="2.4003317"><ele>127.0</ele><time>2026-04-06T16:14:42.705Z</time></trkpt><trkpt lat="43.2759567" lon="2.4002733"><ele>127.0</ele><time>2026-04-06T16:14:43.702Z</time></trkpt><trkpt lat="43.2757483" lon="2.400205"><ele>127.0</ele><time>2026-04-06T16:14:44.704Z</time></trkpt><trkpt lat="43.2755383" lon="2.4001167"><ele>127.0</ele><time>2026-04-06T16:14:45.703Z</time></trkpt><trkpt lat="43.2753433" lon="2.4000033"><ele>127.0</ele><time>2026-04-06T16:14:46.704Z</time></trkpt><trkpt lat="43.27516" lon="2.399865"><ele>127.0</ele><time>2026-04-06T16:14:47.705Z</time></trkpt><trkpt lat="43.2749867" lon="2.3997117"><ele>127.0</ele><time>2026-04-06T16:14:48.705Z</time></trkpt><trkpt lat="43.2748317" lon="2.3995433"><ele>127.0</ele><time>2026-04-06T16:14:49.705Z</time></trkpt><trkpt lat="43.2746933" lon="2.399365"><ele>127.0</ele><time>2026-04-06T16:14:50.705Z</time></trkpt><trkpt lat="43.2745667" lon="2.3991783"><ele>127.0</ele><time>2026-04-06T16:14:51.705Z</time></trkpt><trkpt lat="43.274455" lon="2.3989767"><ele>127.0</ele><time>2026-04-06T16:14:52.701Z</time></trkpt><trkpt lat="43.2743517" lon="2.3987683"><ele>127.0</ele><time>2026-04-06T16:14:53.704Z</time></trkpt><trkpt lat="43.27426" lon="2.3985567"><ele>127.0</ele><time>2026-04-06T16:14:54.703Z</time></trkpt><trkpt lat="43.27418" lon="2.3983317"><ele>127.0</ele><time>2026-04-06T16:14:55.7Z</time></trkpt><trkpt lat="43.274105" lon="2.3980983"><ele>127.0</ele><time>2026-04-06T16:14:56.702Z</time></trkpt><trkpt lat="43.274025" lon="2.3978733"><ele>126.0</ele><time>2026-04-06T16:14:57.701Z</time></trkpt><trkpt lat="43.2739317" lon="2.3976567"><ele>125.0</ele><time>2026-04-06T16:14:58.704Z</time></trkpt><trkpt lat="43.2738467" lon="2.3974267"><ele>124.0</ele><time>2026-04-06T16:14:59.705Z</time></trkpt><trkpt lat="43.273765" lon="2.3972017"><ele>124.0</ele><time>2026-04-06T16:15:00.704Z</time></trkpt><trkpt lat="43.2736717" lon="2.3970017"><ele>124.0</ele><time>2026-04-06T16:15:01.701Z</time></trkpt><trkpt lat="43.2735483" lon="2.3968283"><ele>124.0</ele><time>2026-04-06T16:15:02.703Z</time></trkpt><trkpt lat="43.273405" lon="2.39665"><ele>124.0</ele><time>2026-04-06T16:15:03.706Z</time></trkpt><trkpt lat="43.2732417" lon="2.3964767"><ele>124.0</ele><time>2026-04-06T16:15:04.702Z</time></trkpt><trkpt lat="43.273055" lon="2.3962933"><ele>124.0</ele><time>2026-04-06T16:15:05.703Z</time></trkpt><trkpt lat="43.2728433" lon="2.39613"><ele>125.0</ele><time>2026-04-06T16:15:06.703Z</time></trkpt><trkpt lat="43.2726017" lon="2.3959933"><ele>126.0</ele><time>2026-04-06T16:15:07.706Z</time></trkpt><trkpt lat="43.2723433" lon="2.3958817"><ele>126.0</ele><time>2026-04-06T16:15:08.703Z</time></trkpt><trkpt lat="43.2720817" lon="2.395795"><ele>126.0</ele><time>2026-04-06T16:15:09.703Z</time></trkpt><trkpt lat="43.271825" lon="2.395705"><ele>126.0</ele><time>2026-04-06T16:15:10.701Z</time></trkpt><trkpt lat="43.27156" lon="2.39563"><ele>126.0</ele><time>2026-04-06T16:15:11.701Z</time></trkpt><trkpt lat="43.2712917" lon="2.3955617"><ele>126.0</ele><time>2026-04-06T16:15:12.707Z</time></trkpt><trkpt lat="43.271035" lon="2.3955017"><ele>126.0</ele><time>2026-04-06T16:15:13.704Z</time></trkpt><trkpt lat="43.2707817" lon="2.3954667"><ele>125.5</ele><time>2026-04-06T16:15:14.705Z</time></trkpt><trkpt lat="43.2705417" lon="2.3954567"><ele>125.0</ele><time>2026-04-06T16:15:15.705Z</time></trkpt><trkpt lat="43.2703017" lon="2.3954817"><ele>124.5</ele><time>2026-04-06T16:15:16.706Z</time></trkpt><trkpt lat="43.2700683" lon="2.3955533"><ele>124.0</ele><time>2026-04-06T16:15:17.702Z</time></trkpt><trkpt lat="43.2698467" lon="2.3956483"><ele>126.33333333333334</ele><time>2026-04-06T16:15:18.706Z</time></trkpt><trkpt lat="43.269645" lon="2.3957717"><ele>128.66666666666666</ele><time>2026-04-06T16:15:19.705Z</time></trkpt><trkpt lat="43.2694533" lon="2.39592"><ele>131.0</ele><time>2026-04-06T16:15:20.701Z</time></trkpt><trkpt lat="43.269275" lon="2.3960767"><ele>131.0</ele><time>2026-04-06T16:15:21.702Z</time></trkpt><trkpt lat="43.2691067" lon="2.3962367"><ele>131.0</ele><time>2026-04-06T16:15:22.704Z</time></trkpt><trkpt lat="43.2689433" lon="2.3963967"><ele>131.0</ele><time>2026-04-06T16:15:23.705Z</time></trkpt><trkpt lat="43.2687833" lon="2.3965533"><ele>130.33333333333331</ele><time>2026-04-06T16:15:24.704Z</time></trkpt><trkpt lat="43.2686233" lon="2.3967017"><ele>129.66666666666666</ele><time>2026-04-06T16:15:25.702Z</time></trkpt><trkpt lat="43.2684683" lon="2.3968433"><ele>129.0</ele><time>2026-04-06T16:15:26.703Z</time></trkpt><trkpt lat="43.2683233" lon="2.3969733"><ele>129.0</ele><time>2026-04-06T16:15:27.705Z</time></trkpt><trkpt lat="43.2681867" lon="2.3971"><ele>129.0</ele><time>2026-04-06T16:15:28.702Z</time></trkpt><trkpt lat="43.2680517" lon="2.39722"><ele>129.0</ele><time>2026-04-06T16:15:29.702Z</time></trkpt><trkpt lat="43.2679217" lon="2.39732"><ele>128.0</ele><time>2026-04-06T16:15:30.706Z</time></trkpt><trkpt lat="43.2677917" lon="2.3974133"><ele>127.0</ele><time>2026-04-06T16:15:31.702Z</time></trkpt><trkpt lat="43.267665" lon="2.397485"><ele>126.0</ele><time>2026-04-06T16:15:32.7Z</time></trkpt><trkpt lat="43.2675467" lon="2.3975217"><ele>125.0</ele><time>2026-04-06T16:15:33.705Z</time></trkpt><trkpt lat="43.2674233" lon="2.3975433"><ele>125.0</ele><time>2026-04-06T16:15:34.703Z</time></trkpt><trkpt lat="43.2673133" lon="2.3975783"><ele>125.0</ele><time>2026-04-06T16:15:35.706Z</time></trkpt><trkpt lat="43.2672017" lon="2.3976317"><ele>125.0</ele><time>2026-04-06T16:15:36.702Z</time></trkpt><trkpt lat="43.2670733" lon="2.39769"><ele>125.0</ele><time>2026-04-06T16:15:37.703Z</time></trkpt><trkpt lat="43.266925" lon="2.39772"><ele>125.33333333333333</ele><time>2026-04-06T16:15:38.703Z</time></trkpt><trkpt lat="43.2667567" lon="2.3977267"><ele>125.66666666666666</ele><time>2026-04-06T16:15:39.701Z</time></trkpt><trkpt lat="43.2665717" lon="2.3977117"><ele>126.0</ele><time>2026-04-06T16:15:40.704Z</time></trkpt><trkpt lat="43.2663717" lon="2.3976783"><ele>127.0</ele><time>2026-04-06T16:15:41.704Z</time></trkpt><trkpt lat="43.26616" lon="2.3976133"><ele>128.0</ele><time>2026-04-06T16:15:42.706Z</time></trkpt><trkpt lat="43.2659467" lon="2.3975433"><ele>129.0</ele><time>2026-04-06T16:15:43.702Z</time></trkpt><trkpt lat="43.265745" lon="2.397455"><ele>130.0</ele><time>2026-04-06T16:15:44.704Z</time></trkpt><trkpt lat="43.26554" lon="2.3973733"><ele>131.0</ele><time>2026-04-06T16:15:45.706Z</time></trkpt><trkpt lat="43.2653317" lon="2.3973033"><ele>132.0</ele><time>2026-04-06T16:15:46.708Z</time></trkpt><trkpt lat="43.2651383" lon="2.3972333"><ele>132.0</ele><time>2026-04-06T16:15:47.703Z</time></trkpt><trkpt lat="43.264945" lon="2.3972"><ele>132.0</ele><time>2026-04-06T16:15:48.706Z</time></trkpt><trkpt lat="43.2647633" lon="2.3971667"><ele>132.0</ele><time>2026-04-06T16:15:49.704Z</time></trkpt><trkpt lat="43.2645883" lon="2.3971317"><ele>132.66666666666666</ele><time>2026-04-06T16:15:50.702Z</time></trkpt><trkpt lat="43.2644167" lon="2.39709"><ele>133.33333333333331</ele><time>2026-04-06T16:15:51.705Z</time></trkpt><trkpt lat="43.2642433" lon="2.3970533"><ele>134.0</ele><time>2026-04-06T16:15:52.704Z</time></trkpt><trkpt lat="43.2640717" lon="2.39701"><ele>133.0</ele><time>2026-04-06T16:15:53.703Z</time></trkpt><trkpt lat="43.263895" lon="2.3969617"><ele>132.0</ele><time>2026-04-06T16:15:54.707Z</time></trkpt><trkpt lat="43.26371" lon="2.3969117"><ele>131.0</ele><time>2026-04-06T16:15:55.7Z</time></trkpt><trkpt lat="43.2635167" lon="2.3968583"><ele>131.0</ele><time>2026-04-06T16:15:56.705Z</time></trkpt><trkpt lat="43.2633117" lon="2.3968133"><ele>131.0</ele><time>2026-04-06T16:15:57.701Z</time></trkpt><trkpt lat="43.263105" lon="2.3967617"><ele>131.0</ele><time>2026-04-06T16:15:58.7Z</time></trkpt><trkpt lat="43.2628917" lon="2.396715"><ele>130.33333333333331</ele><time>2026-04-06T16:15:59.7Z</time></trkpt><trkpt lat="43.2626783" lon="2.39666"><ele>129.66666666666666</ele><time>2026-04-06T16:16:00.706Z</time></trkpt><trkpt lat="43.2624567" lon="2.3966083"><ele>129.0</ele><time>2026-04-06T16:16:01.705Z</time></trkpt><trkpt lat="43.2622317" lon="2.3965517"><ele>128.0</ele><time>2026-04-06T16:16:02.706Z</time></trkpt><trkpt lat="43.2620017" lon="2.3964967"><ele>127.0</ele><time>2026-04-06T16:16:03.704Z</time></trkpt><trkpt lat="43.2617633" lon="2.3964383"><ele>127.0</ele><time>2026-04-06T16:16:04.706Z</time></trkpt><trkpt lat="43.2615217" lon="2.39637"><ele>127.0</ele><time>2026-04-06T16:16:05.706Z</time></trkpt><trkpt lat="43.2612717" lon="2.3963"><ele>125.0</ele><time>2026-04-06T16:16:06.708Z</time></trkpt><trkpt lat="43.2610133" lon="2.3962267"><ele>123.0</ele><time>2026-04-06T16:16:07.706Z</time></trkpt><trkpt lat="43.2607583" lon="2.3961383"><ele>123.5</ele><time>2026-04-06T16:16:08.707Z</time></trkpt><trkpt lat="43.2604917" lon="2.3960483"><ele>124.0</ele><time>2026-04-06T16:16:09.699Z</time></trkpt><trkpt lat="43.2602333" lon="2.395945"><ele>124.0</ele><time>2026-04-06T16:16:10.702Z</time></trkpt><trkpt lat="43.25998" lon="2.3958217"><ele>124.0</ele><time>2026-04-06T16:16:11.707Z</time></trkpt><trkpt lat="43.259735" lon="2.3957017"><ele>126.0</ele><time>2026-04-06T16:16:12.705Z</time></trkpt><trkpt lat="43.259485" lon="2.395585"><ele>128.0</ele><time>2026-04-06T16:16:13.705Z</time></trkpt><trkpt lat="43.2592383" lon="2.3954717"><ele>128.0</ele><time>2026-04-06T16:16:14.703Z</time></trkpt><trkpt lat="43.2589983" lon="2.3953617"><ele>128.0</ele><time>2026-04-06T16:16:15.703Z</time></trkpt><trkpt lat="43.258765" lon="2.3952617"><ele>129.5</ele><time>2026-04-06T16:16:16.705Z</time></trkpt><trkpt lat="43.25854" lon="2.39518"><ele>131.0</ele><time>2026-04-06T16:16:17.704Z</time></trkpt><trkpt lat="43.2583083" lon="2.3951133"><ele>129.5</ele><time>2026-04-06T16:16:18.705Z</time></trkpt><trkpt lat="43.258075" lon="2.395065"><ele>128.0</ele><time>2026-04-06T16:16:19.706Z</time></trkpt><trkpt lat="43.2578483" lon="2.3950033"><ele>128.0</ele><time>2026-04-06T16:16:20.705Z</time></trkpt><trkpt lat="43.2576183" lon="2.3949417"><ele>128.0</ele><time>2026-04-06T16:16:21.702Z</time></trkpt><trkpt lat="43.2573867" lon="2.3948883"><ele>126.5</ele><time>2026-04-06T16:16:22.701Z</time></trkpt><trkpt lat="43.2571567" lon="2.3948317"><ele>125.0</ele><time>2026-04-06T16:16:23.705Z</time></trkpt><trkpt lat="43.2569333" lon="2.3947733"><ele>125.0</ele><time>2026-04-06T16:16:24.706Z</time></trkpt><trkpt lat="43.2567183" lon="2.3947067"><ele>125.0</ele><time>2026-04-06T16:16:25.702Z</time></trkpt><trkpt lat="43.25651" lon="2.39463"><ele>125.0</ele><time>2026-04-06T16:16:26.706Z</time></trkpt><trkpt lat="43.2563067" lon="2.3945417"><ele>123.66666666666666</ele><time>2026-04-06T16:16:27.705Z</time></trkpt><trkpt lat="43.2561133" lon="2.3944133"><ele>122.33333333333334</ele><time>2026-04-06T16:16:28.702Z</time></trkpt><trkpt lat="43.25593" lon="2.394245"><ele>121.0</ele><time>2026-04-06T16:16:29.701Z</time></trkpt><trkpt lat="43.2557517" lon="2.3940533"><ele>119.5</ele><time>2026-04-06T16:16:30.703Z</time></trkpt><trkpt lat="43.2555717" lon="2.3938533"><ele>118.0</ele><time>2026-04-06T16:16:31.704Z</time></trkpt><trkpt lat="43.255375" lon="2.3936483"><ele>118.0</ele><time>2026-04-06T16:16:32.706Z</time></trkpt><trkpt lat="43.255175" lon="2.3934417"><ele>118.0</ele><time>2026-04-06T16:16:33.704Z</time></trkpt><trkpt lat="43.2549783" lon="2.3932033"><ele>116.5</ele><time>2026-04-06T16:16:34.703Z</time></trkpt><trkpt lat="43.2547817" lon="2.3929617"><ele>115.0</ele><time>2026-04-06T16:16:35.704Z</time></trkpt><trkpt lat="43.25458" lon="2.3927217"><ele>115.0</ele><time>2026-04-06T16:16:36.705Z</time></trkpt><trkpt lat="43.25438" lon="2.3924867"><ele>115.0</ele><time>2026-04-06T16:16:37.703Z</time></trkpt><trkpt lat="43.254185" lon="2.3922617"><ele>113.5</ele><time>2026-04-06T16:16:38.704Z</time></trkpt><trkpt lat="43.2540017" lon="2.3920433"><ele>112.0</ele><time>2026-04-06T16:16:39.702Z</time></trkpt><trkpt lat="43.2538217" lon="2.39183"><ele>112.0</ele><time>2026-04-06T16:16:40.705Z</time></trkpt><trkpt lat="43.25364" lon="2.3916267"><ele>112.0</ele><time>2026-04-06T16:16:41.707Z</time></trkpt><trkpt lat="43.2534633" lon="2.391415"><ele>111.5</ele><time>2026-04-06T16:16:42.706Z</time></trkpt><trkpt lat="43.2532883" lon="2.3912033"><ele>111.0</ele><time>2026-04-06T16:16:43.705Z</time></trkpt><trkpt lat="43.2531133" lon="2.3909967"><ele>111.0</ele><time>2026-04-06T16:16:44.706Z</time></trkpt><trkpt lat="43.25294" lon="2.3907933"><ele>111.0</ele><time>2026-04-06T16:16:45.706Z</time></trkpt><trkpt lat="43.2527667" lon="2.3905883"><ele>110.66666666666666</ele><time>2026-04-06T16:16:46.704Z</time></trkpt><trkpt lat="43.2525917" lon="2.3903867"><ele>110.33333333333333</ele><time>2026-04-06T16:16:47.697Z</time></trkpt><trkpt lat="43.2524217" lon="2.3901983"><ele>110.0</ele><time>2026-04-06T16:16:48.705Z</time></trkpt><trkpt lat="43.2522467" lon="2.39"><ele>110.0</ele><time>2026-04-06T16:16:49.705Z</time></trkpt><trkpt lat="43.25208" lon="2.389795"><ele>110.0</ele><time>2026-04-06T16:16:50.704Z</time></trkpt><trkpt lat="43.2519083" lon="2.38959"><ele>111.5</ele><time>2026-04-06T16:16:51.701Z</time></trkpt><trkpt lat="43.2517317" lon="2.3893867"><ele>113.0</ele><time>2026-04-06T16:16:52.701Z</time></trkpt><trkpt lat="43.2515533" lon="2.3891833"><ele>110.5</ele><time>2026-04-06T16:16:53.704Z</time></trkpt><trkpt lat="43.2513733" lon="2.3889783"><ele>108.0</ele><time>2026-04-06T16:16:54.706Z</time></trkpt><trkpt lat="43.2511867" lon="2.388775"><ele>107.5</ele><time>2026-04-06T16:16:55.702Z</time></trkpt><trkpt lat="43.2510033" lon="2.388565"><ele>107.0</ele><time>2026-04-06T16:16:56.706Z</time></trkpt><trkpt lat="43.2508233" lon="2.3883533"><ele>107.0</ele><time>2026-04-06T16:16:57.702Z</time></trkpt><trkpt lat="43.25064" lon="2.3881383"><ele>107.0</ele><time>2026-04-06T16:16:58.704Z</time></trkpt><trkpt lat="43.250455" lon="2.3879233"><ele>104.0</ele><time>2026-04-06T16:16:59.701Z</time></trkpt><trkpt lat="43.2502667" lon="2.387715"><ele>101.0</ele><time>2026-04-06T16:17:00.703Z</time></trkpt><trkpt lat="43.2500783" lon="2.3874983"><ele>101.0</ele><time>2026-04-06T16:17:01.705Z</time></trkpt><trkpt lat="43.249895" lon="2.3872767"><ele>101.0</ele><time>2026-04-06T16:17:02.706Z</time></trkpt><trkpt lat="43.2497117" lon="2.38706"><ele>100.5</ele><time>2026-04-06T16:17:03.702Z</time></trkpt><trkpt lat="43.2495233" lon="2.3868433"><ele>100.0</ele><time>2026-04-06T16:17:04.706Z</time></trkpt><trkpt lat="43.2493367" lon="2.386625"><ele>100.0</ele><time>2026-04-06T16:17:05.7Z</time></trkpt><trkpt lat="43.2491467" lon="2.3864133"><ele>100.0</ele><time>2026-04-06T16:17:06.703Z</time></trkpt><trkpt lat="43.2489517" lon="2.3861983"><ele>100.5</ele><time>2026-04-06T16:17:07.698Z</time></trkpt><trkpt lat="43.248755" lon="2.3859817"><ele>101.0</ele><time>2026-04-06T16:17:08.702Z</time></trkpt><trkpt lat="43.2485583" lon="2.3857633"><ele>101.0</ele><time>2026-04-06T16:17:09.704Z</time></trkpt><trkpt lat="43.24836" lon="2.3855383"><ele>101.0</ele><time>2026-04-06T16:17:10.702Z</time></trkpt><trkpt lat="43.2481633" lon="2.38531"><ele>104.5</ele><time>2026-04-06T16:17:11.705Z</time></trkpt><trkpt lat="43.2479633" lon="2.385085"><ele>108.0</ele><time>2026-04-06T16:17:12.706Z</time></trkpt><trkpt lat="43.24777" lon="2.384865"><ele>110.0</ele><time>2026-04-06T16:17:13.705Z</time></trkpt><trkpt lat="43.2475867" lon="2.384655"><ele>112.0</ele><time>2026-04-06T16:17:14.7Z</time></trkpt><trkpt lat="43.2474133" lon="2.384455"><ele>111.33333333333334</ele><time>2026-04-06T16:17:15.703Z</time></trkpt><trkpt lat="43.2472467" lon="2.3842617"><ele>110.66666666666666</ele><time>2026-04-06T16:17:16.702Z</time></trkpt><trkpt lat="43.2470867" lon="2.384075"><ele>110.0</ele><time>2026-04-06T16:17:17.706Z</time></trkpt><trkpt lat="43.24693" lon="2.3838933"><ele>110.33333333333333</ele><time>2026-04-06T16:17:18.705Z</time></trkpt><trkpt lat="43.246765" lon="2.383725"><ele>110.66666666666666</ele><time>2026-04-06T16:17:19.704Z</time></trkpt><trkpt lat="43.246595" lon="2.3835683"><ele>111.0</ele><time>2026-04-06T16:17:20.705Z</time></trkpt><trkpt lat="43.2464233" lon="2.3834233"><ele>110.0</ele><time>2026-04-06T16:17:21.704Z</time></trkpt><trkpt lat="43.2462533" lon="2.3832783"><ele>109.0</ele><time>2026-04-06T16:17:22.705Z</time></trkpt><trkpt lat="43.2460783" lon="2.3831233"><ele>108.0</ele><time>2026-04-06T16:17:23.702Z</time></trkpt><trkpt lat="43.2458933" lon="2.3829717"><ele>108.0</ele><time>2026-04-06T16:17:24.705Z</time></trkpt><trkpt lat="43.2457033" lon="2.3828367"><ele>108.0</ele><time>2026-04-06T16:17:25.697Z</time></trkpt><trkpt lat="43.245515" lon="2.3827117"><ele>108.0</ele><time>2026-04-06T16:17:26.703Z</time></trkpt><trkpt lat="43.24533" lon="2.38259"><ele>107.0</ele><time>2026-04-06T16:17:27.706Z</time></trkpt><trkpt lat="43.2451617" lon="2.3824683"><ele>106.0</ele><time>2026-04-06T16:17:28.704Z</time></trkpt><trkpt lat="43.2450017" lon="2.3823483"><ele>105.0</ele><time>2026-04-06T16:17:29.704Z</time></trkpt><trkpt lat="43.24485" lon="2.38223"><ele>105.0</ele><time>2026-04-06T16:17:30.702Z</time></trkpt><trkpt lat="43.2447067" lon="2.3821167"><ele>105.0</ele><time>2026-04-06T16:17:31.705Z</time></trkpt><trkpt lat="43.2445717" lon="2.3820117"><ele>105.0</ele><time>2026-04-06T16:17:32.706Z</time></trkpt><trkpt lat="43.2444433" lon="2.3819133"><ele>105.0</ele><time>2026-04-06T16:17:33.704Z</time></trkpt><trkpt lat="43.2443217" lon="2.3818233"><ele>105.0</ele><time>2026-04-06T16:17:34.701Z</time></trkpt><trkpt lat="43.2442183" lon="2.3817367"><ele>105.0</ele><time>2026-04-06T16:17:35.697Z</time></trkpt><trkpt lat="43.2441367" lon="2.3816517"><ele>105.0</ele><time>2026-04-06T16:17:36.706Z</time></trkpt><trkpt lat="43.2440767" lon="2.3815567"><ele>105.0</ele><time>2026-04-06T16:17:37.699Z</time></trkpt><trkpt lat="43.24403" lon="2.3814617"><ele>105.0</ele><time>2026-04-06T16:17:38.704Z</time></trkpt><trkpt lat="43.2439967" lon="2.381365"><ele>105.0</ele><time>2026-04-06T16:17:39.702Z</time></trkpt><trkpt lat="43.2439583" lon="2.3812683"><ele>105.0</ele><time>2026-04-06T16:17:40.704Z</time></trkpt><trkpt lat="43.2439167" lon="2.3811733"><ele>105.0</ele><time>2026-04-06T16:17:41.701Z</time></trkpt><trkpt lat="43.243885" lon="2.3810733"><ele>105.0</ele><time>2026-04-06T16:17:42.706Z</time></trkpt><trkpt lat="43.24387" lon="2.3809567"><ele>104.75</ele><time>2026-04-06T16:17:43.703Z</time></trkpt><trkpt lat="43.2438783" lon="2.38084"><ele>104.5</ele><time>2026-04-06T16:17:44.703Z</time></trkpt><trkpt lat="43.2439283" lon="2.3806833"><ele>104.25</ele><time>2026-04-06T16:17:45.705Z</time></trkpt><trkpt lat="43.2440133" lon="2.3805483"><ele>104.0</ele><time>2026-04-06T16:17:46.698Z</time></trkpt><trkpt lat="43.2441083" lon="2.3804017"><ele>104.66666666666666</ele><time>2026-04-06T16:17:47.706Z</time></trkpt><trkpt lat="43.2442133" lon="2.3802583"><ele>105.33333333333334</ele><time>2026-04-06T16:17:48.703Z</time></trkpt><trkpt lat="43.2443233" lon="2.380105"><ele>106.0</ele><time>2026-04-06T16:17:49.703Z</time></trkpt><trkpt lat="43.2444367" lon="2.379945"><ele>106.0</ele><time>2026-04-06T16:17:50.701Z</time></trkpt><trkpt lat="43.2445583" lon="2.3797833"><ele>106.0</ele><time>2026-04-06T16:17:51.703Z</time></trkpt><trkpt lat="43.2446833" lon="2.3796217"><ele>106.0</ele><time>2026-04-06T16:17:52.705Z</time></trkpt><trkpt lat="43.2448083" lon="2.3794517"><ele>105.66666666666667</ele><time>2026-04-06T16:17:53.703Z</time></trkpt><trkpt lat="43.2449333" lon="2.3792867"><ele>105.33333333333334</ele><time>2026-04-06T16:17:54.705Z</time></trkpt><trkpt lat="43.2450583" lon="2.379125"><ele>105.0</ele><time>2026-04-06T16:17:55.704Z</time></trkpt><trkpt lat="43.2451817" lon="2.3789633"><ele>105.33333333333334</ele><time>2026-04-06T16:17:56.703Z</time></trkpt><trkpt lat="43.2453067" lon="2.3788033"><ele>105.66666666666667</ele><time>2026-04-06T16:17:57.706Z</time></trkpt><trkpt lat="43.24543" lon="2.3786383"><ele>106.0</ele><time>2026-04-06T16:17:58.702Z</time></trkpt><trkpt lat="43.2455583" lon="2.3784733"><ele>106.66666666666667</ele><time>2026-04-06T16:17:59.707Z</time></trkpt><trkpt lat="43.2456883" lon="2.3783083"><ele>107.33333333333334</ele><time>2026-04-06T16:18:00.705Z</time></trkpt><trkpt lat="43.24582" lon="2.378135"><ele>108.0</ele><time>2026-04-06T16:18:01.7Z</time></trkpt><trkpt lat="43.2459517" lon="2.3779633"><ele>108.33333333333334</ele><time>2026-04-06T16:18:02.703Z</time></trkpt><trkpt lat="43.24608" lon="2.3777883"><ele>108.66666666666667</ele><time>2026-04-06T16:18:03.698Z</time></trkpt><trkpt lat="43.2462083" lon="2.37761"><ele>109.0</ele><time>2026-04-06T16:18:04.702Z</time></trkpt><trkpt lat="43.24633" lon="2.37745"><ele>109.0</ele><time>2026-04-06T16:18:05.705Z</time></trkpt><trkpt lat="43.2464467" lon="2.3773017"><ele>109.0</ele><time>2026-04-06T16:18:06.703Z</time></trkpt><trkpt lat="43.2465567" lon="2.3771717"><ele>109.0</ele><time>2026-04-06T16:18:07.706Z</time></trkpt><trkpt lat="43.2466633" lon="2.3770433"><ele>109.0</ele><time>2026-04-06T16:18:08.706Z</time></trkpt><trkpt lat="43.2467633" lon="2.376925"><ele>108.5</ele><time>2026-04-06T16:18:09.703Z</time></trkpt><trkpt lat="43.2468617" lon="2.3768167"><ele>108.0</ele><time>2026-04-06T16:18:10.703Z</time></trkpt><trkpt lat="43.2469583" lon="2.37671"><ele>107.5</ele><time>2026-04-06T16:18:11.701Z</time></trkpt><trkpt lat="43.247055" lon="2.376635"><ele>107.0</ele><time>2026-04-06T16:18:12.705Z</time></trkpt><trkpt lat="43.247155" lon="2.3766033"><ele>107.0</ele><time>2026-04-06T16:18:13.705Z</time></trkpt><trkpt lat="43.2472483" lon="2.3765767"><ele>106.99999999999999</ele><time>2026-04-06T16:18:14.706Z</time></trkpt><trkpt lat="43.2473383" lon="2.3765283"><ele>106.99999999999999</ele><time>2026-04-06T16:18:15.699Z</time></trkpt><trkpt lat="43.2474183" lon="2.3764483"><ele>107.0</ele><time>2026-04-06T16:18:16.704Z</time></trkpt><trkpt lat="43.2474733" lon="2.376345"><ele>107.0</ele><time>2026-04-06T16:18:17.704Z</time></trkpt><trkpt lat="43.2475033" lon="2.37623"><ele>107.25</ele><time>2026-04-06T16:18:18.697Z</time></trkpt><trkpt lat="43.2474683" lon="2.3760983"><ele>107.5</ele><time>2026-04-06T16:18:19.704Z</time></trkpt><trkpt lat="43.2473917" lon="2.3759933"><ele>107.75</ele><time>2026-04-06T16:18:20.706Z</time></trkpt><trkpt lat="43.2472817" lon="2.3758917"><ele>108.0</ele><time>2026-04-06T16:18:21.706Z</time></trkpt><trkpt lat="43.2471433" lon="2.3758333"><ele>108.0</ele><time>2026-04-06T16:18:22.703Z</time></trkpt><trkpt lat="43.247" lon="2.3757433"><ele>108.0</ele><time>2026-04-06T16:18:23.699Z</time></trkpt><trkpt lat="43.2468517" lon="2.37562"><ele>108.0</ele><time>2026-04-06T16:18:24.704Z</time></trkpt><trkpt lat="43.2467117" lon="2.3754567"><ele>108.0</ele><time>2026-04-06T16:18:25.698Z</time></trkpt><trkpt lat="43.2465633" lon="2.3752567"><ele>108.0</ele><time>2026-04-06T16:18:26.705Z</time></trkpt><trkpt lat="43.2463967" lon="2.3750367"><ele>108.0</ele><time>2026-04-06T16:18:27.704Z</time></trkpt><trkpt lat="43.2462167" lon="2.3747933"><ele>107.5</ele><time>2026-04-06T16:18:28.705Z</time></trkpt><trkpt lat="43.2460367" lon="2.37455"><ele>107.0</ele><time>2026-04-06T16:18:29.702Z</time></trkpt><trkpt lat="43.2458483" lon="2.37429"><ele>107.0</ele><time>2026-04-06T16:18:30.697Z</time></trkpt><trkpt lat="43.2456467" lon="2.3740133"><ele>107.0</ele><time>2026-04-06T16:18:31.704Z</time></trkpt><trkpt lat="43.245445" lon="2.37374"><ele>106.0</ele><time>2026-04-06T16:18:32.705Z</time></trkpt><trkpt lat="43.2452517" lon="2.3734633"><ele>105.0</ele><time>2026-04-06T16:18:33.702Z</time></trkpt><trkpt lat="43.2450583" lon="2.373185"><ele>105.0</ele><time>2026-04-06T16:18:34.702Z</time></trkpt><trkpt lat="43.2448667" lon="2.3729067"><ele>105.0</ele><time>2026-04-06T16:18:35.702Z</time></trkpt><trkpt lat="43.2446783" lon="2.3726317"><ele>104.5</ele><time>2026-04-06T16:18:36.706Z</time></trkpt><trkpt lat="43.2444933" lon="2.3723667"><ele>104.0</ele><time>2026-04-06T16:18:37.702Z</time></trkpt><trkpt lat="43.24431" lon="2.37211"><ele>104.0</ele><time>2026-04-06T16:18:38.697Z</time></trkpt><trkpt lat="43.2441333" lon="2.3718633"><ele>104.0</ele><time>2026-04-06T16:18:39.703Z</time></trkpt><trkpt lat="43.2439633" lon="2.371625"><ele>104.5</ele><time>2026-04-06T16:18:40.702Z</time></trkpt><trkpt lat="43.2437983" lon="2.3713867"><ele>105.0</ele><time>2026-04-06T16:18:41.704Z</time></trkpt><trkpt lat="43.2436367" lon="2.3711517"><ele>104.0</ele><time>2026-04-06T16:18:42.703Z</time></trkpt><trkpt lat="43.2434783" lon="2.370925"><ele>103.0</ele><time>2026-04-06T16:18:43.698Z</time></trkpt><trkpt lat="43.243325" lon="2.3706967"><ele>103.0</ele><time>2026-04-06T16:18:44.704Z</time></trkpt><trkpt lat="43.24318" lon="2.370465"><ele>103.0</ele><time>2026-04-06T16:18:45.706Z</time></trkpt><trkpt lat="43.243045" lon="2.3702367"><ele>103.0</ele><time>2026-04-06T16:18:46.701Z</time></trkpt><trkpt lat="43.2429167" lon="2.3700033"><ele>101.33333333333334</ele><time>2026-04-06T16:18:47.701Z</time></trkpt><trkpt lat="43.2427967" lon="2.36977"><ele>99.66666666666666</ele><time>2026-04-06T16:18:48.704Z</time></trkpt><trkpt lat="43.2426883" lon="2.3695267"><ele>98.0</ele><time>2026-04-06T16:18:49.701Z</time></trkpt><trkpt lat="43.2425883" lon="2.369285"><ele>98.0</ele><time>2026-04-06T16:18:50.702Z</time></trkpt><trkpt lat="43.2425" lon="2.36904"><ele>98.0</ele><time>2026-04-06T16:18:51.705Z</time></trkpt><trkpt lat="43.2424233" lon="2.3687883"><ele>98.0</ele><time>2026-04-06T16:18:52.701Z</time></trkpt><trkpt lat="43.2423617" lon="2.3685333"><ele>98.0</ele><time>2026-04-06T16:18:53.706Z</time></trkpt><trkpt lat="43.2423033" lon="2.3682733"><ele>98.0</ele><time>2026-04-06T16:18:54.704Z</time></trkpt><trkpt lat="43.2422483" lon="2.3680167"><ele>98.0</ele><time>2026-04-06T16:18:55.703Z</time></trkpt><trkpt lat="43.2422067" lon="2.3677633"><ele>98.0</ele><time>2026-04-06T16:18:56.705Z</time></trkpt><trkpt lat="43.2421733" lon="2.3675033"><ele>98.0</ele><time>2026-04-06T16:18:57.706Z</time></trkpt><trkpt lat="43.2421533" lon="2.3672433"><ele>98.0</ele><time>2026-04-06T16:18:58.703Z</time></trkpt><trkpt lat="43.2421433" lon="2.3669817"><ele>98.33333333333333</ele><time>2026-04-06T16:18:59.705Z</time></trkpt><trkpt lat="43.24214" lon="2.366725"><ele>98.66666666666666</ele><time>2026-04-06T16:19:00.706Z</time></trkpt><trkpt lat="43.2421433" lon="2.366465"><ele>99.0</ele><time>2026-04-06T16:19:01.705Z</time></trkpt><trkpt lat="43.2421533" lon="2.3662017"><ele>99.66666666666666</ele><time>2026-04-06T16:19:02.703Z</time></trkpt><trkpt lat="43.2421667" lon="2.3659467"><ele>100.33333333333333</ele><time>2026-04-06T16:19:03.702Z</time></trkpt><trkpt lat="43.2421833" lon="2.365705"><ele>101.0</ele><time>2026-04-06T16:19:04.703Z</time></trkpt><trkpt lat="43.242195" lon="2.36547"><ele>101.25</ele><time>2026-04-06T16:19:05.702Z</time></trkpt><trkpt lat="43.2422117" lon="2.3652417"><ele>101.5</ele><time>2026-04-06T16:19:06.704Z</time></trkpt><trkpt lat="43.24223" lon="2.3650383"><ele>101.75</ele><time>2026-04-06T16:19:07.705Z</time></trkpt><trkpt lat="43.2422467" lon="2.36486"><ele>102.0</ele><time>2026-04-06T16:19:08.704Z</time></trkpt><trkpt lat="43.2422633" lon="2.3647"><ele>101.83333333333333</ele><time>2026-04-06T16:19:09.701Z</time></trkpt><trkpt lat="43.2422817" lon="2.3645617"><ele>101.66666666666666</ele><time>2026-04-06T16:19:10.704Z</time></trkpt><trkpt lat="43.2423017" lon="2.3644483"><ele>101.5</ele><time>2026-04-06T16:19:11.7Z</time></trkpt><trkpt lat="43.2423217" lon="2.364355"><ele>101.33333333333333</ele><time>2026-04-06T16:19:12.705Z</time></trkpt><trkpt lat="43.24235" lon="2.3642533"><ele>101.16666666666666</ele><time>2026-04-06T16:19:14.701Z</time></trkpt><trkpt lat="43.24239" lon="2.3641817"><ele>101.0</ele><time>2026-04-06T16:19:21.696Z</time></trkpt><trkpt lat="43.2424717" lon="2.36401"><ele>100.83333333333333</ele><time>2026-04-06T16:19:23.697Z</time></trkpt><trkpt lat="43.2425017" lon="2.3639133"><ele>100.66666666666666</ele><time>2026-04-06T16:19:24.696Z</time></trkpt><trkpt lat="43.242495" lon="2.3638033"><ele>100.5</ele><time>2026-04-06T16:19:25.698Z</time></trkpt><trkpt lat="43.2424733" lon="2.363715"><ele>100.33333333333334</ele><time>2026-04-06T16:19:26.701Z</time></trkpt><trkpt lat="43.2424233" lon="2.3636417"><ele>100.16666666666667</ele><time>2026-04-06T16:19:27.699Z</time></trkpt><trkpt lat="43.2423217" lon="2.36362"><ele>100.0</ele><time>2026-04-06T16:19:28.699Z</time></trkpt><trkpt lat="43.2422367" lon="2.3636033"><ele>100.8</ele><time>2026-04-06T16:19:29.698Z</time></trkpt><trkpt lat="43.24213" lon="2.3636217"><ele>101.6</ele><time>2026-04-06T16:19:30.701Z</time></trkpt><trkpt lat="43.2420267" lon="2.36363"><ele>102.4</ele><time>2026-04-06T16:19:31.697Z</time></trkpt><trkpt lat="43.241915" lon="2.363615"><ele>103.2</ele><time>2026-04-06T16:19:32.696Z</time></trkpt><trkpt lat="43.2418083" lon="2.3635833"><ele>104.0</ele><time>2026-04-06T16:19:33.698Z</time></trkpt><trkpt lat="43.2416783" lon="2.3635483"><ele>104.0</ele><time>2026-04-06T16:19:34.701Z</time></trkpt><trkpt lat="43.2415433" lon="2.3635117"><ele>104.0</ele><time>2026-04-06T16:19:35.699Z</time></trkpt><trkpt lat="43.2414017" lon="2.36347"><ele>104.0</ele><time>2026-04-06T16:19:36.7Z</time></trkpt><trkpt lat="43.2412617" lon="2.3634133"><ele>104.0</ele><time>2026-04-06T16:19:37.699Z</time></trkpt><trkpt lat="43.2411267" lon="2.3633617"><ele>103.33333333333333</ele><time>2026-04-06T16:19:38.702Z</time></trkpt><trkpt lat="43.2409867" lon="2.36332"><ele>102.66666666666666</ele><time>2026-04-06T16:19:39.696Z</time></trkpt><trkpt lat="43.2408333" lon="2.3632917"><ele>102.0</ele><time>2026-04-06T16:19:40.698Z</time></trkpt><trkpt lat="43.2406683" lon="2.3632783"><ele>100.33333333333334</ele><time>2026-04-06T16:19:41.699Z</time></trkpt><trkpt lat="43.2404883" lon="2.3632917"><ele>98.66666666666667</ele><time>2026-04-06T16:19:42.699Z</time></trkpt><trkpt lat="43.2403033" lon="2.3633167"><ele>97.0</ele><time>2026-04-06T16:19:43.701Z</time></trkpt><trkpt lat="43.2401233" lon="2.3633433"><ele>97.0</ele><time>2026-04-06T16:19:44.703Z</time></trkpt><trkpt lat="43.23994" lon="2.363395"><ele>97.0</ele><time>2026-04-06T16:19:45.701Z</time></trkpt><trkpt lat="43.2397617" lon="2.3634417"><ele>97.0</ele><time>2026-04-06T16:19:46.701Z</time></trkpt><trkpt lat="43.2395833" lon="2.36348"><ele>96.33333333333334</ele><time>2026-04-06T16:19:47.702Z</time></trkpt><trkpt lat="43.239405" lon="2.36352"><ele>95.66666666666667</ele><time>2026-04-06T16:19:48.702Z</time></trkpt><trkpt lat="43.2392233" lon="2.36356"><ele>95.0</ele><time>2026-04-06T16:19:49.697Z</time></trkpt><trkpt lat="43.2390483" lon="2.3635983"><ele>95.0</ele><time>2026-04-06T16:19:50.697Z</time></trkpt><trkpt lat="43.2388667" lon="2.3636367"><ele>95.0</ele><time>2026-04-06T16:19:51.699Z</time></trkpt><trkpt lat="43.238685" lon="2.36367"><ele>95.0</ele><time>2026-04-06T16:19:52.696Z</time></trkpt><trkpt lat="43.2385033" lon="2.363695"><ele>95.0</ele><time>2026-04-06T16:19:53.698Z</time></trkpt><trkpt lat="43.238315" lon="2.3637167"><ele>95.0</ele><time>2026-04-06T16:19:54.698Z</time></trkpt><trkpt lat="43.238125" lon="2.36373"><ele>95.0</ele><time>2026-04-06T16:19:55.697Z</time></trkpt><trkpt lat="43.2379367" lon="2.3637283"><ele>95.0</ele><time>2026-04-06T16:19:56.699Z</time></trkpt><trkpt lat="43.2377517" lon="2.3637183"><ele>95.0</ele><time>2026-04-06T16:19:57.697Z</time></trkpt><trkpt lat="43.2375667" lon="2.3637"><ele>95.0</ele><time>2026-04-06T16:19:58.7Z</time></trkpt><trkpt lat="43.2373833" lon="2.3636733"><ele>95.66666666666667</ele><time>2026-04-06T16:19:59.7Z</time></trkpt><trkpt lat="43.2372017" lon="2.3636567"><ele>96.33333333333334</ele><time>2026-04-06T16:20:00.697Z</time></trkpt><trkpt lat="43.237025" lon="2.3636433"><ele>97.0</ele><time>2026-04-06T16:20:01.698Z</time></trkpt><trkpt lat="43.23685" lon="2.3636217"><ele>97.0</ele><time>2026-04-06T16:20:02.699Z</time></trkpt><trkpt lat="43.23668" lon="2.3635983"><ele>97.0</ele><time>2026-04-06T16:20:03.7Z</time></trkpt><trkpt lat="43.236515" lon="2.3635767"><ele>97.0</ele><time>2026-04-06T16:20:04.698Z</time></trkpt><trkpt lat="43.2363617" lon="2.3635617"><ele>97.5</ele><time>2026-04-06T16:20:05.7Z</time></trkpt><trkpt lat="43.2362217" lon="2.3635467"><ele>98.0</ele><time>2026-04-06T16:20:06.699Z</time></trkpt><trkpt lat="43.236095" lon="2.36354"><ele>98.5</ele><time>2026-04-06T16:20:07.7Z</time></trkpt><trkpt lat="43.2359817" lon="2.3635333"><ele>99.0</ele><time>2026-04-06T16:20:08.702Z</time></trkpt><trkpt lat="43.23588" lon="2.363515"><ele>99.0</ele><time>2026-04-06T16:20:09.705Z</time></trkpt><trkpt lat="43.235795" lon="2.3634667"><ele>99.0</ele><time>2026-04-06T16:20:10.702Z</time></trkpt><trkpt lat="43.235725" lon="2.3634"><ele>99.0</ele><time>2026-04-06T16:20:11.706Z</time></trkpt><trkpt lat="43.235655" lon="2.363345"><ele>99.0</ele><time>2026-04-06T16:20:12.704Z</time></trkpt><trkpt lat="43.2355833" lon="2.36329"><ele>99.0</ele><time>2026-04-06T16:20:13.702Z</time></trkpt><trkpt lat="43.2355" lon="2.3632817"><ele>99.0</ele><time>2026-04-06T16:20:14.704Z</time></trkpt><trkpt lat="43.2354183" lon="2.3632833"><ele>99.75</ele><time>2026-04-06T16:20:15.706Z</time></trkpt><trkpt lat="43.2353233" lon="2.3632817"><ele>100.5</ele><time>2026-04-06T16:20:16.702Z</time></trkpt><trkpt lat="43.2352133" lon="2.3632383"><ele>101.25</ele><time>2026-04-06T16:20:17.706Z</time></trkpt><trkpt lat="43.23509" lon="2.363185"><ele>102.0</ele><time>2026-04-06T16:20:18.706Z</time></trkpt><trkpt lat="43.2349633" lon="2.363125"><ele>102.0</ele><time>2026-04-06T16:20:19.706Z</time></trkpt><trkpt lat="43.2348333" lon="2.3630683"><ele>102.0</ele><time>2026-04-06T16:20:20.705Z</time></trkpt><trkpt lat="43.234695" lon="2.36302"><ele>102.0</ele><time>2026-04-06T16:20:21.703Z</time></trkpt><trkpt lat="43.2345467" lon="2.3629533"><ele>102.0</ele><time>2026-04-06T16:20:22.705Z</time></trkpt><trkpt lat="43.23439" lon="2.3628683"><ele>102.0</ele><time>2026-04-06T16:20:23.703Z</time></trkpt><trkpt lat="43.2342317" lon="2.36278"><ele>102.0</ele><time>2026-04-06T16:20:24.708Z</time></trkpt><trkpt lat="43.2340667" lon="2.3627083"><ele>102.0</ele><time>2026-04-06T16:20:25.705Z</time></trkpt><trkpt lat="43.2339" lon="2.36263"><ele>104.66666666666666</ele><time>2026-04-06T16:20:26.704Z</time></trkpt><trkpt lat="43.2337317" lon="2.36254"><ele>107.33333333333333</ele><time>2026-04-06T16:20:27.702Z</time></trkpt><trkpt lat="43.2335633" lon="2.362445"><ele>110.0</ele><time>2026-04-06T16:20:28.705Z</time></trkpt><trkpt lat="43.233385" lon="2.362355"><ele>110.0</ele><time>2026-04-06T16:20:29.706Z</time></trkpt><trkpt lat="43.2332" lon="2.362255"><ele>110.0</ele><time>2026-04-06T16:20:30.699Z</time></trkpt><trkpt lat="43.233025" lon="2.362155"><ele>110.0</ele><time>2026-04-06T16:20:31.704Z</time></trkpt><trkpt lat="43.2328483" lon="2.3620633"><ele>110.66666666666666</ele><time>2026-04-06T16:20:32.706Z</time></trkpt><trkpt lat="43.2326767" lon="2.3619583"><ele>111.33333333333334</ele><time>2026-04-06T16:20:33.702Z</time></trkpt><trkpt lat="43.232505" lon="2.361855"><ele>112.0</ele><time>2026-04-06T16:20:34.704Z</time></trkpt><trkpt lat="43.2323283" lon="2.3617467"><ele>113.33333333333334</ele><time>2026-04-06T16:20:35.704Z</time></trkpt><trkpt lat="43.2321433" lon="2.3616283"><ele>114.66666666666666</ele><time>2026-04-06T16:20:36.702Z</time></trkpt><trkpt lat="43.2319633" lon="2.36151"><ele>116.0</ele><time>2026-04-06T16:20:37.707Z</time></trkpt><trkpt lat="43.2317833" lon="2.3613783"><ele>116.33333333333333</ele><time>2026-04-06T16:20:38.704Z</time></trkpt><trkpt lat="43.2316083" lon="2.36124"><ele>116.66666666666666</ele><time>2026-04-06T16:20:39.705Z</time></trkpt><trkpt lat="43.231435" lon="2.3610983"><ele>117.0</ele><time>2026-04-06T16:20:40.703Z</time></trkpt><trkpt lat="43.2312583" lon="2.3609667"><ele>119.0</ele><time>2026-04-06T16:20:41.703Z</time></trkpt><trkpt lat="43.23108" lon="2.3608417"><ele>121.0</ele><time>2026-04-06T16:20:42.704Z</time></trkpt><trkpt lat="43.2308983" lon="2.3607333"><ele>123.0</ele><time>2026-04-06T16:20:43.703Z</time></trkpt><trkpt lat="43.2307183" lon="2.36064"><ele>126.0</ele><time>2026-04-06T16:20:44.702Z</time></trkpt><trkpt lat="43.2305517" lon="2.3605617"><ele>129.0</ele><time>2026-04-06T16:20:45.703Z</time></trkpt><trkpt lat="43.2303883" lon="2.3604933"><ele>132.0</ele><time>2026-04-06T16:20:46.703Z</time></trkpt><trkpt lat="43.2302317" lon="2.3604183"><ele>132.0</ele><time>2026-04-06T16:20:47.702Z</time></trkpt><trkpt lat="43.2300767" lon="2.360345"><ele>132.0</ele><time>2026-04-06T16:20:48.705Z</time></trkpt><trkpt lat="43.2299233" lon="2.3602633"><ele>132.0</ele><time>2026-04-06T16:20:49.704Z</time></trkpt><trkpt lat="43.2297683" lon="2.3601967"><ele>132.33333333333334</ele><time>2026-04-06T16:20:50.704Z</time></trkpt><trkpt lat="43.2296217" lon="2.360115"><ele>132.66666666666669</ele><time>2026-04-06T16:20:51.703Z</time></trkpt><trkpt lat="43.2294783" lon="2.3600267"><ele>133.0</ele><time>2026-04-06T16:20:52.701Z</time></trkpt><trkpt lat="43.2293283" lon="2.359955"><ele>133.0</ele><time>2026-04-06T16:20:53.705Z</time></trkpt><trkpt lat="43.2291883" lon="2.3598883"><ele>133.0</ele><time>2026-04-06T16:20:54.704Z</time></trkpt><trkpt lat="43.2290567" lon="2.3598133"><ele>133.0</ele><time>2026-04-06T16:20:55.699Z</time></trkpt><trkpt lat="43.2289317" lon="2.3597383"><ele>133.0</ele><time>2026-04-06T16:20:56.705Z</time></trkpt><trkpt lat="43.228805" lon="2.3596583"><ele>132.0</ele><time>2026-04-06T16:20:57.703Z</time></trkpt><trkpt lat="43.2286733" lon="2.3595983"><ele>131.0</ele><time>2026-04-06T16:20:58.703Z</time></trkpt><trkpt lat="43.228545" lon="2.3595433"><ele>130.0</ele><time>2026-04-06T16:20:59.708Z</time></trkpt><trkpt lat="43.228415" lon="2.3594767"><ele>129.0</ele><time>2026-04-06T16:21:00.707Z</time></trkpt><trkpt lat="43.2282817" lon="2.3594133"><ele>129.0</ele><time>2026-04-06T16:21:01.7Z</time></trkpt><trkpt lat="43.2281533" lon="2.35936"><ele>129.0</ele><time>2026-04-06T16:21:02.704Z</time></trkpt><trkpt lat="43.2280217" lon="2.3593"><ele>129.0</ele><time>2026-04-06T16:21:03.708Z</time></trkpt><trkpt lat="43.2278933" lon="2.3592333"><ele>129.0</ele><time>2026-04-06T16:21:04.704Z</time></trkpt><trkpt lat="43.2277617" lon="2.35918"><ele>130.5</ele><time>2026-04-06T16:21:05.701Z</time></trkpt><trkpt lat="43.227645" lon="2.35912"><ele>132.0</ele><time>2026-04-06T16:21:06.703Z</time></trkpt><trkpt lat="43.2275283" lon="2.359075"><ele>133.5</ele><time>2026-04-06T16:21:07.698Z</time></trkpt><trkpt lat="43.227415" lon="2.3590417"><ele>135.0</ele><time>2026-04-06T16:21:08.705Z</time></trkpt><trkpt lat="43.227305" lon="2.359025"><ele>135.33333333333334</ele><time>2026-04-06T16:21:09.704Z</time></trkpt><trkpt lat="43.2272083" lon="2.35899"><ele>135.66666666666666</ele><time>2026-04-06T16:21:10.703Z</time></trkpt><trkpt lat="43.2271217" lon="2.3589567"><ele>136.0</ele><time>2026-04-06T16:21:11.706Z</time></trkpt><trkpt lat="43.2270383" lon="2.3589283"><ele>136.33333333333331</ele><time>2026-04-06T16:21:12.703Z</time></trkpt><trkpt lat="43.2269617" lon="2.35889"><ele>136.66666666666666</ele><time>2026-04-06T16:21:13.702Z</time></trkpt><trkpt lat="43.2268883" lon="2.35884"><ele>137.0</ele><time>2026-04-06T16:21:14.703Z</time></trkpt><trkpt lat="43.2268067" lon="2.3587883"><ele>137.0</ele><time>2026-04-06T16:21:15.704Z</time></trkpt><trkpt lat="43.22672" lon="2.3587533"><ele>137.0</ele><time>2026-04-06T16:21:16.704Z</time></trkpt><trkpt lat="43.2266233" lon="2.3587233"><ele>137.0</ele><time>2026-04-06T16:21:17.701Z</time></trkpt><trkpt lat="43.2265267" lon="2.35869"><ele>137.0</ele><time>2026-04-06T16:21:18.703Z</time></trkpt><trkpt lat="43.22644" lon="2.3586167"><ele>137.0</ele><time>2026-04-06T16:21:19.705Z</time></trkpt><trkpt lat="43.226355" lon="2.3585133"><ele>138.25</ele><time>2026-04-06T16:21:20.706Z</time></trkpt><trkpt lat="43.2262633" lon="2.3584067"><ele>139.5</ele><time>2026-04-06T16:21:21.706Z</time></trkpt><trkpt lat="43.226155" lon="2.3583033"><ele>140.75</ele><time>2026-04-06T16:21:22.707Z</time></trkpt><trkpt lat="43.2260383" lon="2.3581967"><ele>142.0</ele><time>2026-04-06T16:21:23.702Z</time></trkpt><trkpt lat="43.22593" lon="2.3580817"><ele>142.5</ele><time>2026-04-06T16:21:24.706Z</time></trkpt><trkpt lat="43.2258217" lon="2.35795"><ele>143.0</ele><time>2026-04-06T16:21:25.699Z</time></trkpt><trkpt lat="43.2257117" lon="2.3578167"><ele>143.5</ele><time>2026-04-06T16:21:26.702Z</time></trkpt><trkpt lat="43.225595" lon="2.3576833"><ele>144.0</ele><time>2026-04-06T16:21:27.702Z</time></trkpt><trkpt lat="43.2254783" lon="2.35755"><ele>144.0</ele><time>2026-04-06T16:21:28.703Z</time></trkpt><trkpt lat="43.2253633" lon="2.3574167"><ele>144.0</ele><time>2026-04-06T16:21:29.702Z</time></trkpt><trkpt lat="43.225255" lon="2.3572833"><ele>144.0</ele><time>2026-04-06T16:21:30.704Z</time></trkpt><trkpt lat="43.225145" lon="2.357135"><ele>144.33333333333334</ele><time>2026-04-06T16:21:31.703Z</time></trkpt><trkpt lat="43.2250283" lon="2.3569983"><ele>144.66666666666669</ele><time>2026-04-06T16:21:32.703Z</time></trkpt><trkpt lat="43.2249117" lon="2.3568567"><ele>145.0</ele><time>2026-04-06T16:21:33.701Z</time></trkpt><trkpt lat="43.2247883" lon="2.3567133"><ele>145.0</ele><time>2026-04-06T16:21:34.696Z</time></trkpt><trkpt lat="43.2246633" lon="2.3565783"><ele>145.0</ele><time>2026-04-06T16:21:35.7Z</time></trkpt><trkpt lat="43.224535" lon="2.356435"><ele>145.0</ele><time>2026-04-06T16:21:36.702Z</time></trkpt><trkpt lat="43.2244117" lon="2.3562917"><ele>145.0</ele><time>2026-04-06T16:21:37.706Z</time></trkpt><trkpt lat="43.2242917" lon="2.3561333"><ele>145.0</ele><time>2026-04-06T16:21:38.704Z</time></trkpt><trkpt lat="43.224165" lon="2.3559783"><ele>145.0</ele><time>2026-04-06T16:21:39.702Z</time></trkpt><trkpt lat="43.224045" lon="2.35583"><ele>144.75</ele><time>2026-04-06T16:21:40.703Z</time></trkpt><trkpt lat="43.2239333" lon="2.3556933"><ele>144.5</ele><time>2026-04-06T16:21:41.706Z</time></trkpt><trkpt lat="43.22383" lon="2.355565"><ele>144.25</ele><time>2026-04-06T16:21:42.699Z</time></trkpt><trkpt lat="43.2237233" lon="2.3554417"><ele>144.0</ele><time>2026-04-06T16:21:43.702Z</time></trkpt><trkpt lat="43.2236283" lon="2.3553233"><ele>144.0</ele><time>2026-04-06T16:21:44.7Z</time></trkpt><trkpt lat="43.2235467" lon="2.3551983"><ele>144.0</ele><time>2026-04-06T16:21:45.702Z</time></trkpt><trkpt lat="43.2234517" lon="2.3551033"><ele>144.0</ele><time>2026-04-06T16:21:46.702Z</time></trkpt><trkpt lat="43.2233533" lon="2.3550083"><ele>144.0</ele><time>2026-04-06T16:21:47.705Z</time></trkpt><trkpt lat="43.2232617" lon="2.3549133"><ele>144.0</ele><time>2026-04-06T16:21:48.702Z</time></trkpt><trkpt lat="43.223165" lon="2.354825"><ele>144.0</ele><time>2026-04-06T16:21:49.704Z</time></trkpt><trkpt lat="43.2230717" lon="2.3547267"><ele>144.0</ele><time>2026-04-06T16:21:50.704Z</time></trkpt><trkpt lat="43.22298" lon="2.354625"><ele>144.0</ele><time>2026-04-06T16:21:51.703Z</time></trkpt><trkpt lat="43.2228817" lon="2.3545367"><ele>143.4</ele><time>2026-04-06T16:21:52.698Z</time></trkpt><trkpt lat="43.2227833" lon="2.3544583"><ele>142.8</ele><time>2026-04-06T16:21:53.704Z</time></trkpt><trkpt lat="43.2226867" lon="2.354385"><ele>142.2</ele><time>2026-04-06T16:21:54.705Z</time></trkpt><trkpt lat="43.222595" lon="2.3543117"><ele>141.6</ele><time>2026-04-06T16:21:55.705Z</time></trkpt><trkpt lat="43.2225033" lon="2.354245"><ele>141.0</ele><time>2026-04-06T16:21:56.703Z</time></trkpt><trkpt lat="43.22242" lon="2.354175"><ele>141.0</ele><time>2026-04-06T16:21:57.703Z</time></trkpt><trkpt lat="43.2223433" lon="2.3540933"><ele>141.0</ele><time>2026-04-06T16:21:58.7Z</time></trkpt><trkpt lat="43.2222583" lon="2.3540233"><ele>141.0</ele><time>2026-04-06T16:21:59.702Z</time></trkpt><trkpt lat="43.22218" lon="2.3539433"><ele>141.0</ele><time>2026-04-06T16:22:00.706Z</time></trkpt><trkpt lat="43.2221017" lon="2.3538667"><ele>141.0</ele><time>2026-04-06T16:22:01.7Z</time></trkpt><trkpt lat="43.2220233" lon="2.3537983"><ele>140.0</ele><time>2026-04-06T16:22:02.706Z</time></trkpt><trkpt lat="43.2219417" lon="2.3537333"><ele>139.0</ele><time>2026-04-06T16:22:03.705Z</time></trkpt><trkpt lat="43.2218583" lon="2.3536733"><ele>138.0</ele><time>2026-04-06T16:22:04.703Z</time></trkpt><trkpt lat="43.2217783" lon="2.3536033"><ele>137.0</ele><time>2026-04-06T16:22:05.703Z</time></trkpt><trkpt lat="43.2217" lon="2.3535317"><ele>136.0</ele><time>2026-04-06T16:22:06.705Z</time></trkpt><trkpt lat="43.2216183" lon="2.3534583"><ele>136.0</ele><time>2026-04-06T16:22:07.701Z</time></trkpt><trkpt lat="43.2215383" lon="2.35337"><ele>136.0</ele><time>2026-04-06T16:22:08.704Z</time></trkpt><trkpt lat="43.2214583" lon="2.3532783"><ele>136.0</ele><time>2026-04-06T16:22:09.697Z</time></trkpt><trkpt lat="43.2213767" lon="2.35318"><ele>136.0</ele><time>2026-04-06T16:22:10.697Z</time></trkpt><trkpt lat="43.2213" lon="2.353065"><ele>136.0</ele><time>2026-04-06T16:22:11.704Z</time></trkpt><trkpt lat="43.2212333" lon="2.3529417"><ele>134.0</ele><time>2026-04-06T16:22:12.705Z</time></trkpt><trkpt lat="43.2211683" lon="2.3528217"><ele>132.0</ele><time>2026-04-06T16:22:13.705Z</time></trkpt><trkpt lat="43.2211017" lon="2.352705"><ele>130.0</ele><time>2026-04-06T16:22:14.706Z</time></trkpt><trkpt lat="43.2210383" lon="2.3525883"><ele>128.0</ele><time>2026-04-06T16:22:15.702Z</time></trkpt><trkpt lat="43.220975" lon="2.3524717"><ele>126.0</ele><time>2026-04-06T16:22:16.7Z</time></trkpt><trkpt lat="43.2209067" lon="2.3523583"><ele>126.0</ele><time>2026-04-06T16:22:17.705Z</time></trkpt><trkpt lat="43.2208417" lon="2.3522433"><ele>126.0</ele><time>2026-04-06T16:22:18.704Z</time></trkpt><trkpt lat="43.2207767" lon="2.3521267"><ele>126.0</ele><time>2026-04-06T16:22:19.705Z</time></trkpt><trkpt lat="43.22071" lon="2.3520217"><ele>126.0</ele><time>2026-04-06T16:22:20.699Z</time></trkpt><trkpt lat="43.2206333" lon="2.3519217"><ele>126.0</ele><time>2026-04-06T16:22:21.704Z</time></trkpt><trkpt lat="43.22054" lon="2.3518617"><ele>125.0</ele><time>2026-04-06T16:22:22.705Z</time></trkpt><trkpt lat="43.220455" lon="2.35178"><ele>124.0</ele><time>2026-04-06T16:22:23.705Z</time></trkpt><trkpt lat="43.220365" lon="2.35173"><ele>123.0</ele><time>2026-04-06T16:22:24.707Z</time></trkpt><trkpt lat="43.2202667" lon="2.3516933"><ele>122.0</ele><time>2026-04-06T16:22:25.704Z</time></trkpt><trkpt lat="43.2201633" lon="2.351675"><ele>121.0</ele><time>2026-04-06T16:22:26.706Z</time></trkpt><trkpt lat="43.22006" lon="2.3516783"><ele>121.0</ele><time>2026-04-06T16:22:27.705Z</time></trkpt><trkpt lat="43.2199533" lon="2.351685"><ele>121.0</ele><time>2026-04-06T16:22:28.698Z</time></trkpt><trkpt lat="43.2198567" lon="2.3516783"><ele>121.0</ele><time>2026-04-06T16:22:29.703Z</time></trkpt><trkpt lat="43.21976" lon="2.3516717"><ele>121.0</ele><time>2026-04-06T16:22:30.702Z</time></trkpt><trkpt lat="43.219675" lon="2.35166"><ele>121.0</ele><time>2026-04-06T16:22:31.698Z</time></trkpt><trkpt lat="43.2195833" lon="2.351675"><ele>120.00000000000001</ele><time>2026-04-06T16:22:32.701Z</time></trkpt><trkpt lat="43.2195" lon="2.3516583"><ele>119.0</ele><time>2026-04-06T16:22:33.705Z</time></trkpt><trkpt lat="43.2194133" lon="2.351655"><ele>118.0</ele><time>2026-04-06T16:22:34.697Z</time></trkpt><trkpt lat="43.21933" lon="2.3516517"><ele>117.0</ele><time>2026-04-06T16:22:35.705Z</time></trkpt><trkpt lat="43.2192433" lon="2.3516517"><ele>116.00000000000001</ele><time>2026-04-06T16:22:36.704Z</time></trkpt><trkpt lat="43.21917" lon="2.351625"><ele>115.0</ele><time>2026-04-06T16:22:37.702Z</time></trkpt><trkpt lat="43.2190983" lon="2.3516117"><ele>115.00000000000001</ele><time>2026-04-06T16:22:38.705Z</time></trkpt><trkpt lat="43.2190317" lon="2.3516317"><ele>115.0</ele><time>2026-04-06T16:22:39.696Z</time></trkpt><trkpt lat="43.21894" lon="2.3516367"><ele>115.0</ele><time>2026-04-06T16:22:41.703Z</time></trkpt><trkpt lat="43.218875" lon="2.35165"><ele>115.0</ele><time>2026-04-06T16:22:43.701Z</time></trkpt><trkpt lat="43.2187733" lon="2.35165"><ele>115.00000000000001</ele><time>2026-04-06T16:22:55.705Z</time></trkpt><trkpt lat="43.218705" lon="2.35159"><ele>115.0</ele><time>2026-04-06T16:22:57.7Z</time></trkpt><trkpt lat="43.2186067" lon="2.3516467"><ele>114.4</ele><time>2026-04-06T16:22:59.701Z</time></trkpt><trkpt lat="43.218565" lon="2.3517133"><ele>113.8</ele><time>2026-04-06T16:23:00.706Z</time></trkpt><trkpt lat="43.2185533" lon="2.3518583"><ele>113.19999999999999</ele><time>2026-04-06T16:23:01.705Z</time></trkpt><trkpt lat="43.2185483" lon="2.3519833"><ele>112.6</ele><time>2026-04-06T16:23:02.705Z</time></trkpt><trkpt lat="43.21855" lon="2.3521317"><ele>112.0</ele><time>2026-04-06T16:23:03.702Z</time></trkpt><trkpt lat="43.21854" lon="2.3524017"><ele>111.6</ele><time>2026-04-06T16:23:05.705Z</time></trkpt><trkpt lat="43.2185317" lon="2.3525367"><ele>111.19999999999999</ele><time>2026-04-06T16:23:06.703Z</time></trkpt><trkpt lat="43.2185217" lon="2.352675"><ele>110.8</ele><time>2026-04-06T16:23:07.703Z</time></trkpt><trkpt lat="43.2185117" lon="2.3528033"><ele>110.4</ele><time>2026-04-06T16:23:08.708Z</time></trkpt><trkpt lat="43.21851" lon="2.3529233"><ele>110.0</ele><time>2026-04-06T16:23:09.705Z</time></trkpt><trkpt lat="43.2185083" lon="2.35304"><ele>109.6</ele><time>2026-04-06T16:23:10.698Z</time></trkpt><trkpt lat="43.2184983" lon="2.3531467"><ele>109.2</ele><time>2026-04-06T16:23:11.706Z</time></trkpt><trkpt lat="43.218475" lon="2.3532917"><ele>108.80000000000001</ele><time>2026-04-06T16:23:13.705Z</time></trkpt><trkpt lat="43.2184533" lon="2.3534217"><ele>108.4</ele><time>2026-04-06T16:23:15.703Z</time></trkpt><trkpt lat="43.218425" lon="2.3535533"><ele>108.0</ele><time>2026-04-06T16:23:17.703Z</time></trkpt><trkpt lat="43.2183117" lon="2.353525"><ele>108.0</ele><time>2026-04-06T16:23:18.705Z</time></trkpt><trkpt lat="43.2181533" lon="2.353345"><ele>108.0</ele><time>2026-04-06T16:23:19.701Z</time></trkpt><trkpt lat="43.2180467" lon="2.353145"><ele>108.0</ele><time>2026-04-06T16:23:20.705Z</time></trkpt><trkpt lat="43.2179417" lon="2.3529833"><ele>108.25</ele><time>2026-04-06T16:23:21.706Z</time></trkpt><trkpt lat="43.2178683" lon="2.3528367"><ele>108.5</ele><time>2026-04-06T16:23:22.702Z</time></trkpt><trkpt lat="43.2178267" lon="2.35268"><ele>108.75</ele><time>2026-04-06T16:23:23.705Z</time></trkpt><trkpt lat="43.2177917" lon="2.3525367"><ele>109.0</ele><time>2026-04-06T16:23:24.703Z</time></trkpt><trkpt lat="43.2177667" lon="2.352415"><ele>109.00000000000001</ele><time>2026-04-06T16:23:25.705Z</time></trkpt><trkpt lat="43.2177583" lon="2.3522967"><ele>109.0</ele><time>2026-04-06T16:23:26.704Z</time></trkpt><trkpt lat="43.2177433" lon="2.3521983"><ele>109.0</ele><time>2026-04-06T16:23:27.703Z</time></trkpt><trkpt lat="43.2177533" lon="2.35206"><ele>109.0</ele><time>2026-04-06T16:23:28.703Z</time></trkpt><trkpt lat="43.2177383" lon="2.3519567"><ele>109.00000000000001</ele><time>2026-04-06T16:23:30.704Z</time></trkpt><trkpt lat="43.21773" lon="2.35187"><ele>109.0</ele><time>2026-04-06T16:23:32.704Z</time></trkpt><trkpt lat="43.2176367" lon="2.3518117"><ele>108.83333333333334</ele><time>2026-04-06T16:23:35.703Z</time></trkpt><trkpt lat="43.217535" lon="2.35182"><ele>108.66666666666667</ele><time>2026-04-06T16:23:37.704Z</time></trkpt><trkpt lat="43.2174267" lon="2.35181"><ele>108.5</ele><time>2026-04-06T16:23:39.704Z</time></trkpt><trkpt lat="43.2173567" lon="2.3517833"><ele>108.33333333333334</ele><time>2026-04-06T16:23:41.701Z</time></trkpt><trkpt lat="43.2172833" lon="2.35181"><ele>108.16666666666667</ele><time>2026-04-06T16:23:43.703Z</time></trkpt><trkpt lat="43.2172317" lon="2.351865"><ele>108.0</ele><time>2026-04-06T16:23:45.704Z</time></trkpt><trkpt lat="43.2172117" lon="2.352015"><ele>108.16666666666667</ele><time>2026-04-06T16:23:47.703Z</time></trkpt><trkpt lat="43.2172083" lon="2.352115"><ele>108.33333333333334</ele><time>2026-04-06T16:23:48.705Z</time></trkpt><trkpt lat="43.21723" lon="2.3522883"><ele>108.5</ele><time>2026-04-06T16:23:50.698Z</time></trkpt><trkpt lat="43.217245" lon="2.3523883"><ele>108.66666666666667</ele><time>2026-04-06T16:23:51.707Z</time></trkpt><trkpt lat="43.2172783" lon="2.352495"><ele>108.83333333333334</ele><time>2026-04-06T16:23:52.7Z</time></trkpt><trkpt lat="43.2173067" lon="2.3525883"><ele>109.0</ele><time>2026-04-06T16:23:53.705Z</time></trkpt><trkpt lat="43.2173667" lon="2.3526983"><ele>109.0</ele><time>2026-04-06T16:23:54.705Z</time></trkpt><trkpt lat="43.2174267" lon="2.352805"><ele>109.0</ele><time>2026-04-06T16:23:55.702Z</time></trkpt><trkpt lat="43.2174733" lon="2.3529133"><ele>109.0</ele><time>2026-04-06T16:23:56.702Z</time></trkpt><trkpt lat="43.2175133" lon="2.3530167"><ele>109.0</ele><time>2026-04-06T16:23:57.704Z</time></trkpt><trkpt lat="43.217575" lon="2.353105"><ele>109.0</ele><time>2026-04-06T16:23:58.702Z</time></trkpt><trkpt lat="43.21763" lon="2.35323"><ele>109.00000000000001</ele><time>2026-04-06T16:24:00.697Z</time></trkpt><trkpt lat="43.2176517" lon="2.35332"><ele>109.0</ele><time>2026-04-06T16:24:02.705Z</time></trkpt><trkpt lat="43.2176117" lon="2.3534233"><ele>109.0</ele><time>2026-04-06T16:24:05.706Z</time></trkpt><trkpt lat="43.2174917" lon="2.353435"><ele>109.0</ele><time>2026-04-06T16:24:07.707Z</time></trkpt><trkpt lat="43.21742" lon="2.3534383"><ele>109.00000000000001</ele><time>2026-04-06T16:24:08.704Z</time></trkpt><trkpt lat="43.217345" lon="2.3534367"><ele>109.0</ele><time>2026-04-06T16:24:09.702Z</time></trkpt><trkpt lat="43.2172683" lon="2.3534433"><ele>109.00000000000001</ele><time>2026-04-06T16:24:10.704Z</time></trkpt><trkpt lat="43.21719" lon="2.35345"><ele>109.0</ele><time>2026-04-06T16:24:11.701Z</time></trkpt><trkpt lat="43.2171117" lon="2.35346"><ele>109.0</ele><time>2026-04-06T16:24:12.699Z</time></trkpt><trkpt lat="43.2170367" lon="2.3534733"><ele>109.0</ele><time>2026-04-06T16:24:13.705Z</time></trkpt><trkpt lat="43.216955" lon="2.3535067"><ele>109.00000000000001</ele><time>2026-04-06T16:24:14.704Z</time></trkpt><trkpt lat="43.2168667" lon="2.35354"><ele>109.0</ele><time>2026-04-06T16:24:15.705Z</time></trkpt><trkpt lat="43.216785" lon="2.3535733"><ele>109.00000000000001</ele><time>2026-04-06T16:24:16.705Z</time></trkpt><trkpt lat="43.2167133" lon="2.3536033"><ele>109.0</ele><time>2026-04-06T16:24:17.701Z</time></trkpt><trkpt lat="43.2166483" lon="2.3536383"><ele>109.0</ele><time>2026-04-06T16:24:18.703Z</time></trkpt><trkpt lat="43.216555" lon="2.35369"><ele>109.0</ele><time>2026-04-06T16:24:20.705Z</time></trkpt><trkpt lat="43.2164933" lon="2.3537233"><ele>109.00000000000001</ele><time>2026-04-06T16:24:23.701Z</time></trkpt><trkpt lat="43.2164167" lon="2.3537617"><ele>109.0</ele><time>2026-04-06T16:24:44.702Z</time></trkpt><trkpt lat="43.2163617" lon="2.3537067"><ele>108.80000000000001</ele><time>2026-04-06T16:24:46.701Z</time></trkpt><trkpt lat="43.2163267" lon="2.3536033"><ele>108.60000000000001</ele><time>2026-04-06T16:24:48.701Z</time></trkpt><trkpt lat="43.2163567" lon="2.3534917"><ele>108.4</ele><time>2026-04-06T16:24:49.701Z</time></trkpt><trkpt lat="43.216365" lon="2.3533367"><ele>108.2</ele><time>2026-04-06T16:24:50.701Z</time></trkpt><trkpt lat="43.216365" lon="2.35319"><ele>108.0</ele><time>2026-04-06T16:24:51.698Z</time></trkpt><trkpt lat="43.216405" lon="2.3530333"><ele>108.4</ele><time>2026-04-06T16:24:52.7Z</time></trkpt><trkpt lat="43.216425" lon="2.35287"><ele>108.80000000000001</ele><time>2026-04-06T16:24:53.702Z</time></trkpt><trkpt lat="43.2164367" lon="2.3527317"><ele>109.2</ele><time>2026-04-06T16:24:54.702Z</time></trkpt><trkpt lat="43.2164383" lon="2.3525767"><ele>109.6</ele><time>2026-04-06T16:24:55.703Z</time></trkpt><trkpt lat="43.2164317" lon="2.352435"><ele>110.0</ele><time>2026-04-06T16:24:56.702Z</time></trkpt><trkpt lat="43.2164333" lon="2.3523"><ele>110.33333333333333</ele><time>2026-04-06T16:24:57.701Z</time></trkpt><trkpt lat="43.216435" lon="2.3521667"><ele>110.66666666666666</ele><time>2026-04-06T16:24:58.703Z</time></trkpt><trkpt lat="43.2164383" lon="2.3520517"><ele>111.0</ele><time>2026-04-06T16:24:59.705Z</time></trkpt><trkpt lat="43.2164467" lon="2.3519383"><ele>111.33333333333334</ele><time>2026-04-06T16:25:00.704Z</time></trkpt><trkpt lat="43.216445" lon="2.3518133"><ele>111.66666666666667</ele><time>2026-04-06T16:25:01.703Z</time></trkpt><trkpt lat="43.2164517" lon="2.35169"><ele>112.0</ele><time>2026-04-06T16:25:02.705Z</time></trkpt><trkpt lat="43.2164617" lon="2.3515533"><ele>112.0</ele><time>2026-04-06T16:25:03.705Z</time></trkpt><trkpt lat="43.216455" lon="2.351395"><ele>111.99999999999999</ele><time>2026-04-06T16:25:04.702Z</time></trkpt><trkpt lat="43.2164533" lon="2.3512433"><ele>111.99999999999999</ele><time>2026-04-06T16:25:05.701Z</time></trkpt><trkpt lat="43.2164533" lon="2.3511017"><ele>112.0</ele><time>2026-04-06T16:25:06.702Z</time></trkpt><trkpt lat="43.2164433" lon="2.3509667"><ele>112.0</ele><time>2026-04-06T16:25:07.705Z</time></trkpt><trkpt lat="43.2164417" lon="2.3508433"><ele>112.16666666666667</ele><time>2026-04-06T16:25:08.7Z</time></trkpt><trkpt lat="43.2164533" lon="2.350725"><ele>112.33333333333334</ele><time>2026-04-06T16:25:09.706Z</time></trkpt><trkpt lat="43.2164583" lon="2.3505983"><ele>112.5</ele><time>2026-04-06T16:25:10.703Z</time></trkpt><trkpt lat="43.21647" lon="2.35047"><ele>112.66666666666666</ele><time>2026-04-06T16:25:11.699Z</time></trkpt><trkpt lat="43.216475" lon="2.3503517"><ele>112.83333333333333</ele><time>2026-04-06T16:25:12.706Z</time></trkpt><trkpt lat="43.216485" lon="2.3502417"><ele>113.0</ele><time>2026-04-06T16:25:13.706Z</time></trkpt><trkpt lat="43.2164817" lon="2.35014"><ele>113.16666666666666</ele><time>2026-04-06T16:25:14.702Z</time></trkpt><trkpt lat="43.21648" lon="2.35004"><ele>113.33333333333333</ele><time>2026-04-06T16:25:15.706Z</time></trkpt><trkpt lat="43.2164783" lon="2.349935"><ele>113.5</ele><time>2026-04-06T16:25:16.701Z</time></trkpt><trkpt lat="43.2164767" lon="2.3498217"><ele>113.66666666666666</ele><time>2026-04-06T16:25:17.704Z</time></trkpt><trkpt lat="43.2164783" lon="2.349705"><ele>113.83333333333333</ele><time>2026-04-06T16:25:18.706Z</time></trkpt><trkpt lat="43.2164767" lon="2.3495733"><ele>114.0</ele><time>2026-04-06T16:25:19.706Z</time></trkpt><trkpt lat="43.2164783" lon="2.3493667"><ele>114.0</ele><time>2026-04-06T16:25:20.702Z</time></trkpt><trkpt lat="43.2164917" lon="2.3491233"><ele>114.0</ele><time>2026-04-06T16:25:21.705Z</time></trkpt><trkpt lat="43.2165033" lon="2.3489117"><ele>114.0</ele><time>2026-04-06T16:25:22.701Z</time></trkpt><trkpt lat="43.2165183" lon="2.3486983"><ele>113.75</ele><time>2026-04-06T16:25:23.705Z</time></trkpt><trkpt lat="43.216555" lon="2.348505"><ele>113.5</ele><time>2026-04-06T16:25:24.703Z</time></trkpt><trkpt lat="43.2166067" lon="2.3483233"><ele>113.25</ele><time>2026-04-06T16:25:25.704Z</time></trkpt><trkpt lat="43.2166633" lon="2.3481517"><ele>113.0</ele><time>2026-04-06T16:25:26.703Z</time></trkpt><trkpt lat="43.21671" lon="2.3480117"><ele>113.80000000000001</ele><time>2026-04-06T16:25:27.705Z</time></trkpt><trkpt lat="43.2167533" lon="2.3478783"><ele>114.60000000000001</ele><time>2026-04-06T16:25:28.701Z</time></trkpt><trkpt lat="43.216795" lon="2.3477517"><ele>115.39999999999999</ele><time>2026-04-06T16:25:29.708Z</time></trkpt><trkpt lat="43.2168383" lon="2.347625"><ele>116.19999999999999</ele><time>2026-04-06T16:25:30.705Z</time></trkpt><trkpt lat="43.2168833" lon="2.3475033"><ele>117.0</ele><time>2026-04-06T16:25:31.701Z</time></trkpt><trkpt lat="43.2169317" lon="2.34738"><ele>117.0</ele><time>2026-04-06T16:25:32.696Z</time></trkpt><trkpt lat="43.2169867" lon="2.347275"><ele>117.0</ele><time>2026-04-06T16:25:33.704Z</time></trkpt><trkpt lat="43.217025" lon="2.34716"><ele>117.0</ele><time>2026-04-06T16:25:34.704Z</time></trkpt><trkpt lat="43.2170667" lon="2.347055"><ele>117.0</ele><time>2026-04-06T16:25:35.702Z</time></trkpt><trkpt lat="43.2171033" lon="2.3469483"><ele>117.0</ele><time>2026-04-06T16:25:36.707Z</time></trkpt><trkpt lat="43.21714" lon="2.3468383"><ele>117.0</ele><time>2026-04-06T16:25:37.706Z</time></trkpt><trkpt lat="43.2171867" lon="2.346725"><ele>117.39999999999999</ele><time>2026-04-06T16:25:38.703Z</time></trkpt><trkpt lat="43.21723" lon="2.3465983"><ele>117.79999999999998</ele><time>2026-04-06T16:25:39.705Z</time></trkpt><trkpt lat="43.21727" lon="2.3464683"><ele>118.2</ele><time>2026-04-06T16:25:40.702Z</time></trkpt><trkpt lat="43.2173117" lon="2.3463483"><ele>118.6</ele><time>2026-04-06T16:25:41.702Z</time></trkpt><trkpt lat="43.2173533" lon="2.346225"><ele>119.0</ele><time>2026-04-06T16:25:42.705Z</time></trkpt><trkpt lat="43.2174" lon="2.3461167"><ele>118.99999999999999</ele><time>2026-04-06T16:25:43.705Z</time></trkpt><trkpt lat="43.2174367" lon="2.346015"><ele>119.0</ele><time>2026-04-06T16:25:44.704Z</time></trkpt><trkpt lat="43.2174717" lon="2.3459067"><ele>119.0</ele><time>2026-04-06T16:25:45.703Z</time></trkpt><trkpt lat="43.21751" lon="2.3458017"><ele>119.0</ele><time>2026-04-06T16:25:46.705Z</time></trkpt><trkpt lat="43.217555" lon="2.3457"><ele>118.99999999999999</ele><time>2026-04-06T16:25:47.704Z</time></trkpt><trkpt lat="43.2175967" lon="2.3456017"><ele>119.0</ele><time>2026-04-06T16:25:48.705Z</time></trkpt><trkpt lat="43.21763" lon="2.34551"><ele>119.2</ele><time>2026-04-06T16:25:49.704Z</time></trkpt><trkpt lat="43.2176533" lon="2.3454233"><ele>119.4</ele><time>2026-04-06T16:25:50.701Z</time></trkpt><trkpt lat="43.2176683" lon="2.345255"><ele>119.6</ele><time>2026-04-06T16:25:52.703Z</time></trkpt><trkpt lat="43.217565" lon="2.3451633"><ele>119.8</ele><time>2026-04-06T16:25:54.702Z</time></trkpt><trkpt lat="43.2174867" lon="2.3451483"><ele>120.0</ele><time>2026-04-06T16:25:55.7Z</time></trkpt><trkpt lat="43.2174117" lon="2.3451333"><ele>120.0</ele><time>2026-04-06T16:25:56.703Z</time></trkpt><trkpt lat="43.2173383" lon="2.34512"><ele>120.0</ele><time>2026-04-06T16:25:57.702Z</time></trkpt><trkpt lat="43.2172517" lon="2.3451167"><ele>120.0</ele><time>2026-04-06T16:25:58.703Z</time></trkpt><trkpt lat="43.2171583" lon="2.3451133"><ele>120.0</ele><time>2026-04-06T16:25:59.705Z</time></trkpt><trkpt lat="43.21705" lon="2.345115"><ele>120.0</ele><time>2026-04-06T16:26:00.707Z</time></trkpt><trkpt lat="43.21692" lon="2.3451167"><ele>120.5</ele><time>2026-04-06T16:26:01.702Z</time></trkpt><trkpt lat="43.2167867" lon="2.345105"><ele>121.0</ele><time>2026-04-06T16:26:02.705Z</time></trkpt><trkpt lat="43.2166367" lon="2.3451067"><ele>121.5</ele><time>2026-04-06T16:26:03.704Z</time></trkpt><trkpt lat="43.21648" lon="2.3451117"><ele>122.0</ele><time>2026-04-06T16:26:04.702Z</time></trkpt><trkpt lat="43.21632" lon="2.3451183"><ele>122.0</ele><time>2026-04-06T16:26:05.704Z</time></trkpt><trkpt lat="43.216175" lon="2.3451117"><ele>122.0</ele><time>2026-04-06T16:26:06.699Z</time></trkpt><trkpt lat="43.2160433" lon="2.345105"><ele>122.0</ele><time>2026-04-06T16:26:07.706Z</time></trkpt><trkpt lat="43.2159133" lon="2.3451083"><ele>122.0</ele><time>2026-04-06T16:26:08.704Z</time></trkpt><trkpt lat="43.2157883" lon="2.3451067"><ele>122.0</ele><time>2026-04-06T16:26:09.704Z</time></trkpt><trkpt lat="43.2156667" lon="2.3451117"><ele>122.0</ele><time>2026-04-06T16:26:10.704Z</time></trkpt><trkpt lat="43.2155483" lon="2.34512"><ele>122.0</ele><time>2026-04-06T16:26:11.699Z</time></trkpt><trkpt lat="43.2154267" lon="2.3451267"><ele>122.0</ele><time>2026-04-06T16:26:12.703Z</time></trkpt><trkpt lat="43.2153167" lon="2.345125"><ele>121.83333333333333</ele><time>2026-04-06T16:26:13.703Z</time></trkpt><trkpt lat="43.2152183" lon="2.34512"><ele>121.66666666666666</ele><time>2026-04-06T16:26:14.705Z</time></trkpt><trkpt lat="43.21512" lon="2.3451067"><ele>121.5</ele><time>2026-04-06T16:26:15.706Z</time></trkpt><trkpt lat="43.2150267" lon="2.3451033"><ele>121.33333333333334</ele><time>2026-04-06T16:26:16.701Z</time></trkpt><trkpt lat="43.214945" lon="2.3451083"><ele>121.16666666666667</ele><time>2026-04-06T16:26:17.703Z</time></trkpt><trkpt lat="43.21487" lon="2.3451083"><ele>121.0</ele><time>2026-04-06T16:26:18.704Z</time></trkpt><trkpt lat="43.2148067" lon="2.3451083"><ele>120.8</ele><time>2026-04-06T16:26:19.705Z</time></trkpt><trkpt lat="43.21473" lon="2.3451133"><ele>120.6</ele><time>2026-04-06T16:26:21.701Z</time></trkpt><trkpt lat="43.2146467" lon="2.3451567"><ele>120.4</ele><time>2026-04-06T16:26:26.703Z</time></trkpt><trkpt lat="43.2145283" lon="2.3451433"><ele>120.2</ele><time>2026-04-06T16:26:28.702Z</time></trkpt><trkpt lat="43.2144467" lon="2.3451333"><ele>120.0</ele><time>2026-04-06T16:26:29.701Z</time></trkpt><trkpt lat="43.2143333" lon="2.3451217"><ele>120.0</ele><time>2026-04-06T16:26:30.706Z</time></trkpt><trkpt lat="43.2141433" lon="2.3451017"><ele>120.0</ele><time>2026-04-06T16:26:31.703Z</time></trkpt><trkpt lat="43.2139767" lon="2.3450817"><ele>120.0</ele><time>2026-04-06T16:26:32.702Z</time></trkpt><trkpt lat="43.2138217" lon="2.3450633"><ele>121.0</ele><time>2026-04-06T16:26:33.702Z</time></trkpt><trkpt lat="43.213665" lon="2.3450417"><ele>122.0</ele><time>2026-04-06T16:26:34.704Z</time></trkpt><trkpt lat="43.2135017" lon="2.3450333"><ele>123.0</ele><time>2026-04-06T16:26:35.697Z</time></trkpt><trkpt lat="43.2133417" lon="2.345025"><ele>123.0</ele><time>2026-04-06T16:26:36.707Z</time></trkpt><trkpt lat="43.2131867" lon="2.3450217"><ele>123.0</ele><time>2026-04-06T16:26:37.702Z</time></trkpt><trkpt lat="43.213045" lon="2.3450083"><ele>123.0</ele><time>2026-04-06T16:26:38.705Z</time></trkpt><trkpt lat="43.212915" lon="2.3449967"><ele>123.0</ele><time>2026-04-06T16:26:39.703Z</time></trkpt><trkpt lat="43.21279" lon="2.3450017"><ele>123.0</ele><time>2026-04-06T16:26:40.706Z</time></trkpt><trkpt lat="43.2126967" lon="2.345"><ele>123.00000000000001</ele><time>2026-04-06T16:26:41.704Z</time></trkpt><trkpt lat="43.212625" lon="2.3450033"><ele>123.00000000000001</ele><time>2026-04-06T16:26:42.701Z</time></trkpt><trkpt lat="43.2125617" lon="2.3450017"><ele>123.0</ele><time>2026-04-06T16:26:44.703Z</time></trkpt><trkpt lat="43.2125133" lon="2.34483"><ele>123.0</ele><time>2026-04-06T16:27:20.704Z</time></trkpt><trkpt lat="43.2124683" lon="2.3447083"><ele>123.25</ele><time>2026-04-06T16:27:21.701Z</time></trkpt><trkpt lat="43.2124267" lon="2.3445633"><ele>123.5</ele><time>2026-04-06T16:27:22.697Z</time></trkpt><trkpt lat="43.2123783" lon="2.344415"><ele>123.75</ele><time>2026-04-06T16:27:23.701Z</time></trkpt><trkpt lat="43.2123567" lon="2.3442583"><ele>124.0</ele><time>2026-04-06T16:27:24.701Z</time></trkpt><trkpt lat="43.212325" lon="2.344095"><ele>124.0</ele><time>2026-04-06T16:27:25.705Z</time></trkpt><trkpt lat="43.2122917" lon="2.343955"><ele>124.0</ele><time>2026-04-06T16:27:26.705Z</time></trkpt><trkpt lat="43.212255" lon="2.343805"><ele>124.0</ele><time>2026-04-06T16:27:27.705Z</time></trkpt><trkpt lat="43.2122217" lon="2.3436667"><ele>124.0</ele><time>2026-04-06T16:27:28.706Z</time></trkpt><trkpt lat="43.2121683" lon="2.3435233"><ele>124.0</ele><time>2026-04-06T16:27:29.706Z</time></trkpt><trkpt lat="43.2121117" lon="2.343385"><ele>123.75</ele><time>2026-04-06T16:27:30.704Z</time></trkpt><trkpt lat="43.2120367" lon="2.343235"><ele>123.5</ele><time>2026-04-06T16:27:31.705Z</time></trkpt><trkpt lat="43.2119633" lon="2.3431083"><ele>123.25</ele><time>2026-04-06T16:27:32.705Z</time></trkpt><trkpt lat="43.2118917" lon="2.3429833"><ele>123.0</ele><time>2026-04-06T16:27:33.706Z</time></trkpt><trkpt lat="43.2118217" lon="2.34288"><ele>122.66666666666667</ele><time>2026-04-06T16:27:34.706Z</time></trkpt><trkpt lat="43.21177" lon="2.3427817"><ele>122.33333333333334</ele><time>2026-04-06T16:27:35.7Z</time></trkpt><trkpt lat="43.2117367" lon="2.3426733"><ele>122.0</ele><time>2026-04-06T16:27:36.706Z</time></trkpt><trkpt lat="43.21172" lon="2.34256"><ele>121.66666666666667</ele><time>2026-04-06T16:27:37.707Z</time></trkpt><trkpt lat="43.2117233" lon="2.34245"><ele>121.33333333333334</ele><time>2026-04-06T16:27:38.707Z</time></trkpt><trkpt lat="43.2117383" lon="2.3423467"><ele>121.0</ele><time>2026-04-06T16:27:39.704Z</time></trkpt><trkpt lat="43.2117583" lon="2.34224"><ele>120.83333333333334</ele><time>2026-04-06T16:27:40.7Z</time></trkpt><trkpt lat="43.2117667" lon="2.342135"><ele>120.66666666666667</ele><time>2026-04-06T16:27:41.707Z</time></trkpt><trkpt lat="43.21178" lon="2.3420333"><ele>120.5</ele><time>2026-04-06T16:27:42.707Z</time></trkpt><trkpt lat="43.21179" lon="2.3419383"><ele>120.33333333333334</ele><time>2026-04-06T16:27:43.705Z</time></trkpt><trkpt lat="43.2118017" lon="2.3418333"><ele>120.16666666666667</ele><time>2026-04-06T16:27:44.707Z</time></trkpt><trkpt lat="43.21182" lon="2.3417233"><ele>120.0</ele><time>2026-04-06T16:27:45.705Z</time></trkpt><trkpt lat="43.21183" lon="2.3415967"><ele>120.0</ele><time>2026-04-06T16:27:46.706Z</time></trkpt><trkpt lat="43.211835" lon="2.3414783"><ele>120.0</ele><time>2026-04-06T16:27:47.705Z</time></trkpt><trkpt lat="43.2118267" lon="2.3413617"><ele>120.0</ele><time>2026-04-06T16:27:48.703Z</time></trkpt><trkpt lat="43.21182" lon="2.3412583"><ele>120.0</ele><time>2026-04-06T16:27:49.704Z</time></trkpt><trkpt lat="43.21183" lon="2.3411683"><ele>120.0</ele><time>2026-04-06T16:27:50.707Z</time></trkpt><trkpt lat="43.2118333" lon="2.3410733"><ele>120.0</ele><time>2026-04-06T16:27:51.703Z</time></trkpt><trkpt lat="43.211855" lon="2.3409633"><ele>119.2</ele><time>2026-04-06T16:27:54.702Z</time></trkpt><trkpt lat="43.2119383" lon="2.34095"><ele>118.4</ele><time>2026-04-06T16:27:59.703Z</time></trkpt><trkpt lat="43.2120683" lon="2.340985"><ele>117.6</ele><time>2026-04-06T16:28:01.705Z</time></trkpt><trkpt lat="43.2121383" lon="2.3410033"><ele>116.8</ele><time>2026-04-06T16:28:02.706Z</time></trkpt><trkpt lat="43.2122117" lon="2.3410133"><ele>116.0</ele><time>2026-04-06T16:28:03.707Z</time></trkpt><trkpt lat="43.2123217" lon="2.3410467"><ele>115.33333333333333</ele><time>2026-04-06T16:28:05.703Z</time></trkpt><trkpt lat="43.2123917" lon="2.3410517"><ele>114.66666666666666</ele><time>2026-04-06T16:28:06.706Z</time></trkpt><trkpt lat="43.2124867" lon="2.341085"><ele>114.0</ele><time>2026-04-06T16:28:08.702Z</time></trkpt><trkpt lat="43.21255" lon="2.34109"><ele>113.33333333333334</ele><time>2026-04-06T16:28:09.706Z</time></trkpt><trkpt lat="43.21262" lon="2.3411017"><ele>112.66666666666667</ele><time>2026-04-06T16:28:10.704Z</time></trkpt><trkpt lat="43.212695" lon="2.34112"><ele>112.0</ele><time>2026-04-06T16:28:11.705Z</time></trkpt><trkpt lat="43.2127767" lon="2.3411217"><ele>112.00000000000001</ele><time>2026-04-06T16:28:12.704Z</time></trkpt><trkpt lat="43.21286" lon="2.3411267"><ele>112.0</ele><time>2026-04-06T16:28:13.705Z</time></trkpt><trkpt lat="43.2129367" lon="2.34114"><ele>112.0</ele><time>2026-04-06T16:28:14.705Z</time></trkpt><trkpt lat="43.213" lon="2.34115"><ele>112.0</ele><time>2026-04-06T16:28:15.701Z</time></trkpt><trkpt lat="43.213105" lon="2.3411817"><ele>112.00000000000001</ele><time>2026-04-06T16:28:17.702Z</time></trkpt><trkpt lat="43.2131817" lon="2.341185"><ele>112.0</ele><time>2026-04-06T16:28:23.698Z</time></trkpt><trkpt lat="43.2132517" lon="2.3411717"><ele>111.0</ele><time>2026-04-06T16:28:25.7Z</time></trkpt><trkpt lat="43.2133767" lon="2.341195"><ele>111.0</ele><time>2026-04-06T16:28:27.702Z</time></trkpt><trkpt lat="43.2134833" lon="2.3412267"><ele>111.0</ele><time>2026-04-06T16:28:29.703Z</time></trkpt><trkpt lat="43.2135633" lon="2.3412583"><ele>111.0</ele><time>2026-04-06T16:28:31.7Z</time></trkpt><trkpt lat="43.2136433" lon="2.3412783"><ele>111.0</ele><time>2026-04-06T16:28:34.703Z</time></trkpt></trkseg></trk></gpx>